<?xml version='1.0' encoding='UTF-8'?><gpx version="1.1" creator="JPX - https://github.com/jenetics/jpx" xmlns="http://www.topografix.com/GPX/1/1"><trk><trkseg><trkpt lat="45.0600183" lon="8.5067733"><ele>115.00000000000001</ele><time>2026-04-04T13:16:28.027Z</time></trkpt><trkpt lat="45.0600267" lon="8.5066633"><ele>115.0</ele><time>2026-04-04T13:16:31.029Z</time></trkpt><trkpt lat="45.06005" lon="8.5065617"><ele>115.0</ele><time>2026-04-04T13:16:33.028Z</time></trkpt><trkpt lat="45.0601017" lon="8.5064067"><ele>115.0</ele><time>2026-04-04T13:16:35.028Z</time></trkpt><trkpt lat="45.0601333" lon="8.5063167"><ele>115.00000000000001</ele><time>2026-04-04T13:16:36.027Z</time></trkpt><trkpt lat="45.0601717" lon="8.506185"><ele>115.0</ele><time>2026-04-04T13:16:37.029Z</time></trkpt><trkpt lat="45.0602133" lon="8.5060483"><ele>115.0</ele><time>2026-04-04T13:16:38.029Z</time></trkpt><trkpt lat="45.0602683" lon="8.505865"><ele>115.0</ele><time>2026-04-04T13:16:39.028Z</time></trkpt><trkpt lat="45.0603283" lon="8.5056783"><ele>115.0</ele><time>2026-04-04T13:16:40.028Z</time></trkpt><trkpt lat="45.0603933" lon="8.505505"><ele>115.0</ele><time>2026-04-04T13:16:41.028Z</time></trkpt><trkpt lat="45.0604483" lon="8.50534"><ele>115.0</ele><time>2026-04-04T13:16:42.028Z</time></trkpt><trkpt lat="45.0604967" lon="8.5051717"><ele>115.0</ele><time>2026-04-04T13:16:43.027Z</time></trkpt><trkpt lat="45.0605467" lon="8.5050233"><ele>115.0</ele><time>2026-04-04T13:16:44.028Z</time></trkpt><trkpt lat="45.0605967" lon="8.5048833"><ele>115.0</ele><time>2026-04-04T13:16:45.027Z</time></trkpt><trkpt lat="45.06064" lon="8.504755"><ele>115.00000000000001</ele><time>2026-04-04T13:16:46.027Z</time></trkpt><trkpt lat="45.0607017" lon="8.5046217"><ele>115.0</ele><time>2026-04-04T13:16:47.027Z</time></trkpt><trkpt lat="45.0607633" lon="8.504515"><ele>115.0</ele><time>2026-04-04T13:16:48.028Z</time></trkpt><trkpt lat="45.0608183" lon="8.5044433"><ele>115.0</ele><time>2026-04-04T13:16:49.028Z</time></trkpt><trkpt lat="45.0608783" lon="8.5043933"><ele>115.00000000000001</ele><time>2026-04-04T13:16:50.028Z</time></trkpt><trkpt lat="45.06094" lon="8.5043617"><ele>115.0</ele><time>2026-04-04T13:16:51.029Z</time></trkpt><trkpt lat="45.061015" lon="8.5043683"><ele>114.8</ele><time>2026-04-04T13:16:52.028Z</time></trkpt><trkpt lat="45.061095" lon="8.5044083"><ele>114.6</ele><time>2026-04-04T13:16:53.029Z</time></trkpt><trkpt lat="45.0611983" lon="8.5044883"><ele>114.4</ele><time>2026-04-04T13:16:54.027Z</time></trkpt><trkpt lat="45.061305" lon="8.5045717"><ele>114.2</ele><time>2026-04-04T13:16:55.027Z</time></trkpt><trkpt lat="45.0614133" lon="8.504645"><ele>114.0</ele><time>2026-04-04T13:16:56.028Z</time></trkpt><trkpt lat="45.0615267" lon="8.5047283"><ele>114.0</ele><time>2026-04-04T13:16:57.027Z</time></trkpt><trkpt lat="45.06164" lon="8.50481"><ele>114.0</ele><time>2026-04-04T13:16:58.027Z</time></trkpt><trkpt lat="45.061765" lon="8.5048933"><ele>114.0</ele><time>2026-04-04T13:16:59.027Z</time></trkpt><trkpt lat="45.06188" lon="8.50497"><ele>114.0</ele><time>2026-04-04T13:17:00.027Z</time></trkpt><trkpt lat="45.0619817" lon="8.5050233"><ele>114.0</ele><time>2026-04-04T13:17:01.03Z</time></trkpt><trkpt lat="45.0620733" lon="8.50507"><ele>114.0</ele><time>2026-04-04T13:17:02.027Z</time></trkpt><trkpt lat="45.0621617" lon="8.5051167"><ele>114.0</ele><time>2026-04-04T13:17:03.028Z</time></trkpt><trkpt lat="45.06224" lon="8.505165"><ele>114.0</ele><time>2026-04-04T13:17:04.028Z</time></trkpt><trkpt lat="45.062325" lon="8.5051967"><ele>114.0</ele><time>2026-04-04T13:17:05.027Z</time></trkpt><trkpt lat="45.0623967" lon="8.505215"><ele>114.0</ele><time>2026-04-04T13:17:06.029Z</time></trkpt><trkpt lat="45.0625067" lon="8.5052"><ele>114.0</ele><time>2026-04-04T13:17:08.029Z</time></trkpt><trkpt lat="45.06255" lon="8.5050833"><ele>114.0</ele><time>2026-04-04T13:17:10.027Z</time></trkpt><trkpt lat="45.0624817" lon="8.504985"><ele>114.0</ele><time>2026-04-04T13:17:12.028Z</time></trkpt><trkpt lat="45.0623633" lon="8.5049933"><ele>114.0</ele><time>2026-04-04T13:17:13.027Z</time></trkpt><trkpt lat="45.0622467" lon="8.5049883"><ele>114.0</ele><time>2026-04-04T13:17:14.029Z</time></trkpt><trkpt lat="45.062105" lon="8.5049917"><ele>114.0</ele><time>2026-04-04T13:17:15.028Z</time></trkpt><trkpt lat="45.0619883" lon="8.5049683"><ele>114.0</ele><time>2026-04-04T13:17:16.028Z</time></trkpt><trkpt lat="45.06186" lon="8.5049333"><ele>114.0</ele><time>2026-04-04T13:17:17.028Z</time></trkpt><trkpt lat="45.06175" lon="8.50488"><ele>114.0</ele><time>2026-04-04T13:17:18.028Z</time></trkpt><trkpt lat="45.061645" lon="8.50481"><ele>114.0</ele><time>2026-04-04T13:17:19.029Z</time></trkpt><trkpt lat="45.0615433" lon="8.5047333"><ele>114.0</ele><time>2026-04-04T13:17:20.029Z</time></trkpt><trkpt lat="45.0614283" lon="8.50466"><ele>114.0</ele><time>2026-04-04T13:17:21.028Z</time></trkpt><trkpt lat="45.06132" lon="8.5045817"><ele>114.0</ele><time>2026-04-04T13:17:22.03Z</time></trkpt><trkpt lat="45.0612117" lon="8.504515"><ele>114.0</ele><time>2026-04-04T13:17:23.028Z</time></trkpt><trkpt lat="45.0611083" lon="8.5044483"><ele>114.0</ele><time>2026-04-04T13:17:24.027Z</time></trkpt><trkpt lat="45.0610067" lon="8.5043967"><ele>114.0</ele><time>2026-04-04T13:17:25.027Z</time></trkpt><trkpt lat="45.0609067" lon="8.5043533"><ele>114.0</ele><time>2026-04-04T13:17:26.027Z</time></trkpt><trkpt lat="45.0608133" lon="8.5043117"><ele>114.0</ele><time>2026-04-04T13:17:27.028Z</time></trkpt><trkpt lat="45.0607267" lon="8.50425"><ele>114.0</ele><time>2026-04-04T13:17:28.027Z</time></trkpt><trkpt lat="45.0606367" lon="8.50418"><ele>114.0</ele><time>2026-04-04T13:17:29.028Z</time></trkpt><trkpt lat="45.0605417" lon="8.50411"><ele>114.0</ele><time>2026-04-04T13:17:30.028Z</time></trkpt><trkpt lat="45.0604417" lon="8.504035"><ele>114.0</ele><time>2026-04-04T13:17:31.028Z</time></trkpt><trkpt lat="45.0603417" lon="8.5039517"><ele>114.0</ele><time>2026-04-04T13:17:32.027Z</time></trkpt><trkpt lat="45.0602367" lon="8.5038667"><ele>114.0</ele><time>2026-04-04T13:17:33.03Z</time></trkpt><trkpt lat="45.0601283" lon="8.5037883"><ele>114.0</ele><time>2026-04-04T13:17:34.027Z</time></trkpt><trkpt lat="45.0600133" lon="8.5037083"><ele>114.0</ele><time>2026-04-04T13:17:35.027Z</time></trkpt><trkpt lat="45.0598967" lon="8.503625"><ele>114.0</ele><time>2026-04-04T13:17:36.028Z</time></trkpt><trkpt lat="45.0597833" lon="8.503545"><ele>114.0</ele><time>2026-04-04T13:17:37.027Z</time></trkpt><trkpt lat="45.0596667" lon="8.5034633"><ele>114.0</ele><time>2026-04-04T13:17:38.029Z</time></trkpt><trkpt lat="45.0595483" lon="8.5033867"><ele>114.0</ele><time>2026-04-04T13:17:39.027Z</time></trkpt><trkpt lat="45.0594267" lon="8.50331"><ele>114.0</ele><time>2026-04-04T13:17:40.028Z</time></trkpt><trkpt lat="45.059305" lon="8.5032383"><ele>114.0</ele><time>2026-04-04T13:17:41.027Z</time></trkpt><trkpt lat="45.0591917" lon="8.5031733"><ele>114.0</ele><time>2026-04-04T13:17:42.028Z</time></trkpt><trkpt lat="45.059085" lon="8.5031117"><ele>114.0</ele><time>2026-04-04T13:17:43.027Z</time></trkpt><trkpt lat="45.0589867" lon="8.5030417"><ele>114.0</ele><time>2026-04-04T13:17:44.028Z</time></trkpt><trkpt lat="45.0589" lon="8.5029767"><ele>114.0</ele><time>2026-04-04T13:17:45.03Z</time></trkpt><trkpt lat="45.0588267" lon="8.5029283"><ele>114.2</ele><time>2026-04-04T13:17:46.028Z</time></trkpt><trkpt lat="45.0587633" lon="8.5028933"><ele>114.4</ele><time>2026-04-04T13:17:47.027Z</time></trkpt><trkpt lat="45.05864" lon="8.5028817"><ele>114.6</ele><time>2026-04-04T13:17:49.027Z</time></trkpt><trkpt lat="45.058575" lon="8.5029033"><ele>114.8</ele><time>2026-04-04T13:17:50.027Z</time></trkpt><trkpt lat="45.0585167" lon="8.503"><ele>115.0</ele><time>2026-04-04T13:17:51.028Z</time></trkpt><trkpt lat="45.0584667" lon="8.5031667"><ele>114.5</ele><time>2026-04-04T13:17:52.029Z</time></trkpt><trkpt lat="45.05844" lon="8.5033783"><ele>114.0</ele><time>2026-04-04T13:17:53.027Z</time></trkpt><trkpt lat="45.0584017" lon="8.503545"><ele>113.5</ele><time>2026-04-04T13:17:54.028Z</time></trkpt><trkpt lat="45.0583633" lon="8.5036633"><ele>113.0</ele><time>2026-04-04T13:17:55.027Z</time></trkpt><trkpt lat="45.0583267" lon="8.5037783"><ele>113.0</ele><time>2026-04-04T13:17:56.029Z</time></trkpt><trkpt lat="45.05829" lon="8.5038883"><ele>113.00000000000001</ele><time>2026-04-04T13:17:57.027Z</time></trkpt><trkpt lat="45.0582567" lon="8.50397"><ele>113.00000000000001</ele><time>2026-04-04T13:17:58.027Z</time></trkpt><trkpt lat="45.0581767" lon="8.504035"><ele>113.0</ele><time>2026-04-04T13:18:00.028Z</time></trkpt><trkpt lat="45.05805" lon="8.5038533"><ele>113.0</ele><time>2026-04-04T13:18:02.029Z</time></trkpt><trkpt lat="45.057935" lon="8.5036717"><ele>112.66666666666666</ele><time>2026-04-04T13:18:03.028Z</time></trkpt><trkpt lat="45.0578133" lon="8.5034517"><ele>112.33333333333334</ele><time>2026-04-04T13:18:04.027Z</time></trkpt><trkpt lat="45.05771" lon="8.5032617"><ele>112.0</ele><time>2026-04-04T13:18:05.027Z</time></trkpt><trkpt lat="45.0576067" lon="8.5030717"><ele>112.0</ele><time>2026-04-04T13:18:06.028Z</time></trkpt><trkpt lat="45.0574967" lon="8.50287"><ele>112.0</ele><time>2026-04-04T13:18:07.027Z</time></trkpt><trkpt lat="45.05739" lon="8.5026817"><ele>112.0</ele><time>2026-04-04T13:18:08.028Z</time></trkpt><trkpt lat="45.0572933" lon="8.502495"><ele>112.0</ele><time>2026-04-04T13:18:09.028Z</time></trkpt><trkpt lat="45.0571967" lon="8.502305"><ele>112.0</ele><time>2026-04-04T13:18:10.027Z</time></trkpt><trkpt lat="45.0571" lon="8.5021133"><ele>112.0</ele><time>2026-04-04T13:18:11.027Z</time></trkpt><trkpt lat="45.057" lon="8.5019233"><ele>112.0</ele><time>2026-04-04T13:18:12.028Z</time></trkpt><trkpt lat="45.056895" lon="8.5017383"><ele>112.0</ele><time>2026-04-04T13:18:13.028Z</time></trkpt><trkpt lat="45.0567833" lon="8.5015633"><ele>112.0</ele><time>2026-04-04T13:18:14.028Z</time></trkpt><trkpt lat="45.0566617" lon="8.5013933"><ele>112.33333333333334</ele><time>2026-04-04T13:18:15.029Z</time></trkpt><trkpt lat="45.05654" lon="8.5012233"><ele>112.66666666666666</ele><time>2026-04-04T13:18:16.027Z</time></trkpt><trkpt lat="45.0564233" lon="8.5010617"><ele>113.0</ele><time>2026-04-04T13:18:17.028Z</time></trkpt><trkpt lat="45.0563167" lon="8.5009017"><ele>113.0</ele><time>2026-04-04T13:18:18.027Z</time></trkpt><trkpt lat="45.0562133" lon="8.5007517"><ele>113.0</ele><time>2026-04-04T13:18:19.027Z</time></trkpt><trkpt lat="45.0561167" lon="8.5006117"><ele>113.0</ele><time>2026-04-04T13:18:20.028Z</time></trkpt><trkpt lat="45.0560317" lon="8.5004783"><ele>113.0</ele><time>2026-04-04T13:18:21.03Z</time></trkpt><trkpt lat="45.0559533" lon="8.500355"><ele>113.4</ele><time>2026-04-04T13:18:22.028Z</time></trkpt><trkpt lat="45.0558817" lon="8.5002433"><ele>113.80000000000001</ele><time>2026-04-04T13:18:23.027Z</time></trkpt><trkpt lat="45.0558167" lon="8.5001433"><ele>114.2</ele><time>2026-04-04T13:18:24.028Z</time></trkpt><trkpt lat="45.0557567" lon="8.5000467"><ele>114.6</ele><time>2026-04-04T13:18:25.028Z</time></trkpt><trkpt lat="45.0556967" lon="8.4999533"><ele>115.0</ele><time>2026-04-04T13:18:26.027Z</time></trkpt><trkpt lat="45.05564" lon="8.499865"><ele>114.99999999999999</ele><time>2026-04-04T13:18:27.028Z</time></trkpt><trkpt lat="45.0555783" lon="8.499785"><ele>115.0</ele><time>2026-04-04T13:18:28.027Z</time></trkpt><trkpt lat="45.055515" lon="8.49972"><ele>114.99999999999999</ele><time>2026-04-04T13:18:29.029Z</time></trkpt><trkpt lat="45.0554533" lon="8.499665"><ele>114.99999999999999</ele><time>2026-04-04T13:18:30.03Z</time></trkpt><trkpt lat="45.055385" lon="8.4996267"><ele>115.0</ele><time>2026-04-04T13:18:31.027Z</time></trkpt><trkpt lat="45.055315" lon="8.499605"><ele>114.99999999999999</ele><time>2026-04-04T13:18:32.028Z</time></trkpt><trkpt lat="45.0552467" lon="8.4995867"><ele>114.99999999999999</ele><time>2026-04-04T13:18:33.028Z</time></trkpt><trkpt lat="45.055175" lon="8.49958"><ele>115.00000000000001</ele><time>2026-04-04T13:18:34.028Z</time></trkpt><trkpt lat="45.0551033" lon="8.499575"><ele>115.0</ele><time>2026-04-04T13:18:35.028Z</time></trkpt><trkpt lat="45.0550317" lon="8.4995733"><ele>115.0</ele><time>2026-04-04T13:18:36.028Z</time></trkpt><trkpt lat="45.0549683" lon="8.4995717"><ele>115.0</ele><time>2026-04-04T13:18:37.028Z</time></trkpt><trkpt lat="45.05486" lon="8.4995617"><ele>115.00000000000001</ele><time>2026-04-04T13:18:39.028Z</time></trkpt><trkpt lat="45.0547733" lon="8.4995383"><ele>115.0</ele><time>2026-04-04T13:18:41.029Z</time></trkpt><trkpt lat="45.0547033" lon="8.499515"><ele>115.00000000000001</ele><time>2026-04-04T13:18:44.028Z</time></trkpt><trkpt lat="45.0546667" lon="8.4995933"><ele>115.0</ele><time>2026-04-04T13:18:57.028Z</time></trkpt><trkpt lat="45.0546017" lon="8.49955"><ele>115.0</ele><time>2026-04-04T13:19:17.03Z</time></trkpt><trkpt lat="45.05469" lon="8.4996317"><ele>115.0</ele><time>2026-04-04T13:19:23.027Z</time></trkpt><trkpt lat="45.0547667" lon="8.4996417"><ele>115.00000000000001</ele><time>2026-04-04T13:19:24.028Z</time></trkpt><trkpt lat="45.0548417" lon="8.4996483"><ele>115.0</ele><time>2026-04-04T13:19:25.029Z</time></trkpt><trkpt lat="45.0549317" lon="8.4996567"><ele>115.0</ele><time>2026-04-04T13:19:26.029Z</time></trkpt><trkpt lat="45.0550233" lon="8.4996717"><ele>115.0</ele><time>2026-04-04T13:19:27.03Z</time></trkpt><trkpt lat="45.0551067" lon="8.4996833"><ele>115.0</ele><time>2026-04-04T13:19:28.028Z</time></trkpt><trkpt lat="45.0552817" lon="8.4997217"><ele>115.0</ele><time>2026-04-04T13:19:30.029Z</time></trkpt><trkpt lat="45.0553717" lon="8.4997467"><ele>115.0</ele><time>2026-04-04T13:19:31.028Z</time></trkpt><trkpt lat="45.0555433" lon="8.49983"><ele>115.0</ele><time>2026-04-04T13:19:33.03Z</time></trkpt><trkpt lat="45.0556267" lon="8.4999017"><ele>115.0</ele><time>2026-04-04T13:19:34.029Z</time></trkpt><trkpt lat="45.055705" lon="8.4999833"><ele>115.0</ele><time>2026-04-04T13:19:35.029Z</time></trkpt><trkpt lat="45.0557767" lon="8.5000933"><ele>115.0</ele><time>2026-04-04T13:19:36.028Z</time></trkpt><trkpt lat="45.0558633" lon="8.5002017"><ele>115.0</ele><time>2026-04-04T13:19:37.028Z</time></trkpt><trkpt lat="45.05594" lon="8.5003283"><ele>114.5</ele><time>2026-04-04T13:19:38.028Z</time></trkpt><trkpt lat="45.056015" lon="8.500455"><ele>114.0</ele><time>2026-04-04T13:19:39.028Z</time></trkpt><trkpt lat="45.0561617" lon="8.5006817"><ele>113.5</ele><time>2026-04-04T13:19:41.028Z</time></trkpt><trkpt lat="45.05623" lon="8.50078"><ele>113.0</ele><time>2026-04-04T13:19:42.028Z</time></trkpt><trkpt lat="45.0562983" lon="8.5008783"><ele>113.0</ele><time>2026-04-04T13:19:43.03Z</time></trkpt><trkpt lat="45.0563717" lon="8.500985"><ele>113.0</ele><time>2026-04-04T13:19:44.029Z</time></trkpt><trkpt lat="45.0565117" lon="8.5011933"><ele>113.0</ele><time>2026-04-04T13:19:46.029Z</time></trkpt><trkpt lat="45.056575" lon="8.5012917"><ele>113.0</ele><time>2026-04-04T13:19:47.028Z</time></trkpt><trkpt lat="45.0567033" lon="8.5014817"><ele>112.80000000000001</ele><time>2026-04-04T13:19:49.028Z</time></trkpt><trkpt lat="45.0568267" lon="8.50166"><ele>112.60000000000001</ele><time>2026-04-04T13:19:51.03Z</time></trkpt><trkpt lat="45.0568833" lon="8.5017483"><ele>112.39999999999999</ele><time>2026-04-04T13:19:52.029Z</time></trkpt><trkpt lat="45.0569433" lon="8.5018333"><ele>112.19999999999999</ele><time>2026-04-04T13:19:53.029Z</time></trkpt><trkpt lat="45.0570033" lon="8.5019233"><ele>112.0</ele><time>2026-04-04T13:19:54.028Z</time></trkpt><trkpt lat="45.0570583" lon="8.5020167"><ele>112.00000000000001</ele><time>2026-04-04T13:19:55.029Z</time></trkpt><trkpt lat="45.0571067" lon="8.50211"><ele>112.0</ele><time>2026-04-04T13:19:56.028Z</time></trkpt><trkpt lat="45.0571517" lon="8.5022033"><ele>112.0</ele><time>2026-04-04T13:19:57.03Z</time></trkpt><trkpt lat="45.0571933" lon="8.5022883"><ele>112.0</ele><time>2026-04-04T13:19:58.028Z</time></trkpt><trkpt lat="45.057235" lon="8.5023683"><ele>112.00000000000001</ele><time>2026-04-04T13:19:59.028Z</time></trkpt><trkpt lat="45.0572833" lon="8.5024517"><ele>112.0</ele><time>2026-04-04T13:20:00.029Z</time></trkpt><trkpt lat="45.0573417" lon="8.50255"><ele>112.00000000000001</ele><time>2026-04-04T13:20:01.029Z</time></trkpt><trkpt lat="45.0574" lon="8.502655"><ele>112.0</ele><time>2026-04-04T13:20:02.029Z</time></trkpt><trkpt lat="45.0574583" lon="8.50276"><ele>112.0</ele><time>2026-04-04T13:20:03.029Z</time></trkpt><trkpt lat="45.0575117" lon="8.5028583"><ele>112.0</ele><time>2026-04-04T13:20:04.029Z</time></trkpt><trkpt lat="45.0575583" lon="8.5029517"><ele>112.00000000000001</ele><time>2026-04-04T13:20:05.028Z</time></trkpt><trkpt lat="45.057595" lon="8.5030367"><ele>112.0</ele><time>2026-04-04T13:20:06.029Z</time></trkpt><trkpt lat="45.05761" lon="8.503145"><ele>112.00000000000001</ele><time>2026-04-04T13:20:08.029Z</time></trkpt><trkpt lat="45.05754" lon="8.5031983"><ele>112.0</ele><time>2026-04-04T13:20:10.026Z</time></trkpt><trkpt lat="45.0574733" lon="8.5032083"><ele>112.0</ele><time>2026-04-04T13:20:11.028Z</time></trkpt><trkpt lat="45.057385" lon="8.503195"><ele>112.0</ele><time>2026-04-04T13:20:12.029Z</time></trkpt><trkpt lat="45.0572833" lon="8.50319"><ele>112.00000000000001</ele><time>2026-04-04T13:20:13.028Z</time></trkpt><trkpt lat="45.0571833" lon="8.5031833"><ele>112.0</ele><time>2026-04-04T13:20:14.028Z</time></trkpt><trkpt lat="45.057075" lon="8.5031767"><ele>112.25</ele><time>2026-04-04T13:20:15.028Z</time></trkpt><trkpt lat="45.0569567" lon="8.5031733"><ele>112.5</ele><time>2026-04-04T13:20:16.026Z</time></trkpt><trkpt lat="45.0568317" lon="8.50317"><ele>112.75</ele><time>2026-04-04T13:20:17.026Z</time></trkpt><trkpt lat="45.0566967" lon="8.5031583"><ele>113.0</ele><time>2026-04-04T13:20:18.03Z</time></trkpt><trkpt lat="45.0565667" lon="8.5031467"><ele>112.60000000000001</ele><time>2026-04-04T13:20:19.027Z</time></trkpt><trkpt lat="45.0564517" lon="8.5031317"><ele>112.20000000000002</ele><time>2026-04-04T13:20:20.028Z</time></trkpt><trkpt lat="45.0563567" lon="8.5031117"><ele>111.8</ele><time>2026-04-04T13:20:21.028Z</time></trkpt><trkpt lat="45.0562867" lon="8.5030867"><ele>111.4</ele><time>2026-04-04T13:20:22.028Z</time></trkpt><trkpt lat="45.05622" lon="8.5030617"><ele>111.0</ele><time>2026-04-04T13:20:23.027Z</time></trkpt><trkpt lat="45.05612" lon="8.5030133"><ele>111.0</ele><time>2026-04-04T13:20:25.029Z</time></trkpt><trkpt lat="45.05605" lon="8.5029683"><ele>111.0</ele><time>2026-04-04T13:20:28.027Z</time></trkpt><trkpt lat="45.055955" lon="8.5029267"><ele>111.0</ele><time>2026-04-04T13:20:41.027Z</time></trkpt><trkpt lat="45.0558367" lon="8.5028933"><ele>111.0</ele><time>2026-04-04T13:20:43.028Z</time></trkpt><trkpt lat="45.0557217" lon="8.5028483"><ele>111.0</ele><time>2026-04-04T13:20:44.028Z</time></trkpt><trkpt lat="45.0555917" lon="8.5028017"><ele>111.0</ele><time>2026-04-04T13:20:45.031Z</time></trkpt><trkpt lat="45.05546" lon="8.5027483"><ele>111.0</ele><time>2026-04-04T13:20:46.029Z</time></trkpt><trkpt lat="45.0553367" lon="8.5026983"><ele>111.0</ele><time>2026-04-04T13:20:47.027Z</time></trkpt><trkpt lat="45.05522" lon="8.5026483"><ele>111.0</ele><time>2026-04-04T13:20:48.027Z</time></trkpt><trkpt lat="45.055085" lon="8.502595"><ele>111.0</ele><time>2026-04-04T13:20:49.029Z</time></trkpt><trkpt lat="45.0549533" lon="8.5025467"><ele>111.0</ele><time>2026-04-04T13:20:50.029Z</time></trkpt><trkpt lat="45.054825" lon="8.5025017"><ele>111.0</ele><time>2026-04-04T13:20:51.028Z</time></trkpt><trkpt lat="45.0547033" lon="8.50246"><ele>111.0</ele><time>2026-04-04T13:20:52.027Z</time></trkpt><trkpt lat="45.0545883" lon="8.5024217"><ele>111.0</ele><time>2026-04-04T13:20:53.028Z</time></trkpt><trkpt lat="45.0544817" lon="8.5023867"><ele>111.0</ele><time>2026-04-04T13:20:54.028Z</time></trkpt><trkpt lat="45.0543783" lon="8.5023483"><ele>111.0</ele><time>2026-04-04T13:20:55.028Z</time></trkpt><trkpt lat="45.0542733" lon="8.5023133"><ele>111.0</ele><time>2026-04-04T13:20:56.028Z</time></trkpt><trkpt lat="45.054165" lon="8.5022783"><ele>111.0</ele><time>2026-04-04T13:20:57.028Z</time></trkpt><trkpt lat="45.0540533" lon="8.502235"><ele>111.0</ele><time>2026-04-04T13:20:58.028Z</time></trkpt><trkpt lat="45.0539367" lon="8.50219"><ele>111.0</ele><time>2026-04-04T13:20:59.028Z</time></trkpt><trkpt lat="45.0538183" lon="8.502155"><ele>111.0</ele><time>2026-04-04T13:21:00.027Z</time></trkpt><trkpt lat="45.0537" lon="8.5021167"><ele>111.0</ele><time>2026-04-04T13:21:01.028Z</time></trkpt><trkpt lat="45.05358" lon="8.502075"><ele>111.0</ele><time>2026-04-04T13:21:02.029Z</time></trkpt><trkpt lat="45.053463" lon="8.5020344"><ele>111.0</ele><time>2026-04-04T13:21:03.028Z</time></trkpt><trkpt lat="45.0533429" lon="8.5019946"><ele>111.0</ele><time>2026-04-04T13:21:04.029Z</time></trkpt><trkpt lat="45.0532213" lon="8.5019527"><ele>111.0</ele><time>2026-04-04T13:21:05.028Z</time></trkpt><trkpt lat="45.0531001" lon="8.5019094"><ele>111.25</ele><time>2026-04-04T13:21:06.027Z</time></trkpt><trkpt lat="45.0529795" lon="8.5018667"><ele>111.5</ele><time>2026-04-04T13:21:07.031Z</time></trkpt><trkpt lat="45.0528569" lon="8.5018241"><ele>111.75</ele><time>2026-04-04T13:21:08.028Z</time></trkpt><trkpt lat="45.0527323" lon="8.501778"><ele>112.0</ele><time>2026-04-04T13:21:09.029Z</time></trkpt><trkpt lat="45.0526084" lon="8.5017324"><ele>112.0</ele><time>2026-04-04T13:21:10.029Z</time></trkpt><trkpt lat="45.0524836" lon="8.5016864"><ele>112.0</ele><time>2026-04-04T13:21:11.028Z</time></trkpt><trkpt lat="45.0523599" lon="8.5016387"><ele>112.0</ele><time>2026-04-04T13:21:12.028Z</time></trkpt><trkpt lat="45.0522364" lon="8.5015882"><ele>112.0</ele><time>2026-04-04T13:21:13.029Z</time></trkpt><trkpt lat="45.0521131" lon="8.5015363"><ele>112.0</ele><time>2026-04-04T13:21:14.028Z</time></trkpt><trkpt lat="45.051991" lon="8.5014837"><ele>112.0</ele><time>2026-04-04T13:21:15.029Z</time></trkpt><trkpt lat="45.0518708" lon="8.5014316"><ele>112.0</ele><time>2026-04-04T13:21:16.028Z</time></trkpt><trkpt lat="45.0517527" lon="8.5013806"><ele>112.0</ele><time>2026-04-04T13:21:17.029Z</time></trkpt><trkpt lat="45.0516351" lon="8.5013273"><ele>112.0</ele><time>2026-04-04T13:21:18.028Z</time></trkpt><trkpt lat="45.0515183" lon="8.5012764"><ele>112.0</ele><time>2026-04-04T13:21:19.03Z</time></trkpt><trkpt lat="45.0514016" lon="8.5012276"><ele>112.0</ele><time>2026-04-04T13:21:20.029Z</time></trkpt><trkpt lat="45.0512823" lon="8.5011742"><ele>112.0</ele><time>2026-04-04T13:21:21.029Z</time></trkpt><trkpt lat="45.0511639" lon="8.5011203"><ele>112.0</ele><time>2026-04-04T13:21:22.029Z</time></trkpt><trkpt lat="45.0510468" lon="8.5010684"><ele>112.0</ele><time>2026-04-04T13:21:23.029Z</time></trkpt><trkpt lat="45.0509301" lon="8.5010173"><ele>112.0</ele><time>2026-04-04T13:21:24.027Z</time></trkpt><trkpt lat="45.0508188" lon="8.5009683"><ele>112.0</ele><time>2026-04-04T13:21:25.029Z</time></trkpt><trkpt lat="45.0507181" lon="8.5009275"><ele>112.0</ele><time>2026-04-04T13:21:26.03Z</time></trkpt><trkpt lat="45.0506195" lon="8.5009034"><ele>111.99999999999999</ele><time>2026-04-04T13:21:27.03Z</time></trkpt><trkpt lat="45.0505237" lon="8.5008929"><ele>111.99999999999999</ele><time>2026-04-04T13:21:28.027Z</time></trkpt><trkpt lat="45.0504231" lon="8.5008975"><ele>112.0</ele><time>2026-04-04T13:21:29.029Z</time></trkpt><trkpt lat="45.0503185" lon="8.5009179"><ele>112.0</ele><time>2026-04-04T13:21:30.028Z</time></trkpt><trkpt lat="45.0502111" lon="8.5009533"><ele>112.0</ele><time>2026-04-04T13:21:31.029Z</time></trkpt><trkpt lat="45.0501021" lon="8.5009953"><ele>111.99999999999999</ele><time>2026-04-04T13:21:32.029Z</time></trkpt><trkpt lat="45.049993" lon="8.5010413"><ele>111.99999999999999</ele><time>2026-04-04T13:21:33.03Z</time></trkpt><trkpt lat="45.0498863" lon="8.5010861"><ele>112.0</ele><time>2026-04-04T13:21:34.028Z</time></trkpt><trkpt lat="45.0497841" lon="8.5011294"><ele>112.0</ele><time>2026-04-04T13:21:35.029Z</time></trkpt><trkpt lat="45.0496843" lon="8.5011659"><ele>112.0</ele><time>2026-04-04T13:21:36.03Z</time></trkpt><trkpt lat="45.0495839" lon="8.5012004"><ele>111.99999999999999</ele><time>2026-04-04T13:21:37.028Z</time></trkpt><trkpt lat="45.0494826" lon="8.5012402"><ele>111.99999999999999</ele><time>2026-04-04T13:21:38.028Z</time></trkpt><trkpt lat="45.049382" lon="8.5012876"><ele>112.0</ele><time>2026-04-04T13:21:39.03Z</time></trkpt><trkpt lat="45.0492868" lon="8.501343"><ele>112.0</ele><time>2026-04-04T13:21:40.028Z</time></trkpt><trkpt lat="45.0491976" lon="8.5014013"><ele>114.0</ele><time>2026-04-04T13:21:41.028Z</time></trkpt><trkpt lat="45.0491087" lon="8.5014643"><ele>115.99999999999999</ele><time>2026-04-04T13:21:42.03Z</time></trkpt><trkpt lat="45.0490192" lon="8.5015354"><ele>117.99999999999999</ele><time>2026-04-04T13:21:43.03Z</time></trkpt><trkpt lat="45.0489303" lon="8.5016009"><ele>120.0</ele><time>2026-04-04T13:21:44.029Z</time></trkpt><trkpt lat="45.0488262" lon="8.5016536"><ele>122.0</ele><time>2026-04-04T13:21:45.028Z</time></trkpt><trkpt lat="45.0487166" lon="8.5016982"><ele>122.0</ele><time>2026-04-04T13:21:46.03Z</time></trkpt><trkpt lat="45.0486074" lon="8.5017374"><ele>122.0</ele><time>2026-04-04T13:21:47.028Z</time></trkpt><trkpt lat="45.0484977" lon="8.5017707"><ele>122.0</ele><time>2026-04-04T13:21:48.028Z</time></trkpt><trkpt lat="45.0483826" lon="8.501802"><ele>122.0</ele><time>2026-04-04T13:21:49.028Z</time></trkpt><trkpt lat="45.0482666" lon="8.5018331"><ele>122.8</ele><time>2026-04-04T13:21:50.029Z</time></trkpt><trkpt lat="45.048156" lon="8.5018636"><ele>123.6</ele><time>2026-04-04T13:21:51.029Z</time></trkpt><trkpt lat="45.0480519" lon="8.5018926"><ele>124.39999999999999</ele><time>2026-04-04T13:21:52.027Z</time></trkpt><trkpt lat="45.0479535" lon="8.5019168"><ele>125.19999999999999</ele><time>2026-04-04T13:21:53.029Z</time></trkpt><trkpt lat="45.0478639" lon="8.5019339"><ele>126.0</ele><time>2026-04-04T13:21:54.03Z</time></trkpt><trkpt lat="45.0477782" lon="8.5019378"><ele>126.0</ele><time>2026-04-04T13:21:55.028Z</time></trkpt><trkpt lat="45.0477022" lon="8.5019263"><ele>126.0</ele><time>2026-04-04T13:21:56.029Z</time></trkpt><trkpt lat="45.0476316" lon="8.5018951"><ele>126.0</ele><time>2026-04-04T13:21:57.029Z</time></trkpt><trkpt lat="45.0475649" lon="8.501847"><ele>126.0</ele><time>2026-04-04T13:21:58.029Z</time></trkpt><trkpt lat="45.0475067" lon="8.5017599"><ele>126.0</ele><time>2026-04-04T13:21:59.029Z</time></trkpt><trkpt lat="45.047466" lon="8.5016269"><ele>126.0</ele><time>2026-04-04T13:22:00.029Z</time></trkpt><trkpt lat="45.0474183" lon="8.5014612"><ele>125.75</ele><time>2026-04-04T13:22:01.03Z</time></trkpt><trkpt lat="45.0473561" lon="8.5013019"><ele>125.5</ele><time>2026-04-04T13:22:02.03Z</time></trkpt><trkpt lat="45.0472911" lon="8.5011442"><ele>125.25</ele><time>2026-04-04T13:22:03.03Z</time></trkpt><trkpt lat="45.0472202" lon="8.5009908"><ele>125.0</ele><time>2026-04-04T13:22:04.028Z</time></trkpt><trkpt lat="45.047146" lon="8.5008467"><ele>125.0</ele><time>2026-04-04T13:22:05.029Z</time></trkpt><trkpt lat="45.0470687" lon="8.5006973"><ele>125.0</ele><time>2026-04-04T13:22:06.029Z</time></trkpt><trkpt lat="45.0469972" lon="8.5005487"><ele>125.0</ele><time>2026-04-04T13:22:07.029Z</time></trkpt><trkpt lat="45.0469348" lon="8.5004048"><ele>125.0</ele><time>2026-04-04T13:22:08.029Z</time></trkpt><trkpt lat="45.046868" lon="8.5002737"><ele>125.0</ele><time>2026-04-04T13:22:09.029Z</time></trkpt><trkpt lat="45.0467903" lon="8.500155"><ele>125.0</ele><time>2026-04-04T13:22:10.028Z</time></trkpt><trkpt lat="45.0467022" lon="8.5000439"><ele>125.0</ele><time>2026-04-04T13:22:11.029Z</time></trkpt><trkpt lat="45.0466021" lon="8.4999287"><ele>125.0</ele><time>2026-04-04T13:22:12.03Z</time></trkpt><trkpt lat="45.0465002" lon="8.4998136"><ele>125.0</ele><time>2026-04-04T13:22:13.03Z</time></trkpt><trkpt lat="45.0463993" lon="8.4996956"><ele>125.0</ele><time>2026-04-04T13:22:14.029Z</time></trkpt><trkpt lat="45.0462975" lon="8.4995746"><ele>125.0</ele><time>2026-04-04T13:22:15.029Z</time></trkpt><trkpt lat="45.0461994" lon="8.4994569"><ele>125.0</ele><time>2026-04-04T13:22:16.028Z</time></trkpt><trkpt lat="45.0461035" lon="8.4993473"><ele>125.5</ele><time>2026-04-04T13:22:17.028Z</time></trkpt><trkpt lat="45.0460055" lon="8.4992403"><ele>126.0</ele><time>2026-04-04T13:22:18.029Z</time></trkpt><trkpt lat="45.0459048" lon="8.4991336"><ele>126.5</ele><time>2026-04-04T13:22:19.03Z</time></trkpt><trkpt lat="45.0458014" lon="8.4990316"><ele>127.0</ele><time>2026-04-04T13:22:20.029Z</time></trkpt><trkpt lat="45.0456945" lon="8.4989398"><ele>127.0</ele><time>2026-04-04T13:22:21.029Z</time></trkpt><trkpt lat="45.0455861" lon="8.4988506"><ele>127.0</ele><time>2026-04-04T13:22:22.029Z</time></trkpt><trkpt lat="45.0454748" lon="8.4987683"><ele>127.0</ele><time>2026-04-04T13:22:23.029Z</time></trkpt><trkpt lat="45.0453601" lon="8.4986955"><ele>127.0</ele><time>2026-04-04T13:22:24.028Z</time></trkpt><trkpt lat="45.0452382" lon="8.4986298"><ele>127.5</ele><time>2026-04-04T13:22:25.029Z</time></trkpt><trkpt lat="45.0451106" lon="8.498569"><ele>128.0</ele><time>2026-04-04T13:22:26.029Z</time></trkpt><trkpt lat="45.0449835" lon="8.4985117"><ele>128.5</ele><time>2026-04-04T13:22:27.029Z</time></trkpt><trkpt lat="45.0448606" lon="8.4984558"><ele>129.0</ele><time>2026-04-04T13:22:28.03Z</time></trkpt><trkpt lat="45.044737" lon="8.4984067"><ele>129.0</ele><time>2026-04-04T13:22:29.028Z</time></trkpt><trkpt lat="45.0446191" lon="8.498364"><ele>129.0</ele><time>2026-04-04T13:22:30.029Z</time></trkpt><trkpt lat="45.0445103" lon="8.4983242"><ele>129.0</ele><time>2026-04-04T13:22:31.029Z</time></trkpt><trkpt lat="45.0444055" lon="8.4982831"><ele>129.0</ele><time>2026-04-04T13:22:32.028Z</time></trkpt><trkpt lat="45.0443009" lon="8.4982438"><ele>129.0</ele><time>2026-04-04T13:22:33.029Z</time></trkpt><trkpt lat="45.0441963" lon="8.4982053"><ele>129.0</ele><time>2026-04-04T13:22:34.03Z</time></trkpt><trkpt lat="45.0440914" lon="8.4981642"><ele>129.0</ele><time>2026-04-04T13:22:35.027Z</time></trkpt><trkpt lat="45.0439822" lon="8.498123"><ele>129.0</ele><time>2026-04-04T13:22:36.029Z</time></trkpt><trkpt lat="45.0438743" lon="8.4980807"><ele>129.0</ele><time>2026-04-04T13:22:37.03Z</time></trkpt><trkpt lat="45.043769" lon="8.4980408"><ele>129.0</ele><time>2026-04-04T13:22:38.03Z</time></trkpt><trkpt lat="45.0436714" lon="8.4979993"><ele>129.0</ele><time>2026-04-04T13:22:39.03Z</time></trkpt><trkpt lat="45.0435841" lon="8.4979574"><ele>129.0</ele><time>2026-04-04T13:22:40.029Z</time></trkpt><trkpt lat="45.0435066" lon="8.4979024"><ele>129.0</ele><time>2026-04-04T13:22:41.029Z</time></trkpt><trkpt lat="45.0434418" lon="8.4978365"><ele>129.0</ele><time>2026-04-04T13:22:42.029Z</time></trkpt><trkpt lat="45.043388" lon="8.4977601"><ele>129.0</ele><time>2026-04-04T13:22:43.029Z</time></trkpt><trkpt lat="45.0433475" lon="8.4976729"><ele>129.4</ele><time>2026-04-04T13:22:44.029Z</time></trkpt><trkpt lat="45.043318" lon="8.4975787"><ele>129.8</ele><time>2026-04-04T13:22:45.03Z</time></trkpt><trkpt lat="45.0432857" lon="8.4974986"><ele>130.2</ele><time>2026-04-04T13:22:46.029Z</time></trkpt><trkpt lat="45.0432067" lon="8.4973833"><ele>130.6</ele><time>2026-04-04T13:22:48.029Z</time></trkpt><trkpt lat="45.0430824" lon="8.4973479"><ele>131.0</ele><time>2026-04-04T13:22:50.029Z</time></trkpt><trkpt lat="45.0429989" lon="8.4973666"><ele>131.0</ele><time>2026-04-04T13:22:51.029Z</time></trkpt><trkpt lat="45.0429061" lon="8.4973869"><ele>131.0</ele><time>2026-04-04T13:22:52.03Z</time></trkpt><trkpt lat="45.0428142" lon="8.4973966"><ele>131.0</ele><time>2026-04-04T13:22:53.028Z</time></trkpt><trkpt lat="45.0427189" lon="8.4973893"><ele>131.0</ele><time>2026-04-04T13:22:54.029Z</time></trkpt><trkpt lat="45.0426293" lon="8.4973685"><ele>131.0</ele><time>2026-04-04T13:22:55.029Z</time></trkpt><trkpt lat="45.0425398" lon="8.4973434"><ele>130.8</ele><time>2026-04-04T13:22:56.03Z</time></trkpt><trkpt lat="45.0424441" lon="8.4973213"><ele>130.6</ele><time>2026-04-04T13:22:57.029Z</time></trkpt><trkpt lat="45.0423482" lon="8.497304"><ele>130.4</ele><time>2026-04-04T13:22:58.028Z</time></trkpt><trkpt lat="45.0422511" lon="8.4972868"><ele>130.2</ele><time>2026-04-04T13:22:59.029Z</time></trkpt><trkpt lat="45.0421513" lon="8.4972706"><ele>130.0</ele><time>2026-04-04T13:23:00.03Z</time></trkpt><trkpt lat="45.042052" lon="8.4972575"><ele>130.0</ele><time>2026-04-04T13:23:01.029Z</time></trkpt><trkpt lat="45.0419532" lon="8.4972487"><ele>130.0</ele><time>2026-04-04T13:23:02.028Z</time></trkpt><trkpt lat="45.0418509" lon="8.4972444"><ele>130.0</ele><time>2026-04-04T13:23:03.031Z</time></trkpt><trkpt lat="45.0417446" lon="8.4972426"><ele>130.0</ele><time>2026-04-04T13:23:04.028Z</time></trkpt><trkpt lat="45.0416346" lon="8.4972429"><ele>130.0</ele><time>2026-04-04T13:23:05.029Z</time></trkpt><trkpt lat="45.0415238" lon="8.4972422"><ele>130.4</ele><time>2026-04-04T13:23:06.03Z</time></trkpt><trkpt lat="45.0414134" lon="8.497241"><ele>130.8</ele><time>2026-04-04T13:23:07.03Z</time></trkpt><trkpt lat="45.0413033" lon="8.4972396"><ele>131.2</ele><time>2026-04-04T13:23:08.03Z</time></trkpt><trkpt lat="45.0411908" lon="8.4972434"><ele>131.6</ele><time>2026-04-04T13:23:09.03Z</time></trkpt><trkpt lat="45.041075" lon="8.4972515"><ele>132.0</ele><time>2026-04-04T13:23:10.029Z</time></trkpt><trkpt lat="45.0409594" lon="8.4972588"><ele>132.0</ele><time>2026-04-04T13:23:11.028Z</time></trkpt><trkpt lat="45.0408466" lon="8.4972644"><ele>132.0</ele><time>2026-04-04T13:23:12.03Z</time></trkpt><trkpt lat="45.0407348" lon="8.4972689"><ele>132.0</ele><time>2026-04-04T13:23:13.03Z</time></trkpt><trkpt lat="45.040626" lon="8.4972737"><ele>132.0</ele><time>2026-04-04T13:23:14.029Z</time></trkpt><trkpt lat="45.0405233" lon="8.4972871"><ele>132.0</ele><time>2026-04-04T13:23:15.029Z</time></trkpt><trkpt lat="45.0404256" lon="8.4973128"><ele>132.2</ele><time>2026-04-04T13:23:16.03Z</time></trkpt><trkpt lat="45.0403258" lon="8.497342"><ele>132.39999999999998</ele><time>2026-04-04T13:23:17.029Z</time></trkpt><trkpt lat="45.0402255" lon="8.4973759"><ele>132.60000000000002</ele><time>2026-04-04T13:23:18.03Z</time></trkpt><trkpt lat="45.0401239" lon="8.4974082"><ele>132.8</ele><time>2026-04-04T13:23:19.029Z</time></trkpt><trkpt lat="45.0400182" lon="8.4974332"><ele>133.0</ele><time>2026-04-04T13:23:20.029Z</time></trkpt><trkpt lat="45.0399112" lon="8.4974557"><ele>133.0</ele><time>2026-04-04T13:23:21.03Z</time></trkpt><trkpt lat="45.0398042" lon="8.4974781"><ele>133.0</ele><time>2026-04-04T13:23:22.03Z</time></trkpt><trkpt lat="45.0396978" lon="8.4974928"><ele>133.0</ele><time>2026-04-04T13:23:23.029Z</time></trkpt><trkpt lat="45.039595" lon="8.4975025"><ele>133.0</ele><time>2026-04-04T13:23:24.03Z</time></trkpt><trkpt lat="45.0394972" lon="8.497514"><ele>133.0</ele><time>2026-04-04T13:23:25.029Z</time></trkpt><trkpt lat="45.0394015" lon="8.4975294"><ele>133.0</ele><time>2026-04-04T13:23:26.029Z</time></trkpt><trkpt lat="45.0393002" lon="8.4975415"><ele>133.0</ele><time>2026-04-04T13:23:27.029Z</time></trkpt><trkpt lat="45.0391991" lon="8.4975575"><ele>133.0</ele><time>2026-04-04T13:23:28.029Z</time></trkpt><trkpt lat="45.039095" lon="8.4975693"><ele>133.0</ele><time>2026-04-04T13:23:29.028Z</time></trkpt><trkpt lat="45.03899" lon="8.4975799"><ele>133.0</ele><time>2026-04-04T13:23:30.03Z</time></trkpt><trkpt lat="45.0388849" lon="8.4975902"><ele>132.8</ele><time>2026-04-04T13:23:31.029Z</time></trkpt><trkpt lat="45.038776" lon="8.4976032"><ele>132.60000000000002</ele><time>2026-04-04T13:23:32.029Z</time></trkpt><trkpt lat="45.0386603" lon="8.4976193"><ele>132.39999999999998</ele><time>2026-04-04T13:23:33.03Z</time></trkpt><trkpt lat="45.0385454" lon="8.4976428"><ele>132.2</ele><time>2026-04-04T13:23:34.029Z</time></trkpt><trkpt lat="45.0384427" lon="8.4976606"><ele>132.0</ele><time>2026-04-04T13:23:35.029Z</time></trkpt><trkpt lat="45.0383412" lon="8.4976608"><ele>131.79999999999998</ele><time>2026-04-04T13:23:36.029Z</time></trkpt><trkpt lat="45.0382414" lon="8.4976553"><ele>131.6</ele><time>2026-04-04T13:23:37.03Z</time></trkpt><trkpt lat="45.0381388" lon="8.4976447"><ele>131.39999999999998</ele><time>2026-04-04T13:23:38.029Z</time></trkpt><trkpt lat="45.0380291" lon="8.4976297"><ele>131.2</ele><time>2026-04-04T13:23:39.029Z</time></trkpt><trkpt lat="45.0379187" lon="8.4976186"><ele>131.0</ele><time>2026-04-04T13:23:40.03Z</time></trkpt><trkpt lat="45.0378091" lon="8.4976041"><ele>131.0</ele><time>2026-04-04T13:23:41.03Z</time></trkpt><trkpt lat="45.037702" lon="8.4975856"><ele>131.0</ele><time>2026-04-04T13:23:42.03Z</time></trkpt><trkpt lat="45.0375904" lon="8.4975634"><ele>131.0</ele><time>2026-04-04T13:23:43.029Z</time></trkpt><trkpt lat="45.0374741" lon="8.4975401"><ele>131.0</ele><time>2026-04-04T13:23:44.029Z</time></trkpt><trkpt lat="45.0373575" lon="8.4975182"><ele>130.75</ele><time>2026-04-04T13:23:45.032Z</time></trkpt><trkpt lat="45.0372391" lon="8.4974969"><ele>130.5</ele><time>2026-04-04T13:23:46.03Z</time></trkpt><trkpt lat="45.037123" lon="8.4974775"><ele>130.25</ele><time>2026-04-04T13:23:47.029Z</time></trkpt><trkpt lat="45.0370086" lon="8.4974604"><ele>130.0</ele><time>2026-04-04T13:23:48.03Z</time></trkpt><trkpt lat="45.0368953" lon="8.4974484"><ele>130.0</ele><time>2026-04-04T13:23:49.03Z</time></trkpt><trkpt lat="45.0367811" lon="8.4974345"><ele>130.0</ele><time>2026-04-04T13:23:50.029Z</time></trkpt><trkpt lat="45.0366665" lon="8.4974191"><ele>130.0</ele><time>2026-04-04T13:23:51.029Z</time></trkpt><trkpt lat="45.0365567" lon="8.4974067"><ele>130.0</ele><time>2026-04-04T13:23:52.03Z</time></trkpt><trkpt lat="45.0364517" lon="8.4973967"><ele>130.0</ele><time>2026-04-04T13:23:53.027Z</time></trkpt><trkpt lat="45.036355" lon="8.49738"><ele>130.2</ele><time>2026-04-04T13:23:54.029Z</time></trkpt><trkpt lat="45.036265" lon="8.4973617"><ele>130.4</ele><time>2026-04-04T13:23:55.029Z</time></trkpt><trkpt lat="45.0361717" lon="8.4973417"><ele>130.6</ele><time>2026-04-04T13:23:56.029Z</time></trkpt><trkpt lat="45.0360717" lon="8.4973217"><ele>130.8</ele><time>2026-04-04T13:23:57.031Z</time></trkpt><trkpt lat="45.0359717" lon="8.4973017"><ele>131.0</ele><time>2026-04-04T13:23:58.029Z</time></trkpt><trkpt lat="45.0358767" lon="8.4972817"><ele>130.83333333333331</ele><time>2026-04-04T13:23:59.028Z</time></trkpt><trkpt lat="45.0357933" lon="8.49726"><ele>130.66666666666666</ele><time>2026-04-04T13:24:00.028Z</time></trkpt><trkpt lat="45.0357233" lon="8.4972317"><ele>130.5</ele><time>2026-04-04T13:24:01.029Z</time></trkpt><trkpt lat="45.035655" lon="8.4972033"><ele>130.33333333333334</ele><time>2026-04-04T13:24:02.03Z</time></trkpt><trkpt lat="45.035545" lon="8.4971517"><ele>130.16666666666669</ele><time>2026-04-04T13:24:04.03Z</time></trkpt><trkpt lat="45.0354717" lon="8.497085"><ele>130.0</ele><time>2026-04-04T13:24:06.028Z</time></trkpt><trkpt lat="45.0354533" lon="8.49696"><ele>130.0</ele><time>2026-04-04T13:24:09.029Z</time></trkpt><trkpt lat="45.0354583" lon="8.4968133"><ele>130.0</ele><time>2026-04-04T13:24:11.03Z</time></trkpt><trkpt lat="45.03545" lon="8.4967233"><ele>130.0</ele><time>2026-04-04T13:24:12.029Z</time></trkpt><trkpt lat="45.0354383" lon="8.49663"><ele>130.0</ele><time>2026-04-04T13:24:13.028Z</time></trkpt><trkpt lat="45.0354267" lon="8.4965267"><ele>130.0</ele><time>2026-04-04T13:24:14.028Z</time></trkpt><trkpt lat="45.03541" lon="8.4964233"><ele>130.0</ele><time>2026-04-04T13:24:15.029Z</time></trkpt><trkpt lat="45.035395" lon="8.4963133"><ele>130.0</ele><time>2026-04-04T13:24:16.03Z</time></trkpt><trkpt lat="45.0353817" lon="8.496205"><ele>130.0</ele><time>2026-04-04T13:24:17.029Z</time></trkpt><trkpt lat="45.0353733" lon="8.496105"><ele>130.0</ele><time>2026-04-04T13:24:18.029Z</time></trkpt><trkpt lat="45.0353667" lon="8.496015"><ele>130.0</ele><time>2026-04-04T13:24:19.028Z</time></trkpt><trkpt lat="45.03535" lon="8.495855"><ele>130.0</ele><time>2026-04-04T13:24:21.028Z</time></trkpt><trkpt lat="45.0353383" lon="8.495725"><ele>130.0</ele><time>2026-04-04T13:24:23.027Z</time></trkpt><trkpt lat="45.035325" lon="8.4956033"><ele>130.0</ele><time>2026-04-04T13:24:25.03Z</time></trkpt><trkpt lat="45.035315" lon="8.4954967"><ele>130.0</ele><time>2026-04-04T13:24:28.028Z</time></trkpt><trkpt lat="45.035305" lon="8.4956017"><ele>130.0</ele><time>2026-04-04T13:25:06.029Z</time></trkpt><trkpt lat="45.0353267" lon="8.4958167"><ele>130.0</ele><time>2026-04-04T13:25:08.029Z</time></trkpt><trkpt lat="45.0353533" lon="8.4959833"><ele>130.0</ele><time>2026-04-04T13:25:09.029Z</time></trkpt><trkpt lat="45.03537" lon="8.4961283"><ele>130.0</ele><time>2026-04-04T13:25:10.029Z</time></trkpt><trkpt lat="45.035385" lon="8.4962683"><ele>130.0</ele><time>2026-04-04T13:25:11.03Z</time></trkpt><trkpt lat="45.0354" lon="8.496395"><ele>130.0</ele><time>2026-04-04T13:25:12.031Z</time></trkpt><trkpt lat="45.0354167" lon="8.4965167"><ele>130.0</ele><time>2026-04-04T13:25:13.03Z</time></trkpt><trkpt lat="45.0354317" lon="8.4966267"><ele>130.0</ele><time>2026-04-04T13:25:14.031Z</time></trkpt><trkpt lat="45.0354467" lon="8.4967283"><ele>130.0</ele><time>2026-04-04T13:25:15.029Z</time></trkpt><trkpt lat="45.03546" lon="8.4968167"><ele>130.0</ele><time>2026-04-04T13:25:16.029Z</time></trkpt><trkpt lat="45.0354783" lon="8.4969567"><ele>130.0</ele><time>2026-04-04T13:25:18.028Z</time></trkpt><trkpt lat="45.0354293" lon="8.4970433"><ele>130.0</ele><time>2026-04-04T13:25:21.028Z</time></trkpt><trkpt lat="45.0353653" lon="8.4969811"><ele>130.0</ele><time>2026-04-04T13:25:24.03Z</time></trkpt><trkpt lat="45.0353133" lon="8.4968983"><ele>130.0</ele><time>2026-04-04T13:25:27.083Z</time></trkpt><trkpt lat="45.0352754" lon="8.4968161"><ele>130.0</ele><time>2026-04-04T13:25:29.048Z</time></trkpt><trkpt lat="45.0352231" lon="8.4966226"><ele>130.0</ele><time>2026-04-04T13:25:32.03Z</time></trkpt><trkpt lat="45.0351943" lon="8.4965214"><ele>130.0</ele><time>2026-04-04T13:25:33.03Z</time></trkpt><trkpt lat="45.035166" lon="8.4964115"><ele>130.0</ele><time>2026-04-04T13:25:34.029Z</time></trkpt><trkpt lat="45.0351344" lon="8.4963045"><ele>130.0</ele><time>2026-04-04T13:25:35.03Z</time></trkpt><trkpt lat="45.0351029" lon="8.4962001"><ele>130.0</ele><time>2026-04-04T13:25:36.029Z</time></trkpt><trkpt lat="45.0350648" lon="8.4960705"><ele>130.0</ele><time>2026-04-04T13:25:37.029Z</time></trkpt><trkpt lat="45.0350206" lon="8.4959065"><ele>130.0</ele><time>2026-04-04T13:25:38.029Z</time></trkpt><trkpt lat="45.0349772" lon="8.4957393"><ele>130.0</ele><time>2026-04-04T13:25:39.029Z</time></trkpt><trkpt lat="45.0349322" lon="8.495561"><ele>130.0</ele><time>2026-04-04T13:25:40.029Z</time></trkpt><trkpt lat="45.0348879" lon="8.4953797"><ele>130.0</ele><time>2026-04-04T13:25:41.029Z</time></trkpt><trkpt lat="45.0348475" lon="8.4952103"><ele>130.0</ele><time>2026-04-04T13:25:42.03Z</time></trkpt><trkpt lat="45.0348065" lon="8.495046"><ele>130.0</ele><time>2026-04-04T13:25:43.03Z</time></trkpt><trkpt lat="45.0347633" lon="8.494879"><ele>130.0</ele><time>2026-04-04T13:25:44.03Z</time></trkpt><trkpt lat="45.0347146" lon="8.494703"><ele>130.0</ele><time>2026-04-04T13:25:45.031Z</time></trkpt><trkpt lat="45.0346658" lon="8.4945302"><ele>130.25</ele><time>2026-04-04T13:25:46.029Z</time></trkpt><trkpt lat="45.0346134" lon="8.4943566"><ele>130.5</ele><time>2026-04-04T13:25:47.029Z</time></trkpt><trkpt lat="45.0345633" lon="8.4941939"><ele>130.75</ele><time>2026-04-04T13:25:48.029Z</time></trkpt><trkpt lat="45.0345187" lon="8.4940504"><ele>131.0</ele><time>2026-04-04T13:25:49.03Z</time></trkpt><trkpt lat="45.0344794" lon="8.4939209"><ele>131.0</ele><time>2026-04-04T13:25:50.03Z</time></trkpt><trkpt lat="45.0344408" lon="8.4938025"><ele>131.0</ele><time>2026-04-04T13:25:51.029Z</time></trkpt><trkpt lat="45.0343982" lon="8.4936864"><ele>131.0</ele><time>2026-04-04T13:25:52.029Z</time></trkpt><trkpt lat="45.0343482" lon="8.4935673"><ele>131.0</ele><time>2026-04-04T13:25:53.029Z</time></trkpt><trkpt lat="45.0342903" lon="8.4934425"><ele>131.0</ele><time>2026-04-04T13:25:54.03Z</time></trkpt><trkpt lat="45.0342295" lon="8.4933129"><ele>131.0</ele><time>2026-04-04T13:25:55.03Z</time></trkpt><trkpt lat="45.0341661" lon="8.4931805"><ele>131.0</ele><time>2026-04-04T13:25:56.03Z</time></trkpt><trkpt lat="45.034098" lon="8.4930447"><ele>131.0</ele><time>2026-04-04T13:25:57.029Z</time></trkpt><trkpt lat="45.0340273" lon="8.4929043"><ele>131.0</ele><time>2026-04-04T13:25:58.028Z</time></trkpt><trkpt lat="45.0339521" lon="8.4927621"><ele>131.25</ele><time>2026-04-04T13:25:59.03Z</time></trkpt><trkpt lat="45.03388" lon="8.4926167"><ele>131.5</ele><time>2026-04-04T13:26:00.031Z</time></trkpt><trkpt lat="45.0338119" lon="8.4924754"><ele>131.75</ele><time>2026-04-04T13:26:01.029Z</time></trkpt><trkpt lat="45.0337462" lon="8.4923339"><ele>132.0</ele><time>2026-04-04T13:26:02.029Z</time></trkpt><trkpt lat="45.0336843" lon="8.492193"><ele>132.0</ele><time>2026-04-04T13:26:03.028Z</time></trkpt><trkpt lat="45.0336268" lon="8.4920526"><ele>132.0</ele><time>2026-04-04T13:26:04.028Z</time></trkpt><trkpt lat="45.0335744" lon="8.4919106"><ele>132.0</ele><time>2026-04-04T13:26:05.029Z</time></trkpt><trkpt lat="45.0335233" lon="8.4917631"><ele>132.0</ele><time>2026-04-04T13:26:06.029Z</time></trkpt><trkpt lat="45.0334736" lon="8.4916145"><ele>132.0</ele><time>2026-04-04T13:26:07.029Z</time></trkpt><trkpt lat="45.0334255" lon="8.4914646"><ele>132.0</ele><time>2026-04-04T13:26:08.029Z</time></trkpt><trkpt lat="45.0333776" lon="8.4913127"><ele>132.0</ele><time>2026-04-04T13:26:09.03Z</time></trkpt><trkpt lat="45.0333347" lon="8.4911605"><ele>132.0</ele><time>2026-04-04T13:26:10.029Z</time></trkpt><trkpt lat="45.0332924" lon="8.4910033"><ele>132.0</ele><time>2026-04-04T13:26:11.03Z</time></trkpt><trkpt lat="45.0332487" lon="8.4908446"><ele>132.0</ele><time>2026-04-04T13:26:12.031Z</time></trkpt><trkpt lat="45.0332066" lon="8.4906859"><ele>132.0</ele><time>2026-04-04T13:26:13.031Z</time></trkpt><trkpt lat="45.0331689" lon="8.4905295"><ele>132.0</ele><time>2026-04-04T13:26:14.03Z</time></trkpt><trkpt lat="45.0331363" lon="8.4903753"><ele>132.0</ele><time>2026-04-04T13:26:15.029Z</time></trkpt><trkpt lat="45.0331036" lon="8.4902195"><ele>132.0</ele><time>2026-04-04T13:26:16.029Z</time></trkpt><trkpt lat="45.0330697" lon="8.4900606"><ele>132.0</ele><time>2026-04-04T13:26:17.029Z</time></trkpt><trkpt lat="45.0330346" lon="8.4898984"><ele>132.0</ele><time>2026-04-04T13:26:18.03Z</time></trkpt><trkpt lat="45.0329993" lon="8.4897358"><ele>132.0</ele><time>2026-04-04T13:26:19.03Z</time></trkpt><trkpt lat="45.0329666" lon="8.4895802"><ele>132.0</ele><time>2026-04-04T13:26:20.031Z</time></trkpt><trkpt lat="45.0329326" lon="8.4894274"><ele>132.0</ele><time>2026-04-04T13:26:21.03Z</time></trkpt><trkpt lat="45.0328994" lon="8.4892791"><ele>132.0</ele><time>2026-04-04T13:26:22.029Z</time></trkpt><trkpt lat="45.0328624" lon="8.4891287"><ele>132.0</ele><time>2026-04-04T13:26:23.03Z</time></trkpt><trkpt lat="45.032822" lon="8.4889764"><ele>132.0</ele><time>2026-04-04T13:26:24.029Z</time></trkpt><trkpt lat="45.0327788" lon="8.4888174"><ele>132.0</ele><time>2026-04-04T13:26:25.03Z</time></trkpt><trkpt lat="45.0327352" lon="8.4886619"><ele>132.0</ele><time>2026-04-04T13:26:26.03Z</time></trkpt><trkpt lat="45.0326866" lon="8.4885104"><ele>132.25</ele><time>2026-04-04T13:26:27.031Z</time></trkpt><trkpt lat="45.0326297" lon="8.4883546"><ele>132.5</ele><time>2026-04-04T13:26:28.029Z</time></trkpt><trkpt lat="45.0325699" lon="8.4881915"><ele>132.75</ele><time>2026-04-04T13:26:29.03Z</time></trkpt><trkpt lat="45.0325065" lon="8.4880209"><ele>133.0</ele><time>2026-04-04T13:26:30.031Z</time></trkpt><trkpt lat="45.0324429" lon="8.4878427"><ele>133.0</ele><time>2026-04-04T13:26:31.03Z</time></trkpt><trkpt lat="45.0323812" lon="8.4876585"><ele>133.0</ele><time>2026-04-04T13:26:32.03Z</time></trkpt><trkpt lat="45.0323226" lon="8.4874736"><ele>133.0</ele><time>2026-04-04T13:26:33.03Z</time></trkpt><trkpt lat="45.0322686" lon="8.4872948"><ele>133.0</ele><time>2026-04-04T13:26:34.029Z</time></trkpt><trkpt lat="45.0322173" lon="8.487128"><ele>133.0</ele><time>2026-04-04T13:26:35.029Z</time></trkpt><trkpt lat="45.032168" lon="8.4869706"><ele>133.0</ele><time>2026-04-04T13:26:36.031Z</time></trkpt><trkpt lat="45.0321186" lon="8.4868218"><ele>133.0</ele><time>2026-04-04T13:26:37.03Z</time></trkpt><trkpt lat="45.0320689" lon="8.4866749"><ele>133.0</ele><time>2026-04-04T13:26:38.03Z</time></trkpt><trkpt lat="45.0320155" lon="8.4865293"><ele>133.0</ele><time>2026-04-04T13:26:39.032Z</time></trkpt><trkpt lat="45.0319619" lon="8.4863875"><ele>133.0</ele><time>2026-04-04T13:26:40.029Z</time></trkpt><trkpt lat="45.0319089" lon="8.4862487"><ele>133.0</ele><time>2026-04-04T13:26:41.03Z</time></trkpt><trkpt lat="45.0318541" lon="8.486113"><ele>133.0</ele><time>2026-04-04T13:26:42.031Z</time></trkpt><trkpt lat="45.0317964" lon="8.4859821"><ele>133.0</ele><time>2026-04-04T13:26:43.03Z</time></trkpt><trkpt lat="45.0317388" lon="8.4858581"><ele>133.4</ele><time>2026-04-04T13:26:44.031Z</time></trkpt><trkpt lat="45.0316814" lon="8.485742"><ele>133.8</ele><time>2026-04-04T13:26:45.03Z</time></trkpt><trkpt lat="45.0316262" lon="8.4856363"><ele>134.2</ele><time>2026-04-04T13:26:46.029Z</time></trkpt><trkpt lat="45.0315703" lon="8.4855317"><ele>134.6</ele><time>2026-04-04T13:26:47.029Z</time></trkpt><trkpt lat="45.0315133" lon="8.4854234"><ele>135.0</ele><time>2026-04-04T13:26:48.03Z</time></trkpt><trkpt lat="45.0314552" lon="8.4853116"><ele>135.0</ele><time>2026-04-04T13:26:49.03Z</time></trkpt><trkpt lat="45.031398" lon="8.4852009"><ele>135.0</ele><time>2026-04-04T13:26:50.031Z</time></trkpt><trkpt lat="45.0313415" lon="8.4850897"><ele>135.0</ele><time>2026-04-04T13:26:51.032Z</time></trkpt><trkpt lat="45.0312873" lon="8.484979"><ele>135.0</ele><time>2026-04-04T13:26:52.03Z</time></trkpt><trkpt lat="45.0312327" lon="8.4848714"><ele>135.0</ele><time>2026-04-04T13:26:53.031Z</time></trkpt><trkpt lat="45.0311766" lon="8.4847682"><ele>135.0</ele><time>2026-04-04T13:26:54.03Z</time></trkpt><trkpt lat="45.0311226" lon="8.484667"><ele>135.0</ele><time>2026-04-04T13:26:55.031Z</time></trkpt><trkpt lat="45.0310655" lon="8.4845726"><ele>135.0</ele><time>2026-04-04T13:26:56.03Z</time></trkpt><trkpt lat="45.0310042" lon="8.4844867"><ele>135.0</ele><time>2026-04-04T13:26:57.031Z</time></trkpt><trkpt lat="45.0309392" lon="8.4844068"><ele>135.0</ele><time>2026-04-04T13:26:58.031Z</time></trkpt><trkpt lat="45.0308712" lon="8.4843255"><ele>135.0</ele><time>2026-04-04T13:26:59.031Z</time></trkpt><trkpt lat="45.0307969" lon="8.4842445"><ele>135.2</ele><time>2026-04-04T13:27:00.03Z</time></trkpt><trkpt lat="45.0307183" lon="8.4841616"><ele>135.4</ele><time>2026-04-04T13:27:01.031Z</time></trkpt><trkpt lat="45.030638" lon="8.4840789"><ele>135.6</ele><time>2026-04-04T13:27:02.031Z</time></trkpt><trkpt lat="45.0305575" lon="8.4840003"><ele>135.8</ele><time>2026-04-04T13:27:03.032Z</time></trkpt><trkpt lat="45.0304745" lon="8.483921"><ele>136.0</ele><time>2026-04-04T13:27:04.03Z</time></trkpt><trkpt lat="45.0303946" lon="8.4838394"><ele>136.0</ele><time>2026-04-04T13:27:05.029Z</time></trkpt><trkpt lat="45.0303177" lon="8.4837633"><ele>136.0</ele><time>2026-04-04T13:27:06.029Z</time></trkpt><trkpt lat="45.0302463" lon="8.4836958"><ele>136.0</ele><time>2026-04-04T13:27:07.03Z</time></trkpt><trkpt lat="45.0301787" lon="8.4836324"><ele>136.0</ele><time>2026-04-04T13:27:08.03Z</time></trkpt><trkpt lat="45.030112" lon="8.4835683"><ele>136.0</ele><time>2026-04-04T13:27:09.032Z</time></trkpt><trkpt lat="45.0300444" lon="8.4835031"><ele>136.0</ele><time>2026-04-04T13:27:10.029Z</time></trkpt><trkpt lat="45.0299776" lon="8.4834392"><ele>135.83333333333334</ele><time>2026-04-04T13:27:11.03Z</time></trkpt><trkpt lat="45.0299126" lon="8.4833746"><ele>135.66666666666669</ele><time>2026-04-04T13:27:12.031Z</time></trkpt><trkpt lat="45.0298505" lon="8.4833099"><ele>135.5</ele><time>2026-04-04T13:27:13.03Z</time></trkpt><trkpt lat="45.0297936" lon="8.4832514"><ele>135.33333333333334</ele><time>2026-04-04T13:27:14.03Z</time></trkpt><trkpt lat="45.0297414" lon="8.4831968"><ele>135.16666666666666</ele><time>2026-04-04T13:27:15.031Z</time></trkpt><trkpt lat="45.0296553" lon="8.4831048"><ele>135.0</ele><time>2026-04-04T13:27:17.03Z</time></trkpt><trkpt lat="45.0295999" lon="8.4830389"><ele>135.0</ele><time>2026-04-04T13:27:19.031Z</time></trkpt><trkpt lat="45.0295608" lon="8.4829607"><ele>135.0</ele><time>2026-04-04T13:27:23.03Z</time></trkpt><trkpt lat="45.0294717" lon="8.4829183"><ele>135.0</ele><time>2026-04-04T13:27:34.03Z</time></trkpt><trkpt lat="45.0293967" lon="8.4828767"><ele>135.0</ele><time>2026-04-04T13:27:36.03Z</time></trkpt><trkpt lat="45.029325" lon="8.482795"><ele>135.0</ele><time>2026-04-04T13:27:38.03Z</time></trkpt><trkpt lat="45.02925" lon="8.4827217"><ele>135.0</ele><time>2026-04-04T13:27:40.031Z</time></trkpt><trkpt lat="45.0291367" lon="8.4826417"><ele>133.66666666666666</ele><time>2026-04-04T13:27:42.031Z</time></trkpt><trkpt lat="45.0290683" lon="8.4826"><ele>132.33333333333334</ele><time>2026-04-04T13:27:43.031Z</time></trkpt><trkpt lat="45.0289967" lon="8.4825633"><ele>131.0</ele><time>2026-04-04T13:27:44.03Z</time></trkpt><trkpt lat="45.02893" lon="8.4825267"><ele>129.66666666666669</ele><time>2026-04-04T13:27:45.03Z</time></trkpt><trkpt lat="45.0288667" lon="8.48249"><ele>128.33333333333334</ele><time>2026-04-04T13:27:46.029Z</time></trkpt><trkpt lat="45.0288067" lon="8.4824583"><ele>127.0</ele><time>2026-04-04T13:27:47.031Z</time></trkpt><trkpt lat="45.0287067" lon="8.48242"><ele>127.0</ele><time>2026-04-04T13:27:49.03Z</time></trkpt><trkpt lat="45.0286316" lon="8.4823643"><ele>126.99999999999999</ele><time>2026-04-04T13:27:52.029Z</time></trkpt><trkpt lat="45.0286486" lon="8.4822364"><ele>126.99999999999999</ele><time>2026-04-04T13:27:55.029Z</time></trkpt><trkpt lat="45.0287318" lon="8.4821064"><ele>127.0</ele><time>2026-04-04T13:27:58.084Z</time></trkpt><trkpt lat="45.028762" lon="8.4819903"><ele>127.0</ele><time>2026-04-04T13:27:59.03Z</time></trkpt><trkpt lat="45.0287851" lon="8.4818656"><ele>126.19999999999999</ele><time>2026-04-04T13:28:00.03Z</time></trkpt><trkpt lat="45.0288036" lon="8.4817371"><ele>125.39999999999999</ele><time>2026-04-04T13:28:01.031Z</time></trkpt><trkpt lat="45.0288206" lon="8.4816115"><ele>124.60000000000001</ele><time>2026-04-04T13:28:02.031Z</time></trkpt><trkpt lat="45.028837" lon="8.4814876"><ele>123.80000000000001</ele><time>2026-04-04T13:28:03.03Z</time></trkpt><trkpt lat="45.0288523" lon="8.4813592"><ele>123.0</ele><time>2026-04-04T13:28:04.031Z</time></trkpt><trkpt lat="45.0288668" lon="8.481232"><ele>122.80000000000001</ele><time>2026-04-04T13:28:05.031Z</time></trkpt><trkpt lat="45.0288841" lon="8.4811004"><ele>122.60000000000001</ele><time>2026-04-04T13:28:06.03Z</time></trkpt><trkpt lat="45.0288996" lon="8.4809676"><ele>122.39999999999999</ele><time>2026-04-04T13:28:07.03Z</time></trkpt><trkpt lat="45.0289153" lon="8.4808334"><ele>122.19999999999999</ele><time>2026-04-04T13:28:08.029Z</time></trkpt><trkpt lat="45.0289307" lon="8.4807004"><ele>122.0</ele><time>2026-04-04T13:28:09.029Z</time></trkpt><trkpt lat="45.0289453" lon="8.4805733"><ele>121.99999999999999</ele><time>2026-04-04T13:28:10.029Z</time></trkpt><trkpt lat="45.0289628" lon="8.4804494"><ele>122.0</ele><time>2026-04-04T13:28:11.029Z</time></trkpt><trkpt lat="45.0289815" lon="8.4803216"><ele>122.0</ele><time>2026-04-04T13:28:12.03Z</time></trkpt><trkpt lat="45.0290012" lon="8.4801891"><ele>122.0</ele><time>2026-04-04T13:28:13.03Z</time></trkpt><trkpt lat="45.0290203" lon="8.4800639"><ele>121.99999999999999</ele><time>2026-04-04T13:28:14.03Z</time></trkpt><trkpt lat="45.0290389" lon="8.4799542"><ele>122.0</ele><time>2026-04-04T13:28:15.03Z</time></trkpt><trkpt lat="45.0290533" lon="8.4798539"><ele>122.33333333333333</ele><time>2026-04-04T13:28:16.03Z</time></trkpt><trkpt lat="45.0290681" lon="8.4797539"><ele>122.66666666666666</ele><time>2026-04-04T13:28:17.03Z</time></trkpt><trkpt lat="45.0290832" lon="8.4796556"><ele>123.0</ele><time>2026-04-04T13:28:18.03Z</time></trkpt><trkpt lat="45.0290968" lon="8.4795588"><ele>123.33333333333334</ele><time>2026-04-04T13:28:19.031Z</time></trkpt><trkpt lat="45.0291075" lon="8.479468"><ele>123.66666666666667</ele><time>2026-04-04T13:28:20.029Z</time></trkpt><trkpt lat="45.0291157" lon="8.4793776"><ele>124.0</ele><time>2026-04-04T13:28:21.03Z</time></trkpt><trkpt lat="45.0291384" lon="8.4791973"><ele>123.33333333333334</ele><time>2026-04-04T13:28:23.029Z</time></trkpt><trkpt lat="45.0291648" lon="8.4791019"><ele>122.66666666666667</ele><time>2026-04-04T13:28:24.031Z</time></trkpt><trkpt lat="45.0291942" lon="8.4790097"><ele>122.0</ele><time>2026-04-04T13:28:25.031Z</time></trkpt><trkpt lat="45.0292195" lon="8.4789234"><ele>121.33333333333334</ele><time>2026-04-04T13:28:26.031Z</time></trkpt><trkpt lat="45.0292297" lon="8.4787517"><ele>120.66666666666667</ele><time>2026-04-04T13:28:28.03Z</time></trkpt><trkpt lat="45.0292134" lon="8.4786607"><ele>120.0</ele><time>2026-04-04T13:28:29.031Z</time></trkpt><trkpt lat="45.0291789" lon="8.4785668"><ele>120.16666666666667</ele><time>2026-04-04T13:28:30.03Z</time></trkpt><trkpt lat="45.0291336" lon="8.4784774"><ele>120.33333333333334</ele><time>2026-04-04T13:28:31.03Z</time></trkpt><trkpt lat="45.029079" lon="8.4783992"><ele>120.5</ele><time>2026-04-04T13:28:32.03Z</time></trkpt><trkpt lat="45.0290203" lon="8.4783308"><ele>120.66666666666667</ele><time>2026-04-04T13:28:33.031Z</time></trkpt><trkpt lat="45.0289537" lon="8.4782675"><ele>120.83333333333334</ele><time>2026-04-04T13:28:34.03Z</time></trkpt><trkpt lat="45.0288814" lon="8.4782105"><ele>121.0</ele><time>2026-04-04T13:28:35.031Z</time></trkpt><trkpt lat="45.0288096" lon="8.4781561"><ele>121.00000000000001</ele><time>2026-04-04T13:28:36.031Z</time></trkpt><trkpt lat="45.028733" lon="8.478096"><ele>121.0</ele><time>2026-04-04T13:28:37.032Z</time></trkpt><trkpt lat="45.0286555" lon="8.4780372"><ele>121.0</ele><time>2026-04-04T13:28:38.031Z</time></trkpt><trkpt lat="45.028579" lon="8.4779826"><ele>121.0</ele><time>2026-04-04T13:28:39.03Z</time></trkpt><trkpt lat="45.0285007" lon="8.477931"><ele>121.00000000000001</ele><time>2026-04-04T13:28:40.029Z</time></trkpt><trkpt lat="45.0284209" lon="8.4778782"><ele>121.0</ele><time>2026-04-04T13:28:41.027Z</time></trkpt><trkpt lat="45.0283395" lon="8.4778223"><ele>121.00000000000001</ele><time>2026-04-04T13:28:42.027Z</time></trkpt><trkpt lat="45.0282602" lon="8.4777638"><ele>121.0</ele><time>2026-04-04T13:28:43.028Z</time></trkpt><trkpt lat="45.0281856" lon="8.4777035"><ele>121.0</ele><time>2026-04-04T13:28:44.028Z</time></trkpt><trkpt lat="45.0281164" lon="8.4776434"><ele>121.0</ele><time>2026-04-04T13:28:45.029Z</time></trkpt><trkpt lat="45.028055" lon="8.4775817"><ele>121.00000000000001</ele><time>2026-04-04T13:28:46.027Z</time></trkpt><trkpt lat="45.0280033" lon="8.4775217"><ele>121.0</ele><time>2026-04-04T13:28:47.029Z</time></trkpt><trkpt lat="45.0279567" lon="8.4774533"><ele>121.00000000000001</ele><time>2026-04-04T13:28:48.027Z</time></trkpt><trkpt lat="45.02793" lon="8.47736"><ele>121.0</ele><time>2026-04-04T13:28:49.028Z</time></trkpt><trkpt lat="45.027915" lon="8.4772567"><ele>121.0</ele><time>2026-04-04T13:28:50.027Z</time></trkpt><trkpt lat="45.0279067" lon="8.4771533"><ele>121.0</ele><time>2026-04-04T13:28:51.029Z</time></trkpt><trkpt lat="45.0279083" lon="8.4770583"><ele>121.00000000000001</ele><time>2026-04-04T13:28:52.027Z</time></trkpt><trkpt lat="45.0279317" lon="8.476895"><ele>121.0</ele><time>2026-04-04T13:28:54.028Z</time></trkpt><trkpt lat="45.0279467" lon="8.4767683"><ele>121.33333333333334</ele><time>2026-04-04T13:28:56.028Z</time></trkpt><trkpt lat="45.0279467" lon="8.4766433"><ele>121.66666666666667</ele><time>2026-04-04T13:28:58.028Z</time></trkpt><trkpt lat="45.027945" lon="8.47652"><ele>122.0</ele><time>2026-04-04T13:29:00.028Z</time></trkpt><trkpt lat="45.0279417" lon="8.4764133"><ele>122.33333333333334</ele><time>2026-04-04T13:29:02.028Z</time></trkpt><trkpt lat="45.027925" lon="8.4763133"><ele>122.66666666666667</ele><time>2026-04-04T13:29:05.027Z</time></trkpt><trkpt lat="45.0278533" lon="8.4762817"><ele>123.0</ele><time>2026-04-04T13:29:09.029Z</time></trkpt><trkpt lat="45.02776" lon="8.476285"><ele>123.0</ele><time>2026-04-04T13:29:11.029Z</time></trkpt><trkpt lat="45.0276267" lon="8.4763017"><ele>123.00000000000001</ele><time>2026-04-04T13:29:13.028Z</time></trkpt><trkpt lat="45.0275467" lon="8.4763083"><ele>123.00000000000001</ele><time>2026-04-04T13:29:14.028Z</time></trkpt><trkpt lat="45.0274533" lon="8.4763133"><ele>123.0</ele><time>2026-04-04T13:29:15.03Z</time></trkpt><trkpt lat="45.0273483" lon="8.47632"><ele>123.0</ele><time>2026-04-04T13:29:16.027Z</time></trkpt><trkpt lat="45.02724" lon="8.476325"><ele>123.25</ele><time>2026-04-04T13:29:17.028Z</time></trkpt><trkpt lat="45.027115" lon="8.4763283"><ele>123.5</ele><time>2026-04-04T13:29:18.028Z</time></trkpt><trkpt lat="45.027" lon="8.476335"><ele>123.75</ele><time>2026-04-04T13:29:19.029Z</time></trkpt><trkpt lat="45.0268883" lon="8.4763433"><ele>124.0</ele><time>2026-04-04T13:29:20.028Z</time></trkpt><trkpt lat="45.0267762" lon="8.4763461"><ele>124.0</ele><time>2026-04-04T13:29:21.028Z</time></trkpt><trkpt lat="45.0266629" lon="8.4763442"><ele>124.0</ele><time>2026-04-04T13:29:22.028Z</time></trkpt><trkpt lat="45.0265528" lon="8.4763375"><ele>124.0</ele><time>2026-04-04T13:29:23.028Z</time></trkpt><trkpt lat="45.0264405" lon="8.476325"><ele>124.0</ele><time>2026-04-04T13:29:24.027Z</time></trkpt><trkpt lat="45.0263364" lon="8.4763063"><ele>124.0</ele><time>2026-04-04T13:29:25.03Z</time></trkpt><trkpt lat="45.0262367" lon="8.4762795"><ele>124.2</ele><time>2026-04-04T13:29:26.028Z</time></trkpt><trkpt lat="45.0261362" lon="8.4762476"><ele>124.4</ele><time>2026-04-04T13:29:27.027Z</time></trkpt><trkpt lat="45.0260406" lon="8.476199"><ele>124.6</ele><time>2026-04-04T13:29:28.027Z</time></trkpt><trkpt lat="45.0259403" lon="8.4761209"><ele>124.8</ele><time>2026-04-04T13:29:29.028Z</time></trkpt><trkpt lat="45.0258358" lon="8.4760213"><ele>125.0</ele><time>2026-04-04T13:29:30.027Z</time></trkpt><trkpt lat="45.025734" lon="8.4759149"><ele>125.0</ele><time>2026-04-04T13:29:31.03Z</time></trkpt><trkpt lat="45.0256341" lon="8.4758079"><ele>125.0</ele><time>2026-04-04T13:29:32.028Z</time></trkpt><trkpt lat="45.0255366" lon="8.4757133"><ele>125.0</ele><time>2026-04-04T13:29:33.028Z</time></trkpt><trkpt lat="45.0254373" lon="8.4756276"><ele>125.0</ele><time>2026-04-04T13:29:34.028Z</time></trkpt><trkpt lat="45.0253361" lon="8.4755476"><ele>125.0</ele><time>2026-04-04T13:29:35.029Z</time></trkpt><trkpt lat="45.0252341" lon="8.4754722"><ele>125.0</ele><time>2026-04-04T13:29:36.028Z</time></trkpt><trkpt lat="45.025127" lon="8.4753977"><ele>125.0</ele><time>2026-04-04T13:29:37.028Z</time></trkpt><trkpt lat="45.0250052" lon="8.4753097"><ele>125.0</ele><time>2026-04-04T13:29:38.027Z</time></trkpt><trkpt lat="45.0248739" lon="8.4752167"><ele>125.5</ele><time>2026-04-04T13:29:39.03Z</time></trkpt><trkpt lat="45.0247457" lon="8.475133"><ele>126.0</ele><time>2026-04-04T13:29:40.027Z</time></trkpt><trkpt lat="45.0246203" lon="8.4750569"><ele>126.5</ele><time>2026-04-04T13:29:41.028Z</time></trkpt><trkpt lat="45.0244941" lon="8.4749881"><ele>127.0</ele><time>2026-04-04T13:29:42.028Z</time></trkpt><trkpt lat="45.0243632" lon="8.4749263"><ele>127.0</ele><time>2026-04-04T13:29:43.029Z</time></trkpt><trkpt lat="45.0242325" lon="8.4748798"><ele>127.0</ele><time>2026-04-04T13:29:44.03Z</time></trkpt><trkpt lat="45.0241063" lon="8.4748432"><ele>127.0</ele><time>2026-04-04T13:29:45.028Z</time></trkpt><trkpt lat="45.0239832" lon="8.4748137"><ele>127.0</ele><time>2026-04-04T13:29:46.027Z</time></trkpt><trkpt lat="45.0238592" lon="8.4747735"><ele>126.5</ele><time>2026-04-04T13:29:47.028Z</time></trkpt><trkpt lat="45.0237385" lon="8.4747148"><ele>126.0</ele><time>2026-04-04T13:29:48.028Z</time></trkpt><trkpt lat="45.0236213" lon="8.4746352"><ele>125.5</ele><time>2026-04-04T13:29:49.028Z</time></trkpt><trkpt lat="45.0235107" lon="8.474537"><ele>125.0</ele><time>2026-04-04T13:29:50.027Z</time></trkpt><trkpt lat="45.0234005" lon="8.4744348"><ele>125.0</ele><time>2026-04-04T13:29:51.029Z</time></trkpt><trkpt lat="45.0232838" lon="8.4743437"><ele>125.0</ele><time>2026-04-04T13:29:52.028Z</time></trkpt><trkpt lat="45.0231573" lon="8.4742639"><ele>125.0</ele><time>2026-04-04T13:29:53.028Z</time></trkpt><trkpt lat="45.0230279" lon="8.4741943"><ele>125.0</ele><time>2026-04-04T13:29:54.029Z</time></trkpt><trkpt lat="45.0228986" lon="8.4741325"><ele>125.0</ele><time>2026-04-04T13:29:55.028Z</time></trkpt><trkpt lat="45.0227709" lon="8.4740744"><ele>125.0</ele><time>2026-04-04T13:29:56.029Z</time></trkpt><trkpt lat="45.0226488" lon="8.4740157"><ele>125.0</ele><time>2026-04-04T13:29:57.029Z</time></trkpt><trkpt lat="45.0225288" lon="8.4739573"><ele>125.0</ele><time>2026-04-04T13:29:58.027Z</time></trkpt><trkpt lat="45.0224108" lon="8.4738951"><ele>125.0</ele><time>2026-04-04T13:29:59.027Z</time></trkpt><trkpt lat="45.0222941" lon="8.4738267"><ele>125.0</ele><time>2026-04-04T13:30:00.027Z</time></trkpt><trkpt lat="45.0221737" lon="8.4737527"><ele>125.0</ele><time>2026-04-04T13:30:01.027Z</time></trkpt><trkpt lat="45.0220499" lon="8.4736678"><ele>125.0</ele><time>2026-04-04T13:30:02.028Z</time></trkpt><trkpt lat="45.0219222" lon="8.4735744"><ele>125.0</ele><time>2026-04-04T13:30:03.028Z</time></trkpt><trkpt lat="45.0217951" lon="8.4734742"><ele>125.0</ele><time>2026-04-04T13:30:04.028Z</time></trkpt><trkpt lat="45.021667" lon="8.4733731"><ele>125.0</ele><time>2026-04-04T13:30:05.028Z</time></trkpt><trkpt lat="45.0215379" lon="8.4732775"><ele>125.0</ele><time>2026-04-04T13:30:06.028Z</time></trkpt><trkpt lat="45.0214109" lon="8.473189"><ele>125.0</ele><time>2026-04-04T13:30:07.029Z</time></trkpt><trkpt lat="45.0212906" lon="8.4731034"><ele>125.0</ele><time>2026-04-04T13:30:08.03Z</time></trkpt><trkpt lat="45.0211799" lon="8.4730195"><ele>125.0</ele><time>2026-04-04T13:30:09.029Z</time></trkpt><trkpt lat="45.0210766" lon="8.4729305"><ele>125.0</ele><time>2026-04-04T13:30:10.028Z</time></trkpt><trkpt lat="45.0209813" lon="8.4728351"><ele>125.25</ele><time>2026-04-04T13:30:11.028Z</time></trkpt><trkpt lat="45.0208915" lon="8.4727318"><ele>125.5</ele><time>2026-04-04T13:30:12.027Z</time></trkpt><trkpt lat="45.0208041" lon="8.4726142"><ele>125.75</ele><time>2026-04-04T13:30:13.028Z</time></trkpt><trkpt lat="45.0207196" lon="8.472481"><ele>126.0</ele><time>2026-04-04T13:30:14.029Z</time></trkpt><trkpt lat="45.0206391" lon="8.4723415"><ele>126.0</ele><time>2026-04-04T13:30:15.029Z</time></trkpt><trkpt lat="45.020559" lon="8.4722012"><ele>126.0</ele><time>2026-04-04T13:30:16.028Z</time></trkpt><trkpt lat="45.0204762" lon="8.4720651"><ele>126.0</ele><time>2026-04-04T13:30:17.03Z</time></trkpt><trkpt lat="45.0203857" lon="8.4719278"><ele>126.0</ele><time>2026-04-04T13:30:18.028Z</time></trkpt><trkpt lat="45.0202936" lon="8.4717982"><ele>126.25</ele><time>2026-04-04T13:30:19.03Z</time></trkpt><trkpt lat="45.0201984" lon="8.4716745"><ele>126.5</ele><time>2026-04-04T13:30:20.029Z</time></trkpt><trkpt lat="45.0201011" lon="8.4715593"><ele>126.75</ele><time>2026-04-04T13:30:21.028Z</time></trkpt><trkpt lat="45.020004" lon="8.4714612"><ele>127.0</ele><time>2026-04-04T13:30:22.028Z</time></trkpt><trkpt lat="45.0199071" lon="8.471373"><ele>127.0</ele><time>2026-04-04T13:30:23.029Z</time></trkpt><trkpt lat="45.0198111" lon="8.4712912"><ele>127.0</ele><time>2026-04-04T13:30:24.027Z</time></trkpt><trkpt lat="45.0197128" lon="8.4712144"><ele>127.0</ele><time>2026-04-04T13:30:25.029Z</time></trkpt><trkpt lat="45.0196112" lon="8.4711424"><ele>127.0</ele><time>2026-04-04T13:30:26.029Z</time></trkpt><trkpt lat="45.0195034" lon="8.47107"><ele>127.0</ele><time>2026-04-04T13:30:27.029Z</time></trkpt><trkpt lat="45.019396" lon="8.4709968"><ele>127.0</ele><time>2026-04-04T13:30:28.027Z</time></trkpt><trkpt lat="45.0192879" lon="8.470923"><ele>127.0</ele><time>2026-04-04T13:30:29.028Z</time></trkpt><trkpt lat="45.0191823" lon="8.4708504"><ele>127.0</ele><time>2026-04-04T13:30:30.027Z</time></trkpt><trkpt lat="45.0190778" lon="8.4707838"><ele>127.0</ele><time>2026-04-04T13:30:31.028Z</time></trkpt><trkpt lat="45.0189747" lon="8.4707219"><ele>126.99999999999999</ele><time>2026-04-04T13:30:32.028Z</time></trkpt><trkpt lat="45.0188714" lon="8.4706604"><ele>126.99999999999999</ele><time>2026-04-04T13:30:33.028Z</time></trkpt><trkpt lat="45.0187676" lon="8.4705955"><ele>127.0</ele><time>2026-04-04T13:30:34.027Z</time></trkpt><trkpt lat="45.018667" lon="8.4705264"><ele>127.0</ele><time>2026-04-04T13:30:35.027Z</time></trkpt><trkpt lat="45.0185681" lon="8.470449"><ele>127.5</ele><time>2026-04-04T13:30:36.027Z</time></trkpt><trkpt lat="45.0184758" lon="8.4703535"><ele>128.0</ele><time>2026-04-04T13:30:37.028Z</time></trkpt><trkpt lat="45.0183854" lon="8.470233"><ele>128.5</ele><time>2026-04-04T13:30:38.027Z</time></trkpt><trkpt lat="45.0182992" lon="8.4700954"><ele>129.0</ele><time>2026-04-04T13:30:39.027Z</time></trkpt><trkpt lat="45.0182177" lon="8.4699469"><ele>128.5</ele><time>2026-04-04T13:30:40.027Z</time></trkpt><trkpt lat="45.0181433" lon="8.4697946"><ele>128.0</ele><time>2026-04-04T13:30:41.028Z</time></trkpt><trkpt lat="45.0180734" lon="8.4696419"><ele>127.5</ele><time>2026-04-04T13:30:42.028Z</time></trkpt><trkpt lat="45.018009" lon="8.4694834"><ele>127.0</ele><time>2026-04-04T13:30:43.028Z</time></trkpt><trkpt lat="45.0179475" lon="8.4693217"><ele>127.0</ele><time>2026-04-04T13:30:44.028Z</time></trkpt><trkpt lat="45.0178919" lon="8.4691652"><ele>127.0</ele><time>2026-04-04T13:30:45.028Z</time></trkpt><trkpt lat="45.0178409" lon="8.4690124"><ele>127.0</ele><time>2026-04-04T13:30:46.028Z</time></trkpt><trkpt lat="45.0177942" lon="8.4688638"><ele>127.0</ele><time>2026-04-04T13:30:47.028Z</time></trkpt><trkpt lat="45.0177483" lon="8.4687121"><ele>127.75</ele><time>2026-04-04T13:30:48.029Z</time></trkpt><trkpt lat="45.0177023" lon="8.4685524"><ele>128.5</ele><time>2026-04-04T13:30:49.027Z</time></trkpt><trkpt lat="45.0176599" lon="8.4683913"><ele>129.25</ele><time>2026-04-04T13:30:50.027Z</time></trkpt><trkpt lat="45.0176185" lon="8.4682323"><ele>130.0</ele><time>2026-04-04T13:30:51.029Z</time></trkpt><trkpt lat="45.0175722" lon="8.4680682"><ele>130.75</ele><time>2026-04-04T13:30:52.027Z</time></trkpt><trkpt lat="45.0175174" lon="8.4678986"><ele>131.5</ele><time>2026-04-04T13:30:53.027Z</time></trkpt><trkpt lat="45.0174611" lon="8.4677285"><ele>132.25</ele><time>2026-04-04T13:30:54.028Z</time></trkpt><trkpt lat="45.0174033" lon="8.4675631"><ele>133.0</ele><time>2026-04-04T13:30:55.029Z</time></trkpt><trkpt lat="45.0173445" lon="8.4674044"><ele>132.20000000000002</ele><time>2026-04-04T13:30:56.029Z</time></trkpt><trkpt lat="45.0172886" lon="8.4672605"><ele>131.4</ele><time>2026-04-04T13:30:57.028Z</time></trkpt><trkpt lat="45.0172358" lon="8.4671307"><ele>130.60000000000002</ele><time>2026-04-04T13:30:58.027Z</time></trkpt><trkpt lat="45.017188" lon="8.4670092"><ele>129.8</ele><time>2026-04-04T13:30:59.028Z</time></trkpt><trkpt lat="45.0171418" lon="8.4668957"><ele>129.0</ele><time>2026-04-04T13:31:00.028Z</time></trkpt><trkpt lat="45.0170914" lon="8.4667786"><ele>129.0</ele><time>2026-04-04T13:31:01.027Z</time></trkpt><trkpt lat="45.0170325" lon="8.4666548"><ele>129.0</ele><time>2026-04-04T13:31:02.027Z</time></trkpt><trkpt lat="45.0169649" lon="8.4665273"><ele>129.0</ele><time>2026-04-04T13:31:03.029Z</time></trkpt><trkpt lat="45.0168897" lon="8.4663996"><ele>129.0</ele><time>2026-04-04T13:31:04.029Z</time></trkpt><trkpt lat="45.0168061" lon="8.4662708"><ele>129.0</ele><time>2026-04-04T13:31:05.029Z</time></trkpt><trkpt lat="45.0167116" lon="8.4661551"><ele>129.0</ele><time>2026-04-04T13:31:06.027Z</time></trkpt><trkpt lat="45.0166133" lon="8.4660549"><ele>129.0</ele><time>2026-04-04T13:31:07.028Z</time></trkpt><trkpt lat="45.0165057" lon="8.4659603"><ele>129.0</ele><time>2026-04-04T13:31:08.028Z</time></trkpt><trkpt lat="45.0164024" lon="8.4658678"><ele>129.0</ele><time>2026-04-04T13:31:09.029Z</time></trkpt><trkpt lat="45.016305" lon="8.4657748"><ele>129.0</ele><time>2026-04-04T13:31:10.028Z</time></trkpt><trkpt lat="45.0162097" lon="8.4656772"><ele>129.0</ele><time>2026-04-04T13:31:11.028Z</time></trkpt><trkpt lat="45.0161147" lon="8.4655698"><ele>129.0</ele><time>2026-04-04T13:31:12.031Z</time></trkpt><trkpt lat="45.0160199" lon="8.4654536"><ele>129.5</ele><time>2026-04-04T13:31:13.027Z</time></trkpt><trkpt lat="45.0159235" lon="8.4653312"><ele>130.0</ele><time>2026-04-04T13:31:14.029Z</time></trkpt><trkpt lat="45.0158254" lon="8.465205"><ele>130.5</ele><time>2026-04-04T13:31:15.032Z</time></trkpt><trkpt lat="45.0157314" lon="8.465075"><ele>131.0</ele><time>2026-04-04T13:31:16.027Z</time></trkpt><trkpt lat="45.0156448" lon="8.4649422"><ele>131.0</ele><time>2026-04-04T13:31:17.027Z</time></trkpt><trkpt lat="45.015564" lon="8.4648081"><ele>131.0</ele><time>2026-04-04T13:31:18.028Z</time></trkpt><trkpt lat="45.0154892" lon="8.4646733"><ele>131.0</ele><time>2026-04-04T13:31:19.028Z</time></trkpt><trkpt lat="45.0154234" lon="8.4645341"><ele>131.0</ele><time>2026-04-04T13:31:20.029Z</time></trkpt><trkpt lat="45.0153714" lon="8.4643979"><ele>131.33333333333331</ele><time>2026-04-04T13:31:21.028Z</time></trkpt><trkpt lat="45.0153298" lon="8.4642729"><ele>131.66666666666666</ele><time>2026-04-04T13:31:22.028Z</time></trkpt><trkpt lat="45.0152956" lon="8.4641612"><ele>132.0</ele><time>2026-04-04T13:31:23.029Z</time></trkpt><trkpt lat="45.0152607" lon="8.4640552"><ele>132.33333333333334</ele><time>2026-04-04T13:31:24.029Z</time></trkpt><trkpt lat="45.015221" lon="8.4639511"><ele>132.66666666666669</ele><time>2026-04-04T13:31:25.027Z</time></trkpt><trkpt lat="45.0151808" lon="8.4638513"><ele>133.0</ele><time>2026-04-04T13:31:26.029Z</time></trkpt><trkpt lat="45.0151409" lon="8.4637577"><ele>133.0</ele><time>2026-04-04T13:31:27.029Z</time></trkpt><trkpt lat="45.0151" lon="8.4636697"><ele>133.0</ele><time>2026-04-04T13:31:28.027Z</time></trkpt><trkpt lat="45.0150625" lon="8.4635955"><ele>133.0</ele><time>2026-04-04T13:31:29.028Z</time></trkpt><trkpt lat="45.0150045" lon="8.4634815"><ele>133.0</ele><time>2026-04-04T13:31:31.027Z</time></trkpt><trkpt lat="45.0149505" lon="8.463405"><ele>133.0</ele><time>2026-04-04T13:31:34.028Z</time></trkpt><trkpt lat="45.0148908" lon="8.4633213"><ele>133.0</ele><time>2026-04-04T13:31:53.028Z</time></trkpt><trkpt lat="45.0148227" lon="8.4632349"><ele>132.75</ele><time>2026-04-04T13:31:54.028Z</time></trkpt><trkpt lat="45.0147456" lon="8.4631308"><ele>132.5</ele><time>2026-04-04T13:31:55.027Z</time></trkpt><trkpt lat="45.0146585" lon="8.4629937"><ele>132.25</ele><time>2026-04-04T13:31:56.029Z</time></trkpt><trkpt lat="45.0145577" lon="8.462815"><ele>132.0</ele><time>2026-04-04T13:31:57.028Z</time></trkpt><trkpt lat="45.0144622" lon="8.4626341"><ele>132.0</ele><time>2026-04-04T13:31:58.028Z</time></trkpt><trkpt lat="45.0143714" lon="8.4624623"><ele>132.0</ele><time>2026-04-04T13:31:59.029Z</time></trkpt><trkpt lat="45.0142908" lon="8.4623087"><ele>132.0</ele><time>2026-04-04T13:32:00.029Z</time></trkpt><trkpt lat="45.0142089" lon="8.4621496"><ele>132.0</ele><time>2026-04-04T13:32:01.027Z</time></trkpt><trkpt lat="45.0141351" lon="8.4619909"><ele>131.5</ele><time>2026-04-04T13:32:02.028Z</time></trkpt><trkpt lat="45.014069" lon="8.4618396"><ele>131.0</ele><time>2026-04-04T13:32:03.029Z</time></trkpt><trkpt lat="45.0140111" lon="8.4616991"><ele>130.5</ele><time>2026-04-04T13:32:04.028Z</time></trkpt><trkpt lat="45.0139567" lon="8.4615636"><ele>130.0</ele><time>2026-04-04T13:32:05.027Z</time></trkpt><trkpt lat="45.0139079" lon="8.46143"><ele>130.0</ele><time>2026-04-04T13:32:06.028Z</time></trkpt><trkpt lat="45.0138602" lon="8.4612941"><ele>130.0</ele><time>2026-04-04T13:32:07.028Z</time></trkpt><trkpt lat="45.013812" lon="8.461156"><ele>130.0</ele><time>2026-04-04T13:32:08.028Z</time></trkpt><trkpt lat="45.0137639" lon="8.4610219"><ele>130.0</ele><time>2026-04-04T13:32:09.028Z</time></trkpt><trkpt lat="45.0137189" lon="8.4609013"><ele>130.0</ele><time>2026-04-04T13:32:10.027Z</time></trkpt><trkpt lat="45.0136783" lon="8.4607971"><ele>130.0</ele><time>2026-04-04T13:32:11.028Z</time></trkpt><trkpt lat="45.0136319" lon="8.4607124"><ele>130.0</ele><time>2026-04-04T13:32:12.029Z</time></trkpt><trkpt lat="45.0135734" lon="8.4606453"><ele>130.0</ele><time>2026-04-04T13:32:13.028Z</time></trkpt><trkpt lat="45.0135105" lon="8.4606034"><ele>130.0</ele><time>2026-04-04T13:32:14.029Z</time></trkpt><trkpt lat="45.0134332" lon="8.4606079"><ele>130.0</ele><time>2026-04-04T13:32:15.028Z</time></trkpt><trkpt lat="45.0133541" lon="8.4606376"><ele>130.0</ele><time>2026-04-04T13:32:16.027Z</time></trkpt><trkpt lat="45.0132599" lon="8.4606673"><ele>130.0</ele><time>2026-04-04T13:32:17.028Z</time></trkpt><trkpt lat="45.0131681" lon="8.4606893"><ele>130.0</ele><time>2026-04-04T13:32:18.028Z</time></trkpt><trkpt lat="45.0130784" lon="8.4607013"><ele>130.0</ele><time>2026-04-04T13:32:19.028Z</time></trkpt><trkpt lat="45.0130003" lon="8.4606789"><ele>130.0</ele><time>2026-04-04T13:32:20.029Z</time></trkpt><trkpt lat="45.0129408" lon="8.4606211"><ele>130.0</ele><time>2026-04-04T13:32:21.031Z</time></trkpt><trkpt lat="45.0128995" lon="8.4605421"><ele>130.0</ele><time>2026-04-04T13:32:22.027Z</time></trkpt><trkpt lat="45.0128558" lon="8.4604467"><ele>130.33333333333334</ele><time>2026-04-04T13:32:23.029Z</time></trkpt><trkpt lat="45.0128056" lon="8.4603342"><ele>130.66666666666669</ele><time>2026-04-04T13:32:24.029Z</time></trkpt><trkpt lat="45.0127626" lon="8.4602168"><ele>131.0</ele><time>2026-04-04T13:32:25.029Z</time></trkpt><trkpt lat="45.0127203" lon="8.4601057"><ele>131.33333333333334</ele><time>2026-04-04T13:32:26.029Z</time></trkpt><trkpt lat="45.0126833" lon="8.4600069"><ele>131.66666666666666</ele><time>2026-04-04T13:32:27.028Z</time></trkpt><trkpt lat="45.0126477" lon="8.4599157"><ele>132.0</ele><time>2026-04-04T13:32:28.027Z</time></trkpt><trkpt lat="45.0126146" lon="8.4598255"><ele>132.0</ele><time>2026-04-04T13:32:29.028Z</time></trkpt><trkpt lat="45.0125805" lon="8.4597353"><ele>132.0</ele><time>2026-04-04T13:32:30.031Z</time></trkpt><trkpt lat="45.01255" lon="8.4596484"><ele>132.0</ele><time>2026-04-04T13:32:31.029Z</time></trkpt><trkpt lat="45.0125243" lon="8.4595592"><ele>132.0</ele><time>2026-04-04T13:32:32.028Z</time></trkpt><trkpt lat="45.0124918" lon="8.4594426"><ele>132.0</ele><time>2026-04-04T13:32:33.028Z</time></trkpt><trkpt lat="45.012454" lon="8.4593082"><ele>132.0</ele><time>2026-04-04T13:32:34.028Z</time></trkpt><trkpt lat="45.0124154" lon="8.4591708"><ele>131.6</ele><time>2026-04-04T13:32:35.031Z</time></trkpt><trkpt lat="45.0123781" lon="8.4590341"><ele>131.2</ele><time>2026-04-04T13:32:36.028Z</time></trkpt><trkpt lat="45.0123415" lon="8.4588893"><ele>130.8</ele><time>2026-04-04T13:32:37.029Z</time></trkpt><trkpt lat="45.0123076" lon="8.4587486"><ele>130.4</ele><time>2026-04-04T13:32:38.029Z</time></trkpt><trkpt lat="45.0122742" lon="8.4586073"><ele>130.0</ele><time>2026-04-04T13:32:39.029Z</time></trkpt><trkpt lat="45.0122434" lon="8.4584557"><ele>130.0</ele><time>2026-04-04T13:32:40.027Z</time></trkpt><trkpt lat="45.0122177" lon="8.4583067"><ele>130.0</ele><time>2026-04-04T13:32:41.029Z</time></trkpt><trkpt lat="45.0122052" lon="8.4581643"><ele>130.0</ele><time>2026-04-04T13:32:42.029Z</time></trkpt><trkpt lat="45.0122097" lon="8.4580291"><ele>130.0</ele><time>2026-04-04T13:32:43.028Z</time></trkpt><trkpt lat="45.0122285" lon="8.4578988"><ele>130.0</ele><time>2026-04-04T13:32:44.028Z</time></trkpt><trkpt lat="45.0122643" lon="8.4577806"><ele>130.16666666666669</ele><time>2026-04-04T13:32:45.028Z</time></trkpt><trkpt lat="45.0123126" lon="8.4576746"><ele>130.33333333333334</ele><time>2026-04-04T13:32:46.028Z</time></trkpt><trkpt lat="45.0123573" lon="8.4575721"><ele>130.5</ele><time>2026-04-04T13:32:47.028Z</time></trkpt><trkpt lat="45.0123935" lon="8.4574687"><ele>130.66666666666666</ele><time>2026-04-04T13:32:48.029Z</time></trkpt><trkpt lat="45.0124109" lon="8.4573594"><ele>130.83333333333331</ele><time>2026-04-04T13:32:49.029Z</time></trkpt><trkpt lat="45.0124015" lon="8.4572392"><ele>131.0</ele><time>2026-04-04T13:32:50.028Z</time></trkpt><trkpt lat="45.0123667" lon="8.4571047"><ele>130.33333333333331</ele><time>2026-04-04T13:32:51.029Z</time></trkpt><trkpt lat="45.0122579" lon="8.4569444"><ele>129.66666666666666</ele><time>2026-04-04T13:32:52.029Z</time></trkpt><trkpt lat="45.0121414" lon="8.4567911"><ele>129.0</ele><time>2026-04-04T13:32:53.029Z</time></trkpt><trkpt lat="45.0120318" lon="8.4566508"><ele>129.0</ele><time>2026-04-04T13:32:54.028Z</time></trkpt><trkpt lat="45.0119498" lon="8.4565308"><ele>129.0</ele><time>2026-04-04T13:32:55.027Z</time></trkpt><trkpt lat="45.0118844" lon="8.4564128"><ele>129.0</ele><time>2026-04-04T13:32:56.028Z</time></trkpt><trkpt lat="45.0118205" lon="8.4562882"><ele>129.0</ele><time>2026-04-04T13:32:57.029Z</time></trkpt><trkpt lat="45.0117541" lon="8.4561559"><ele>129.0</ele><time>2026-04-04T13:32:58.028Z</time></trkpt><trkpt lat="45.0116895" lon="8.4560235"><ele>129.0</ele><time>2026-04-04T13:32:59.028Z</time></trkpt><trkpt lat="45.0116328" lon="8.4559047"><ele>129.0</ele><time>2026-04-04T13:33:00.029Z</time></trkpt><trkpt lat="45.0115874" lon="8.4557979"><ele>129.0</ele><time>2026-04-04T13:33:01.029Z</time></trkpt><trkpt lat="45.0115478" lon="8.4556949"><ele>129.0</ele><time>2026-04-04T13:33:02.028Z</time></trkpt><trkpt lat="45.0115129" lon="8.4555939"><ele>129.0</ele><time>2026-04-04T13:33:03.028Z</time></trkpt><trkpt lat="45.0114774" lon="8.4554917"><ele>129.0</ele><time>2026-04-04T13:33:04.03Z</time></trkpt><trkpt lat="45.0114398" lon="8.4553918"><ele>129.4</ele><time>2026-04-04T13:33:05.028Z</time></trkpt><trkpt lat="45.0113961" lon="8.4552882"><ele>129.8</ele><time>2026-04-04T13:33:06.028Z</time></trkpt><trkpt lat="45.0113478" lon="8.4551779"><ele>130.2</ele><time>2026-04-04T13:33:07.027Z</time></trkpt><trkpt lat="45.0112958" lon="8.455065"><ele>130.6</ele><time>2026-04-04T13:33:08.027Z</time></trkpt><trkpt lat="45.0112425" lon="8.4549567"><ele>131.0</ele><time>2026-04-04T13:33:09.027Z</time></trkpt><trkpt lat="45.0111971" lon="8.4548551"><ele>131.0</ele><time>2026-04-04T13:33:10.026Z</time></trkpt><trkpt lat="45.0111606" lon="8.4547634"><ele>131.0</ele><time>2026-04-04T13:33:11.027Z</time></trkpt><trkpt lat="45.0111277" lon="8.4546821"><ele>131.0</ele><time>2026-04-04T13:33:12.028Z</time></trkpt><trkpt lat="45.0110943" lon="8.4545834"><ele>131.0</ele><time>2026-04-04T13:33:14.027Z</time></trkpt><trkpt lat="45.0110518" lon="8.4544884"><ele>131.0</ele><time>2026-04-04T13:33:18.027Z</time></trkpt><trkpt lat="45.0110006" lon="8.4543574"><ele>131.0</ele><time>2026-04-04T13:33:20.028Z</time></trkpt><trkpt lat="45.010964" lon="8.4542651"><ele>131.0</ele><time>2026-04-04T13:33:21.029Z</time></trkpt><trkpt lat="45.0109211" lon="8.4541616"><ele>131.0</ele><time>2026-04-04T13:33:22.027Z</time></trkpt><trkpt lat="45.0108748" lon="8.4540528"><ele>131.0</ele><time>2026-04-04T13:33:23.029Z</time></trkpt><trkpt lat="45.0108292" lon="8.4539393"><ele>131.0</ele><time>2026-04-04T13:33:24.027Z</time></trkpt><trkpt lat="45.0107742" lon="8.4538265"><ele>131.0</ele><time>2026-04-04T13:33:25.027Z</time></trkpt><trkpt lat="45.0107115" lon="8.4537045"><ele>131.2</ele><time>2026-04-04T13:33:26.028Z</time></trkpt><trkpt lat="45.0106496" lon="8.4535788"><ele>131.39999999999998</ele><time>2026-04-04T13:33:27.028Z</time></trkpt><trkpt lat="45.0105885" lon="8.4534578"><ele>131.6</ele><time>2026-04-04T13:33:28.026Z</time></trkpt><trkpt lat="45.0105309" lon="8.4533414"><ele>131.79999999999998</ele><time>2026-04-04T13:33:29.03Z</time></trkpt><trkpt lat="45.0104799" lon="8.4532333"><ele>132.0</ele><time>2026-04-04T13:33:30.028Z</time></trkpt><trkpt lat="45.0104327" lon="8.4531279"><ele>132.0</ele><time>2026-04-04T13:33:31.029Z</time></trkpt><trkpt lat="45.0103865" lon="8.4530228"><ele>132.0</ele><time>2026-04-04T13:33:32.027Z</time></trkpt><trkpt lat="45.0103423" lon="8.4529202"><ele>132.0</ele><time>2026-04-04T13:33:33.028Z</time></trkpt><trkpt lat="45.0102975" lon="8.4528182"><ele>132.0</ele><time>2026-04-04T13:33:34.027Z</time></trkpt><trkpt lat="45.0102457" lon="8.4527167"><ele>132.0</ele><time>2026-04-04T13:33:35.027Z</time></trkpt><trkpt lat="45.0101799" lon="8.4526224"><ele>132.0</ele><time>2026-04-04T13:33:36.028Z</time></trkpt><trkpt lat="45.0100969" lon="8.4525387"><ele>132.2</ele><time>2026-04-04T13:33:37.028Z</time></trkpt><trkpt lat="45.0100072" lon="8.4524627"><ele>132.39999999999998</ele><time>2026-04-04T13:33:38.028Z</time></trkpt><trkpt lat="45.0099199" lon="8.4523901"><ele>132.60000000000002</ele><time>2026-04-04T13:33:39.028Z</time></trkpt><trkpt lat="45.0098382" lon="8.4523187"><ele>132.8</ele><time>2026-04-04T13:33:40.028Z</time></trkpt><trkpt lat="45.0097621" lon="8.4522488"><ele>133.0</ele><time>2026-04-04T13:33:41.027Z</time></trkpt><trkpt lat="45.0096918" lon="8.452182"><ele>132.83333333333334</ele><time>2026-04-04T13:33:42.028Z</time></trkpt><trkpt lat="45.0096283" lon="8.45212"><ele>132.66666666666669</ele><time>2026-04-04T13:33:43.027Z</time></trkpt><trkpt lat="45.00956" lon="8.452055"><ele>132.5</ele><time>2026-04-04T13:33:44.027Z</time></trkpt><trkpt lat="45.00949" lon="8.4519867"><ele>132.33333333333334</ele><time>2026-04-04T13:33:45.028Z</time></trkpt><trkpt lat="45.00942" lon="8.4519167"><ele>132.16666666666666</ele><time>2026-04-04T13:33:46.027Z</time></trkpt><trkpt lat="45.0093633" lon="8.4518467"><ele>132.0</ele><time>2026-04-04T13:33:47.032Z</time></trkpt><trkpt lat="45.0093217" lon="8.4517617"><ele>132.0</ele><time>2026-04-04T13:33:48.027Z</time></trkpt><trkpt lat="45.0093" lon="8.4516483"><ele>132.0</ele><time>2026-04-04T13:33:49.029Z</time></trkpt><trkpt lat="45.009285" lon="8.451525"><ele>132.0</ele><time>2026-04-04T13:33:50.028Z</time></trkpt><trkpt lat="45.009275" lon="8.451375"><ele>132.0</ele><time>2026-04-04T13:33:51.031Z</time></trkpt><trkpt lat="45.0092517" lon="8.4512417"><ele>132.0</ele><time>2026-04-04T13:33:52.031Z</time></trkpt><trkpt lat="45.0092133" lon="8.4511267"><ele>132.0</ele><time>2026-04-04T13:33:53.028Z</time></trkpt><trkpt lat="45.009155" lon="8.4510083"><ele>132.0</ele><time>2026-04-04T13:33:54.028Z</time></trkpt><trkpt lat="45.0090917" lon="8.45088"><ele>132.0</ele><time>2026-04-04T13:33:55.028Z</time></trkpt><trkpt lat="45.00902" lon="8.45076"><ele>132.0</ele><time>2026-04-04T13:33:56.03Z</time></trkpt><trkpt lat="45.0089483" lon="8.4506417"><ele>132.0</ele><time>2026-04-04T13:33:57.028Z</time></trkpt><trkpt lat="45.0088717" lon="8.45053"><ele>132.0</ele><time>2026-04-04T13:33:58.028Z</time></trkpt><trkpt lat="45.008795" lon="8.4504283"><ele>132.0</ele><time>2026-04-04T13:33:59.028Z</time></trkpt><trkpt lat="45.0087217" lon="8.45033"><ele>132.0</ele><time>2026-04-04T13:34:00.029Z</time></trkpt><trkpt lat="45.008645" lon="8.45023"><ele>132.0</ele><time>2026-04-04T13:34:01.028Z</time></trkpt><trkpt lat="45.0085683" lon="8.45014"><ele>132.0</ele><time>2026-04-04T13:34:02.028Z</time></trkpt><trkpt lat="45.0084967" lon="8.4500583"><ele>132.0</ele><time>2026-04-04T13:34:03.027Z</time></trkpt><trkpt lat="45.008425" lon="8.44998"><ele>132.0</ele><time>2026-04-04T13:34:04.028Z</time></trkpt><trkpt lat="45.008355" lon="8.449895"><ele>132.0</ele><time>2026-04-04T13:34:05.028Z</time></trkpt><trkpt lat="45.0082933" lon="8.44981"><ele>132.0</ele><time>2026-04-04T13:34:06.028Z</time></trkpt><trkpt lat="45.0082417" lon="8.4497283"><ele>132.0</ele><time>2026-04-04T13:34:07.028Z</time></trkpt><trkpt lat="45.0082017" lon="8.44965"><ele>132.0</ele><time>2026-04-04T13:34:08.028Z</time></trkpt><trkpt lat="45.0081733" lon="8.4495633"><ele>132.16666666666666</ele><time>2026-04-04T13:34:09.027Z</time></trkpt><trkpt lat="45.008155" lon="8.449475"><ele>132.33333333333334</ele><time>2026-04-04T13:34:10.028Z</time></trkpt><trkpt lat="45.00815" lon="8.4493833"><ele>132.5</ele><time>2026-04-04T13:34:11.027Z</time></trkpt><trkpt lat="45.008165" lon="8.4492767"><ele>132.66666666666669</ele><time>2026-04-04T13:34:12.028Z</time></trkpt><trkpt lat="45.0082083" lon="8.44916"><ele>132.83333333333334</ele><time>2026-04-04T13:34:13.028Z</time></trkpt><trkpt lat="45.0082733" lon="8.4490367"><ele>133.0</ele><time>2026-04-04T13:34:14.028Z</time></trkpt><trkpt lat="45.0083467" lon="8.4489133"><ele>133.4</ele><time>2026-04-04T13:34:15.027Z</time></trkpt><trkpt lat="45.00843" lon="8.4488"><ele>133.8</ele><time>2026-04-04T13:34:16.028Z</time></trkpt><trkpt lat="45.0084867" lon="8.4486933"><ele>134.2</ele><time>2026-04-04T13:34:17.027Z</time></trkpt><trkpt lat="45.0085417" lon="8.4485917"><ele>134.6</ele><time>2026-04-04T13:34:18.027Z</time></trkpt><trkpt lat="45.008595" lon="8.448495"><ele>135.0</ele><time>2026-04-04T13:34:19.027Z</time></trkpt><trkpt lat="45.008645" lon="8.4484033"><ele>135.33333333333334</ele><time>2026-04-04T13:34:20.029Z</time></trkpt><trkpt lat="45.0086983" lon="8.4483167"><ele>135.66666666666666</ele><time>2026-04-04T13:34:21.028Z</time></trkpt><trkpt lat="45.0087517" lon="8.44824"><ele>136.0</ele><time>2026-04-04T13:34:22.028Z</time></trkpt><trkpt lat="45.00881" lon="8.448165"><ele>136.33333333333331</ele><time>2026-04-04T13:34:23.028Z</time></trkpt><trkpt lat="45.0088633" lon="8.4480933"><ele>136.66666666666666</ele><time>2026-04-04T13:34:24.028Z</time></trkpt><trkpt lat="45.0089133" lon="8.4480267"><ele>137.0</ele><time>2026-04-04T13:34:25.027Z</time></trkpt><trkpt lat="45.0089933" lon="8.44791"><ele>138.2</ele><time>2026-04-04T13:34:27.028Z</time></trkpt><trkpt lat="45.0090483" lon="8.447805"><ele>139.39999999999998</ele><time>2026-04-04T13:34:29.028Z</time></trkpt><trkpt lat="45.0090283" lon="8.4476983"><ele>140.60000000000002</ele><time>2026-04-04T13:34:32.028Z</time></trkpt><trkpt lat="45.0089033" lon="8.447615"><ele>141.8</ele><time>2026-04-04T13:34:34.028Z</time></trkpt><trkpt lat="45.008805" lon="8.4475617"><ele>143.0</ele><time>2026-04-04T13:34:35.028Z</time></trkpt><trkpt lat="45.0086983" lon="8.4475017"><ele>143.0</ele><time>2026-04-04T13:34:36.028Z</time></trkpt><trkpt lat="45.0085933" lon="8.4474433"><ele>143.0</ele><time>2026-04-04T13:34:37.029Z</time></trkpt><trkpt lat="45.0084817" lon="8.4473883"><ele>143.0</ele><time>2026-04-04T13:34:38.028Z</time></trkpt><trkpt lat="45.0083717" lon="8.4473317"><ele>143.0</ele><time>2026-04-04T13:34:39.028Z</time></trkpt><trkpt lat="45.0082533" lon="8.44727"><ele>142.25</ele><time>2026-04-04T13:34:40.028Z</time></trkpt><trkpt lat="45.0081383" lon="8.4472067"><ele>141.5</ele><time>2026-04-04T13:34:41.027Z</time></trkpt><trkpt lat="45.0080217" lon="8.4471483"><ele>140.75</ele><time>2026-04-04T13:34:42.03Z</time></trkpt><trkpt lat="45.0079083" lon="8.447105"><ele>140.0</ele><time>2026-04-04T13:34:43.029Z</time></trkpt><trkpt lat="45.0078017" lon="8.4470633"><ele>140.4</ele><time>2026-04-04T13:34:44.027Z</time></trkpt><trkpt lat="45.007695" lon="8.4470417"><ele>140.8</ele><time>2026-04-04T13:34:45.028Z</time></trkpt><trkpt lat="45.0075867" lon="8.447025"><ele>141.2</ele><time>2026-04-04T13:34:46.028Z</time></trkpt><trkpt lat="45.0074783" lon="8.4470167"><ele>141.6</ele><time>2026-04-04T13:34:47.027Z</time></trkpt><trkpt lat="45.0073783" lon="8.4470217"><ele>142.0</ele><time>2026-04-04T13:34:48.028Z</time></trkpt><trkpt lat="45.00729" lon="8.4470383"><ele>142.0</ele><time>2026-04-04T13:34:49.027Z</time></trkpt><trkpt lat="45.0071983" lon="8.4470683"><ele>142.0</ele><time>2026-04-04T13:34:50.027Z</time></trkpt><trkpt lat="45.0071217" lon="8.4471167"><ele>142.0</ele><time>2026-04-04T13:34:51.029Z</time></trkpt><trkpt lat="45.0070516" lon="8.4471811"><ele>142.0</ele><time>2026-04-04T13:34:52.028Z</time></trkpt><trkpt lat="45.0069825" lon="8.4472725"><ele>142.0</ele><time>2026-04-04T13:34:53.027Z</time></trkpt><trkpt lat="45.0069093" lon="8.4473704"><ele>140.79999999999998</ele><time>2026-04-04T13:34:54.028Z</time></trkpt><trkpt lat="45.0068356" lon="8.4474461"><ele>139.6</ele><time>2026-04-04T13:34:55.026Z</time></trkpt><trkpt lat="45.006755" lon="8.4474923"><ele>138.39999999999998</ele><time>2026-04-04T13:34:56.027Z</time></trkpt><trkpt lat="45.0066641" lon="8.4475002"><ele>137.2</ele><time>2026-04-04T13:34:57.029Z</time></trkpt><trkpt lat="45.0065721" lon="8.4474613"><ele>136.0</ele><time>2026-04-04T13:34:58.027Z</time></trkpt><trkpt lat="45.006481" lon="8.4473971"><ele>136.0</ele><time>2026-04-04T13:34:59.028Z</time></trkpt><trkpt lat="45.0063867" lon="8.4473192"><ele>136.0</ele><time>2026-04-04T13:35:00.027Z</time></trkpt><trkpt lat="45.0062923" lon="8.4472409"><ele>136.0</ele><time>2026-04-04T13:35:01.028Z</time></trkpt><trkpt lat="45.0061986" lon="8.4471682"><ele>136.0</ele><time>2026-04-04T13:35:02.029Z</time></trkpt><trkpt lat="45.0061078" lon="8.4470962"><ele>136.0</ele><time>2026-04-04T13:35:03.029Z</time></trkpt><trkpt lat="45.0060232" lon="8.4470256"><ele>136.16666666666669</ele><time>2026-04-04T13:35:04.027Z</time></trkpt><trkpt lat="45.0059482" lon="8.4469568"><ele>136.33333333333334</ele><time>2026-04-04T13:35:05.029Z</time></trkpt><trkpt lat="45.0058747" lon="8.4468892"><ele>136.5</ele><time>2026-04-04T13:35:06.028Z</time></trkpt><trkpt lat="45.0058013" lon="8.4468282"><ele>136.66666666666666</ele><time>2026-04-04T13:35:07.028Z</time></trkpt><trkpt lat="45.0057267" lon="8.4467712"><ele>136.83333333333331</ele><time>2026-04-04T13:35:08.028Z</time></trkpt><trkpt lat="45.0056527" lon="8.446723"><ele>137.0</ele><time>2026-04-04T13:35:09.028Z</time></trkpt><trkpt lat="45.0055752" lon="8.4466857"><ele>137.0</ele><time>2026-04-04T13:35:10.027Z</time></trkpt><trkpt lat="45.005495" lon="8.4466548"><ele>137.0</ele><time>2026-04-04T13:35:11.029Z</time></trkpt><trkpt lat="45.0054118" lon="8.446624"><ele>137.0</ele><time>2026-04-04T13:35:12.028Z</time></trkpt><trkpt lat="45.005327" lon="8.4465936"><ele>137.0</ele><time>2026-04-04T13:35:13.028Z</time></trkpt><trkpt lat="45.0052442" lon="8.446559"><ele>137.0</ele><time>2026-04-04T13:35:14.027Z</time></trkpt><trkpt lat="45.0051609" lon="8.4465367"><ele>137.0</ele><time>2026-04-04T13:35:15.027Z</time></trkpt><trkpt lat="45.0050727" lon="8.4465295"><ele>136.79999999999998</ele><time>2026-04-04T13:35:16.027Z</time></trkpt><trkpt lat="45.0049775" lon="8.4465366"><ele>136.6</ele><time>2026-04-04T13:35:17.027Z</time></trkpt><trkpt lat="45.0048706" lon="8.4465481"><ele>136.39999999999998</ele><time>2026-04-04T13:35:18.027Z</time></trkpt><trkpt lat="45.0047504" lon="8.4465524"><ele>136.2</ele><time>2026-04-04T13:35:19.028Z</time></trkpt><trkpt lat="45.0046306" lon="8.4465521"><ele>136.0</ele><time>2026-04-04T13:35:20.027Z</time></trkpt><trkpt lat="45.0045038" lon="8.4465541"><ele>136.0</ele><time>2026-04-04T13:35:21.03Z</time></trkpt><trkpt lat="45.0043806" lon="8.4465484"><ele>136.0</ele><time>2026-04-04T13:35:22.027Z</time></trkpt><trkpt lat="45.0042595" lon="8.4465384"><ele>136.0</ele><time>2026-04-04T13:35:23.028Z</time></trkpt><trkpt lat="45.0041353" lon="8.4465306"><ele>136.0</ele><time>2026-04-04T13:35:24.028Z</time></trkpt><trkpt lat="45.0040092" lon="8.4465209"><ele>136.0</ele><time>2026-04-04T13:35:25.028Z</time></trkpt><trkpt lat="45.0038848" lon="8.4465118"><ele>136.0</ele><time>2026-04-04T13:35:26.028Z</time></trkpt><trkpt lat="45.0037562" lon="8.446506"><ele>136.0</ele><time>2026-04-04T13:35:27.029Z</time></trkpt><trkpt lat="45.0036301" lon="8.4465002"><ele>136.0</ele><time>2026-04-04T13:35:28.028Z</time></trkpt><trkpt lat="45.0035038" lon="8.4464897"><ele>136.0</ele><time>2026-04-04T13:35:29.027Z</time></trkpt><trkpt lat="45.0033868" lon="8.4464833"><ele>136.0</ele><time>2026-04-04T13:35:30.027Z</time></trkpt><trkpt lat="45.0032738" lon="8.4464824"><ele>136.0</ele><time>2026-04-04T13:35:31.027Z</time></trkpt><trkpt lat="45.0031598" lon="8.4464801"><ele>136.0</ele><time>2026-04-04T13:35:32.028Z</time></trkpt><trkpt lat="45.0030427" lon="8.4464782"><ele>135.0</ele><time>2026-04-04T13:35:33.028Z</time></trkpt><trkpt lat="45.0029231" lon="8.4464728"><ele>134.0</ele><time>2026-04-04T13:35:34.028Z</time></trkpt><trkpt lat="45.0028018" lon="8.4464674"><ele>133.0</ele><time>2026-04-04T13:35:35.027Z</time></trkpt><trkpt lat="45.0026893" lon="8.44646"><ele>132.0</ele><time>2026-04-04T13:35:36.028Z</time></trkpt><trkpt lat="45.0025865" lon="8.4464467"><ele>131.79999999999998</ele><time>2026-04-04T13:35:37.029Z</time></trkpt><trkpt lat="45.002496" lon="8.4464233"><ele>131.6</ele><time>2026-04-04T13:35:38.029Z</time></trkpt><trkpt lat="45.0024134" lon="8.446383"><ele>131.39999999999998</ele><time>2026-04-04T13:35:39.028Z</time></trkpt><trkpt lat="45.002334" lon="8.4463138"><ele>131.2</ele><time>2026-04-04T13:35:40.027Z</time></trkpt><trkpt lat="45.0022605" lon="8.4462182"><ele>131.0</ele><time>2026-04-04T13:35:41.027Z</time></trkpt><trkpt lat="45.002195" lon="8.4460831"><ele>131.75</ele><time>2026-04-04T13:35:42.027Z</time></trkpt><trkpt lat="45.0021397" lon="8.4459129"><ele>132.5</ele><time>2026-04-04T13:35:43.029Z</time></trkpt><trkpt lat="45.0020871" lon="8.4457431"><ele>133.25</ele><time>2026-04-04T13:35:44.027Z</time></trkpt><trkpt lat="45.0020293" lon="8.4455864"><ele>134.0</ele><time>2026-04-04T13:35:45.028Z</time></trkpt><trkpt lat="45.0019688" lon="8.445443"><ele>134.0</ele><time>2026-04-04T13:35:46.027Z</time></trkpt><trkpt lat="45.0019153" lon="8.4452985"><ele>134.0</ele><time>2026-04-04T13:35:47.028Z</time></trkpt><trkpt lat="45.00186" lon="8.4451586"><ele>134.0</ele><time>2026-04-04T13:35:48.028Z</time></trkpt><trkpt lat="45.0017981" lon="8.4450199"><ele>134.0</ele><time>2026-04-04T13:35:49.029Z</time></trkpt><trkpt lat="45.0017263" lon="8.4448826"><ele>134.0</ele><time>2026-04-04T13:35:50.029Z</time></trkpt><trkpt lat="45.0016497" lon="8.4447488"><ele>134.0</ele><time>2026-04-04T13:35:51.028Z</time></trkpt><trkpt lat="45.001575" lon="8.4446199"><ele>134.0</ele><time>2026-04-04T13:35:52.027Z</time></trkpt><trkpt lat="45.0014997" lon="8.4444972"><ele>134.0</ele><time>2026-04-04T13:35:53.029Z</time></trkpt><trkpt lat="45.0014216" lon="8.4443767"><ele>134.0</ele><time>2026-04-04T13:35:54.031Z</time></trkpt><trkpt lat="45.0013419" lon="8.4442569"><ele>134.0</ele><time>2026-04-04T13:35:55.028Z</time></trkpt><trkpt lat="45.001266" lon="8.4441398"><ele>134.0</ele><time>2026-04-04T13:35:56.029Z</time></trkpt><trkpt lat="45.0011899" lon="8.4440262"><ele>134.0</ele><time>2026-04-04T13:35:57.029Z</time></trkpt><trkpt lat="45.0011131" lon="8.4439184"><ele>134.0</ele><time>2026-04-04T13:35:58.027Z</time></trkpt><trkpt lat="45.0010335" lon="8.4438119"><ele>134.2</ele><time>2026-04-04T13:35:59.028Z</time></trkpt><trkpt lat="45.0009511" lon="8.4437083"><ele>134.4</ele><time>2026-04-04T13:36:00.028Z</time></trkpt><trkpt lat="45.0008704" lon="8.4436121"><ele>134.6</ele><time>2026-04-04T13:36:01.029Z</time></trkpt><trkpt lat="45.0007873" lon="8.4435225"><ele>134.8</ele><time>2026-04-04T13:36:02.03Z</time></trkpt><trkpt lat="45.0007009" lon="8.4434397"><ele>135.0</ele><time>2026-04-04T13:36:03.029Z</time></trkpt><trkpt lat="45.0006152" lon="8.4433703"><ele>135.0</ele><time>2026-04-04T13:36:04.028Z</time></trkpt><trkpt lat="45.0005339" lon="8.443312"><ele>135.0</ele><time>2026-04-04T13:36:05.027Z</time></trkpt><trkpt lat="45.0004568" lon="8.4432623"><ele>135.0</ele><time>2026-04-04T13:36:06.028Z</time></trkpt><trkpt lat="45.0003839" lon="8.4432156"><ele>135.0</ele><time>2026-04-04T13:36:07.028Z</time></trkpt><trkpt lat="45.0003158" lon="8.4431732"><ele>135.0</ele><time>2026-04-04T13:36:08.028Z</time></trkpt><trkpt lat="45.0002562" lon="8.4431259"><ele>135.0</ele><time>2026-04-04T13:36:09.032Z</time></trkpt><trkpt lat="45.0002063" lon="8.4430682"><ele>135.25</ele><time>2026-04-04T13:36:10.027Z</time></trkpt><trkpt lat="45.000139" lon="8.442908"><ele>135.5</ele><time>2026-04-04T13:36:12.028Z</time></trkpt><trkpt lat="45.0001338" lon="8.4427776"><ele>135.75</ele><time>2026-04-04T13:36:13.027Z</time></trkpt><trkpt lat="45.0001348" lon="8.4426241"><ele>136.0</ele><time>2026-04-04T13:36:14.029Z</time></trkpt><trkpt lat="45.0001458" lon="8.4424357"><ele>136.0</ele><time>2026-04-04T13:36:15.028Z</time></trkpt><trkpt lat="45.0001607" lon="8.4422468"><ele>136.0</ele><time>2026-04-04T13:36:16.028Z</time></trkpt><trkpt lat="45.0001721" lon="8.4420795"><ele>136.0</ele><time>2026-04-04T13:36:17.029Z</time></trkpt><trkpt lat="45.0001819" lon="8.4419306"><ele>136.0</ele><time>2026-04-04T13:36:18.028Z</time></trkpt><trkpt lat="45.0001924" lon="8.4417942"><ele>136.5</ele><time>2026-04-04T13:36:19.028Z</time></trkpt><trkpt lat="45.0002046" lon="8.4416717"><ele>137.0</ele><time>2026-04-04T13:36:20.03Z</time></trkpt><trkpt lat="45.0002208" lon="8.4415595"><ele>137.5</ele><time>2026-04-04T13:36:21.029Z</time></trkpt><trkpt lat="45.0002405" lon="8.4414601"><ele>138.0</ele><time>2026-04-04T13:36:22.028Z</time></trkpt><trkpt lat="45.0002597" lon="8.441358"><ele>138.5</ele><time>2026-04-04T13:36:23.031Z</time></trkpt><trkpt lat="45.0002773" lon="8.4412575"><ele>139.0</ele><time>2026-04-04T13:36:24.029Z</time></trkpt><trkpt lat="45.0002945" lon="8.4411587"><ele>139.33333333333334</ele><time>2026-04-04T13:36:25.028Z</time></trkpt><trkpt lat="45.0003099" lon="8.4410538"><ele>139.66666666666669</ele><time>2026-04-04T13:36:26.029Z</time></trkpt><trkpt lat="45.0003311" lon="8.440952"><ele>140.0</ele><time>2026-04-04T13:36:27.028Z</time></trkpt><trkpt lat="45.0003532" lon="8.440863"><ele>140.33333333333334</ele><time>2026-04-04T13:36:28.029Z</time></trkpt><trkpt lat="45.0003827" lon="8.4407385"><ele>140.66666666666666</ele><time>2026-04-04T13:36:30.028Z</time></trkpt><trkpt lat="45.0003127" lon="8.4407233"><ele>141.0</ele><time>2026-04-04T13:36:34.029Z</time></trkpt><trkpt lat="45.0002107" lon="8.4408019"><ele>141.0</ele><time>2026-04-04T13:36:36.027Z</time></trkpt><trkpt lat="45.0001406" lon="8.4408537"><ele>141.0</ele><time>2026-04-04T13:36:37.029Z</time></trkpt><trkpt lat="45.000057" lon="8.4409043"><ele>141.0</ele><time>2026-04-04T13:36:38.029Z</time></trkpt><trkpt lat="44.9999558" lon="8.4409571"><ele>141.0</ele><time>2026-04-04T13:36:39.029Z</time></trkpt><trkpt lat="44.999844" lon="8.4410097"><ele>141.0</ele><time>2026-04-04T13:36:40.027Z</time></trkpt><trkpt lat="44.9997181" lon="8.4410687"><ele>141.0</ele><time>2026-04-04T13:36:41.029Z</time></trkpt><trkpt lat="44.9995873" lon="8.4411295"><ele>141.0</ele><time>2026-04-04T13:36:42.028Z</time></trkpt><trkpt lat="44.9994661" lon="8.4411894"><ele>141.0</ele><time>2026-04-04T13:36:43.028Z</time></trkpt><trkpt lat="44.9993505" lon="8.4412466"><ele>141.0</ele><time>2026-04-04T13:36:44.028Z</time></trkpt><trkpt lat="44.9992448" lon="8.441297"><ele>140.6</ele><time>2026-04-04T13:36:45.029Z</time></trkpt><trkpt lat="44.9991437" lon="8.4413431"><ele>140.2</ele><time>2026-04-04T13:36:46.027Z</time></trkpt><trkpt lat="44.999042" lon="8.4413878"><ele>139.8</ele><time>2026-04-04T13:36:47.031Z</time></trkpt><trkpt lat="44.9989365" lon="8.4414357"><ele>139.4</ele><time>2026-04-04T13:36:48.029Z</time></trkpt><trkpt lat="44.9988279" lon="8.441484"><ele>139.0</ele><time>2026-04-04T13:36:49.028Z</time></trkpt><trkpt lat="44.9987189" lon="8.4415315"><ele>139.0</ele><time>2026-04-04T13:36:50.029Z</time></trkpt><trkpt lat="44.9986158" lon="8.441578"><ele>139.0</ele><time>2026-04-04T13:36:51.029Z</time></trkpt><trkpt lat="44.9985229" lon="8.4416207"><ele>139.0</ele><time>2026-04-04T13:36:52.027Z</time></trkpt><trkpt lat="44.9984404" lon="8.4416605"><ele>139.0</ele><time>2026-04-04T13:36:53.028Z</time></trkpt><trkpt lat="44.998366" lon="8.4416944"><ele>139.0</ele><time>2026-04-04T13:36:54.028Z</time></trkpt><trkpt lat="44.9983014" lon="8.4417265"><ele>139.0</ele><time>2026-04-04T13:36:55.028Z</time></trkpt><trkpt lat="44.9981961" lon="8.4417777"><ele>138.83333333333334</ele><time>2026-04-04T13:36:57.028Z</time></trkpt><trkpt lat="44.9981356" lon="8.4418161"><ele>138.66666666666669</ele><time>2026-04-04T13:36:59.031Z</time></trkpt><trkpt lat="44.9980704" lon="8.441834"><ele>138.5</ele><time>2026-04-04T13:37:02.028Z</time></trkpt><trkpt lat="44.9980118" lon="8.4417964"><ele>138.33333333333334</ele><time>2026-04-04T13:37:04.028Z</time></trkpt><trkpt lat="44.9979319" lon="8.4417046"><ele>138.16666666666666</ele><time>2026-04-04T13:37:06.028Z</time></trkpt><trkpt lat="44.9978298" lon="8.4416185"><ele>138.0</ele><time>2026-04-04T13:37:08.029Z</time></trkpt><trkpt lat="44.9977256" lon="8.4415749"><ele>138.0</ele><time>2026-04-04T13:37:10.029Z</time></trkpt><trkpt lat="44.9976223" lon="8.4415375"><ele>138.0</ele><time>2026-04-04T13:37:12.028Z</time></trkpt><trkpt lat="44.9975084" lon="8.4414842"><ele>138.0</ele><time>2026-04-04T13:37:14.03Z</time></trkpt><trkpt lat="44.9973783" lon="8.4414448"><ele>138.0</ele><time>2026-04-04T13:37:16.028Z</time></trkpt><trkpt lat="44.9972938" lon="8.4414351"><ele>138.0</ele><time>2026-04-04T13:37:17.028Z</time></trkpt><trkpt lat="44.9972095" lon="8.4414258"><ele>138.0</ele><time>2026-04-04T13:37:18.028Z</time></trkpt><trkpt lat="44.9971272" lon="8.4414214"><ele>138.0</ele><time>2026-04-04T13:37:19.029Z</time></trkpt><trkpt lat="44.9970393" lon="8.4414146"><ele>138.0</ele><time>2026-04-04T13:37:20.029Z</time></trkpt><trkpt lat="44.9969476" lon="8.4414077"><ele>138.0</ele><time>2026-04-04T13:37:21.029Z</time></trkpt><trkpt lat="44.9968567" lon="8.4414023"><ele>138.0</ele><time>2026-04-04T13:37:22.028Z</time></trkpt><trkpt lat="44.9967661" lon="8.4413971"><ele>138.0</ele><time>2026-04-04T13:37:23.028Z</time></trkpt><trkpt lat="44.9966692" lon="8.4413894"><ele>137.4</ele><time>2026-04-04T13:37:24.028Z</time></trkpt><trkpt lat="44.9965652" lon="8.4413798"><ele>136.8</ele><time>2026-04-04T13:37:25.029Z</time></trkpt><trkpt lat="44.9964595" lon="8.4413642"><ele>136.2</ele><time>2026-04-04T13:37:26.028Z</time></trkpt><trkpt lat="44.9963578" lon="8.4413418"><ele>135.6</ele><time>2026-04-04T13:37:27.029Z</time></trkpt><trkpt lat="44.9962643" lon="8.4413141"><ele>135.0</ele><time>2026-04-04T13:37:28.028Z</time></trkpt><trkpt lat="44.9961809" lon="8.4412842"><ele>136.0</ele><time>2026-04-04T13:37:29.028Z</time></trkpt><trkpt lat="44.9961079" lon="8.4412535"><ele>137.0</ele><time>2026-04-04T13:37:30.029Z</time></trkpt><trkpt lat="44.9960369" lon="8.4412158"><ele>138.0</ele><time>2026-04-04T13:37:31.028Z</time></trkpt><trkpt lat="44.9959633" lon="8.4411734"><ele>139.0</ele><time>2026-04-04T13:37:32.028Z</time></trkpt><trkpt lat="44.9958861" lon="8.4411284"><ele>140.0</ele><time>2026-04-04T13:37:33.028Z</time></trkpt><trkpt lat="44.9958063" lon="8.4410792"><ele>141.0</ele><time>2026-04-04T13:37:34.03Z</time></trkpt><trkpt lat="44.9957198" lon="8.4410235"><ele>141.0</ele><time>2026-04-04T13:37:35.028Z</time></trkpt><trkpt lat="44.9956177" lon="8.4409576"><ele>141.0</ele><time>2026-04-04T13:37:36.027Z</time></trkpt><trkpt lat="44.9955092" lon="8.4408872"><ele>141.0</ele><time>2026-04-04T13:37:37.027Z</time></trkpt><trkpt lat="44.9954052" lon="8.4408258"><ele>141.0</ele><time>2026-04-04T13:37:38.028Z</time></trkpt><trkpt lat="44.9953082" lon="8.4407683"><ele>141.0</ele><time>2026-04-04T13:37:39.028Z</time></trkpt><trkpt lat="44.99522" lon="8.4407158"><ele>141.0</ele><time>2026-04-04T13:37:40.027Z</time></trkpt><trkpt lat="44.9951409" lon="8.4406717"><ele>141.0</ele><time>2026-04-04T13:37:41.027Z</time></trkpt><trkpt lat="44.9950664" lon="8.4406378"><ele>141.0</ele><time>2026-04-04T13:37:42.027Z</time></trkpt><trkpt lat="44.9949894" lon="8.4405977"><ele>141.0</ele><time>2026-04-04T13:37:43.029Z</time></trkpt><trkpt lat="44.9949071" lon="8.4405529"><ele>141.0</ele><time>2026-04-04T13:37:44.028Z</time></trkpt><trkpt lat="44.9948208" lon="8.4405002"><ele>141.0</ele><time>2026-04-04T13:37:45.028Z</time></trkpt><trkpt lat="44.9947297" lon="8.4404311"><ele>141.0</ele><time>2026-04-04T13:37:46.027Z</time></trkpt><trkpt lat="44.9946305" lon="8.4403471"><ele>141.0</ele><time>2026-04-04T13:37:47.027Z</time></trkpt><trkpt lat="44.994523" lon="8.4402631"><ele>141.0</ele><time>2026-04-04T13:37:48.027Z</time></trkpt><trkpt lat="44.9944139" lon="8.4401911"><ele>141.0</ele><time>2026-04-04T13:37:49.028Z</time></trkpt><trkpt lat="44.9943074" lon="8.4401301"><ele>141.0</ele><time>2026-04-04T13:37:50.028Z</time></trkpt><trkpt lat="44.9942005" lon="8.4400792"><ele>141.0</ele><time>2026-04-04T13:37:51.028Z</time></trkpt><trkpt lat="44.9940975" lon="8.4400357"><ele>141.0</ele><time>2026-04-04T13:37:52.029Z</time></trkpt><trkpt lat="44.9939946" lon="8.4399926"><ele>141.0</ele><time>2026-04-04T13:37:53.028Z</time></trkpt><trkpt lat="44.9938892" lon="8.4399529"><ele>141.0</ele><time>2026-04-04T13:37:54.027Z</time></trkpt><trkpt lat="44.9937854" lon="8.4399121"><ele>140.4</ele><time>2026-04-04T13:37:55.029Z</time></trkpt><trkpt lat="44.993682" lon="8.439868"><ele>139.8</ele><time>2026-04-04T13:37:56.027Z</time></trkpt><trkpt lat="44.9935812" lon="8.4398205"><ele>139.20000000000002</ele><time>2026-04-04T13:37:57.027Z</time></trkpt><trkpt lat="44.9934853" lon="8.4397747"><ele>138.6</ele><time>2026-04-04T13:37:58.027Z</time></trkpt><trkpt lat="44.9933989" lon="8.4397374"><ele>138.0</ele><time>2026-04-04T13:37:59.027Z</time></trkpt><trkpt lat="44.9933188" lon="8.4397065"><ele>138.0</ele><time>2026-04-04T13:38:00.027Z</time></trkpt><trkpt lat="44.9932355" lon="8.4396825"><ele>138.0</ele><time>2026-04-04T13:38:01.029Z</time></trkpt><trkpt lat="44.9931469" lon="8.4396672"><ele>138.0</ele><time>2026-04-04T13:38:02.028Z</time></trkpt><trkpt lat="44.9930567" lon="8.4396509"><ele>138.0</ele><time>2026-04-04T13:38:03.027Z</time></trkpt><trkpt lat="44.9929665" lon="8.4396238"><ele>138.0</ele><time>2026-04-04T13:38:04.028Z</time></trkpt><trkpt lat="44.9928823" lon="8.4395789"><ele>138.0</ele><time>2026-04-04T13:38:05.029Z</time></trkpt><trkpt lat="44.9928117" lon="8.4395262"><ele>138.0</ele><time>2026-04-04T13:38:06.028Z</time></trkpt><trkpt lat="44.992754" lon="8.439479"><ele>138.0</ele><time>2026-04-04T13:38:07.028Z</time></trkpt><trkpt lat="44.9926573" lon="8.4393963"><ele>138.0</ele><time>2026-04-04T13:38:09.027Z</time></trkpt><trkpt lat="44.9925615" lon="8.4392966"><ele>138.0</ele><time>2026-04-04T13:38:11.028Z</time></trkpt><trkpt lat="44.9925045" lon="8.4392238"><ele>138.0</ele><time>2026-04-04T13:38:12.028Z</time></trkpt><trkpt lat="44.9924417" lon="8.4391419"><ele>138.0</ele><time>2026-04-04T13:38:13.029Z</time></trkpt><trkpt lat="44.9923786" lon="8.4390532"><ele>138.0</ele><time>2026-04-04T13:38:14.027Z</time></trkpt><trkpt lat="44.9923107" lon="8.4389607"><ele>138.0</ele><time>2026-04-04T13:38:15.029Z</time></trkpt><trkpt lat="44.9922392" lon="8.4388598"><ele>138.0</ele><time>2026-04-04T13:38:16.027Z</time></trkpt><trkpt lat="44.9921683" lon="8.4387506"><ele>138.0</ele><time>2026-04-04T13:38:17.028Z</time></trkpt><trkpt lat="44.9920979" lon="8.4386369"><ele>138.6</ele><time>2026-04-04T13:38:18.03Z</time></trkpt><trkpt lat="44.9920264" lon="8.4385224"><ele>139.20000000000002</ele><time>2026-04-04T13:38:19.03Z</time></trkpt><trkpt lat="44.9919532" lon="8.4384071"><ele>139.8</ele><time>2026-04-04T13:38:20.027Z</time></trkpt><trkpt lat="44.9918784" lon="8.4382928"><ele>140.4</ele><time>2026-04-04T13:38:21.028Z</time></trkpt><trkpt lat="44.9918007" lon="8.4381761"><ele>141.0</ele><time>2026-04-04T13:38:22.027Z</time></trkpt><trkpt lat="44.9917247" lon="8.4380576"><ele>140.8</ele><time>2026-04-04T13:38:23.028Z</time></trkpt><trkpt lat="44.9916506" lon="8.4379391"><ele>140.6</ele><time>2026-04-04T13:38:24.028Z</time></trkpt><trkpt lat="44.9915761" lon="8.4378249"><ele>140.4</ele><time>2026-04-04T13:38:25.029Z</time></trkpt><trkpt lat="44.9915055" lon="8.4377203"><ele>140.2</ele><time>2026-04-04T13:38:26.027Z</time></trkpt><trkpt lat="44.9914334" lon="8.4376163"><ele>140.0</ele><time>2026-04-04T13:38:27.028Z</time></trkpt><trkpt lat="44.9913631" lon="8.437509"><ele>140.0</ele><time>2026-04-04T13:38:28.027Z</time></trkpt><trkpt lat="44.991293" lon="8.4374046"><ele>140.0</ele><time>2026-04-04T13:38:29.029Z</time></trkpt><trkpt lat="44.9912245" lon="8.4373012"><ele>140.0</ele><time>2026-04-04T13:38:30.028Z</time></trkpt><trkpt lat="44.9911579" lon="8.4372031"><ele>140.0</ele><time>2026-04-04T13:38:31.029Z</time></trkpt><trkpt lat="44.991094" lon="8.4371134"><ele>140.0</ele><time>2026-04-04T13:38:32.032Z</time></trkpt><trkpt lat="44.9910319" lon="8.4370301"><ele>140.16666666666666</ele><time>2026-04-04T13:38:33.029Z</time></trkpt><trkpt lat="44.9909731" lon="8.4369508"><ele>140.33333333333331</ele><time>2026-04-04T13:38:34.028Z</time></trkpt><trkpt lat="44.990915" lon="8.436869"><ele>140.5</ele><time>2026-04-04T13:38:35.029Z</time></trkpt><trkpt lat="44.9908589" lon="8.436782"><ele>140.66666666666666</ele><time>2026-04-04T13:38:36.027Z</time></trkpt><trkpt lat="44.9907984" lon="8.436691"><ele>140.83333333333334</ele><time>2026-04-04T13:38:37.029Z</time></trkpt><trkpt lat="44.9907369" lon="8.4365982"><ele>141.0</ele><time>2026-04-04T13:38:38.027Z</time></trkpt><trkpt lat="44.9906755" lon="8.4365043"><ele>140.6</ele><time>2026-04-04T13:38:39.027Z</time></trkpt><trkpt lat="44.990617" lon="8.4363996"><ele>140.2</ele><time>2026-04-04T13:38:40.027Z</time></trkpt><trkpt lat="44.9905662" lon="8.4362771"><ele>139.8</ele><time>2026-04-04T13:38:41.028Z</time></trkpt><trkpt lat="44.9905253" lon="8.4361387"><ele>139.4</ele><time>2026-04-04T13:38:42.029Z</time></trkpt><trkpt lat="44.990492" lon="8.4359907"><ele>139.0</ele><time>2026-04-04T13:38:43.03Z</time></trkpt><trkpt lat="44.9904668" lon="8.4358502"><ele>139.0</ele><time>2026-04-04T13:38:44.028Z</time></trkpt><trkpt lat="44.9904444" lon="8.435716"><ele>139.0</ele><time>2026-04-04T13:38:45.027Z</time></trkpt><trkpt lat="44.9904217" lon="8.4355825"><ele>139.0</ele><time>2026-04-04T13:38:46.029Z</time></trkpt><trkpt lat="44.9903907" lon="8.435443"><ele>139.0</ele><time>2026-04-04T13:38:47.028Z</time></trkpt><trkpt lat="44.9903473" lon="8.4353124"><ele>139.0</ele><time>2026-04-04T13:38:48.029Z</time></trkpt><trkpt lat="44.9902945" lon="8.4352002"><ele>139.0</ele><time>2026-04-04T13:38:49.028Z</time></trkpt><trkpt lat="44.9902356" lon="8.4351063"><ele>139.0</ele><time>2026-04-04T13:38:50.028Z</time></trkpt><trkpt lat="44.9901733" lon="8.4350174"><ele>139.0</ele><time>2026-04-04T13:38:51.03Z</time></trkpt><trkpt lat="44.990116" lon="8.434926"><ele>139.0</ele><time>2026-04-04T13:38:52.027Z</time></trkpt><trkpt lat="44.9900676" lon="8.4348415"><ele>139.0</ele><time>2026-04-04T13:38:53.028Z</time></trkpt><trkpt lat="44.9900283" lon="8.4347645"><ele>139.0</ele><time>2026-04-04T13:38:54.028Z</time></trkpt><trkpt lat="44.9899817" lon="8.434614"><ele>139.0</ele><time>2026-04-04T13:38:56.027Z</time></trkpt><trkpt lat="44.989961" lon="8.4344474"><ele>139.0</ele><time>2026-04-04T13:38:58.028Z</time></trkpt><trkpt lat="44.9899496" lon="8.4343583"><ele>139.0</ele><time>2026-04-04T13:38:59.029Z</time></trkpt><trkpt lat="44.9899423" lon="8.434263"><ele>139.0</ele><time>2026-04-04T13:39:00.028Z</time></trkpt><trkpt lat="44.9899387" lon="8.4341608"><ele>139.0</ele><time>2026-04-04T13:39:01.028Z</time></trkpt><trkpt lat="44.989947" lon="8.4340583"><ele>139.0</ele><time>2026-04-04T13:39:02.029Z</time></trkpt><trkpt lat="44.989975" lon="8.4339432"><ele>140.0</ele><time>2026-04-04T13:39:03.028Z</time></trkpt><trkpt lat="44.9900131" lon="8.4338176"><ele>141.0</ele><time>2026-04-04T13:39:04.028Z</time></trkpt><trkpt lat="44.9900561" lon="8.4336927"><ele>142.0</ele><time>2026-04-04T13:39:05.027Z</time></trkpt><trkpt lat="44.9900863" lon="8.4335641"><ele>143.0</ele><time>2026-04-04T13:39:06.029Z</time></trkpt><trkpt lat="44.9901029" lon="8.4334232"><ele>144.0</ele><time>2026-04-04T13:39:07.029Z</time></trkpt><trkpt lat="44.9901026" lon="8.4332724"><ele>144.2</ele><time>2026-04-04T13:39:08.027Z</time></trkpt><trkpt lat="44.9900926" lon="8.4331156"><ele>144.4</ele><time>2026-04-04T13:39:09.028Z</time></trkpt><trkpt lat="44.9900734" lon="8.4329708"><ele>144.6</ele><time>2026-04-04T13:39:10.028Z</time></trkpt><trkpt lat="44.9900548" lon="8.4328322"><ele>144.8</ele><time>2026-04-04T13:39:11.03Z</time></trkpt><trkpt lat="44.9900362" lon="8.432694"><ele>145.0</ele><time>2026-04-04T13:39:12.029Z</time></trkpt><trkpt lat="44.9900203" lon="8.4325597"><ele>144.4</ele><time>2026-04-04T13:39:13.028Z</time></trkpt><trkpt lat="44.9899999" lon="8.432422"><ele>143.8</ele><time>2026-04-04T13:39:14.027Z</time></trkpt><trkpt lat="44.9899809" lon="8.4322781"><ele>143.2</ele><time>2026-04-04T13:39:15.028Z</time></trkpt><trkpt lat="44.9899572" lon="8.4321258"><ele>142.6</ele><time>2026-04-04T13:39:16.028Z</time></trkpt><trkpt lat="44.989932" lon="8.4319653"><ele>142.0</ele><time>2026-04-04T13:39:17.027Z</time></trkpt><trkpt lat="44.9899053" lon="8.4318061"><ele>142.0</ele><time>2026-04-04T13:39:18.028Z</time></trkpt><trkpt lat="44.9898743" lon="8.4316589"><ele>142.0</ele><time>2026-04-04T13:39:19.03Z</time></trkpt><trkpt lat="44.9898409" lon="8.4315155"><ele>142.0</ele><time>2026-04-04T13:39:20.028Z</time></trkpt><trkpt lat="44.989807" lon="8.4313714"><ele>142.0</ele><time>2026-04-04T13:39:21.029Z</time></trkpt><trkpt lat="44.9897704" lon="8.43122"><ele>142.0</ele><time>2026-04-04T13:39:22.029Z</time></trkpt><trkpt lat="44.9897346" lon="8.431072"><ele>142.4</ele><time>2026-04-04T13:39:23.027Z</time></trkpt><trkpt lat="44.9897007" lon="8.4309324"><ele>142.79999999999998</ele><time>2026-04-04T13:39:24.028Z</time></trkpt><trkpt lat="44.9896631" lon="8.4308039"><ele>143.2</ele><time>2026-04-04T13:39:25.029Z</time></trkpt><trkpt lat="44.9896205" lon="8.4306811"><ele>143.6</ele><time>2026-04-04T13:39:26.028Z</time></trkpt><trkpt lat="44.9895755" lon="8.4305605"><ele>144.0</ele><time>2026-04-04T13:39:27.029Z</time></trkpt><trkpt lat="44.9895259" lon="8.4304408"><ele>144.0</ele><time>2026-04-04T13:39:28.029Z</time></trkpt><trkpt lat="44.9894713" lon="8.4303156"><ele>144.0</ele><time>2026-04-04T13:39:29.029Z</time></trkpt><trkpt lat="44.9894186" lon="8.4301861"><ele>144.0</ele><time>2026-04-04T13:39:30.028Z</time></trkpt><trkpt lat="44.9893707" lon="8.430053"><ele>144.0</ele><time>2026-04-04T13:39:31.029Z</time></trkpt><trkpt lat="44.9893282" lon="8.4299182"><ele>144.0</ele><time>2026-04-04T13:39:32.027Z</time></trkpt><trkpt lat="44.9892884" lon="8.429784"><ele>144.0</ele><time>2026-04-04T13:39:33.029Z</time></trkpt><trkpt lat="44.9892544" lon="8.4296478"><ele>144.0</ele><time>2026-04-04T13:39:34.03Z</time></trkpt><trkpt lat="44.9892248" lon="8.4295121"><ele>144.0</ele><time>2026-04-04T13:39:35.028Z</time></trkpt><trkpt lat="44.9892048" lon="8.4293779"><ele>144.0</ele><time>2026-04-04T13:39:36.027Z</time></trkpt><trkpt lat="44.9891958" lon="8.4292511"><ele>144.0</ele><time>2026-04-04T13:39:37.03Z</time></trkpt><trkpt lat="44.9891969" lon="8.429133"><ele>143.6</ele><time>2026-04-04T13:39:38.029Z</time></trkpt><trkpt lat="44.9892156" lon="8.4290142"><ele>143.2</ele><time>2026-04-04T13:39:39.029Z</time></trkpt><trkpt lat="44.9892531" lon="8.4288949"><ele>142.79999999999998</ele><time>2026-04-04T13:39:40.029Z</time></trkpt><trkpt lat="44.9893168" lon="8.428779"><ele>142.4</ele><time>2026-04-04T13:39:41.027Z</time></trkpt><trkpt lat="44.9893911" lon="8.4286699"><ele>142.0</ele><time>2026-04-04T13:39:42.028Z</time></trkpt><trkpt lat="44.9894687" lon="8.4285806"><ele>142.0</ele><time>2026-04-04T13:39:43.029Z</time></trkpt><trkpt lat="44.9895594" lon="8.4285282"><ele>142.0</ele><time>2026-04-04T13:39:44.028Z</time></trkpt><trkpt lat="44.9896475" lon="8.4285037"><ele>142.0</ele><time>2026-04-04T13:39:45.028Z</time></trkpt><trkpt lat="44.9897329" lon="8.4285007"><ele>142.0</ele><time>2026-04-04T13:39:46.029Z</time></trkpt><trkpt lat="44.9898103" lon="8.428494"><ele>142.0</ele><time>2026-04-04T13:39:47.029Z</time></trkpt><trkpt lat="44.989878" lon="8.428476"><ele>142.0</ele><time>2026-04-04T13:39:48.029Z</time></trkpt><trkpt lat="44.9899421" lon="8.4284356"><ele>142.0</ele><time>2026-04-04T13:39:49.028Z</time></trkpt><trkpt lat="44.9899927" lon="8.4283716"><ele>142.0</ele><time>2026-04-04T13:39:50.028Z</time></trkpt><trkpt lat="44.9900294" lon="8.4282748"><ele>142.0</ele><time>2026-04-04T13:39:51.029Z</time></trkpt><trkpt lat="44.9900306" lon="8.4281342"><ele>142.0</ele><time>2026-04-04T13:39:52.028Z</time></trkpt><trkpt lat="44.9900045" lon="8.4279647"><ele>142.0</ele><time>2026-04-04T13:39:53.028Z</time></trkpt><trkpt lat="44.9899755" lon="8.4277856"><ele>143.25</ele><time>2026-04-04T13:39:54.028Z</time></trkpt><trkpt lat="44.989927" lon="8.4276094"><ele>144.5</ele><time>2026-04-04T13:39:55.028Z</time></trkpt><trkpt lat="44.9898852" lon="8.4274513"><ele>145.75</ele><time>2026-04-04T13:39:56.028Z</time></trkpt><trkpt lat="44.9898416" lon="8.4272957"><ele>147.0</ele><time>2026-04-04T13:39:57.03Z</time></trkpt><trkpt lat="44.9898071" lon="8.4271475"><ele>147.6</ele><time>2026-04-04T13:39:58.028Z</time></trkpt><trkpt lat="44.9897769" lon="8.4270026"><ele>148.2</ele><time>2026-04-04T13:39:59.027Z</time></trkpt><trkpt lat="44.9897532" lon="8.4268616"><ele>148.8</ele><time>2026-04-04T13:40:00.028Z</time></trkpt><trkpt lat="44.9897286" lon="8.4267221"><ele>149.4</ele><time>2026-04-04T13:40:01.028Z</time></trkpt><trkpt lat="44.9896991" lon="8.4265891"><ele>150.0</ele><time>2026-04-04T13:40:02.03Z</time></trkpt><trkpt lat="44.9896602" lon="8.426456"><ele>150.0</ele><time>2026-04-04T13:40:03.028Z</time></trkpt><trkpt lat="44.9896137" lon="8.4263221"><ele>150.0</ele><time>2026-04-04T13:40:04.029Z</time></trkpt><trkpt lat="44.9895608" lon="8.4261869"><ele>150.0</ele><time>2026-04-04T13:40:05.028Z</time></trkpt><trkpt lat="44.9895106" lon="8.4260558"><ele>150.0</ele><time>2026-04-04T13:40:06.029Z</time></trkpt><trkpt lat="44.9894622" lon="8.4259356"><ele>150.0</ele><time>2026-04-04T13:40:07.029Z</time></trkpt><trkpt lat="44.989414" lon="8.4258168"><ele>149.8</ele><time>2026-04-04T13:40:08.029Z</time></trkpt><trkpt lat="44.9893668" lon="8.4256975"><ele>149.6</ele><time>2026-04-04T13:40:09.029Z</time></trkpt><trkpt lat="44.9893186" lon="8.425578"><ele>149.4</ele><time>2026-04-04T13:40:10.028Z</time></trkpt><trkpt lat="44.9892688" lon="8.4254584"><ele>149.2</ele><time>2026-04-04T13:40:11.029Z</time></trkpt><trkpt lat="44.989216" lon="8.4253454"><ele>149.0</ele><time>2026-04-04T13:40:12.028Z</time></trkpt><trkpt lat="44.9891553" lon="8.4252344"><ele>148.2</ele><time>2026-04-04T13:40:13.028Z</time></trkpt><trkpt lat="44.9890848" lon="8.4251264"><ele>147.4</ele><time>2026-04-04T13:40:14.029Z</time></trkpt><trkpt lat="44.9890105" lon="8.4250238"><ele>146.6</ele><time>2026-04-04T13:40:15.03Z</time></trkpt><trkpt lat="44.9889406" lon="8.4249223"><ele>145.8</ele><time>2026-04-04T13:40:16.029Z</time></trkpt><trkpt lat="44.9888816" lon="8.424813"><ele>145.0</ele><time>2026-04-04T13:40:17.028Z</time></trkpt><trkpt lat="44.9888349" lon="8.4246983"><ele>145.6</ele><time>2026-04-04T13:40:18.03Z</time></trkpt><trkpt lat="44.9887991" lon="8.4245786"><ele>146.2</ele><time>2026-04-04T13:40:19.03Z</time></trkpt><trkpt lat="44.9887708" lon="8.4244461"><ele>146.8</ele><time>2026-04-04T13:40:20.029Z</time></trkpt><trkpt lat="44.9887529" lon="8.4243049"><ele>147.4</ele><time>2026-04-04T13:40:21.028Z</time></trkpt><trkpt lat="44.9887432" lon="8.4241615"><ele>148.0</ele><time>2026-04-04T13:40:22.028Z</time></trkpt><trkpt lat="44.9887377" lon="8.4240187"><ele>148.0</ele><time>2026-04-04T13:40:23.028Z</time></trkpt><trkpt lat="44.9887412" lon="8.4238804"><ele>148.0</ele><time>2026-04-04T13:40:24.028Z</time></trkpt><trkpt lat="44.9887505" lon="8.4237476"><ele>148.0</ele><time>2026-04-04T13:40:25.029Z</time></trkpt><trkpt lat="44.988765" lon="8.4236165"><ele>148.0</ele><time>2026-04-04T13:40:26.028Z</time></trkpt><trkpt lat="44.9887896" lon="8.4234853"><ele>148.0</ele><time>2026-04-04T13:40:27.029Z</time></trkpt><trkpt lat="44.9888267" lon="8.4233494"><ele>148.20000000000002</ele><time>2026-04-04T13:40:28.029Z</time></trkpt><trkpt lat="44.9888732" lon="8.4232191"><ele>148.4</ele><time>2026-04-04T13:40:29.029Z</time></trkpt><trkpt lat="44.9889238" lon="8.423095"><ele>148.60000000000002</ele><time>2026-04-04T13:40:30.03Z</time></trkpt><trkpt lat="44.9889664" lon="8.4229706"><ele>148.8</ele><time>2026-04-04T13:40:31.028Z</time></trkpt><trkpt lat="44.9889971" lon="8.4228326"><ele>149.0</ele><time>2026-04-04T13:40:32.029Z</time></trkpt><trkpt lat="44.9890155" lon="8.4226788"><ele>149.0</ele><time>2026-04-04T13:40:33.028Z</time></trkpt><trkpt lat="44.9890266" lon="8.4225222"><ele>149.0</ele><time>2026-04-04T13:40:34.029Z</time></trkpt><trkpt lat="44.9890312" lon="8.4223766"><ele>149.0</ele><time>2026-04-04T13:40:35.028Z</time></trkpt><trkpt lat="44.9890317" lon="8.4222417"><ele>149.0</ele><time>2026-04-04T13:40:36.028Z</time></trkpt><trkpt lat="44.9890333" lon="8.4221033"><ele>149.0</ele><time>2026-04-04T13:40:37.029Z</time></trkpt><trkpt lat="44.9890233" lon="8.4219517"><ele>149.0</ele><time>2026-04-04T13:40:38.028Z</time></trkpt><trkpt lat="44.9890117" lon="8.4218033"><ele>149.0</ele><time>2026-04-04T13:40:39.029Z</time></trkpt><trkpt lat="44.9890033" lon="8.4216567"><ele>149.0</ele><time>2026-04-04T13:40:40.029Z</time></trkpt><trkpt lat="44.9889983" lon="8.42151"><ele>149.0</ele><time>2026-04-04T13:40:41.027Z</time></trkpt><trkpt lat="44.9889867" lon="8.42136"><ele>149.0</ele><time>2026-04-04T13:40:42.029Z</time></trkpt><trkpt lat="44.9889767" lon="8.4212117"><ele>149.2</ele><time>2026-04-04T13:40:43.03Z</time></trkpt><trkpt lat="44.988965" lon="8.4210817"><ele>149.4</ele><time>2026-04-04T13:40:44.029Z</time></trkpt><trkpt lat="44.9889583" lon="8.42096"><ele>149.6</ele><time>2026-04-04T13:40:45.029Z</time></trkpt><trkpt lat="44.98896" lon="8.4208367"><ele>149.8</ele><time>2026-04-04T13:40:46.028Z</time></trkpt><trkpt lat="44.9889633" lon="8.4207083"><ele>150.0</ele><time>2026-04-04T13:40:47.028Z</time></trkpt><trkpt lat="44.9889617" lon="8.4205717"><ele>150.0</ele><time>2026-04-04T13:40:48.028Z</time></trkpt><trkpt lat="44.9889483" lon="8.4204167"><ele>150.0</ele><time>2026-04-04T13:40:49.029Z</time></trkpt><trkpt lat="44.9889283" lon="8.4202617"><ele>150.0</ele><time>2026-04-04T13:40:50.029Z</time></trkpt><trkpt lat="44.9889067" lon="8.420105"><ele>150.0</ele><time>2026-04-04T13:40:51.029Z</time></trkpt><trkpt lat="44.9888783" lon="8.419945"><ele>150.0</ele><time>2026-04-04T13:40:52.029Z</time></trkpt><trkpt lat="44.9888533" lon="8.4197967"><ele>150.0</ele><time>2026-04-04T13:40:53.028Z</time></trkpt><trkpt lat="44.9888267" lon="8.419655"><ele>150.0</ele><time>2026-04-04T13:40:54.029Z</time></trkpt><trkpt lat="44.988805" lon="8.4195183"><ele>150.0</ele><time>2026-04-04T13:40:55.029Z</time></trkpt><trkpt lat="44.9887833" lon="8.4193783"><ele>150.0</ele><time>2026-04-04T13:40:56.029Z</time></trkpt><trkpt lat="44.9887567" lon="8.4192367"><ele>150.4</ele><time>2026-04-04T13:40:57.028Z</time></trkpt><trkpt lat="44.9887283" lon="8.4190933"><ele>150.8</ele><time>2026-04-04T13:40:58.028Z</time></trkpt><trkpt lat="44.9887" lon="8.418955"><ele>151.2</ele><time>2026-04-04T13:40:59.029Z</time></trkpt><trkpt lat="44.9886733" lon="8.418825"><ele>151.6</ele><time>2026-04-04T13:41:00.029Z</time></trkpt><trkpt lat="44.9886517" lon="8.4187"><ele>152.0</ele><time>2026-04-04T13:41:01.028Z</time></trkpt><trkpt lat="44.9886333" lon="8.4185783"><ele>152.0</ele><time>2026-04-04T13:41:02.028Z</time></trkpt><trkpt lat="44.9886167" lon="8.4184633"><ele>152.0</ele><time>2026-04-04T13:41:03.03Z</time></trkpt><trkpt lat="44.988615" lon="8.418335"><ele>152.0</ele><time>2026-04-04T13:41:04.029Z</time></trkpt><trkpt lat="44.98863" lon="8.4182017"><ele>152.0</ele><time>2026-04-04T13:41:05.028Z</time></trkpt><trkpt lat="44.9886567" lon="8.41807"><ele>152.0</ele><time>2026-04-04T13:41:06.029Z</time></trkpt><trkpt lat="44.988685" lon="8.4179367"><ele>151.4</ele><time>2026-04-04T13:41:07.029Z</time></trkpt><trkpt lat="44.9887267" lon="8.4178067"><ele>150.79999999999998</ele><time>2026-04-04T13:41:08.029Z</time></trkpt><trkpt lat="44.9887683" lon="8.4176783"><ele>150.2</ele><time>2026-04-04T13:41:09.029Z</time></trkpt><trkpt lat="44.9888133" lon="8.4175517"><ele>149.6</ele><time>2026-04-04T13:41:10.028Z</time></trkpt><trkpt lat="44.988855" lon="8.4174233"><ele>149.0</ele><time>2026-04-04T13:41:11.028Z</time></trkpt><trkpt lat="44.9888933" lon="8.4172917"><ele>149.0</ele><time>2026-04-04T13:41:12.028Z</time></trkpt><trkpt lat="44.9889383" lon="8.4171633"><ele>149.0</ele><time>2026-04-04T13:41:13.03Z</time></trkpt><trkpt lat="44.98899" lon="8.4170417"><ele>149.0</ele><time>2026-04-04T13:41:14.029Z</time></trkpt><trkpt lat="44.9890517" lon="8.41692"><ele>149.0</ele><time>2026-04-04T13:41:15.028Z</time></trkpt><trkpt lat="44.9891167" lon="8.4168"><ele>149.0</ele><time>2026-04-04T13:41:16.028Z</time></trkpt><trkpt lat="44.9891833" lon="8.4166917"><ele>149.4</ele><time>2026-04-04T13:41:17.029Z</time></trkpt><trkpt lat="44.9892417" lon="8.4165933"><ele>149.8</ele><time>2026-04-04T13:41:18.029Z</time></trkpt><trkpt lat="44.9893017" lon="8.4164983"><ele>150.2</ele><time>2026-04-04T13:41:19.03Z</time></trkpt><trkpt lat="44.9893583" lon="8.4163967"><ele>150.6</ele><time>2026-04-04T13:41:20.029Z</time></trkpt><trkpt lat="44.9894133" lon="8.416295"><ele>151.0</ele><time>2026-04-04T13:41:21.03Z</time></trkpt><trkpt lat="44.989465" lon="8.4161967"><ele>151.0</ele><time>2026-04-04T13:41:22.029Z</time></trkpt><trkpt lat="44.98952" lon="8.416095"><ele>151.0</ele><time>2026-04-04T13:41:23.029Z</time></trkpt><trkpt lat="44.9895683" lon="8.4159867"><ele>151.0</ele><time>2026-04-04T13:41:24.028Z</time></trkpt><trkpt lat="44.9896117" lon="8.41587"><ele>151.0</ele><time>2026-04-04T13:41:25.029Z</time></trkpt><trkpt lat="44.9896483" lon="8.415755"><ele>151.0</ele><time>2026-04-04T13:41:26.029Z</time></trkpt><trkpt lat="44.98968" lon="8.415645"><ele>151.0</ele><time>2026-04-04T13:41:27.03Z</time></trkpt><trkpt lat="44.9897033" lon="8.415525"><ele>150.8</ele><time>2026-04-04T13:41:28.028Z</time></trkpt><trkpt lat="44.989725" lon="8.4153967"><ele>150.6</ele><time>2026-04-04T13:41:29.028Z</time></trkpt><trkpt lat="44.9897433" lon="8.4152667"><ele>150.4</ele><time>2026-04-04T13:41:30.029Z</time></trkpt><trkpt lat="44.9897617" lon="8.4151283"><ele>150.2</ele><time>2026-04-04T13:41:31.029Z</time></trkpt><trkpt lat="44.9897783" lon="8.4149767"><ele>150.0</ele><time>2026-04-04T13:41:32.029Z</time></trkpt><trkpt lat="44.98979" lon="8.4148233"><ele>150.0</ele><time>2026-04-04T13:41:33.029Z</time></trkpt><trkpt lat="44.9898017" lon="8.4146833"><ele>150.0</ele><time>2026-04-04T13:41:34.028Z</time></trkpt><trkpt lat="44.9898083" lon="8.414555"><ele>150.0</ele><time>2026-04-04T13:41:35.029Z</time></trkpt><trkpt lat="44.9898067" lon="8.4144383"><ele>150.0</ele><time>2026-04-04T13:41:36.029Z</time></trkpt><trkpt lat="44.9898033" lon="8.4143283"><ele>150.0</ele><time>2026-04-04T13:41:37.03Z</time></trkpt><trkpt lat="44.989805" lon="8.414195"><ele>150.0</ele><time>2026-04-04T13:41:38.028Z</time></trkpt><trkpt lat="44.98981" lon="8.4140483"><ele>149.83333333333334</ele><time>2026-04-04T13:41:39.029Z</time></trkpt><trkpt lat="44.98982" lon="8.4138983"><ele>149.66666666666666</ele><time>2026-04-04T13:41:40.028Z</time></trkpt><trkpt lat="44.989825" lon="8.41376"><ele>149.5</ele><time>2026-04-04T13:41:41.029Z</time></trkpt><trkpt lat="44.9898283" lon="8.4136433"><ele>149.33333333333331</ele><time>2026-04-04T13:41:42.028Z</time></trkpt><trkpt lat="44.98983" lon="8.4135383"><ele>149.16666666666666</ele><time>2026-04-04T13:41:43.03Z</time></trkpt><trkpt lat="44.989835" lon="8.4134333"><ele>149.0</ele><time>2026-04-04T13:41:44.029Z</time></trkpt><trkpt lat="44.9898433" lon="8.413325"><ele>148.85714285714286</ele><time>2026-04-04T13:41:45.028Z</time></trkpt><trkpt lat="44.98985" lon="8.4132267"><ele>148.7142857142857</ele><time>2026-04-04T13:41:46.029Z</time></trkpt><trkpt lat="44.98986" lon="8.4131317"><ele>148.57142857142856</ele><time>2026-04-04T13:41:47.028Z</time></trkpt><trkpt lat="44.9898717" lon="8.4130417"><ele>148.42857142857142</ele><time>2026-04-04T13:41:48.029Z</time></trkpt><trkpt lat="44.989875" lon="8.41295"><ele>148.28571428571428</ele><time>2026-04-04T13:41:49.032Z</time></trkpt><trkpt lat="44.9898733" lon="8.4128533"><ele>148.14285714285714</ele><time>2026-04-04T13:41:50.03Z</time></trkpt><trkpt lat="44.989885" lon="8.4127367"><ele>148.0</ele><time>2026-04-04T13:41:51.028Z</time></trkpt><trkpt lat="44.9898983" lon="8.412635"><ele>148.0</ele><time>2026-04-04T13:41:52.029Z</time></trkpt><trkpt lat="44.9899233" lon="8.41248"><ele>148.0</ele><time>2026-04-04T13:41:54.029Z</time></trkpt><trkpt lat="44.989955" lon="8.4123867"><ele>148.0</ele><time>2026-04-04T13:41:57.029Z</time></trkpt><trkpt lat="44.98997" lon="8.4123"><ele>148.0</ele><time>2026-04-04T13:41:59.029Z</time></trkpt><trkpt lat="44.9900083" lon="8.412175"><ele>148.0</ele><time>2026-04-04T13:42:01.027Z</time></trkpt><trkpt lat="44.9900583" lon="8.4120267"><ele>148.5</ele><time>2026-04-04T13:42:03.027Z</time></trkpt><trkpt lat="44.990085" lon="8.4119433"><ele>149.0</ele><time>2026-04-04T13:42:04.027Z</time></trkpt><trkpt lat="44.990115" lon="8.4118417"><ele>149.5</ele><time>2026-04-04T13:42:05.029Z</time></trkpt><trkpt lat="44.99014" lon="8.411735"><ele>150.0</ele><time>2026-04-04T13:42:06.03Z</time></trkpt><trkpt lat="44.9901683" lon="8.4116217"><ele>150.5</ele><time>2026-04-04T13:42:07.028Z</time></trkpt><trkpt lat="44.9901933" lon="8.4115083"><ele>151.0</ele><time>2026-04-04T13:42:08.032Z</time></trkpt><trkpt lat="44.9902233" lon="8.4114067"><ele>150.71428571428572</ele><time>2026-04-04T13:42:09.028Z</time></trkpt><trkpt lat="44.99025" lon="8.4113067"><ele>150.42857142857144</ele><time>2026-04-04T13:42:10.028Z</time></trkpt><trkpt lat="44.990275" lon="8.4112183"><ele>150.14285714285714</ele><time>2026-04-04T13:42:11.028Z</time></trkpt><trkpt lat="44.9902967" lon="8.4111267"><ele>149.85714285714286</ele><time>2026-04-04T13:42:12.028Z</time></trkpt><trkpt lat="44.9903117" lon="8.4110183"><ele>149.57142857142856</ele><time>2026-04-04T13:42:13.027Z</time></trkpt><trkpt lat="44.990325" lon="8.4109117"><ele>149.28571428571428</ele><time>2026-04-04T13:42:14.029Z</time></trkpt><trkpt lat="44.990335" lon="8.4108183"><ele>149.0</ele><time>2026-04-04T13:42:15.027Z</time></trkpt><trkpt lat="44.9903333" lon="8.4107267"><ele>149.0</ele><time>2026-04-04T13:42:16.026Z</time></trkpt><trkpt lat="44.9903083" lon="8.4106383"><ele>149.0</ele><time>2026-04-04T13:42:17.027Z</time></trkpt><trkpt lat="44.9902933" lon="8.4105517"><ele>149.0</ele><time>2026-04-04T13:42:18.03Z</time></trkpt><trkpt lat="44.9902733" lon="8.410465"><ele>149.0</ele><time>2026-04-04T13:42:19.027Z</time></trkpt><trkpt lat="44.9902617" lon="8.4103683"><ele>149.0</ele><time>2026-04-04T13:42:20.027Z</time></trkpt><trkpt lat="44.9902667" lon="8.4102033"><ele>149.0</ele><time>2026-04-04T13:42:22.026Z</time></trkpt><trkpt lat="44.990295" lon="8.4100583"><ele>149.33333333333331</ele><time>2026-04-04T13:42:24.027Z</time></trkpt><trkpt lat="44.9903217" lon="8.4099367"><ele>149.66666666666666</ele><time>2026-04-04T13:42:26.028Z</time></trkpt><trkpt lat="44.9903767" lon="8.4098633"><ele>150.0</ele><time>2026-04-04T13:42:28.028Z</time></trkpt><trkpt lat="44.9904483" lon="8.4098317"><ele>150.33333333333334</ele><time>2026-04-04T13:42:32.028Z</time></trkpt><trkpt lat="44.9905067" lon="8.40979"><ele>150.66666666666669</ele><time>2026-04-04T13:42:44.027Z</time></trkpt><trkpt lat="44.9905667" lon="8.4097317"><ele>151.0</ele><time>2026-04-04T13:42:59.028Z</time></trkpt><trkpt lat="44.9906433" lon="8.40969"><ele>150.83333333333334</ele><time>2026-04-04T13:43:02.029Z</time></trkpt><trkpt lat="44.9906917" lon="8.4095983"><ele>150.66666666666669</ele><time>2026-04-04T13:43:05.027Z</time></trkpt><trkpt lat="44.9907233" lon="8.4095017"><ele>150.5</ele><time>2026-04-04T13:43:07.028Z</time></trkpt><trkpt lat="44.9907583" lon="8.4093617"><ele>150.33333333333334</ele><time>2026-04-04T13:43:09.027Z</time></trkpt><trkpt lat="44.9907967" lon="8.409205"><ele>150.16666666666666</ele><time>2026-04-04T13:43:11.028Z</time></trkpt><trkpt lat="44.990825" lon="8.4091233"><ele>150.0</ele><time>2026-04-04T13:43:12.027Z</time></trkpt><trkpt lat="44.9908867" lon="8.4089867"><ele>150.5</ele><time>2026-04-04T13:43:14.029Z</time></trkpt><trkpt lat="44.99093" lon="8.4089167"><ele>151.0</ele><time>2026-04-04T13:43:15.028Z</time></trkpt><trkpt lat="44.9909767" lon="8.40885"><ele>151.5</ele><time>2026-04-04T13:43:16.026Z</time></trkpt><trkpt lat="44.9910183" lon="8.408775"><ele>152.0</ele><time>2026-04-04T13:43:17.028Z</time></trkpt><trkpt lat="44.99106" lon="8.4087033"><ele>152.5</ele><time>2026-04-04T13:43:18.027Z</time></trkpt><trkpt lat="44.991145" lon="8.4085667"><ele>153.0</ele><time>2026-04-04T13:43:20.031Z</time></trkpt><trkpt lat="44.9911967" lon="8.4085017"><ele>153.0</ele><time>2026-04-04T13:43:21.028Z</time></trkpt><trkpt lat="44.9912517" lon="8.40844"><ele>153.0</ele><time>2026-04-04T13:43:22.027Z</time></trkpt><trkpt lat="44.99132" lon="8.408375"><ele>153.0</ele><time>2026-04-04T13:43:23.028Z</time></trkpt><trkpt lat="44.9913967" lon="8.4083217"><ele>153.0</ele><time>2026-04-04T13:43:24.027Z</time></trkpt><trkpt lat="44.9914633" lon="8.4082767"><ele>153.0</ele><time>2026-04-04T13:43:25.027Z</time></trkpt><trkpt lat="44.99153" lon="8.4082333"><ele>153.0</ele><time>2026-04-04T13:43:26.028Z</time></trkpt><trkpt lat="44.9916117" lon="8.4081783"><ele>153.4</ele><time>2026-04-04T13:43:27.028Z</time></trkpt><trkpt lat="44.9916883" lon="8.4081217"><ele>153.8</ele><time>2026-04-04T13:43:28.029Z</time></trkpt><trkpt lat="44.99177" lon="8.40806"><ele>154.2</ele><time>2026-04-04T13:43:29.028Z</time></trkpt><trkpt lat="44.991845" lon="8.4079967"><ele>154.6</ele><time>2026-04-04T13:43:30.028Z</time></trkpt><trkpt lat="44.9919183" lon="8.40792"><ele>155.0</ele><time>2026-04-04T13:43:31.028Z</time></trkpt><trkpt lat="44.991985" lon="8.40783"><ele>154.16666666666666</ele><time>2026-04-04T13:43:32.029Z</time></trkpt><trkpt lat="44.9920283" lon="8.407735"><ele>153.33333333333331</ele><time>2026-04-04T13:43:33.028Z</time></trkpt><trkpt lat="44.9920633" lon="8.4076433"><ele>152.5</ele><time>2026-04-04T13:43:34.028Z</time></trkpt><trkpt lat="44.9920917" lon="8.4075533"><ele>151.66666666666666</ele><time>2026-04-04T13:43:35.028Z</time></trkpt><trkpt lat="44.9921417" lon="8.4073967"><ele>150.83333333333334</ele><time>2026-04-04T13:43:37.027Z</time></trkpt><trkpt lat="44.9921733" lon="8.407295"><ele>150.0</ele><time>2026-04-04T13:43:39.027Z</time></trkpt><trkpt lat="44.992205" lon="8.4072067"><ele>149.6</ele><time>2026-04-04T13:43:41.028Z</time></trkpt><trkpt lat="44.9922317" lon="8.4070967"><ele>149.2</ele><time>2026-04-04T13:43:43.029Z</time></trkpt><trkpt lat="44.9922517" lon="8.4069678"><ele>148.8</ele><time>2026-04-04T13:43:45.029Z</time></trkpt><trkpt lat="44.9922701" lon="8.4068205"><ele>148.4</ele><time>2026-04-04T13:43:47.028Z</time></trkpt><trkpt lat="44.9923083" lon="8.40666"><ele>148.0</ele><time>2026-04-04T13:43:49.027Z</time></trkpt><trkpt lat="44.9923417" lon="8.406515"><ele>148.0</ele><time>2026-04-04T13:43:51.029Z</time></trkpt><trkpt lat="44.9923617" lon="8.4064033"><ele>148.0</ele><time>2026-04-04T13:43:53.028Z</time></trkpt><trkpt lat="44.9923917" lon="8.4062667"><ele>148.0</ele><time>2026-04-04T13:43:55.027Z</time></trkpt><trkpt lat="44.992415" lon="8.4061683"><ele>148.0</ele><time>2026-04-04T13:43:56.028Z</time></trkpt><trkpt lat="44.99244" lon="8.4060667"><ele>148.0</ele><time>2026-04-04T13:43:57.027Z</time></trkpt><trkpt lat="44.992465" lon="8.4059683"><ele>148.0</ele><time>2026-04-04T13:43:58.028Z</time></trkpt><trkpt lat="44.9924883" lon="8.4058783"><ele>148.33333333333334</ele><time>2026-04-04T13:43:59.027Z</time></trkpt><trkpt lat="44.9925083" lon="8.40579"><ele>148.66666666666669</ele><time>2026-04-04T13:44:00.029Z</time></trkpt><trkpt lat="44.992535" lon="8.40568"><ele>149.0</ele><time>2026-04-04T13:44:01.029Z</time></trkpt><trkpt lat="44.9925617" lon="8.40557"><ele>149.33333333333334</ele><time>2026-04-04T13:44:02.028Z</time></trkpt><trkpt lat="44.9925917" lon="8.40546"><ele>149.66666666666666</ele><time>2026-04-04T13:44:03.028Z</time></trkpt><trkpt lat="44.9926233" lon="8.405355"><ele>150.0</ele><time>2026-04-04T13:44:04.03Z</time></trkpt><trkpt lat="44.99265" lon="8.4052683"><ele>150.16666666666666</ele><time>2026-04-04T13:44:05.027Z</time></trkpt><trkpt lat="44.9926967" lon="8.40515"><ele>150.33333333333334</ele><time>2026-04-04T13:44:07.028Z</time></trkpt><trkpt lat="44.992735" lon="8.4050317"><ele>150.5</ele><time>2026-04-04T13:44:10.028Z</time></trkpt><trkpt lat="44.9927817" lon="8.4049017"><ele>150.66666666666669</ele><time>2026-04-04T13:44:12.029Z</time></trkpt><trkpt lat="44.9928117" lon="8.40482"><ele>150.83333333333334</ele><time>2026-04-04T13:44:13.03Z</time></trkpt><trkpt lat="44.9928417" lon="8.4047283"><ele>151.0</ele><time>2026-04-04T13:44:14.028Z</time></trkpt><trkpt lat="44.9928917" lon="8.40457"><ele>150.71428571428572</ele><time>2026-04-04T13:44:16.027Z</time></trkpt><trkpt lat="44.9929267" lon="8.4044867"><ele>150.42857142857144</ele><time>2026-04-04T13:44:17.028Z</time></trkpt><trkpt lat="44.9929633" lon="8.4044033"><ele>150.14285714285714</ele><time>2026-04-04T13:44:18.027Z</time></trkpt><trkpt lat="44.9929917" lon="8.4043183"><ele>149.85714285714286</ele><time>2026-04-04T13:44:19.028Z</time></trkpt><trkpt lat="44.9930283" lon="8.4042233"><ele>149.57142857142856</ele><time>2026-04-04T13:44:20.027Z</time></trkpt><trkpt lat="44.9930633" lon="8.4041267"><ele>149.28571428571428</ele><time>2026-04-04T13:44:21.029Z</time></trkpt><trkpt lat="44.9930983" lon="8.404025"><ele>149.0</ele><time>2026-04-04T13:44:22.028Z</time></trkpt><trkpt lat="44.9931283" lon="8.403935"><ele>149.0</ele><time>2026-04-04T13:44:23.028Z</time></trkpt><trkpt lat="44.99315" lon="8.4038483"><ele>149.0</ele><time>2026-04-04T13:44:24.028Z</time></trkpt><trkpt lat="44.9932" lon="8.4036617"><ele>149.0</ele><time>2026-04-04T13:44:26.028Z</time></trkpt><trkpt lat="44.9932317" lon="8.403555"><ele>149.0</ele><time>2026-04-04T13:44:27.028Z</time></trkpt><trkpt lat="44.9932617" lon="8.4034367"><ele>149.0</ele><time>2026-04-04T13:44:28.028Z</time></trkpt><trkpt lat="44.9932917" lon="8.40332"><ele>148.83333333333331</ele><time>2026-04-04T13:44:29.029Z</time></trkpt><trkpt lat="44.9933217" lon="8.4032017"><ele>148.66666666666666</ele><time>2026-04-04T13:44:30.028Z</time></trkpt><trkpt lat="44.99335" lon="8.40309"><ele>148.5</ele><time>2026-04-04T13:44:31.03Z</time></trkpt><trkpt lat="44.9933817" lon="8.4029833"><ele>148.33333333333334</ele><time>2026-04-04T13:44:32.028Z</time></trkpt><trkpt lat="44.9934117" lon="8.40288"><ele>148.16666666666669</ele><time>2026-04-04T13:44:33.029Z</time></trkpt><trkpt lat="44.9934383" lon="8.4027833"><ele>148.0</ele><time>2026-04-04T13:44:34.029Z</time></trkpt><trkpt lat="44.9934633" lon="8.4026883"><ele>148.0</ele><time>2026-04-04T13:44:35.029Z</time></trkpt><trkpt lat="44.99349" lon="8.402585"><ele>148.0</ele><time>2026-04-04T13:44:36.029Z</time></trkpt><trkpt lat="44.9935117" lon="8.4024833"><ele>148.0</ele><time>2026-04-04T13:44:37.027Z</time></trkpt><trkpt lat="44.99353" lon="8.402385"><ele>148.0</ele><time>2026-04-04T13:44:38.028Z</time></trkpt><trkpt lat="44.9935483" lon="8.4022933"><ele>148.0</ele><time>2026-04-04T13:44:39.028Z</time></trkpt><trkpt lat="44.99357" lon="8.402195"><ele>148.0</ele><time>2026-04-04T13:44:40.028Z</time></trkpt><trkpt lat="44.9936" lon="8.402085"><ele>148.0</ele><time>2026-04-04T13:44:41.028Z</time></trkpt><trkpt lat="44.99364" lon="8.4019567"><ele>148.0</ele><time>2026-04-04T13:44:42.029Z</time></trkpt><trkpt lat="44.9936833" lon="8.4018217"><ele>148.0</ele><time>2026-04-04T13:44:43.027Z</time></trkpt><trkpt lat="44.9937283" lon="8.4016833"><ele>148.0</ele><time>2026-04-04T13:44:44.028Z</time></trkpt><trkpt lat="44.9937717" lon="8.4015467"><ele>148.0</ele><time>2026-04-04T13:44:45.029Z</time></trkpt><trkpt lat="44.99381" lon="8.40142"><ele>148.0</ele><time>2026-04-04T13:44:46.027Z</time></trkpt><trkpt lat="44.9938467" lon="8.4013"><ele>148.8</ele><time>2026-04-04T13:44:47.029Z</time></trkpt><trkpt lat="44.9938783" lon="8.4011933"><ele>149.60000000000002</ele><time>2026-04-04T13:44:48.028Z</time></trkpt><trkpt lat="44.9939067" lon="8.4010933"><ele>150.39999999999998</ele><time>2026-04-04T13:44:49.028Z</time></trkpt><trkpt lat="44.99393" lon="8.4009983"><ele>151.2</ele><time>2026-04-04T13:44:50.028Z</time></trkpt><trkpt lat="44.9939583" lon="8.4008383"><ele>152.0</ele><time>2026-04-04T13:44:52.028Z</time></trkpt><trkpt lat="44.9939917" lon="8.4006967"><ele>152.0</ele><time>2026-04-04T13:44:54.028Z</time></trkpt><trkpt lat="44.99404" lon="8.400535"><ele>152.0</ele><time>2026-04-04T13:44:56.028Z</time></trkpt><trkpt lat="44.9940783" lon="8.4003867"><ele>152.0</ele><time>2026-04-04T13:44:58.027Z</time></trkpt><trkpt lat="44.9941033" lon="8.4002083"><ele>152.0</ele><time>2026-04-04T13:45:00.028Z</time></trkpt><trkpt lat="44.99412" lon="8.4001083"><ele>152.0</ele><time>2026-04-04T13:45:01.029Z</time></trkpt><trkpt lat="44.99414" lon="8.4000017"><ele>151.79999999999998</ele><time>2026-04-04T13:45:02.028Z</time></trkpt><trkpt lat="44.99416" lon="8.3998867"><ele>151.6</ele><time>2026-04-04T13:45:03.028Z</time></trkpt><trkpt lat="44.9941817" lon="8.3997733"><ele>151.39999999999998</ele><time>2026-04-04T13:45:04.027Z</time></trkpt><trkpt lat="44.994205" lon="8.39965"><ele>151.2</ele><time>2026-04-04T13:45:05.029Z</time></trkpt><trkpt lat="44.99423" lon="8.3995117"><ele>151.0</ele><time>2026-04-04T13:45:06.029Z</time></trkpt><trkpt lat="44.99426" lon="8.399375"><ele>150.8</ele><time>2026-04-04T13:45:07.029Z</time></trkpt><trkpt lat="44.9942883" lon="8.39924"><ele>150.6</ele><time>2026-04-04T13:45:08.028Z</time></trkpt><trkpt lat="44.994315" lon="8.3991083"><ele>150.4</ele><time>2026-04-04T13:45:09.028Z</time></trkpt><trkpt lat="44.9943417" lon="8.3989817"><ele>150.2</ele><time>2026-04-04T13:45:10.028Z</time></trkpt><trkpt lat="44.994365" lon="8.3988583"><ele>150.0</ele><time>2026-04-04T13:45:11.028Z</time></trkpt><trkpt lat="44.9943867" lon="8.398745"><ele>150.28571428571428</ele><time>2026-04-04T13:45:12.029Z</time></trkpt><trkpt lat="44.9944067" lon="8.398635"><ele>150.57142857142856</ele><time>2026-04-04T13:45:13.028Z</time></trkpt><trkpt lat="44.9944217" lon="8.3985267"><ele>150.85714285714283</ele><time>2026-04-04T13:45:14.03Z</time></trkpt><trkpt lat="44.9944383" lon="8.39843"><ele>151.14285714285714</ele><time>2026-04-04T13:45:15.029Z</time></trkpt><trkpt lat="44.9944567" lon="8.39833"><ele>151.42857142857144</ele><time>2026-04-04T13:45:16.028Z</time></trkpt><trkpt lat="44.99447" lon="8.3982333"><ele>151.7142857142857</ele><time>2026-04-04T13:45:17.028Z</time></trkpt><trkpt lat="44.99449" lon="8.3981333"><ele>152.0</ele><time>2026-04-04T13:45:18.029Z</time></trkpt><trkpt lat="44.99451" lon="8.3980367"><ele>152.0</ele><time>2026-04-04T13:45:19.028Z</time></trkpt><trkpt lat="44.99453" lon="8.3979383"><ele>152.0</ele><time>2026-04-04T13:45:20.028Z</time></trkpt><trkpt lat="44.9945467" lon="8.3978417"><ele>152.0</ele><time>2026-04-04T13:45:21.029Z</time></trkpt><trkpt lat="44.9945667" lon="8.3977483"><ele>152.0</ele><time>2026-04-04T13:45:22.028Z</time></trkpt><trkpt lat="44.9945867" lon="8.397655"><ele>152.0</ele><time>2026-04-04T13:45:23.028Z</time></trkpt><trkpt lat="44.99461" lon="8.3975567"><ele>152.0</ele><time>2026-04-04T13:45:24.03Z</time></trkpt><trkpt lat="44.9946583" lon="8.3973933"><ele>152.0</ele><time>2026-04-04T13:45:26.028Z</time></trkpt><trkpt lat="44.994695" lon="8.3973183"><ele>152.0</ele><time>2026-04-04T13:45:27.028Z</time></trkpt><trkpt lat="44.9947417" lon="8.397255"><ele>152.0</ele><time>2026-04-04T13:45:28.028Z</time></trkpt><trkpt lat="44.9948233" lon="8.3971517"><ele>152.0</ele><time>2026-04-04T13:45:30.029Z</time></trkpt><trkpt lat="44.99489" lon="8.3970283"><ele>152.0</ele><time>2026-04-04T13:45:32.029Z</time></trkpt><trkpt lat="44.994935" lon="8.3968967"><ele>151.83333333333331</ele><time>2026-04-04T13:45:34.027Z</time></trkpt><trkpt lat="44.994945" lon="8.3967783"><ele>151.66666666666666</ele><time>2026-04-04T13:45:36.028Z</time></trkpt><trkpt lat="44.9948817" lon="8.3966667"><ele>151.5</ele><time>2026-04-04T13:45:39.029Z</time></trkpt><trkpt lat="44.9947933" lon="8.39661"><ele>151.33333333333334</ele><time>2026-04-04T13:45:41.028Z</time></trkpt><trkpt lat="44.9946983" lon="8.3965717"><ele>151.16666666666669</ele><time>2026-04-04T13:45:43.027Z</time></trkpt><trkpt lat="44.994635" lon="8.3965533"><ele>151.0</ele><time>2026-04-04T13:45:44.029Z</time></trkpt><trkpt lat="44.9945683" lon="8.3965267"><ele>151.0</ele><time>2026-04-04T13:45:45.03Z</time></trkpt><trkpt lat="44.9944933" lon="8.3964983"><ele>151.0</ele><time>2026-04-04T13:45:46.028Z</time></trkpt><trkpt lat="44.99441" lon="8.3964633"><ele>151.0</ele><time>2026-04-04T13:45:47.028Z</time></trkpt><trkpt lat="44.9943283" lon="8.39643"><ele>151.0</ele><time>2026-04-04T13:45:48.028Z</time></trkpt><trkpt lat="44.9942483" lon="8.3963917"><ele>151.0</ele><time>2026-04-04T13:45:49.03Z</time></trkpt><trkpt lat="44.9941667" lon="8.396355"><ele>151.0</ele><time>2026-04-04T13:45:50.029Z</time></trkpt><trkpt lat="44.994085" lon="8.3963167"><ele>150.83333333333334</ele><time>2026-04-04T13:45:51.028Z</time></trkpt><trkpt lat="44.9940067" lon="8.396285"><ele>150.66666666666669</ele><time>2026-04-04T13:45:52.028Z</time></trkpt><trkpt lat="44.9939333" lon="8.3962567"><ele>150.5</ele><time>2026-04-04T13:45:53.029Z</time></trkpt><trkpt lat="44.9938683" lon="8.3962317"><ele>150.33333333333334</ele><time>2026-04-04T13:45:54.028Z</time></trkpt><trkpt lat="44.9938067" lon="8.3962033"><ele>150.16666666666666</ele><time>2026-04-04T13:45:55.028Z</time></trkpt><trkpt lat="44.9936983" lon="8.39614"><ele>150.0</ele><time>2026-04-04T13:45:57.028Z</time></trkpt><trkpt lat="44.9936" lon="8.3960833"><ele>150.0</ele><time>2026-04-04T13:45:59.028Z</time></trkpt><trkpt lat="44.9935067" lon="8.3960317"><ele>150.0</ele><time>2026-04-04T13:46:01.029Z</time></trkpt><trkpt lat="44.9934067" lon="8.3959833"><ele>150.0</ele><time>2026-04-04T13:46:03.029Z</time></trkpt><trkpt lat="44.99332" lon="8.3959483"><ele>150.0</ele><time>2026-04-04T13:46:05.028Z</time></trkpt><trkpt lat="44.9932583" lon="8.39593"><ele>150.0</ele><time>2026-04-04T13:46:07.027Z</time></trkpt><trkpt lat="44.99319" lon="8.3959567"><ele>150.0</ele><time>2026-04-04T13:46:10.027Z</time></trkpt><trkpt lat="44.9931383" lon="8.3960517"><ele>150.0</ele><time>2026-04-04T13:46:12.027Z</time></trkpt><trkpt lat="44.9930967" lon="8.396225"><ele>150.0</ele><time>2026-04-04T13:46:14.026Z</time></trkpt><trkpt lat="44.9930733" lon="8.3963267"><ele>150.0</ele><time>2026-04-04T13:46:15.028Z</time></trkpt><trkpt lat="44.9930517" lon="8.39643"><ele>150.0</ele><time>2026-04-04T13:46:16.026Z</time></trkpt><trkpt lat="44.993025" lon="8.3965267"><ele>150.0</ele><time>2026-04-04T13:46:17.028Z</time></trkpt><trkpt lat="44.9929983" lon="8.3966233"><ele>150.0</ele><time>2026-04-04T13:46:18.027Z</time></trkpt><trkpt lat="44.9929783" lon="8.396725"><ele>150.0</ele><time>2026-04-04T13:46:19.027Z</time></trkpt><trkpt lat="44.9929617" lon="8.3968133"><ele>150.0</ele><time>2026-04-04T13:46:20.028Z</time></trkpt><trkpt lat="44.9929167" lon="8.3969383"><ele>150.0</ele><time>2026-04-04T13:46:22.029Z</time></trkpt><trkpt lat="44.99284" lon="8.397"><ele>150.0</ele><time>2026-04-04T13:46:24.027Z</time></trkpt><trkpt lat="44.9927217" lon="8.3970183"><ele>150.0</ele><time>2026-04-04T13:46:26.028Z</time></trkpt><trkpt lat="44.9926067" lon="8.3969933"><ele>150.0</ele><time>2026-04-04T13:46:28.026Z</time></trkpt><trkpt lat="44.9925467" lon="8.396955"><ele>150.0</ele><time>2026-04-04T13:46:29.027Z</time></trkpt><trkpt lat="44.992495" lon="8.3968933"><ele>150.0</ele><time>2026-04-04T13:46:30.027Z</time></trkpt><trkpt lat="44.9924533" lon="8.3968167"><ele>150.0</ele><time>2026-04-04T13:46:31.027Z</time></trkpt><trkpt lat="44.99243" lon="8.3967067"><ele>150.0</ele><time>2026-04-04T13:46:32.027Z</time></trkpt><trkpt lat="44.99242" lon="8.39658"><ele>150.0</ele><time>2026-04-04T13:46:33.031Z</time></trkpt><trkpt lat="44.9924233" lon="8.3964483"><ele>150.5</ele><time>2026-04-04T13:46:34.031Z</time></trkpt><trkpt lat="44.9924183" lon="8.39632"><ele>151.0</ele><time>2026-04-04T13:46:35.028Z</time></trkpt><trkpt lat="44.9924117" lon="8.3961917"><ele>151.5</ele><time>2026-04-04T13:46:36.027Z</time></trkpt><trkpt lat="44.992405" lon="8.3960633"><ele>152.0</ele><time>2026-04-04T13:46:37.027Z</time></trkpt><trkpt lat="44.9923983" lon="8.3959417"><ele>152.5</ele><time>2026-04-04T13:46:38.028Z</time></trkpt><trkpt lat="44.9923983" lon="8.3958167"><ele>153.0</ele><time>2026-04-04T13:46:39.028Z</time></trkpt><trkpt lat="44.9923933" lon="8.3956867"><ele>153.0</ele><time>2026-04-04T13:46:40.027Z</time></trkpt><trkpt lat="44.9923867" lon="8.395555"><ele>153.0</ele><time>2026-04-04T13:46:41.027Z</time></trkpt><trkpt lat="44.9923867" lon="8.3954217"><ele>153.0</ele><time>2026-04-04T13:46:42.031Z</time></trkpt><trkpt lat="44.992385" lon="8.39528"><ele>153.0</ele><time>2026-04-04T13:46:43.026Z</time></trkpt><trkpt lat="44.9923817" lon="8.3951567"><ele>153.0</ele><time>2026-04-04T13:46:44.029Z</time></trkpt><trkpt lat="44.9923767" lon="8.3950483"><ele>152.83333333333334</ele><time>2026-04-04T13:46:45.029Z</time></trkpt><trkpt lat="44.992365" lon="8.3949583"><ele>152.66666666666666</ele><time>2026-04-04T13:46:46.028Z</time></trkpt><trkpt lat="44.9923433" lon="8.3948333"><ele>152.5</ele><time>2026-04-04T13:46:48.028Z</time></trkpt><trkpt lat="44.9923183" lon="8.3947133"><ele>152.33333333333331</ele><time>2026-04-04T13:47:24.03Z</time></trkpt><trkpt lat="44.992305" lon="8.394605"><ele>152.16666666666666</ele><time>2026-04-04T13:47:26.027Z</time></trkpt><trkpt lat="44.9922833" lon="8.3944933"><ele>152.0</ele><time>2026-04-04T13:47:28.029Z</time></trkpt><trkpt lat="44.9922617" lon="8.394385"><ele>152.0</ele><time>2026-04-04T13:47:30.027Z</time></trkpt><trkpt lat="44.9922217" lon="8.3942483"><ele>152.0</ele><time>2026-04-04T13:47:32.029Z</time></trkpt><trkpt lat="44.9921717" lon="8.3941083"><ele>152.0</ele><time>2026-04-04T13:47:34.027Z</time></trkpt><trkpt lat="44.9921167" lon="8.39396"><ele>152.0</ele><time>2026-04-04T13:47:36.028Z</time></trkpt><trkpt lat="44.99206" lon="8.3938133"><ele>152.16666666666666</ele><time>2026-04-04T13:47:38.027Z</time></trkpt><trkpt lat="44.9919967" lon="8.393655"><ele>152.33333333333331</ele><time>2026-04-04T13:47:40.028Z</time></trkpt><trkpt lat="44.99197" lon="8.39357"><ele>152.5</ele><time>2026-04-04T13:47:41.027Z</time></trkpt><trkpt lat="44.9919467" lon="8.39348"><ele>152.66666666666666</ele><time>2026-04-04T13:47:42.027Z</time></trkpt><trkpt lat="44.99192" lon="8.393385"><ele>152.83333333333334</ele><time>2026-04-04T13:47:43.028Z</time></trkpt><trkpt lat="44.99189" lon="8.3932883"><ele>153.0</ele><time>2026-04-04T13:47:44.027Z</time></trkpt><trkpt lat="44.99186" lon="8.3931933"><ele>153.0</ele><time>2026-04-04T13:47:45.029Z</time></trkpt><trkpt lat="44.9918317" lon="8.3931017"><ele>153.0</ele><time>2026-04-04T13:47:46.027Z</time></trkpt><trkpt lat="44.9917983" lon="8.39301"><ele>153.0</ele><time>2026-04-04T13:47:47.028Z</time></trkpt><trkpt lat="44.9917683" lon="8.3929217"><ele>153.0</ele><time>2026-04-04T13:47:48.028Z</time></trkpt><trkpt lat="44.991745" lon="8.392835"><ele>153.0</ele><time>2026-04-04T13:47:49.029Z</time></trkpt><trkpt lat="44.991725" lon="8.3927483"><ele>153.0</ele><time>2026-04-04T13:47:50.028Z</time></trkpt><trkpt lat="44.99169" lon="8.392585"><ele>153.20000000000002</ele><time>2026-04-04T13:47:52.029Z</time></trkpt><trkpt lat="44.9916533" lon="8.39244"><ele>153.4</ele><time>2026-04-04T13:47:54.028Z</time></trkpt><trkpt lat="44.9916167" lon="8.392295"><ele>153.60000000000002</ele><time>2026-04-04T13:47:56.028Z</time></trkpt><trkpt lat="44.99158" lon="8.3921517"><ele>153.8</ele><time>2026-04-04T13:47:58.027Z</time></trkpt><trkpt lat="44.99155" lon="8.392005"><ele>154.0</ele><time>2026-04-04T13:48:00.032Z</time></trkpt><trkpt lat="44.9915167" lon="8.3918483"><ele>154.0</ele><time>2026-04-04T13:48:02.029Z</time></trkpt><trkpt lat="44.9914883" lon="8.3917233"><ele>154.0</ele><time>2026-04-04T13:48:04.027Z</time></trkpt><trkpt lat="44.9914583" lon="8.3915867"><ele>154.0</ele><time>2026-04-04T13:48:06.028Z</time></trkpt><trkpt lat="44.9914233" lon="8.3914233"><ele>154.0</ele><time>2026-04-04T13:48:08.029Z</time></trkpt><trkpt lat="44.9913967" lon="8.39126"><ele>154.0</ele><time>2026-04-04T13:48:10.027Z</time></trkpt><trkpt lat="44.9913733" lon="8.3910883"><ele>154.0</ele><time>2026-04-04T13:48:12.028Z</time></trkpt><trkpt lat="44.9913667" lon="8.3909967"><ele>154.0</ele><time>2026-04-04T13:48:13.028Z</time></trkpt><trkpt lat="44.991355" lon="8.3909"><ele>154.0</ele><time>2026-04-04T13:48:14.027Z</time></trkpt><trkpt lat="44.9913433" lon="8.39081"><ele>154.0</ele><time>2026-04-04T13:48:15.027Z</time></trkpt><trkpt lat="44.9913283" lon="8.3907183"><ele>154.0</ele><time>2026-04-04T13:48:16.028Z</time></trkpt><trkpt lat="44.9913067" lon="8.3906217"><ele>154.0</ele><time>2026-04-04T13:48:17.027Z</time></trkpt><trkpt lat="44.9912817" lon="8.390535"><ele>154.0</ele><time>2026-04-04T13:48:18.028Z</time></trkpt><trkpt lat="44.9912483" lon="8.3904317"><ele>154.0</ele><time>2026-04-04T13:48:19.029Z</time></trkpt><trkpt lat="44.9912117" lon="8.3903283"><ele>154.0</ele><time>2026-04-04T13:48:20.029Z</time></trkpt><trkpt lat="44.9911733" lon="8.39023"><ele>154.0</ele><time>2026-04-04T13:48:21.029Z</time></trkpt><trkpt lat="44.9911333" lon="8.390135"><ele>154.0</ele><time>2026-04-04T13:48:22.028Z</time></trkpt><trkpt lat="44.9910933" lon="8.390045"><ele>154.0</ele><time>2026-04-04T13:48:23.028Z</time></trkpt><trkpt lat="44.9910483" lon="8.3899617"><ele>154.0</ele><time>2026-04-04T13:48:24.028Z</time></trkpt><trkpt lat="44.990995" lon="8.38987"><ele>154.0</ele><time>2026-04-04T13:48:25.03Z</time></trkpt><trkpt lat="44.99094" lon="8.3897883"><ele>154.0</ele><time>2026-04-04T13:48:26.029Z</time></trkpt><trkpt lat="44.9908933" lon="8.3897133"><ele>154.0</ele><time>2026-04-04T13:48:27.028Z</time></trkpt><trkpt lat="44.9908383" lon="8.3896417"><ele>154.0</ele><time>2026-04-04T13:48:28.029Z</time></trkpt><trkpt lat="44.9907883" lon="8.38957"><ele>154.0</ele><time>2026-04-04T13:48:29.029Z</time></trkpt><trkpt lat="44.990735" lon="8.389505"><ele>154.0</ele><time>2026-04-04T13:48:30.028Z</time></trkpt><trkpt lat="44.9906767" lon="8.3894417"><ele>154.0</ele><time>2026-04-04T13:48:31.028Z</time></trkpt><trkpt lat="44.9906167" lon="8.3893733"><ele>153.5</ele><time>2026-04-04T13:48:32.028Z</time></trkpt><trkpt lat="44.990555" lon="8.3893067"><ele>153.0</ele><time>2026-04-04T13:48:33.028Z</time></trkpt><trkpt lat="44.9904967" lon="8.389245"><ele>152.5</ele><time>2026-04-04T13:48:34.029Z</time></trkpt><trkpt lat="44.9904383" lon="8.38919"><ele>152.0</ele><time>2026-04-04T13:48:35.029Z</time></trkpt><trkpt lat="44.9903783" lon="8.3891367"><ele>151.5</ele><time>2026-04-04T13:48:36.028Z</time></trkpt><trkpt lat="44.9903233" lon="8.3890833"><ele>151.0</ele><time>2026-04-04T13:48:37.029Z</time></trkpt><trkpt lat="44.9902217" lon="8.3889867"><ele>151.00000000000003</ele><time>2026-04-04T13:48:39.029Z</time></trkpt><trkpt lat="44.99017" lon="8.3889283"><ele>151.0</ele><time>2026-04-04T13:48:40.028Z</time></trkpt><trkpt lat="44.9901183" lon="8.3888667"><ele>151.0</ele><time>2026-04-04T13:48:41.028Z</time></trkpt><trkpt lat="44.9900633" lon="8.3888033"><ele>151.0</ele><time>2026-04-04T13:48:42.03Z</time></trkpt><trkpt lat="44.9900083" lon="8.3887433"><ele>151.0</ele><time>2026-04-04T13:48:43.03Z</time></trkpt><trkpt lat="44.9899517" lon="8.3886933"><ele>151.00000000000003</ele><time>2026-04-04T13:48:44.028Z</time></trkpt><trkpt lat="44.989895" lon="8.3886417"><ele>151.0</ele><time>2026-04-04T13:48:45.029Z</time></trkpt><trkpt lat="44.9898383" lon="8.3885883"><ele>151.14285714285717</ele><time>2026-04-04T13:48:46.029Z</time></trkpt><trkpt lat="44.9897767" lon="8.3885383"><ele>151.28571428571428</ele><time>2026-04-04T13:48:47.028Z</time></trkpt><trkpt lat="44.98971" lon="8.3884917"><ele>151.42857142857144</ele><time>2026-04-04T13:48:48.029Z</time></trkpt><trkpt lat="44.9896433" lon="8.3884467"><ele>151.57142857142858</ele><time>2026-04-04T13:48:49.029Z</time></trkpt><trkpt lat="44.9895767" lon="8.3884"><ele>151.71428571428572</ele><time>2026-04-04T13:48:50.028Z</time></trkpt><trkpt lat="44.9895083" lon="8.3883533"><ele>151.85714285714286</ele><time>2026-04-04T13:48:51.029Z</time></trkpt><trkpt lat="44.9894433" lon="8.3883017"><ele>152.0</ele><time>2026-04-04T13:48:52.028Z</time></trkpt><trkpt lat="44.989385" lon="8.3882517"><ele>152.0</ele><time>2026-04-04T13:48:53.029Z</time></trkpt><trkpt lat="44.9893283" lon="8.3882017"><ele>152.0</ele><time>2026-04-04T13:48:54.028Z</time></trkpt><trkpt lat="44.9892717" lon="8.3881517"><ele>152.0</ele><time>2026-04-04T13:48:55.03Z</time></trkpt><trkpt lat="44.9892183" lon="8.3880967"><ele>152.0</ele><time>2026-04-04T13:48:56.029Z</time></trkpt><trkpt lat="44.98912" lon="8.3879767"><ele>152.0</ele><time>2026-04-04T13:48:58.028Z</time></trkpt><trkpt lat="44.9890767" lon="8.3879017"><ele>152.0</ele><time>2026-04-04T13:48:59.028Z</time></trkpt><trkpt lat="44.9890417" lon="8.3878083"><ele>152.0</ele><time>2026-04-04T13:49:00.029Z</time></trkpt><trkpt lat="44.9890083" lon="8.3877067"><ele>152.0</ele><time>2026-04-04T13:49:01.028Z</time></trkpt><trkpt lat="44.9889783" lon="8.3875983"><ele>152.0</ele><time>2026-04-04T13:49:02.029Z</time></trkpt><trkpt lat="44.9889483" lon="8.3874917"><ele>152.0</ele><time>2026-04-04T13:49:03.028Z</time></trkpt><trkpt lat="44.988915" lon="8.387385"><ele>152.0</ele><time>2026-04-04T13:49:04.029Z</time></trkpt><trkpt lat="44.9888817" lon="8.3872883"><ele>152.0</ele><time>2026-04-04T13:49:05.029Z</time></trkpt><trkpt lat="44.9888433" lon="8.387195"><ele>152.0</ele><time>2026-04-04T13:49:06.029Z</time></trkpt><trkpt lat="44.988805" lon="8.3871017"><ele>152.0</ele><time>2026-04-04T13:49:07.028Z</time></trkpt><trkpt lat="44.9887633" lon="8.387005"><ele>152.0</ele><time>2026-04-04T13:49:08.029Z</time></trkpt><trkpt lat="44.9887183" lon="8.3869"><ele>152.0</ele><time>2026-04-04T13:49:09.029Z</time></trkpt><trkpt lat="44.9886733" lon="8.3867917"><ele>152.0</ele><time>2026-04-04T13:49:10.03Z</time></trkpt><trkpt lat="44.9886317" lon="8.386675"><ele>152.0</ele><time>2026-04-04T13:49:11.029Z</time></trkpt><trkpt lat="44.9885867" lon="8.386565"><ele>152.0</ele><time>2026-04-04T13:49:12.029Z</time></trkpt><trkpt lat="44.98854" lon="8.3864567"><ele>152.0</ele><time>2026-04-04T13:49:13.029Z</time></trkpt><trkpt lat="44.98849" lon="8.3863483"><ele>152.0</ele><time>2026-04-04T13:49:14.028Z</time></trkpt><trkpt lat="44.988435" lon="8.3862417"><ele>152.0</ele><time>2026-04-04T13:49:15.029Z</time></trkpt><trkpt lat="44.9883783" lon="8.3861367"><ele>152.0</ele><time>2026-04-04T13:49:16.028Z</time></trkpt><trkpt lat="44.9883183" lon="8.3860367"><ele>152.2</ele><time>2026-04-04T13:49:17.028Z</time></trkpt><trkpt lat="44.988255" lon="8.3859283"><ele>152.39999999999998</ele><time>2026-04-04T13:49:18.028Z</time></trkpt><trkpt lat="44.9881983" lon="8.38582"><ele>152.60000000000002</ele><time>2026-04-04T13:49:19.03Z</time></trkpt><trkpt lat="44.9881467" lon="8.3857033"><ele>152.8</ele><time>2026-04-04T13:49:20.028Z</time></trkpt><trkpt lat="44.9880917" lon="8.3855767"><ele>153.0</ele><time>2026-04-04T13:49:21.029Z</time></trkpt><trkpt lat="44.9880417" lon="8.385445"><ele>152.4</ele><time>2026-04-04T13:49:22.028Z</time></trkpt><trkpt lat="44.987995" lon="8.3853233"><ele>151.8</ele><time>2026-04-04T13:49:23.027Z</time></trkpt><trkpt lat="44.98795" lon="8.3852067"><ele>151.2</ele><time>2026-04-04T13:49:24.029Z</time></trkpt><trkpt lat="44.9879017" lon="8.3851"><ele>150.6</ele><time>2026-04-04T13:49:25.029Z</time></trkpt><trkpt lat="44.98785" lon="8.385005"><ele>150.0</ele><time>2026-04-04T13:49:26.031Z</time></trkpt><trkpt lat="44.9877917" lon="8.3849183"><ele>150.0</ele><time>2026-04-04T13:49:27.029Z</time></trkpt><trkpt lat="44.9877367" lon="8.3848283"><ele>150.0</ele><time>2026-04-04T13:49:28.028Z</time></trkpt><trkpt lat="44.9876833" lon="8.38474"><ele>150.0</ele><time>2026-04-04T13:49:29.029Z</time></trkpt><trkpt lat="44.9876267" lon="8.384655"><ele>150.0</ele><time>2026-04-04T13:49:30.03Z</time></trkpt><trkpt lat="44.9875617" lon="8.3846017"><ele>150.0</ele><time>2026-04-04T13:49:31.027Z</time></trkpt><trkpt lat="44.98749" lon="8.3845567"><ele>150.0</ele><time>2026-04-04T13:49:32.029Z</time></trkpt><trkpt lat="44.98742" lon="8.3845067"><ele>150.33333333333334</ele><time>2026-04-04T13:49:33.029Z</time></trkpt><trkpt lat="44.987355" lon="8.384455"><ele>150.66666666666666</ele><time>2026-04-04T13:49:34.03Z</time></trkpt><trkpt lat="44.9872933" lon="8.38441"><ele>151.0</ele><time>2026-04-04T13:49:35.028Z</time></trkpt><trkpt lat="44.9872333" lon="8.3843817"><ele>151.33333333333331</ele><time>2026-04-04T13:49:36.027Z</time></trkpt><trkpt lat="44.9871233" lon="8.3843367"><ele>151.66666666666666</ele><time>2026-04-04T13:49:38.029Z</time></trkpt><trkpt lat="44.9870383" lon="8.3842467"><ele>152.0</ele><time>2026-04-04T13:49:40.029Z</time></trkpt><trkpt lat="44.9869717" lon="8.3841383"><ele>152.0</ele><time>2026-04-04T13:49:42.028Z</time></trkpt><trkpt lat="44.9869133" lon="8.3840417"><ele>152.0</ele><time>2026-04-04T13:49:44.027Z</time></trkpt><trkpt lat="44.9868433" lon="8.3840533"><ele>152.0</ele><time>2026-04-04T13:49:46.028Z</time></trkpt><trkpt lat="44.9867917" lon="8.3841817"><ele>152.0</ele><time>2026-04-04T13:49:48.028Z</time></trkpt><trkpt lat="44.9867567" lon="8.38435"><ele>152.0</ele><time>2026-04-04T13:49:50.028Z</time></trkpt><trkpt lat="44.9867" lon="8.384515"><ele>153.0</ele><time>2026-04-04T13:49:52.029Z</time></trkpt><trkpt lat="44.98665" lon="8.384595"><ele>154.0</ele><time>2026-04-04T13:49:53.028Z</time></trkpt><trkpt lat="44.9865867" lon="8.3846683"><ele>155.0</ele><time>2026-04-04T13:49:54.029Z</time></trkpt><trkpt lat="44.98652" lon="8.3847433"><ele>156.0</ele><time>2026-04-04T13:49:55.029Z</time></trkpt><trkpt lat="44.9864467" lon="8.3848083"><ele>157.0</ele><time>2026-04-04T13:49:56.029Z</time></trkpt><trkpt lat="44.98637" lon="8.3848683"><ele>158.0</ele><time>2026-04-04T13:49:57.028Z</time></trkpt><trkpt lat="44.98629" lon="8.3849283"><ele>158.33333333333331</ele><time>2026-04-04T13:49:58.03Z</time></trkpt><trkpt lat="44.9862117" lon="8.3849883"><ele>158.66666666666666</ele><time>2026-04-04T13:49:59.029Z</time></trkpt><trkpt lat="44.9861333" lon="8.3850467"><ele>159.0</ele><time>2026-04-04T13:50:00.03Z</time></trkpt><trkpt lat="44.9860583" lon="8.3851"><ele>159.33333333333334</ele><time>2026-04-04T13:50:01.027Z</time></trkpt><trkpt lat="44.9859867" lon="8.3851517"><ele>159.66666666666669</ele><time>2026-04-04T13:50:02.028Z</time></trkpt><trkpt lat="44.98592" lon="8.3852017"><ele>160.0</ele><time>2026-04-04T13:50:03.027Z</time></trkpt><trkpt lat="44.9858617" lon="8.385245"><ele>160.5</ele><time>2026-04-04T13:50:04.026Z</time></trkpt><trkpt lat="44.9857567" lon="8.385315"><ele>161.0</ele><time>2026-04-04T13:50:06.028Z</time></trkpt><trkpt lat="44.9856517" lon="8.3853183"><ele>161.5</ele><time>2026-04-04T13:50:08.028Z</time></trkpt><trkpt lat="44.985535" lon="8.3852817"><ele>162.0</ele><time>2026-04-04T13:50:10.027Z</time></trkpt><trkpt lat="44.9854167" lon="8.3852383"><ele>162.0</ele><time>2026-04-04T13:50:12.028Z</time></trkpt><trkpt lat="44.9853533" lon="8.38521"><ele>162.0</ele><time>2026-04-04T13:50:13.027Z</time></trkpt><trkpt lat="44.9852867" lon="8.3851833"><ele>162.0</ele><time>2026-04-04T13:50:14.029Z</time></trkpt><trkpt lat="44.9852167" lon="8.3851583"><ele>162.0</ele><time>2026-04-04T13:50:15.028Z</time></trkpt><trkpt lat="44.9851467" lon="8.3851417"><ele>162.0</ele><time>2026-04-04T13:50:16.03Z</time></trkpt><trkpt lat="44.9850733" lon="8.385125"><ele>162.0</ele><time>2026-04-04T13:50:17.028Z</time></trkpt><trkpt lat="44.9850033" lon="8.3851033"><ele>162.0</ele><time>2026-04-04T13:50:18.027Z</time></trkpt><trkpt lat="44.984935" lon="8.385085"><ele>161.8</ele><time>2026-04-04T13:50:19.027Z</time></trkpt><trkpt lat="44.98487" lon="8.3850617"><ele>161.6</ele><time>2026-04-04T13:50:20.027Z</time></trkpt><trkpt lat="44.9847467" lon="8.384995"><ele>161.4</ele><time>2026-04-04T13:50:22.026Z</time></trkpt><trkpt lat="44.9846817" lon="8.3849367"><ele>161.20000000000002</ele><time>2026-04-04T13:50:23.028Z</time></trkpt><trkpt lat="44.9846217" lon="8.3848533"><ele>161.0</ele><time>2026-04-04T13:50:24.027Z</time></trkpt><trkpt lat="44.9845633" lon="8.3847433"><ele>160.0</ele><time>2026-04-04T13:50:25.028Z</time></trkpt><trkpt lat="44.98451" lon="8.38461"><ele>159.0</ele><time>2026-04-04T13:50:26.027Z</time></trkpt><trkpt lat="44.9844583" lon="8.3844867"><ele>158.0</ele><time>2026-04-04T13:50:27.029Z</time></trkpt><trkpt lat="44.9844117" lon="8.38437"><ele>157.0</ele><time>2026-04-04T13:50:28.028Z</time></trkpt><trkpt lat="44.9843617" lon="8.384255"><ele>156.0</ele><time>2026-04-04T13:50:29.027Z</time></trkpt><trkpt lat="44.9843067" lon="8.3841267"><ele>156.0</ele><time>2026-04-04T13:50:30.028Z</time></trkpt><trkpt lat="44.98425" lon="8.384005"><ele>156.0</ele><time>2026-04-04T13:50:31.028Z</time></trkpt><trkpt lat="44.9841917" lon="8.3838917"><ele>156.0</ele><time>2026-04-04T13:50:32.027Z</time></trkpt><trkpt lat="44.9841333" lon="8.3837817"><ele>156.0</ele><time>2026-04-04T13:50:33.028Z</time></trkpt><trkpt lat="44.984075" lon="8.3836733"><ele>156.0</ele><time>2026-04-04T13:50:34.027Z</time></trkpt><trkpt lat="44.9840217" lon="8.3835733"><ele>155.57142857142858</ele><time>2026-04-04T13:50:35.027Z</time></trkpt><trkpt lat="44.983975" lon="8.383475"><ele>155.14285714285714</ele><time>2026-04-04T13:50:36.028Z</time></trkpt><trkpt lat="44.983935" lon="8.3833867"><ele>154.71428571428572</ele><time>2026-04-04T13:50:37.027Z</time></trkpt><trkpt lat="44.983895" lon="8.3833017"><ele>154.28571428571428</ele><time>2026-04-04T13:50:38.027Z</time></trkpt><trkpt lat="44.9838533" lon="8.383215"><ele>153.85714285714286</ele><time>2026-04-04T13:50:39.028Z</time></trkpt><trkpt lat="44.9838167" lon="8.3831333"><ele>153.42857142857142</ele><time>2026-04-04T13:50:40.028Z</time></trkpt><trkpt lat="44.9837817" lon="8.3830417"><ele>153.0</ele><time>2026-04-04T13:50:41.027Z</time></trkpt><trkpt lat="44.9837483" lon="8.3829533"><ele>153.0</ele><time>2026-04-04T13:50:42.028Z</time></trkpt><trkpt lat="44.9837167" lon="8.3828617"><ele>153.0</ele><time>2026-04-04T13:50:43.028Z</time></trkpt><trkpt lat="44.9836883" lon="8.382765"><ele>153.0</ele><time>2026-04-04T13:50:44.027Z</time></trkpt><trkpt lat="44.98366" lon="8.3826667"><ele>153.0</ele><time>2026-04-04T13:50:45.029Z</time></trkpt><trkpt lat="44.9836367" lon="8.3825717"><ele>153.0</ele><time>2026-04-04T13:50:46.028Z</time></trkpt><trkpt lat="44.983615" lon="8.3824767"><ele>153.0</ele><time>2026-04-04T13:50:47.028Z</time></trkpt><trkpt lat="44.983595" lon="8.3823817"><ele>153.0</ele><time>2026-04-04T13:50:48.027Z</time></trkpt><trkpt lat="44.983575" lon="8.3822933"><ele>153.0</ele><time>2026-04-04T13:50:49.028Z</time></trkpt><trkpt lat="44.983555" lon="8.3822033"><ele>153.0</ele><time>2026-04-04T13:50:50.028Z</time></trkpt><trkpt lat="44.9835433" lon="8.3821117"><ele>153.0</ele><time>2026-04-04T13:50:51.028Z</time></trkpt><trkpt lat="44.983535" lon="8.3820117"><ele>153.0</ele><time>2026-04-04T13:50:52.029Z</time></trkpt><trkpt lat="44.98354" lon="8.3818917"><ele>153.0</ele><time>2026-04-04T13:50:53.03Z</time></trkpt><trkpt lat="44.9835433" lon="8.381775"><ele>153.0</ele><time>2026-04-04T13:50:54.029Z</time></trkpt><trkpt lat="44.983545" lon="8.3816583"><ele>153.0</ele><time>2026-04-04T13:50:55.027Z</time></trkpt><trkpt lat="44.98355" lon="8.3815483"><ele>153.0</ele><time>2026-04-04T13:50:56.027Z</time></trkpt><trkpt lat="44.983555" lon="8.3814433"><ele>153.0</ele><time>2026-04-04T13:50:57.027Z</time></trkpt><trkpt lat="44.9835617" lon="8.381345"><ele>153.0</ele><time>2026-04-04T13:50:58.028Z</time></trkpt><trkpt lat="44.9835667" lon="8.3812417"><ele>153.0</ele><time>2026-04-04T13:50:59.027Z</time></trkpt><trkpt lat="44.9835683" lon="8.3811383"><ele>153.0</ele><time>2026-04-04T13:51:00.027Z</time></trkpt><trkpt lat="44.983565" lon="8.3810317"><ele>153.0</ele><time>2026-04-04T13:51:01.027Z</time></trkpt><trkpt lat="44.9835667" lon="8.3809267"><ele>153.0</ele><time>2026-04-04T13:51:02.029Z</time></trkpt><trkpt lat="44.98356" lon="8.3808183"><ele>153.0</ele><time>2026-04-04T13:51:03.027Z</time></trkpt><trkpt lat="44.9835533" lon="8.3807167"><ele>153.0</ele><time>2026-04-04T13:51:04.028Z</time></trkpt><trkpt lat="44.9835483" lon="8.3806133"><ele>153.0</ele><time>2026-04-04T13:51:05.028Z</time></trkpt><trkpt lat="44.983545" lon="8.3805083"><ele>153.0</ele><time>2026-04-04T13:51:06.029Z</time></trkpt><trkpt lat="44.9835433" lon="8.3804033"><ele>153.0</ele><time>2026-04-04T13:51:07.027Z</time></trkpt><trkpt lat="44.98354" lon="8.3802917"><ele>153.14285714285714</ele><time>2026-04-04T13:51:08.028Z</time></trkpt><trkpt lat="44.9835383" lon="8.38018"><ele>153.28571428571428</ele><time>2026-04-04T13:51:09.028Z</time></trkpt><trkpt lat="44.9835367" lon="8.3800767"><ele>153.42857142857144</ele><time>2026-04-04T13:51:10.028Z</time></trkpt><trkpt lat="44.983535" lon="8.37998"><ele>153.57142857142856</ele><time>2026-04-04T13:51:11.027Z</time></trkpt><trkpt lat="44.983535" lon="8.3798867"><ele>153.71428571428572</ele><time>2026-04-04T13:51:12.027Z</time></trkpt><trkpt lat="44.983535" lon="8.37979"><ele>153.85714285714286</ele><time>2026-04-04T13:51:13.027Z</time></trkpt><trkpt lat="44.9835333" lon="8.3796967"><ele>154.0</ele><time>2026-04-04T13:51:14.028Z</time></trkpt><trkpt lat="44.98353" lon="8.3795367"><ele>154.0</ele><time>2026-04-04T13:51:16.028Z</time></trkpt><trkpt lat="44.9835183" lon="8.3793833"><ele>154.0</ele><time>2026-04-04T13:51:18.028Z</time></trkpt><trkpt lat="44.983495" lon="8.37923"><ele>154.0</ele><time>2026-04-04T13:51:20.028Z</time></trkpt><trkpt lat="44.98346" lon="8.3790833"><ele>154.0</ele><time>2026-04-04T13:51:22.028Z</time></trkpt><trkpt lat="44.9834367" lon="8.378955"><ele>154.0</ele><time>2026-04-04T13:51:24.028Z</time></trkpt><trkpt lat="44.983415" lon="8.3788433"><ele>154.33333333333334</ele><time>2026-04-04T13:51:26.027Z</time></trkpt><trkpt lat="44.983395" lon="8.3787483"><ele>154.66666666666669</ele><time>2026-04-04T13:51:28.027Z</time></trkpt><trkpt lat="44.9833783" lon="8.378625"><ele>155.0</ele><time>2026-04-04T13:51:31.027Z</time></trkpt><trkpt lat="44.9833733" lon="8.3785283"><ele>155.33333333333334</ele><time>2026-04-04T13:51:34.027Z</time></trkpt><trkpt lat="44.9833533" lon="8.3784317"><ele>155.66666666666666</ele><time>2026-04-04T13:51:38.028Z</time></trkpt><trkpt lat="44.98333" lon="8.3783167"><ele>156.0</ele><time>2026-04-04T13:51:40.028Z</time></trkpt><trkpt lat="44.9833067" lon="8.378155"><ele>156.16666666666666</ele><time>2026-04-04T13:51:42.028Z</time></trkpt><trkpt lat="44.98329" lon="8.3780433"><ele>156.33333333333334</ele><time>2026-04-04T13:51:43.027Z</time></trkpt><trkpt lat="44.9832667" lon="8.3779233"><ele>156.5</ele><time>2026-04-04T13:51:44.029Z</time></trkpt><trkpt lat="44.9832483" lon="8.3777933"><ele>156.66666666666669</ele><time>2026-04-04T13:51:45.028Z</time></trkpt><trkpt lat="44.9832317" lon="8.3776717"><ele>156.83333333333334</ele><time>2026-04-04T13:51:46.028Z</time></trkpt><trkpt lat="44.9832183" lon="8.3775483"><ele>157.0</ele><time>2026-04-04T13:51:47.027Z</time></trkpt><trkpt lat="44.9832067" lon="8.3774283"><ele>157.0</ele><time>2026-04-04T13:51:48.029Z</time></trkpt><trkpt lat="44.9831967" lon="8.37731"><ele>157.0</ele><time>2026-04-04T13:51:49.029Z</time></trkpt><trkpt lat="44.9831867" lon="8.37719"><ele>157.0</ele><time>2026-04-04T13:51:50.028Z</time></trkpt><trkpt lat="44.9831817" lon="8.37707"><ele>157.0</ele><time>2026-04-04T13:51:51.028Z</time></trkpt><trkpt lat="44.9831767" lon="8.3769533"><ele>157.0</ele><time>2026-04-04T13:51:52.027Z</time></trkpt><trkpt lat="44.9831767" lon="8.37683"><ele>157.0</ele><time>2026-04-04T13:51:53.027Z</time></trkpt><trkpt lat="44.9831767" lon="8.3767133"><ele>157.16666666666669</ele><time>2026-04-04T13:51:54.028Z</time></trkpt><trkpt lat="44.9831783" lon="8.376595"><ele>157.33333333333334</ele><time>2026-04-04T13:51:55.028Z</time></trkpt><trkpt lat="44.98318" lon="8.376475"><ele>157.5</ele><time>2026-04-04T13:51:56.029Z</time></trkpt><trkpt lat="44.9831783" lon="8.3763567"><ele>157.66666666666666</ele><time>2026-04-04T13:51:57.028Z</time></trkpt><trkpt lat="44.9831683" lon="8.3762417"><ele>157.83333333333331</ele><time>2026-04-04T13:51:58.027Z</time></trkpt><trkpt lat="44.9831583" lon="8.3761333"><ele>158.0</ele><time>2026-04-04T13:51:59.028Z</time></trkpt><trkpt lat="44.98315" lon="8.3760333"><ele>157.5</ele><time>2026-04-04T13:52:00.029Z</time></trkpt><trkpt lat="44.983145" lon="8.37594"><ele>157.0</ele><time>2026-04-04T13:52:01.028Z</time></trkpt><trkpt lat="44.9831417" lon="8.375775"><ele>156.5</ele><time>2026-04-04T13:52:03.027Z</time></trkpt><trkpt lat="44.983125" lon="8.3756"><ele>156.0</ele><time>2026-04-04T13:52:05.028Z</time></trkpt><trkpt lat="44.9831067" lon="8.3755067"><ele>155.5</ele><time>2026-04-04T13:52:06.029Z</time></trkpt><trkpt lat="44.9830817" lon="8.3754167"><ele>155.0</ele><time>2026-04-04T13:52:07.027Z</time></trkpt><trkpt lat="44.9830683" lon="8.375325"><ele>155.0</ele><time>2026-04-04T13:52:08.028Z</time></trkpt><trkpt lat="44.98306" lon="8.3752217"><ele>155.0</ele><time>2026-04-04T13:52:09.029Z</time></trkpt><trkpt lat="44.98305" lon="8.3751217"><ele>155.0</ele><time>2026-04-04T13:52:10.027Z</time></trkpt><trkpt lat="44.9830417" lon="8.375025"><ele>155.0</ele><time>2026-04-04T13:52:11.027Z</time></trkpt><trkpt lat="44.98304" lon="8.3749233"><ele>155.0</ele><time>2026-04-04T13:52:12.028Z</time></trkpt><trkpt lat="44.9830467" lon="8.3748183"><ele>155.0</ele><time>2026-04-04T13:52:13.028Z</time></trkpt><trkpt lat="44.9830517" lon="8.3747"><ele>155.0</ele><time>2026-04-04T13:52:14.028Z</time></trkpt><trkpt lat="44.9830617" lon="8.3745833"><ele>155.0</ele><time>2026-04-04T13:52:15.028Z</time></trkpt><trkpt lat="44.983075" lon="8.3744667"><ele>155.0</ele><time>2026-04-04T13:52:16.027Z</time></trkpt><trkpt lat="44.9830867" lon="8.3743467"><ele>155.0</ele><time>2026-04-04T13:52:17.026Z</time></trkpt><trkpt lat="44.9831017" lon="8.3742283"><ele>155.0</ele><time>2026-04-04T13:52:18.028Z</time></trkpt><trkpt lat="44.98313" lon="8.3741217"><ele>155.0</ele><time>2026-04-04T13:52:19.029Z</time></trkpt><trkpt lat="44.9831633" lon="8.3740067"><ele>155.0</ele><time>2026-04-04T13:52:20.028Z</time></trkpt><trkpt lat="44.9831933" lon="8.373905"><ele>155.4</ele><time>2026-04-04T13:52:21.031Z</time></trkpt><trkpt lat="44.98324" lon="8.3737367"><ele>155.8</ele><time>2026-04-04T13:52:23.028Z</time></trkpt><trkpt lat="44.98326" lon="8.3736483"><ele>156.2</ele><time>2026-04-04T13:52:24.028Z</time></trkpt><trkpt lat="44.9832883" lon="8.3734683"><ele>156.6</ele><time>2026-04-04T13:52:26.028Z</time></trkpt><trkpt lat="44.9833067" lon="8.3733617"><ele>157.0</ele><time>2026-04-04T13:52:27.028Z</time></trkpt><trkpt lat="44.98332" lon="8.3732617"><ele>157.0</ele><time>2026-04-04T13:52:28.027Z</time></trkpt><trkpt lat="44.9833333" lon="8.373165"><ele>157.0</ele><time>2026-04-04T13:52:29.028Z</time></trkpt><trkpt lat="44.98333" lon="8.3730083"><ele>157.0</ele><time>2026-04-04T13:52:31.027Z</time></trkpt><trkpt lat="44.9833183" lon="8.3728583"><ele>157.0</ele><time>2026-04-04T13:52:33.028Z</time></trkpt><trkpt lat="44.9833183" lon="8.3727033"><ele>157.0</ele><time>2026-04-04T13:52:35.028Z</time></trkpt><trkpt lat="44.9833167" lon="8.3725367"><ele>156.79999999999998</ele><time>2026-04-04T13:52:37.027Z</time></trkpt><trkpt lat="44.9832917" lon="8.372365"><ele>156.6</ele><time>2026-04-04T13:52:39.027Z</time></trkpt><trkpt lat="44.9832783" lon="8.37227"><ele>156.39999999999998</ele><time>2026-04-04T13:52:40.027Z</time></trkpt><trkpt lat="44.9832483" lon="8.3720867"><ele>156.2</ele><time>2026-04-04T13:52:42.028Z</time></trkpt><trkpt lat="44.9832233" lon="8.37198"><ele>156.0</ele><time>2026-04-04T13:52:43.027Z</time></trkpt><trkpt lat="44.9831983" lon="8.37187"><ele>156.16666666666666</ele><time>2026-04-04T13:52:44.029Z</time></trkpt><trkpt lat="44.9831717" lon="8.371765"><ele>156.33333333333334</ele><time>2026-04-04T13:52:45.028Z</time></trkpt><trkpt lat="44.983145" lon="8.37166"><ele>156.5</ele><time>2026-04-04T13:52:46.027Z</time></trkpt><trkpt lat="44.9831183" lon="8.371555"><ele>156.66666666666669</ele><time>2026-04-04T13:52:47.027Z</time></trkpt><trkpt lat="44.9830883" lon="8.3714433"><ele>156.83333333333334</ele><time>2026-04-04T13:52:48.027Z</time></trkpt><trkpt lat="44.983055" lon="8.3713267"><ele>157.0</ele><time>2026-04-04T13:52:49.027Z</time></trkpt><trkpt lat="44.983025" lon="8.37122"><ele>157.0</ele><time>2026-04-04T13:52:50.028Z</time></trkpt><trkpt lat="44.9829933" lon="8.3711133"><ele>157.0</ele><time>2026-04-04T13:52:51.028Z</time></trkpt><trkpt lat="44.98296" lon="8.3710017"><ele>157.0</ele><time>2026-04-04T13:52:52.028Z</time></trkpt><trkpt lat="44.9829283" lon="8.3708867"><ele>157.0</ele><time>2026-04-04T13:52:53.028Z</time></trkpt><trkpt lat="44.9828967" lon="8.3707917"><ele>157.0</ele><time>2026-04-04T13:52:54.027Z</time></trkpt><trkpt lat="44.9828717" lon="8.3706967"><ele>157.0</ele><time>2026-04-04T13:52:55.028Z</time></trkpt><trkpt lat="44.9828567" lon="8.370605"><ele>157.16666666666669</ele><time>2026-04-04T13:52:56.028Z</time></trkpt><trkpt lat="44.9828367" lon="8.3705133"><ele>157.33333333333334</ele><time>2026-04-04T13:52:57.028Z</time></trkpt><trkpt lat="44.982815" lon="8.37042"><ele>157.5</ele><time>2026-04-04T13:52:58.027Z</time></trkpt><trkpt lat="44.982795" lon="8.3703333"><ele>157.66666666666666</ele><time>2026-04-04T13:52:59.029Z</time></trkpt><trkpt lat="44.9827667" lon="8.3701817"><ele>157.83333333333331</ele><time>2026-04-04T13:53:01.028Z</time></trkpt><trkpt lat="44.9827683" lon="8.370035"><ele>158.0</ele><time>2026-04-04T13:53:03.028Z</time></trkpt><trkpt lat="44.98277" lon="8.36988"><ele>158.0</ele><time>2026-04-04T13:53:05.028Z</time></trkpt><trkpt lat="44.9827733" lon="8.3697883"><ele>158.0</ele><time>2026-04-04T13:53:06.03Z</time></trkpt><trkpt lat="44.9827733" lon="8.3696817"><ele>158.0</ele><time>2026-04-04T13:53:07.028Z</time></trkpt><trkpt lat="44.9827733" lon="8.369575"><ele>158.0</ele><time>2026-04-04T13:53:08.027Z</time></trkpt><trkpt lat="44.9827767" lon="8.3694683"><ele>158.0</ele><time>2026-04-04T13:53:09.028Z</time></trkpt><trkpt lat="44.9827767" lon="8.369355"><ele>158.0</ele><time>2026-04-04T13:53:10.028Z</time></trkpt><trkpt lat="44.9827783" lon="8.3692417"><ele>158.16666666666666</ele><time>2026-04-04T13:53:11.028Z</time></trkpt><trkpt lat="44.9827833" lon="8.3691267"><ele>158.33333333333331</ele><time>2026-04-04T13:53:12.028Z</time></trkpt><trkpt lat="44.9827833" lon="8.3690033"><ele>158.5</ele><time>2026-04-04T13:53:13.028Z</time></trkpt><trkpt lat="44.9827817" lon="8.368875"><ele>158.66666666666666</ele><time>2026-04-04T13:53:14.028Z</time></trkpt><trkpt lat="44.9827783" lon="8.368745"><ele>158.83333333333334</ele><time>2026-04-04T13:53:15.028Z</time></trkpt><trkpt lat="44.9827733" lon="8.368625"><ele>159.0</ele><time>2026-04-04T13:53:16.028Z</time></trkpt><trkpt lat="44.9827667" lon="8.3685067"><ele>159.14285714285714</ele><time>2026-04-04T13:53:17.031Z</time></trkpt><trkpt lat="44.9827667" lon="8.3683933"><ele>159.2857142857143</ele><time>2026-04-04T13:53:18.028Z</time></trkpt><trkpt lat="44.98277" lon="8.36829"><ele>159.42857142857144</ele><time>2026-04-04T13:53:19.027Z</time></trkpt><trkpt lat="44.982775" lon="8.3681883"><ele>159.57142857142856</ele><time>2026-04-04T13:53:20.029Z</time></trkpt><trkpt lat="44.9827767" lon="8.36808"><ele>159.71428571428572</ele><time>2026-04-04T13:53:21.028Z</time></trkpt><trkpt lat="44.982775" lon="8.3679733"><ele>159.85714285714286</ele><time>2026-04-04T13:53:22.027Z</time></trkpt><trkpt lat="44.9827717" lon="8.36788"><ele>160.0</ele><time>2026-04-04T13:53:23.027Z</time></trkpt><trkpt lat="44.98277" lon="8.3677867"><ele>160.0</ele><time>2026-04-04T13:53:24.028Z</time></trkpt><trkpt lat="44.9827717" lon="8.3676833"><ele>160.0</ele><time>2026-04-04T13:53:25.027Z</time></trkpt><trkpt lat="44.98277" lon="8.36757"><ele>160.0</ele><time>2026-04-04T13:53:26.029Z</time></trkpt><trkpt lat="44.9827667" lon="8.367445"><ele>160.0</ele><time>2026-04-04T13:53:27.028Z</time></trkpt><trkpt lat="44.98278" lon="8.36733"><ele>160.0</ele><time>2026-04-04T13:53:28.027Z</time></trkpt><trkpt lat="44.9828" lon="8.3672233"><ele>160.0</ele><time>2026-04-04T13:53:29.028Z</time></trkpt><trkpt lat="44.9828317" lon="8.3671083"><ele>160.0</ele><time>2026-04-04T13:53:30.031Z</time></trkpt><trkpt lat="44.9828767" lon="8.36698"><ele>160.0</ele><time>2026-04-04T13:53:31.029Z</time></trkpt><trkpt lat="44.9829117" lon="8.3668617"><ele>160.0</ele><time>2026-04-04T13:53:32.028Z</time></trkpt><trkpt lat="44.9829417" lon="8.3667517"><ele>160.0</ele><time>2026-04-04T13:53:33.029Z</time></trkpt><trkpt lat="44.98297" lon="8.36664"><ele>160.0</ele><time>2026-04-04T13:53:34.027Z</time></trkpt><trkpt lat="44.9830067" lon="8.3665233"><ele>160.0</ele><time>2026-04-04T13:53:35.028Z</time></trkpt><trkpt lat="44.9830367" lon="8.3664067"><ele>160.0</ele><time>2026-04-04T13:53:36.027Z</time></trkpt><trkpt lat="44.9830683" lon="8.3662933"><ele>160.0</ele><time>2026-04-04T13:53:37.029Z</time></trkpt><trkpt lat="44.9831" lon="8.3661833"><ele>160.0</ele><time>2026-04-04T13:53:38.029Z</time></trkpt><trkpt lat="44.9831317" lon="8.3660717"><ele>160.0</ele><time>2026-04-04T13:53:39.028Z</time></trkpt><trkpt lat="44.983165" lon="8.365955"><ele>160.0</ele><time>2026-04-04T13:53:40.029Z</time></trkpt><trkpt lat="44.9831933" lon="8.3658567"><ele>160.0</ele><time>2026-04-04T13:53:41.029Z</time></trkpt><trkpt lat="44.98323" lon="8.3657467"><ele>160.0</ele><time>2026-04-04T13:53:42.027Z</time></trkpt><trkpt lat="44.9832633" lon="8.3656317"><ele>160.0</ele><time>2026-04-04T13:53:43.029Z</time></trkpt><trkpt lat="44.983295" lon="8.36552"><ele>160.0</ele><time>2026-04-04T13:53:44.029Z</time></trkpt><trkpt lat="44.9833267" lon="8.36542"><ele>160.0</ele><time>2026-04-04T13:53:45.029Z</time></trkpt><trkpt lat="44.98336" lon="8.3653183"><ele>160.0</ele><time>2026-04-04T13:53:46.028Z</time></trkpt><trkpt lat="44.9833883" lon="8.3652167"><ele>159.66666666666669</ele><time>2026-04-04T13:53:47.031Z</time></trkpt><trkpt lat="44.9834167" lon="8.3651083"><ele>159.33333333333334</ele><time>2026-04-04T13:53:48.029Z</time></trkpt><trkpt lat="44.9834417" lon="8.364995"><ele>159.0</ele><time>2026-04-04T13:53:49.028Z</time></trkpt><trkpt lat="44.9834633" lon="8.3648767"><ele>158.66666666666666</ele><time>2026-04-04T13:53:50.028Z</time></trkpt><trkpt lat="44.9834817" lon="8.3647533"><ele>158.33333333333331</ele><time>2026-04-04T13:53:51.029Z</time></trkpt><trkpt lat="44.9835" lon="8.3646417"><ele>158.0</ele><time>2026-04-04T13:53:52.029Z</time></trkpt><trkpt lat="44.98352" lon="8.3645317"><ele>158.66666666666666</ele><time>2026-04-04T13:53:53.027Z</time></trkpt><trkpt lat="44.9835433" lon="8.36442"><ele>159.33333333333331</ele><time>2026-04-04T13:53:54.027Z</time></trkpt><trkpt lat="44.983565" lon="8.3643067"><ele>160.0</ele><time>2026-04-04T13:53:55.028Z</time></trkpt><trkpt lat="44.9835867" lon="8.3641917"><ele>160.66666666666666</ele><time>2026-04-04T13:53:56.029Z</time></trkpt><trkpt lat="44.9836117" lon="8.3640767"><ele>161.33333333333334</ele><time>2026-04-04T13:53:57.031Z</time></trkpt><trkpt lat="44.9836383" lon="8.3639567"><ele>162.0</ele><time>2026-04-04T13:53:58.027Z</time></trkpt><trkpt lat="44.98367" lon="8.363835"><ele>162.0</ele><time>2026-04-04T13:53:59.03Z</time></trkpt><trkpt lat="44.9837" lon="8.3637117"><ele>162.0</ele><time>2026-04-04T13:54:00.028Z</time></trkpt><trkpt lat="44.9837367" lon="8.3635917"><ele>162.0</ele><time>2026-04-04T13:54:01.03Z</time></trkpt><trkpt lat="44.9837783" lon="8.3634667"><ele>162.0</ele><time>2026-04-04T13:54:02.028Z</time></trkpt><trkpt lat="44.98382" lon="8.363335"><ele>162.0</ele><time>2026-04-04T13:54:03.029Z</time></trkpt><trkpt lat="44.98386" lon="8.36321"><ele>162.0</ele><time>2026-04-04T13:54:04.029Z</time></trkpt><trkpt lat="44.9838967" lon="8.3630867"><ele>162.0</ele><time>2026-04-04T13:54:05.028Z</time></trkpt><trkpt lat="44.9839317" lon="8.36296"><ele>162.0</ele><time>2026-04-04T13:54:06.028Z</time></trkpt><trkpt lat="44.9839633" lon="8.3628333"><ele>162.0</ele><time>2026-04-04T13:54:07.028Z</time></trkpt><trkpt lat="44.983995" lon="8.3627033"><ele>162.0</ele><time>2026-04-04T13:54:08.027Z</time></trkpt><trkpt lat="44.98403" lon="8.3625717"><ele>162.39999999999998</ele><time>2026-04-04T13:54:09.027Z</time></trkpt><trkpt lat="44.9840633" lon="8.36244"><ele>162.79999999999998</ele><time>2026-04-04T13:54:10.026Z</time></trkpt><trkpt lat="44.9840933" lon="8.36231"><ele>163.2</ele><time>2026-04-04T13:54:11.028Z</time></trkpt><trkpt lat="44.9841133" lon="8.3621917"><ele>163.6</ele><time>2026-04-04T13:54:12.027Z</time></trkpt><trkpt lat="44.9841317" lon="8.3620717"><ele>164.0</ele><time>2026-04-04T13:54:13.027Z</time></trkpt><trkpt lat="44.9841517" lon="8.3619517"><ele>164.0</ele><time>2026-04-04T13:54:14.028Z</time></trkpt><trkpt lat="44.9841733" lon="8.3618283"><ele>164.0</ele><time>2026-04-04T13:54:15.027Z</time></trkpt><trkpt lat="44.9841983" lon="8.3617083"><ele>164.0</ele><time>2026-04-04T13:54:16.028Z</time></trkpt><trkpt lat="44.984225" lon="8.361595"><ele>164.0</ele><time>2026-04-04T13:54:17.027Z</time></trkpt><trkpt lat="44.984255" lon="8.36149"><ele>164.0</ele><time>2026-04-04T13:54:18.028Z</time></trkpt><trkpt lat="44.9842917" lon="8.3613983"><ele>164.0</ele><time>2026-04-04T13:54:19.027Z</time></trkpt><trkpt lat="44.9843333" lon="8.3613133"><ele>164.0</ele><time>2026-04-04T13:54:20.027Z</time></trkpt><trkpt lat="44.9843817" lon="8.361245"><ele>164.0</ele><time>2026-04-04T13:54:21.028Z</time></trkpt><trkpt lat="44.984435" lon="8.3611733"><ele>164.0</ele><time>2026-04-04T13:54:22.028Z</time></trkpt><trkpt lat="44.9844867" lon="8.3611033"><ele>164.0</ele><time>2026-04-04T13:54:23.027Z</time></trkpt><trkpt lat="44.9845583" lon="8.3609833"><ele>164.0</ele><time>2026-04-04T13:54:25.027Z</time></trkpt><trkpt lat="44.98461" lon="8.3608917"><ele>164.0</ele><time>2026-04-04T13:54:27.027Z</time></trkpt><trkpt lat="44.9846767" lon="8.360765"><ele>163.99999999999997</ele><time>2026-04-04T13:54:29.027Z</time></trkpt><trkpt lat="44.9847117" lon="8.3606867"><ele>164.0</ele><time>2026-04-04T13:54:30.027Z</time></trkpt><trkpt lat="44.9847417" lon="8.3606"><ele>164.0</ele><time>2026-04-04T13:54:31.027Z</time></trkpt><trkpt lat="44.9847683" lon="8.3605067"><ele>164.0</ele><time>2026-04-04T13:54:32.027Z</time></trkpt><trkpt lat="44.9847883" lon="8.3604083"><ele>164.0</ele><time>2026-04-04T13:54:33.028Z</time></trkpt><trkpt lat="44.9847983" lon="8.3603067"><ele>163.99999999999997</ele><time>2026-04-04T13:54:34.027Z</time></trkpt><trkpt lat="44.9848117" lon="8.3602"><ele>164.0</ele><time>2026-04-04T13:54:35.028Z</time></trkpt><trkpt lat="44.9848217" lon="8.360085"><ele>163.7142857142857</ele><time>2026-04-04T13:54:36.026Z</time></trkpt><trkpt lat="44.9848333" lon="8.3599817"><ele>163.42857142857142</ele><time>2026-04-04T13:54:37.026Z</time></trkpt><trkpt lat="44.9848483" lon="8.3598783"><ele>163.14285714285714</ele><time>2026-04-04T13:54:38.028Z</time></trkpt><trkpt lat="44.9848667" lon="8.3597767"><ele>162.85714285714283</ele><time>2026-04-04T13:54:39.027Z</time></trkpt><trkpt lat="44.9848833" lon="8.35968"><ele>162.57142857142856</ele><time>2026-04-04T13:54:40.029Z</time></trkpt><trkpt lat="44.9849017" lon="8.3595833"><ele>162.28571428571428</ele><time>2026-04-04T13:54:41.027Z</time></trkpt><trkpt lat="44.984925" lon="8.35948"><ele>162.0</ele><time>2026-04-04T13:54:42.028Z</time></trkpt><trkpt lat="44.984945" lon="8.3593817"><ele>161.66666666666666</ele><time>2026-04-04T13:54:43.027Z</time></trkpt><trkpt lat="44.984955" lon="8.35928"><ele>161.33333333333334</ele><time>2026-04-04T13:54:44.027Z</time></trkpt><trkpt lat="44.9849567" lon="8.359175"><ele>161.0</ele><time>2026-04-04T13:54:45.029Z</time></trkpt><trkpt lat="44.9849617" lon="8.3590733"><ele>160.66666666666669</ele><time>2026-04-04T13:54:46.028Z</time></trkpt><trkpt lat="44.9849783" lon="8.3589767"><ele>160.33333333333334</ele><time>2026-04-04T13:54:47.027Z</time></trkpt><trkpt lat="44.9850083" lon="8.358895"><ele>160.0</ele><time>2026-04-04T13:54:48.027Z</time></trkpt><trkpt lat="44.9850867" lon="8.35879"><ele>160.5</ele><time>2026-04-04T13:54:50.027Z</time></trkpt><trkpt lat="44.9852333" lon="8.358875"><ele>161.0</ele><time>2026-04-04T13:54:52.027Z</time></trkpt><trkpt lat="44.98535" lon="8.3590133"><ele>161.5</ele><time>2026-04-04T13:54:53.028Z</time></trkpt><trkpt lat="44.98543" lon="8.3591017"><ele>162.0</ele><time>2026-04-04T13:54:54.027Z</time></trkpt><trkpt lat="44.9855" lon="8.35918"><ele>162.0</ele><time>2026-04-04T13:54:55.028Z</time></trkpt><trkpt lat="44.985575" lon="8.359245"><ele>162.0</ele><time>2026-04-04T13:54:56.028Z</time></trkpt><trkpt lat="44.98565" lon="8.359295"><ele>162.0</ele><time>2026-04-04T13:54:57.028Z</time></trkpt><trkpt lat="44.98573" lon="8.3593317"><ele>162.0</ele><time>2026-04-04T13:54:58.026Z</time></trkpt><trkpt lat="44.9858" lon="8.3593583"><ele>162.0</ele><time>2026-04-04T13:54:59.027Z</time></trkpt><trkpt lat="44.98587" lon="8.35938"><ele>162.0</ele><time>2026-04-04T13:55:00.027Z</time></trkpt><trkpt lat="44.985985" lon="8.3594117"><ele>162.2</ele><time>2026-04-04T13:55:02.028Z</time></trkpt><trkpt lat="44.98609" lon="8.3594483"><ele>162.39999999999998</ele><time>2026-04-04T13:55:04.028Z</time></trkpt><trkpt lat="44.98617" lon="8.3594617"><ele>162.60000000000002</ele><time>2026-04-04T13:55:06.028Z</time></trkpt><trkpt lat="44.986245" lon="8.359485"><ele>162.8</ele><time>2026-04-04T13:55:09.028Z</time></trkpt><trkpt lat="44.98635" lon="8.3595217"><ele>163.0</ele><time>2026-04-04T13:55:20.028Z</time></trkpt><trkpt lat="44.98646" lon="8.359535"><ele>163.0</ele><time>2026-04-04T13:55:22.027Z</time></trkpt><trkpt lat="44.98657" lon="8.3595567"><ele>163.0</ele><time>2026-04-04T13:55:24.027Z</time></trkpt><trkpt lat="44.986635" lon="8.3595717"><ele>163.0</ele><time>2026-04-04T13:55:25.028Z</time></trkpt><trkpt lat="44.9867033" lon="8.3595933"><ele>163.0</ele><time>2026-04-04T13:55:26.027Z</time></trkpt><trkpt lat="44.9867683" lon="8.35961"><ele>163.0</ele><time>2026-04-04T13:55:27.027Z</time></trkpt><trkpt lat="44.9868317" lon="8.3596283"><ele>163.0</ele><time>2026-04-04T13:55:28.027Z</time></trkpt><trkpt lat="44.9868967" lon="8.359645"><ele>163.0</ele><time>2026-04-04T13:55:29.027Z</time></trkpt><trkpt lat="44.98696" lon="8.3596567"><ele>162.71428571428572</ele><time>2026-04-04T13:55:30.027Z</time></trkpt><trkpt lat="44.9870267" lon="8.3596667"><ele>162.42857142857142</ele><time>2026-04-04T13:55:31.027Z</time></trkpt><trkpt lat="44.9870917" lon="8.359665"><ele>162.14285714285714</ele><time>2026-04-04T13:55:32.028Z</time></trkpt><trkpt lat="44.9871583" lon="8.35965"><ele>161.85714285714286</ele><time>2026-04-04T13:55:33.028Z</time></trkpt><trkpt lat="44.9872233" lon="8.35962"><ele>161.57142857142856</ele><time>2026-04-04T13:55:34.028Z</time></trkpt><trkpt lat="44.9872883" lon="8.3595783"><ele>161.28571428571428</ele><time>2026-04-04T13:55:35.029Z</time></trkpt><trkpt lat="44.9873533" lon="8.3595383"><ele>161.0</ele><time>2026-04-04T13:55:36.028Z</time></trkpt><trkpt lat="44.9874233" lon="8.3594967"><ele>161.0</ele><time>2026-04-04T13:55:37.026Z</time></trkpt><trkpt lat="44.9874967" lon="8.3594533"><ele>161.0</ele><time>2026-04-04T13:55:38.027Z</time></trkpt><trkpt lat="44.9875633" lon="8.3594117"><ele>161.0</ele><time>2026-04-04T13:55:39.027Z</time></trkpt><trkpt lat="44.9876267" lon="8.3593667"><ele>161.0</ele><time>2026-04-04T13:55:40.027Z</time></trkpt><trkpt lat="44.98769" lon="8.3593133"><ele>161.0</ele><time>2026-04-04T13:55:41.028Z</time></trkpt><trkpt lat="44.9877617" lon="8.3592483"><ele>161.0</ele><time>2026-04-04T13:55:42.027Z</time></trkpt><trkpt lat="44.987825" lon="8.3591683"><ele>161.83333333333331</ele><time>2026-04-04T13:55:43.028Z</time></trkpt><trkpt lat="44.987885" lon="8.3590783"><ele>162.66666666666666</ele><time>2026-04-04T13:55:44.028Z</time></trkpt><trkpt lat="44.9879383" lon="8.3589867"><ele>163.5</ele><time>2026-04-04T13:55:45.028Z</time></trkpt><trkpt lat="44.9879867" lon="8.3588967"><ele>164.33333333333334</ele><time>2026-04-04T13:55:46.027Z</time></trkpt><trkpt lat="44.9880283" lon="8.3588133"><ele>165.16666666666669</ele><time>2026-04-04T13:55:47.028Z</time></trkpt><trkpt lat="44.9880667" lon="8.35874"><ele>166.0</ele><time>2026-04-04T13:55:48.027Z</time></trkpt><trkpt lat="44.9881367" lon="8.3586133"><ele>166.0</ele><time>2026-04-04T13:55:50.028Z</time></trkpt><trkpt lat="44.9882217" lon="8.3585283"><ele>166.0</ele><time>2026-04-04T13:55:52.027Z</time></trkpt><trkpt lat="44.9883383" lon="8.3585"><ele>166.0</ele><time>2026-04-04T13:55:54.027Z</time></trkpt><trkpt lat="44.988415" lon="8.35853"><ele>166.0</ele><time>2026-04-04T13:55:55.028Z</time></trkpt><trkpt lat="44.9885" lon="8.3585833"><ele>166.0</ele><time>2026-04-04T13:55:56.027Z</time></trkpt><trkpt lat="44.98858" lon="8.3586383"><ele>166.60000000000002</ele><time>2026-04-04T13:55:57.027Z</time></trkpt><trkpt lat="44.9886583" lon="8.3586883"><ele>167.2</ele><time>2026-04-04T13:55:58.027Z</time></trkpt><trkpt lat="44.9887383" lon="8.35874"><ele>167.8</ele><time>2026-04-04T13:55:59.027Z</time></trkpt><trkpt lat="44.9888117" lon="8.35878"><ele>168.39999999999998</ele><time>2026-04-04T13:56:00.027Z</time></trkpt><trkpt lat="44.9889233" lon="8.3588267"><ele>169.0</ele><time>2026-04-04T13:56:02.028Z</time></trkpt><trkpt lat="44.9890217" lon="8.3588617"><ele>169.0</ele><time>2026-04-04T13:56:04.027Z</time></trkpt><trkpt lat="44.98913" lon="8.35891"><ele>169.0</ele><time>2026-04-04T13:56:06.027Z</time></trkpt><trkpt lat="44.9892267" lon="8.35898"><ele>169.0</ele><time>2026-04-04T13:56:08.028Z</time></trkpt><trkpt lat="44.98932" lon="8.359005"><ele>169.0</ele><time>2026-04-04T13:56:10.027Z</time></trkpt><trkpt lat="44.9894167" lon="8.3589767"><ele>169.0</ele><time>2026-04-04T13:56:12.028Z</time></trkpt><trkpt lat="44.9895167" lon="8.35891"><ele>170.16666666666669</ele><time>2026-04-04T13:56:14.028Z</time></trkpt><trkpt lat="44.9896233" lon="8.3588283"><ele>171.33333333333334</ele><time>2026-04-04T13:56:16.028Z</time></trkpt><trkpt lat="44.9896783" lon="8.3587817"><ele>172.5</ele><time>2026-04-04T13:56:17.027Z</time></trkpt><trkpt lat="44.989735" lon="8.3587333"><ele>173.66666666666666</ele><time>2026-04-04T13:56:18.028Z</time></trkpt><trkpt lat="44.98979" lon="8.3586767"><ele>174.83333333333331</ele><time>2026-04-04T13:56:19.028Z</time></trkpt><trkpt lat="44.9898933" lon="8.35857"><ele>176.0</ele><time>2026-04-04T13:56:21.027Z</time></trkpt><trkpt lat="44.9899483" lon="8.35852"><ele>176.0</ele><time>2026-04-04T13:56:22.027Z</time></trkpt><trkpt lat="44.990005" lon="8.358465"><ele>176.0</ele><time>2026-04-04T13:56:23.029Z</time></trkpt><trkpt lat="44.9900617" lon="8.3584167"><ele>176.0</ele><time>2026-04-04T13:56:24.03Z</time></trkpt><trkpt lat="44.99015" lon="8.3583333"><ele>176.0</ele><time>2026-04-04T13:56:26.029Z</time></trkpt><trkpt lat="44.9902233" lon="8.358255"><ele>176.0</ele><time>2026-04-04T13:56:28.027Z</time></trkpt><trkpt lat="44.99032" lon="8.3581817"><ele>176.0</ele><time>2026-04-04T13:56:30.028Z</time></trkpt><trkpt lat="44.9904217" lon="8.3581017"><ele>177.4</ele><time>2026-04-04T13:56:32.027Z</time></trkpt><trkpt lat="44.9905067" lon="8.3580217"><ele>178.8</ele><time>2026-04-04T13:56:34.028Z</time></trkpt><trkpt lat="44.9906033" lon="8.3579417"><ele>180.20000000000002</ele><time>2026-04-04T13:56:36.028Z</time></trkpt><trkpt lat="44.9907" lon="8.3578483"><ele>181.60000000000002</ele><time>2026-04-04T13:56:38.028Z</time></trkpt><trkpt lat="44.9907517" lon="8.3577967"><ele>183.0</ele><time>2026-04-04T13:56:39.028Z</time></trkpt><trkpt lat="44.990855" lon="8.35769"><ele>183.0</ele><time>2026-04-04T13:56:41.028Z</time></trkpt><trkpt lat="44.99091" lon="8.357625"><ele>183.0</ele><time>2026-04-04T13:56:42.028Z</time></trkpt><trkpt lat="44.9909617" lon="8.3575567"><ele>183.0</ele><time>2026-04-04T13:56:43.027Z</time></trkpt><trkpt lat="44.991005" lon="8.3574917"><ele>183.0</ele><time>2026-04-04T13:56:44.028Z</time></trkpt><trkpt lat="44.9910783" lon="8.3573783"><ele>183.0</ele><time>2026-04-04T13:56:46.028Z</time></trkpt><trkpt lat="44.99114" lon="8.3572783"><ele>183.0</ele><time>2026-04-04T13:56:48.028Z</time></trkpt><trkpt lat="44.9911983" lon="8.3571767"><ele>184.4</ele><time>2026-04-04T13:56:50.028Z</time></trkpt><trkpt lat="44.9912583" lon="8.3570733"><ele>185.8</ele><time>2026-04-04T13:56:52.028Z</time></trkpt><trkpt lat="44.991325" lon="8.35696"><ele>187.2</ele><time>2026-04-04T13:56:54.028Z</time></trkpt><trkpt lat="44.9913983" lon="8.35684"><ele>188.6</ele><time>2026-04-04T13:56:56.028Z</time></trkpt><trkpt lat="44.991485" lon="8.356705"><ele>190.0</ele><time>2026-04-04T13:56:58.027Z</time></trkpt><trkpt lat="44.9915317" lon="8.3566383"><ele>190.0</ele><time>2026-04-04T13:56:59.027Z</time></trkpt><trkpt lat="44.9915767" lon="8.3565717"><ele>190.0</ele><time>2026-04-04T13:57:00.029Z</time></trkpt><trkpt lat="44.99162" lon="8.3565017"><ele>190.0</ele><time>2026-04-04T13:57:01.027Z</time></trkpt><trkpt lat="44.9916667" lon="8.3564283"><ele>190.0</ele><time>2026-04-04T13:57:02.029Z</time></trkpt><trkpt lat="44.9917133" lon="8.3563567"><ele>190.0</ele><time>2026-04-04T13:57:03.029Z</time></trkpt><trkpt lat="44.991765" lon="8.3562833"><ele>190.0</ele><time>2026-04-04T13:57:04.028Z</time></trkpt><trkpt lat="44.9918183" lon="8.3562067"><ele>190.0</ele><time>2026-04-04T13:57:05.028Z</time></trkpt><trkpt lat="44.9918733" lon="8.3561317"><ele>190.16666666666669</ele><time>2026-04-04T13:57:06.028Z</time></trkpt><trkpt lat="44.9919283" lon="8.356055"><ele>190.33333333333334</ele><time>2026-04-04T13:57:07.027Z</time></trkpt><trkpt lat="44.9919817" lon="8.3559783"><ele>190.5</ele><time>2026-04-04T13:57:08.029Z</time></trkpt><trkpt lat="44.9920317" lon="8.3559"><ele>190.66666666666666</ele><time>2026-04-04T13:57:09.028Z</time></trkpt><trkpt lat="44.992085" lon="8.3558183"><ele>190.83333333333331</ele><time>2026-04-04T13:57:10.028Z</time></trkpt><trkpt lat="44.9921383" lon="8.3557367"><ele>191.0</ele><time>2026-04-04T13:57:11.027Z</time></trkpt><trkpt lat="44.9921867" lon="8.355655"><ele>191.0</ele><time>2026-04-04T13:57:12.029Z</time></trkpt><trkpt lat="44.9922333" lon="8.3555767"><ele>191.0</ele><time>2026-04-04T13:57:13.028Z</time></trkpt><trkpt lat="44.9922733" lon="8.355505"><ele>191.0</ele><time>2026-04-04T13:57:14.028Z</time></trkpt><trkpt lat="44.992355" lon="8.3553783"><ele>191.0</ele><time>2026-04-04T13:57:16.028Z</time></trkpt><trkpt lat="44.9924017" lon="8.3553167"><ele>191.0</ele><time>2026-04-04T13:57:17.027Z</time></trkpt><trkpt lat="44.99245" lon="8.35525"><ele>191.0</ele><time>2026-04-04T13:57:18.029Z</time></trkpt><trkpt lat="44.9925" lon="8.35518"><ele>192.66666666666666</ele><time>2026-04-04T13:57:19.029Z</time></trkpt><trkpt lat="44.9925517" lon="8.3551117"><ele>194.33333333333331</ele><time>2026-04-04T13:57:20.029Z</time></trkpt><trkpt lat="44.9926017" lon="8.3550433"><ele>196.0</ele><time>2026-04-04T13:57:21.03Z</time></trkpt><trkpt lat="44.9926517" lon="8.3549783"><ele>197.66666666666666</ele><time>2026-04-04T13:57:22.028Z</time></trkpt><trkpt lat="44.9927433" lon="8.3548633"><ele>199.33333333333334</ele><time>2026-04-04T13:57:24.028Z</time></trkpt><trkpt lat="44.992825" lon="8.35476"><ele>201.0</ele><time>2026-04-04T13:57:26.029Z</time></trkpt><trkpt lat="44.9929117" lon="8.35466"><ele>202.5</ele><time>2026-04-04T13:57:28.028Z</time></trkpt><trkpt lat="44.9930067" lon="8.3545633"><ele>204.0</ele><time>2026-04-04T13:57:30.027Z</time></trkpt><trkpt lat="44.99311" lon="8.3544617"><ele>205.5</ele><time>2026-04-04T13:57:32.027Z</time></trkpt><trkpt lat="44.99321" lon="8.3543633"><ele>207.0</ele><time>2026-04-04T13:57:34.029Z</time></trkpt><trkpt lat="44.9933083" lon="8.3542633"><ele>207.14285714285717</ele><time>2026-04-04T13:57:36.028Z</time></trkpt><trkpt lat="44.993365" lon="8.354205"><ele>207.28571428571428</ele><time>2026-04-04T13:57:37.028Z</time></trkpt><trkpt lat="44.99342" lon="8.354145"><ele>207.42857142857144</ele><time>2026-04-04T13:57:38.029Z</time></trkpt><trkpt lat="44.9934733" lon="8.3540867"><ele>207.57142857142858</ele><time>2026-04-04T13:57:39.028Z</time></trkpt><trkpt lat="44.9935317" lon="8.3540283"><ele>207.71428571428572</ele><time>2026-04-04T13:57:40.029Z</time></trkpt><trkpt lat="44.9935917" lon="8.3539733"><ele>207.85714285714286</ele><time>2026-04-04T13:57:41.027Z</time></trkpt><trkpt lat="44.9936533" lon="8.3539233"><ele>208.0</ele><time>2026-04-04T13:57:42.029Z</time></trkpt><trkpt lat="44.99372" lon="8.3538783"><ele>208.16666666666666</ele><time>2026-04-04T13:57:43.029Z</time></trkpt><trkpt lat="44.9937883" lon="8.353835"><ele>208.33333333333331</ele><time>2026-04-04T13:57:44.028Z</time></trkpt><trkpt lat="44.9938567" lon="8.353795"><ele>208.5</ele><time>2026-04-04T13:57:45.028Z</time></trkpt><trkpt lat="44.99392" lon="8.3537633"><ele>208.66666666666669</ele><time>2026-04-04T13:57:46.027Z</time></trkpt><trkpt lat="44.99403" lon="8.3537217"><ele>208.83333333333334</ele><time>2026-04-04T13:57:48.03Z</time></trkpt><trkpt lat="44.99413" lon="8.353685"><ele>209.0</ele><time>2026-04-04T13:57:50.029Z</time></trkpt><trkpt lat="44.9942383" lon="8.35363"><ele>209.66666666666669</ele><time>2026-04-04T13:57:52.027Z</time></trkpt><trkpt lat="44.994355" lon="8.3535667"><ele>210.33333333333334</ele><time>2026-04-04T13:57:54.028Z</time></trkpt><trkpt lat="44.9944183" lon="8.3535317"><ele>211.0</ele><time>2026-04-04T13:57:55.028Z</time></trkpt><trkpt lat="44.99448" lon="8.35349"><ele>211.66666666666669</ele><time>2026-04-04T13:57:56.027Z</time></trkpt><trkpt lat="44.9945417" lon="8.35344"><ele>212.33333333333334</ele><time>2026-04-04T13:57:57.026Z</time></trkpt><trkpt lat="44.9946" lon="8.353385"><ele>213.0</ele><time>2026-04-04T13:57:58.028Z</time></trkpt><trkpt lat="44.9946567" lon="8.35333"><ele>213.0</ele><time>2026-04-04T13:57:59.029Z</time></trkpt><trkpt lat="44.994715" lon="8.3532733"><ele>213.0</ele><time>2026-04-04T13:58:00.027Z</time></trkpt><trkpt lat="44.9947717" lon="8.3532117"><ele>213.0</ele><time>2026-04-04T13:58:01.029Z</time></trkpt><trkpt lat="44.994835" lon="8.3531533"><ele>213.0</ele><time>2026-04-04T13:58:02.027Z</time></trkpt><trkpt lat="44.9949033" lon="8.3530967"><ele>213.0</ele><time>2026-04-04T13:58:03.028Z</time></trkpt><trkpt lat="44.9949717" lon="8.35304"><ele>213.0</ele><time>2026-04-04T13:58:04.027Z</time></trkpt><trkpt lat="44.995045" lon="8.3529817"><ele>214.0</ele><time>2026-04-04T13:58:05.028Z</time></trkpt><trkpt lat="44.9951133" lon="8.3529217"><ele>215.0</ele><time>2026-04-04T13:58:06.027Z</time></trkpt><trkpt lat="44.9951833" lon="8.35286"><ele>216.0</ele><time>2026-04-04T13:58:07.028Z</time></trkpt><trkpt lat="44.995255" lon="8.3528033"><ele>217.0</ele><time>2026-04-04T13:58:08.028Z</time></trkpt><trkpt lat="44.99533" lon="8.3527433"><ele>218.0</ele><time>2026-04-04T13:58:09.028Z</time></trkpt><trkpt lat="44.9953983" lon="8.3526817"><ele>219.0</ele><time>2026-04-04T13:58:10.028Z</time></trkpt><trkpt lat="44.99547" lon="8.3526217"><ele>219.0</ele><time>2026-04-04T13:58:11.026Z</time></trkpt><trkpt lat="44.99554" lon="8.35256"><ele>219.0</ele><time>2026-04-04T13:58:12.028Z</time></trkpt><trkpt lat="44.9956133" lon="8.3524933"><ele>219.0</ele><time>2026-04-04T13:58:13.027Z</time></trkpt><trkpt lat="44.9956867" lon="8.35243"><ele>219.0</ele><time>2026-04-04T13:58:14.028Z</time></trkpt><trkpt lat="44.995765" lon="8.35237"><ele>219.0</ele><time>2026-04-04T13:58:15.028Z</time></trkpt><trkpt lat="44.9958483" lon="8.3523183"><ele>219.0</ele><time>2026-04-04T13:58:16.027Z</time></trkpt><trkpt lat="44.9959367" lon="8.3522733"><ele>219.0</ele><time>2026-04-04T13:58:17.028Z</time></trkpt><trkpt lat="44.9960317" lon="8.35223"><ele>218.99999999999997</ele><time>2026-04-04T13:58:18.027Z</time></trkpt><trkpt lat="44.9961267" lon="8.3521917"><ele>218.99999999999997</ele><time>2026-04-04T13:58:19.027Z</time></trkpt><trkpt lat="44.9962183" lon="8.3521567"><ele>219.0</ele><time>2026-04-04T13:58:20.027Z</time></trkpt><trkpt lat="44.996305" lon="8.3521267"><ele>219.0</ele><time>2026-04-04T13:58:21.027Z</time></trkpt><trkpt lat="44.9963917" lon="8.3520917"><ele>219.0</ele><time>2026-04-04T13:58:22.029Z</time></trkpt><trkpt lat="44.9964783" lon="8.3520567"><ele>218.99999999999997</ele><time>2026-04-04T13:58:23.027Z</time></trkpt><trkpt lat="44.9965667" lon="8.3520267"><ele>218.99999999999997</ele><time>2026-04-04T13:58:24.027Z</time></trkpt><trkpt lat="44.99666" lon="8.351995"><ele>219.0</ele><time>2026-04-04T13:58:25.028Z</time></trkpt><trkpt lat="44.9967517" lon="8.3519667"><ele>219.0</ele><time>2026-04-04T13:58:26.028Z</time></trkpt><trkpt lat="44.9968483" lon="8.3519417"><ele>218.79999999999998</ele><time>2026-04-04T13:58:27.027Z</time></trkpt><trkpt lat="44.996945" lon="8.3519167"><ele>218.59999999999997</ele><time>2026-04-04T13:58:28.027Z</time></trkpt><trkpt lat="44.9970483" lon="8.3518917"><ele>218.4</ele><time>2026-04-04T13:58:29.028Z</time></trkpt><trkpt lat="44.9971467" lon="8.3518717"><ele>218.2</ele><time>2026-04-04T13:58:30.029Z</time></trkpt><trkpt lat="44.997245" lon="8.3518517"><ele>218.0</ele><time>2026-04-04T13:58:31.027Z</time></trkpt><trkpt lat="44.9973417" lon="8.351835"><ele>218.00000000000003</ele><time>2026-04-04T13:58:32.027Z</time></trkpt><trkpt lat="44.9974333" lon="8.3518183"><ele>218.0</ele><time>2026-04-04T13:58:33.028Z</time></trkpt><trkpt lat="44.99752" lon="8.3517983"><ele>218.0</ele><time>2026-04-04T13:58:34.029Z</time></trkpt><trkpt lat="44.9976033" lon="8.3517767"><ele>218.0</ele><time>2026-04-04T13:58:35.028Z</time></trkpt><trkpt lat="44.9976867" lon="8.3517567"><ele>218.00000000000003</ele><time>2026-04-04T13:58:36.027Z</time></trkpt><trkpt lat="44.99777" lon="8.351735"><ele>218.0</ele><time>2026-04-04T13:58:37.028Z</time></trkpt><trkpt lat="44.9978483" lon="8.3517083"><ele>218.66666666666669</ele><time>2026-04-04T13:58:38.028Z</time></trkpt><trkpt lat="44.9979267" lon="8.351675"><ele>219.33333333333334</ele><time>2026-04-04T13:58:39.027Z</time></trkpt><trkpt lat="44.9980067" lon="8.3516383"><ele>220.0</ele><time>2026-04-04T13:58:40.028Z</time></trkpt><trkpt lat="44.9980917" lon="8.351595"><ele>220.66666666666669</ele><time>2026-04-04T13:58:41.027Z</time></trkpt><trkpt lat="44.99817" lon="8.3515517"><ele>221.33333333333334</ele><time>2026-04-04T13:58:42.027Z</time></trkpt><trkpt lat="44.9982417" lon="8.3515117"><ele>222.0</ele><time>2026-04-04T13:58:43.028Z</time></trkpt><trkpt lat="44.9983133" lon="8.3514683"><ele>222.16666666666666</ele><time>2026-04-04T13:58:44.028Z</time></trkpt><trkpt lat="44.998385" lon="8.3514217"><ele>222.33333333333331</ele><time>2026-04-04T13:58:45.029Z</time></trkpt><trkpt lat="44.9984517" lon="8.3513667"><ele>222.5</ele><time>2026-04-04T13:58:46.027Z</time></trkpt><trkpt lat="44.9985133" lon="8.35131"><ele>222.66666666666666</ele><time>2026-04-04T13:58:47.03Z</time></trkpt><trkpt lat="44.998575" lon="8.35124"><ele>222.83333333333331</ele><time>2026-04-04T13:58:48.028Z</time></trkpt><trkpt lat="44.9986417" lon="8.3511633"><ele>223.0</ele><time>2026-04-04T13:58:49.028Z</time></trkpt><trkpt lat="44.9987167" lon="8.3510867"><ele>223.4</ele><time>2026-04-04T13:58:50.027Z</time></trkpt><trkpt lat="44.998795" lon="8.3510167"><ele>223.8</ele><time>2026-04-04T13:58:51.028Z</time></trkpt><trkpt lat="44.99888" lon="8.3509567"><ele>224.2</ele><time>2026-04-04T13:58:52.027Z</time></trkpt><trkpt lat="44.998965" lon="8.3509017"><ele>224.6</ele><time>2026-04-04T13:58:53.027Z</time></trkpt><trkpt lat="44.999045" lon="8.35085"><ele>225.0</ele><time>2026-04-04T13:58:54.028Z</time></trkpt><trkpt lat="44.9991233" lon="8.3507983"><ele>225.0</ele><time>2026-04-04T13:58:55.027Z</time></trkpt><trkpt lat="44.9992017" lon="8.3507533"><ele>225.0</ele><time>2026-04-04T13:58:56.028Z</time></trkpt><trkpt lat="44.99928" lon="8.3507117"><ele>225.0</ele><time>2026-04-04T13:58:57.027Z</time></trkpt><trkpt lat="44.99936" lon="8.3506733"><ele>225.0</ele><time>2026-04-04T13:58:58.027Z</time></trkpt><trkpt lat="44.99944" lon="8.350635"><ele>225.0</ele><time>2026-04-04T13:58:59.028Z</time></trkpt><trkpt lat="44.9995167" lon="8.3505983"><ele>225.0</ele><time>2026-04-04T13:59:00.027Z</time></trkpt><trkpt lat="44.999595" lon="8.3505533"><ele>225.8</ele><time>2026-04-04T13:59:01.029Z</time></trkpt><trkpt lat="44.9996767" lon="8.3505033"><ele>226.6</ele><time>2026-04-04T13:59:02.027Z</time></trkpt><trkpt lat="44.9997617" lon="8.3504533"><ele>227.39999999999998</ele><time>2026-04-04T13:59:03.028Z</time></trkpt><trkpt lat="44.999855" lon="8.3504117"><ele>228.2</ele><time>2026-04-04T13:59:04.028Z</time></trkpt><trkpt lat="44.9999467" lon="8.3503817"><ele>229.0</ele><time>2026-04-04T13:59:05.028Z</time></trkpt><trkpt lat="45.0000367" lon="8.35036"><ele>228.99999999999997</ele><time>2026-04-04T13:59:06.028Z</time></trkpt><trkpt lat="45.0001283" lon="8.350345"><ele>229.0</ele><time>2026-04-04T13:59:07.029Z</time></trkpt><trkpt lat="45.0002133" lon="8.3503367"><ele>229.0</ele><time>2026-04-04T13:59:08.029Z</time></trkpt><trkpt lat="45.0003017" lon="8.350325"><ele>229.0</ele><time>2026-04-04T13:59:09.027Z</time></trkpt><trkpt lat="45.0003883" lon="8.3503183"><ele>228.99999999999997</ele><time>2026-04-04T13:59:10.027Z</time></trkpt><trkpt lat="45.0004733" lon="8.35031"><ele>229.0</ele><time>2026-04-04T13:59:11.028Z</time></trkpt><trkpt lat="45.00056" lon="8.3502933"><ele>228.99999999999997</ele><time>2026-04-04T13:59:12.028Z</time></trkpt><trkpt lat="45.0006483" lon="8.35026"><ele>229.0</ele><time>2026-04-04T13:59:13.028Z</time></trkpt><trkpt lat="45.0007317" lon="8.3502117"><ele>229.0</ele><time>2026-04-04T13:59:14.027Z</time></trkpt><trkpt lat="45.00081" lon="8.3501567"><ele>229.0</ele><time>2026-04-04T13:59:15.028Z</time></trkpt><trkpt lat="45.000885" lon="8.3501017"><ele>228.99999999999997</ele><time>2026-04-04T13:59:16.027Z</time></trkpt><trkpt lat="45.0009517" lon="8.350045"><ele>229.0</ele><time>2026-04-04T13:59:17.027Z</time></trkpt><trkpt lat="45.0010217" lon="8.349985"><ele>229.6</ele><time>2026-04-04T13:59:18.027Z</time></trkpt><trkpt lat="45.00109" lon="8.34992"><ele>230.2</ele><time>2026-04-04T13:59:19.028Z</time></trkpt><trkpt lat="45.0011667" lon="8.3498417"><ele>230.79999999999998</ele><time>2026-04-04T13:59:20.028Z</time></trkpt><trkpt lat="45.001245" lon="8.3497517"><ele>231.39999999999998</ele><time>2026-04-04T13:59:21.027Z</time></trkpt><trkpt lat="45.00132" lon="8.3496683"><ele>232.0</ele><time>2026-04-04T13:59:22.028Z</time></trkpt><trkpt lat="45.0013933" lon="8.3495817"><ele>232.2</ele><time>2026-04-04T13:59:23.029Z</time></trkpt><trkpt lat="45.0014617" lon="8.3494983"><ele>232.39999999999998</ele><time>2026-04-04T13:59:24.03Z</time></trkpt><trkpt lat="45.0015267" lon="8.3494217"><ele>232.60000000000002</ele><time>2026-04-04T13:59:25.029Z</time></trkpt><trkpt lat="45.0015967" lon="8.3493467"><ele>232.8</ele><time>2026-04-04T13:59:26.028Z</time></trkpt><trkpt lat="45.0016733" lon="8.3492683"><ele>233.0</ele><time>2026-04-04T13:59:27.027Z</time></trkpt><trkpt lat="45.00176" lon="8.349185"><ele>233.60000000000002</ele><time>2026-04-04T13:59:28.028Z</time></trkpt><trkpt lat="45.00184" lon="8.3491033"><ele>234.20000000000002</ele><time>2026-04-04T13:59:29.028Z</time></trkpt><trkpt lat="45.001925" lon="8.349025"><ele>234.8</ele><time>2026-04-04T13:59:30.028Z</time></trkpt><trkpt lat="45.0020033" lon="8.3489567"><ele>235.4</ele><time>2026-04-04T13:59:31.028Z</time></trkpt><trkpt lat="45.0020733" lon="8.348895"><ele>236.0</ele><time>2026-04-04T13:59:32.027Z</time></trkpt><trkpt lat="45.0021383" lon="8.3488383"><ele>236.00000000000003</ele><time>2026-04-04T13:59:33.027Z</time></trkpt><trkpt lat="45.0022017" lon="8.3487867"><ele>236.0</ele><time>2026-04-04T13:59:34.028Z</time></trkpt><trkpt lat="45.0022717" lon="8.3487383"><ele>236.0</ele><time>2026-04-04T13:59:35.027Z</time></trkpt><trkpt lat="45.0023483" lon="8.348695"><ele>236.0</ele><time>2026-04-04T13:59:36.026Z</time></trkpt><trkpt lat="45.0024283" lon="8.3486567"><ele>236.00000000000003</ele><time>2026-04-04T13:59:37.027Z</time></trkpt><trkpt lat="45.002525" lon="8.3486233"><ele>236.0</ele><time>2026-04-04T13:59:38.028Z</time></trkpt><trkpt lat="45.0026183" lon="8.3485917"><ele>237.50000000000003</ele><time>2026-04-04T13:59:39.028Z</time></trkpt><trkpt lat="45.002705" lon="8.3485667"><ele>239.0</ele><time>2026-04-04T13:59:40.028Z</time></trkpt><trkpt lat="45.0027817" lon="8.3485517"><ele>240.5</ele><time>2026-04-04T13:59:41.028Z</time></trkpt><trkpt lat="45.0028667" lon="8.34853"><ele>242.0</ele><time>2026-04-04T13:59:42.028Z</time></trkpt><trkpt lat="45.0029367" lon="8.3485167"><ele>243.50000000000003</ele><time>2026-04-04T13:59:43.029Z</time></trkpt><trkpt lat="45.00301" lon="8.3485017"><ele>245.0</ele><time>2026-04-04T13:59:44.029Z</time></trkpt><trkpt lat="45.0030733" lon="8.34849"><ele>245.00000000000003</ele><time>2026-04-04T13:59:45.028Z</time></trkpt><trkpt lat="45.00314" lon="8.3484683"><ele>245.0</ele><time>2026-04-04T13:59:46.028Z</time></trkpt><trkpt lat="45.003205" lon="8.3484417"><ele>245.0</ele><time>2026-04-04T13:59:47.027Z</time></trkpt><trkpt lat="45.0032683" lon="8.34842"><ele>245.0</ele><time>2026-04-04T13:59:48.028Z</time></trkpt><trkpt lat="45.0033317" lon="8.3484017"><ele>245.00000000000003</ele><time>2026-04-04T13:59:49.028Z</time></trkpt><trkpt lat="45.0034567" lon="8.348345"><ele>245.0</ele><time>2026-04-04T13:59:51.029Z</time></trkpt><trkpt lat="45.0035233" lon="8.3483083"><ele>245.66666666666669</ele><time>2026-04-04T13:59:52.028Z</time></trkpt><trkpt lat="45.0035833" lon="8.3482717"><ele>246.33333333333334</ele><time>2026-04-04T13:59:53.029Z</time></trkpt><trkpt lat="45.003645" lon="8.348235"><ele>247.0</ele><time>2026-04-04T13:59:54.028Z</time></trkpt><trkpt lat="45.0037067" lon="8.3482"><ele>247.66666666666669</ele><time>2026-04-04T13:59:55.029Z</time></trkpt><trkpt lat="45.0037683" lon="8.3481667"><ele>248.33333333333334</ele><time>2026-04-04T13:59:56.028Z</time></trkpt><trkpt lat="45.0038933" lon="8.3481167"><ele>249.0</ele><time>2026-04-04T13:59:58.028Z</time></trkpt><trkpt lat="45.0040117" lon="8.3480783"><ele>247.5</ele><time>2026-04-04T14:00:00.028Z</time></trkpt><trkpt lat="45.0041283" lon="8.34803"><ele>246.0</ele><time>2026-04-04T14:00:02.029Z</time></trkpt><trkpt lat="45.00424" lon="8.3479983"><ele>244.5</ele><time>2026-04-04T14:00:04.027Z</time></trkpt><trkpt lat="45.0043517" lon="8.3479633"><ele>243.0</ele><time>2026-04-04T14:00:06.028Z</time></trkpt><trkpt lat="45.0044667" lon="8.3479217"><ele>242.75</ele><time>2026-04-04T14:00:08.027Z</time></trkpt><trkpt lat="45.0045783" lon="8.3478617"><ele>242.5</ele><time>2026-04-04T14:00:10.027Z</time></trkpt><trkpt lat="45.0046883" lon="8.3478033"><ele>242.25</ele><time>2026-04-04T14:00:12.028Z</time></trkpt><trkpt lat="45.0048083" lon="8.3477433"><ele>242.0</ele><time>2026-04-04T14:00:14.029Z</time></trkpt><trkpt lat="45.0049267" lon="8.3476783"><ele>242.00000000000003</ele><time>2026-04-04T14:00:16.028Z</time></trkpt><trkpt lat="45.00499" lon="8.347645"><ele>242.0</ele><time>2026-04-04T14:00:17.03Z</time></trkpt><trkpt lat="45.005055" lon="8.34761"><ele>242.0</ele><time>2026-04-04T14:00:18.028Z</time></trkpt><trkpt lat="45.005115" lon="8.3475767"><ele>242.0</ele><time>2026-04-04T14:00:19.029Z</time></trkpt><trkpt lat="45.005175" lon="8.347535"><ele>242.00000000000003</ele><time>2026-04-04T14:00:20.028Z</time></trkpt><trkpt lat="45.005295" lon="8.3474783"><ele>242.0</ele><time>2026-04-04T14:00:22.029Z</time></trkpt><trkpt lat="45.0053617" lon="8.3474583"><ele>241.85714285714283</ele><time>2026-04-04T14:00:23.028Z</time></trkpt><trkpt lat="45.005435" lon="8.3474483"><ele>241.7142857142857</ele><time>2026-04-04T14:00:24.028Z</time></trkpt><trkpt lat="45.00551" lon="8.34744"><ele>241.57142857142856</ele><time>2026-04-04T14:00:25.03Z</time></trkpt><trkpt lat="45.0055867" lon="8.3474333"><ele>241.42857142857144</ele><time>2026-04-04T14:00:26.029Z</time></trkpt><trkpt lat="45.0056617" lon="8.34743"><ele>241.2857142857143</ele><time>2026-04-04T14:00:27.028Z</time></trkpt><trkpt lat="45.0057333" lon="8.34743"><ele>241.14285714285717</ele><time>2026-04-04T14:00:28.028Z</time></trkpt><trkpt lat="45.0058" lon="8.34743"><ele>241.0</ele><time>2026-04-04T14:00:29.029Z</time></trkpt><trkpt lat="45.0058683" lon="8.3474317"><ele>240.16666666666666</ele><time>2026-04-04T14:00:30.028Z</time></trkpt><trkpt lat="45.00594" lon="8.347435"><ele>239.33333333333331</ele><time>2026-04-04T14:00:31.03Z</time></trkpt><trkpt lat="45.006015" lon="8.3474383"><ele>238.5</ele><time>2026-04-04T14:00:32.03Z</time></trkpt><trkpt lat="45.0060967" lon="8.3474433"><ele>237.66666666666669</ele><time>2026-04-04T14:00:33.029Z</time></trkpt><trkpt lat="45.00618" lon="8.34745"><ele>236.83333333333334</ele><time>2026-04-04T14:00:34.027Z</time></trkpt><trkpt lat="45.0062683" lon="8.3474567"><ele>236.0</ele><time>2026-04-04T14:00:35.028Z</time></trkpt><trkpt lat="45.006355" lon="8.3474717"><ele>236.00000000000003</ele><time>2026-04-04T14:00:36.029Z</time></trkpt><trkpt lat="45.00644" lon="8.347485"><ele>236.0</ele><time>2026-04-04T14:00:37.027Z</time></trkpt><trkpt lat="45.0065217" lon="8.3475067"><ele>236.0</ele><time>2026-04-04T14:00:38.029Z</time></trkpt><trkpt lat="45.0066117" lon="8.347535"><ele>236.0</ele><time>2026-04-04T14:00:39.028Z</time></trkpt><trkpt lat="45.0066983" lon="8.3475567"><ele>236.00000000000003</ele><time>2026-04-04T14:00:40.028Z</time></trkpt><trkpt lat="45.0067767" lon="8.3475717"><ele>236.0</ele><time>2026-04-04T14:00:41.028Z</time></trkpt><trkpt lat="45.0068583" lon="8.3475867"><ele>236.0</ele><time>2026-04-04T14:00:42.031Z</time></trkpt><trkpt lat="45.00694" lon="8.3475967"><ele>236.0</ele><time>2026-04-04T14:00:43.028Z</time></trkpt><trkpt lat="45.0070117" lon="8.347595"><ele>236.0</ele><time>2026-04-04T14:00:44.028Z</time></trkpt><trkpt lat="45.0070833" lon="8.3475883"><ele>236.0</ele><time>2026-04-04T14:00:45.029Z</time></trkpt><trkpt lat="45.0071533" lon="8.347575"><ele>236.0</ele><time>2026-04-04T14:00:46.031Z</time></trkpt><trkpt lat="45.0072267" lon="8.3475617"><ele>236.0</ele><time>2026-04-04T14:00:47.029Z</time></trkpt><trkpt lat="45.0072933" lon="8.34754"><ele>236.0</ele><time>2026-04-04T14:00:48.029Z</time></trkpt><trkpt lat="45.0074167" lon="8.347495"><ele>236.0</ele><time>2026-04-04T14:00:50.029Z</time></trkpt><trkpt lat="45.0074867" lon="8.34747"><ele>236.0</ele><time>2026-04-04T14:00:51.028Z</time></trkpt><trkpt lat="45.0075583" lon="8.347435"><ele>236.0</ele><time>2026-04-04T14:00:52.028Z</time></trkpt><trkpt lat="45.0076283" lon="8.3474"><ele>236.0</ele><time>2026-04-04T14:00:53.03Z</time></trkpt><trkpt lat="45.0076967" lon="8.34736"><ele>236.0</ele><time>2026-04-04T14:00:54.027Z</time></trkpt><trkpt lat="45.0077633" lon="8.347315"><ele>236.0</ele><time>2026-04-04T14:00:55.028Z</time></trkpt><trkpt lat="45.0078283" lon="8.3472683"><ele>236.0</ele><time>2026-04-04T14:00:56.029Z</time></trkpt><trkpt lat="45.0078983" lon="8.3472217"><ele>235.66666666666669</ele><time>2026-04-04T14:00:57.03Z</time></trkpt><trkpt lat="45.0079733" lon="8.3471783"><ele>235.33333333333334</ele><time>2026-04-04T14:00:58.028Z</time></trkpt><trkpt lat="45.0080533" lon="8.34714"><ele>235.0</ele><time>2026-04-04T14:00:59.028Z</time></trkpt><trkpt lat="45.0081333" lon="8.3471067"><ele>234.66666666666669</ele><time>2026-04-04T14:01:00.027Z</time></trkpt><trkpt lat="45.008215" lon="8.3470733"><ele>234.33333333333334</ele><time>2026-04-04T14:01:01.029Z</time></trkpt><trkpt lat="45.0083" lon="8.3470433"><ele>234.0</ele><time>2026-04-04T14:01:02.029Z</time></trkpt><trkpt lat="45.0083917" lon="8.3470133"><ele>234.0</ele><time>2026-04-04T14:01:03.031Z</time></trkpt><trkpt lat="45.0084867" lon="8.3469867"><ele>233.99999999999997</ele><time>2026-04-04T14:01:04.029Z</time></trkpt><trkpt lat="45.00858" lon="8.3469533"><ele>233.99999999999997</ele><time>2026-04-04T14:01:05.028Z</time></trkpt><trkpt lat="45.0086533" lon="8.3469117"><ele>234.0</ele><time>2026-04-04T14:01:06.029Z</time></trkpt><trkpt lat="45.0087383" lon="8.3468633"><ele>234.0</ele><time>2026-04-04T14:01:07.028Z</time></trkpt><trkpt lat="45.008825" lon="8.3467833"><ele>234.0</ele><time>2026-04-04T14:01:08.028Z</time></trkpt><trkpt lat="45.0089167" lon="8.3466767"><ele>234.0</ele><time>2026-04-04T14:01:09.028Z</time></trkpt><trkpt lat="45.00901" lon="8.3465617"><ele>234.0</ele><time>2026-04-04T14:01:10.028Z</time></trkpt><trkpt lat="45.0091017" lon="8.3464533"><ele>234.0</ele><time>2026-04-04T14:01:11.028Z</time></trkpt><trkpt lat="45.0092317" lon="8.3463"><ele>233.0</ele><time>2026-04-04T14:01:12.029Z</time></trkpt><trkpt lat="45.0093383" lon="8.34617"><ele>232.0</ele><time>2026-04-04T14:01:13.029Z</time></trkpt><trkpt lat="45.0094233" lon="8.3460683"><ele>231.0</ele><time>2026-04-04T14:01:14.028Z</time></trkpt><trkpt lat="45.00951" lon="8.345965"><ele>230.0</ele><time>2026-04-04T14:01:15.029Z</time></trkpt><trkpt lat="45.0095983" lon="8.3458617"><ele>230.0</ele><time>2026-04-04T14:01:16.028Z</time></trkpt><trkpt lat="45.009685" lon="8.3457633"><ele>230.0</ele><time>2026-04-04T14:01:17.027Z</time></trkpt><trkpt lat="45.0097733" lon="8.3456667"><ele>230.0</ele><time>2026-04-04T14:01:18.028Z</time></trkpt><trkpt lat="45.0098617" lon="8.3455683"><ele>230.0</ele><time>2026-04-04T14:01:19.029Z</time></trkpt><trkpt lat="45.0099483" lon="8.34547"><ele>230.0</ele><time>2026-04-04T14:01:20.028Z</time></trkpt><trkpt lat="45.010035" lon="8.3453683"><ele>231.25</ele><time>2026-04-04T14:01:21.028Z</time></trkpt><trkpt lat="45.0101233" lon="8.34527"><ele>232.5</ele><time>2026-04-04T14:01:22.027Z</time></trkpt><trkpt lat="45.0102183" lon="8.3451733"><ele>233.75</ele><time>2026-04-04T14:01:23.028Z</time></trkpt><trkpt lat="45.0103167" lon="8.345085"><ele>235.0</ele><time>2026-04-04T14:01:24.029Z</time></trkpt><trkpt lat="45.0104158" lon="8.3449965"><ele>235.0</ele><time>2026-04-04T14:01:25.029Z</time></trkpt><trkpt lat="45.0105149" lon="8.3449119"><ele>235.0</ele><time>2026-04-04T14:01:26.029Z</time></trkpt><trkpt lat="45.0106177" lon="8.3448218"><ele>235.0</ele><time>2026-04-04T14:01:27.028Z</time></trkpt><trkpt lat="45.0107271" lon="8.3447256"><ele>235.0</ele><time>2026-04-04T14:01:28.028Z</time></trkpt><trkpt lat="45.0108726" lon="8.3445919"><ele>237.66666666666666</ele><time>2026-04-04T14:01:29.029Z</time></trkpt><trkpt lat="45.0110125" lon="8.3444643"><ele>240.33333333333331</ele><time>2026-04-04T14:01:30.03Z</time></trkpt><trkpt lat="45.0111448" lon="8.3443465"><ele>243.0</ele><time>2026-04-04T14:01:31.029Z</time></trkpt><trkpt lat="45.0112799" lon="8.344224"><ele>243.0</ele><time>2026-04-04T14:01:32.03Z</time></trkpt><trkpt lat="45.0114072" lon="8.3441086"><ele>243.0</ele><time>2026-04-04T14:01:33.027Z</time></trkpt><trkpt lat="45.0115279" lon="8.3439962"><ele>243.0</ele><time>2026-04-04T14:01:34.028Z</time></trkpt><trkpt lat="45.0116464" lon="8.3438884"><ele>243.0</ele><time>2026-04-04T14:01:35.027Z</time></trkpt><trkpt lat="45.0117614" lon="8.3437859"><ele>244.0</ele><time>2026-04-04T14:01:36.028Z</time></trkpt><trkpt lat="45.0118667" lon="8.3436878"><ele>245.0</ele><time>2026-04-04T14:01:37.028Z</time></trkpt><trkpt lat="45.0119628" lon="8.3435981"><ele>246.0</ele><time>2026-04-04T14:01:38.028Z</time></trkpt><trkpt lat="45.0120508" lon="8.3435141"><ele>247.0</ele><time>2026-04-04T14:01:39.027Z</time></trkpt><trkpt lat="45.0121365" lon="8.3434322"><ele>247.0</ele><time>2026-04-04T14:01:40.028Z</time></trkpt><trkpt lat="45.0122223" lon="8.3433521"><ele>247.0</ele><time>2026-04-04T14:01:41.028Z</time></trkpt><trkpt lat="45.0123074" lon="8.3432723"><ele>247.0</ele><time>2026-04-04T14:01:42.027Z</time></trkpt><trkpt lat="45.0123922" lon="8.3431954"><ele>247.0</ele><time>2026-04-04T14:01:43.027Z</time></trkpt><trkpt lat="45.012474" lon="8.343117"><ele>247.0</ele><time>2026-04-04T14:01:44.028Z</time></trkpt><trkpt lat="45.0125535" lon="8.3430409"><ele>247.6</ele><time>2026-04-04T14:01:45.028Z</time></trkpt><trkpt lat="45.0126254" lon="8.3429692"><ele>248.2</ele><time>2026-04-04T14:01:46.027Z</time></trkpt><trkpt lat="45.0126923" lon="8.3429"><ele>248.8</ele><time>2026-04-04T14:01:47.027Z</time></trkpt><trkpt lat="45.012767" lon="8.3428241"><ele>249.4</ele><time>2026-04-04T14:01:48.028Z</time></trkpt><trkpt lat="45.0128467" lon="8.3427346"><ele>250.0</ele><time>2026-04-04T14:01:49.027Z</time></trkpt><trkpt lat="45.0129303" lon="8.3426343"><ele>250.0</ele><time>2026-04-04T14:01:50.028Z</time></trkpt><trkpt lat="45.0130119" lon="8.3425313"><ele>250.0</ele><time>2026-04-04T14:01:51.029Z</time></trkpt><trkpt lat="45.0130833" lon="8.3424332"><ele>250.0</ele><time>2026-04-04T14:01:52.029Z</time></trkpt><trkpt lat="45.0131509" lon="8.3423497"><ele>250.0</ele><time>2026-04-04T14:01:53.028Z</time></trkpt><trkpt lat="45.0132179" lon="8.3422746"><ele>250.0</ele><time>2026-04-04T14:01:54.028Z</time></trkpt><trkpt lat="45.0132776" lon="8.3422018"><ele>249.83333333333331</ele><time>2026-04-04T14:01:55.029Z</time></trkpt><trkpt lat="45.0133386" lon="8.3421359"><ele>249.66666666666666</ele><time>2026-04-04T14:01:56.028Z</time></trkpt><trkpt lat="45.013404" lon="8.3420788"><ele>249.5</ele><time>2026-04-04T14:01:57.028Z</time></trkpt><trkpt lat="45.013471" lon="8.342031"><ele>249.33333333333331</ele><time>2026-04-04T14:01:58.028Z</time></trkpt><trkpt lat="45.013544" lon="8.3419856"><ele>249.16666666666666</ele><time>2026-04-04T14:01:59.029Z</time></trkpt><trkpt lat="45.0136115" lon="8.3419445"><ele>249.0</ele><time>2026-04-04T14:02:00.029Z</time></trkpt><trkpt lat="45.0136822" lon="8.3419215"><ele>249.0</ele><time>2026-04-04T14:02:01.029Z</time></trkpt><trkpt lat="45.013751" lon="8.3419053"><ele>249.0</ele><time>2026-04-04T14:02:02.027Z</time></trkpt><trkpt lat="45.0138226" lon="8.3418837"><ele>249.0</ele><time>2026-04-04T14:02:03.028Z</time></trkpt><trkpt lat="45.013901" lon="8.3418647"><ele>249.0</ele><time>2026-04-04T14:02:04.029Z</time></trkpt><trkpt lat="45.0139853" lon="8.3418413"><ele>249.0</ele><time>2026-04-04T14:02:05.029Z</time></trkpt><trkpt lat="45.0140762" lon="8.3418173"><ele>249.0</ele><time>2026-04-04T14:02:06.028Z</time></trkpt><trkpt lat="45.0141689" lon="8.3417887"><ele>247.79999999999998</ele><time>2026-04-04T14:02:07.027Z</time></trkpt><trkpt lat="45.0142643" lon="8.3417631"><ele>246.59999999999997</ele><time>2026-04-04T14:02:08.028Z</time></trkpt><trkpt lat="45.014361" lon="8.3417356"><ele>245.4</ele><time>2026-04-04T14:02:09.03Z</time></trkpt><trkpt lat="45.0144555" lon="8.3417042"><ele>244.2</ele><time>2026-04-04T14:02:10.028Z</time></trkpt><trkpt lat="45.0145466" lon="8.3416695"><ele>243.0</ele><time>2026-04-04T14:02:11.028Z</time></trkpt><trkpt lat="45.0146392" lon="8.3416341"><ele>243.0</ele><time>2026-04-04T14:02:12.028Z</time></trkpt><trkpt lat="45.0147324" lon="8.3416013"><ele>243.0</ele><time>2026-04-04T14:02:13.028Z</time></trkpt><trkpt lat="45.0148244" lon="8.3415682"><ele>243.0</ele><time>2026-04-04T14:02:14.028Z</time></trkpt><trkpt lat="45.0149133" lon="8.3415351"><ele>243.0</ele><time>2026-04-04T14:02:15.028Z</time></trkpt><trkpt lat="45.0150015" lon="8.3415034"><ele>243.0</ele><time>2026-04-04T14:02:16.027Z</time></trkpt><trkpt lat="45.0150895" lon="8.3414692"><ele>243.0</ele><time>2026-04-04T14:02:17.028Z</time></trkpt><trkpt lat="45.0151775" lon="8.3414354"><ele>243.0</ele><time>2026-04-04T14:02:18.027Z</time></trkpt><trkpt lat="45.0152659" lon="8.341405"><ele>243.0</ele><time>2026-04-04T14:02:19.028Z</time></trkpt><trkpt lat="45.0153555" lon="8.341383"><ele>243.0</ele><time>2026-04-04T14:02:20.029Z</time></trkpt><trkpt lat="45.0154443" lon="8.3413609"><ele>243.0</ele><time>2026-04-04T14:02:21.029Z</time></trkpt><trkpt lat="45.0155326" lon="8.34134"><ele>242.16666666666666</ele><time>2026-04-04T14:02:22.03Z</time></trkpt><trkpt lat="45.0156208" lon="8.3413203"><ele>241.33333333333331</ele><time>2026-04-04T14:02:23.028Z</time></trkpt><trkpt lat="45.015709" lon="8.3413007"><ele>240.5</ele><time>2026-04-04T14:02:24.03Z</time></trkpt><trkpt lat="45.0157971" lon="8.3412834"><ele>239.66666666666666</ele><time>2026-04-04T14:02:25.027Z</time></trkpt><trkpt lat="45.0158831" lon="8.341267"><ele>238.83333333333331</ele><time>2026-04-04T14:02:26.031Z</time></trkpt><trkpt lat="45.015967" lon="8.3412544"><ele>238.0</ele><time>2026-04-04T14:02:27.03Z</time></trkpt><trkpt lat="45.0160491" lon="8.341243"><ele>237.99999999999997</ele><time>2026-04-04T14:02:28.029Z</time></trkpt><trkpt lat="45.0161321" lon="8.3412358"><ele>238.0</ele><time>2026-04-04T14:02:29.03Z</time></trkpt><trkpt lat="45.0162166" lon="8.3412291"><ele>238.0</ele><time>2026-04-04T14:02:30.03Z</time></trkpt><trkpt lat="45.0163016" lon="8.3412181"><ele>238.0</ele><time>2026-04-04T14:02:31.031Z</time></trkpt><trkpt lat="45.0163867" lon="8.3412083"><ele>237.99999999999997</ele><time>2026-04-04T14:02:32.029Z</time></trkpt><trkpt lat="45.01647" lon="8.3411917"><ele>238.0</ele><time>2026-04-04T14:02:33.03Z</time></trkpt><trkpt lat="45.0165567" lon="8.341175"><ele>237.99999999999997</ele><time>2026-04-04T14:02:34.029Z</time></trkpt><trkpt lat="45.0166433" lon="8.34115"><ele>238.0</ele><time>2026-04-04T14:02:35.03Z</time></trkpt><trkpt lat="45.016725" lon="8.3411167"><ele>238.0</ele><time>2026-04-04T14:02:36.029Z</time></trkpt><trkpt lat="45.0168033" lon="8.3410767"><ele>238.0</ele><time>2026-04-04T14:02:37.03Z</time></trkpt><trkpt lat="45.0168817" lon="8.34103"><ele>237.99999999999997</ele><time>2026-04-04T14:02:38.029Z</time></trkpt><trkpt lat="45.0169533" lon="8.3409833"><ele>238.0</ele><time>2026-04-04T14:02:39.031Z</time></trkpt><trkpt lat="45.0170283" lon="8.340935"><ele>238.83333333333331</ele><time>2026-04-04T14:02:40.03Z</time></trkpt><trkpt lat="45.0171017" lon="8.34089"><ele>239.66666666666666</ele><time>2026-04-04T14:02:41.029Z</time></trkpt><trkpt lat="45.017175" lon="8.34084"><ele>240.5</ele><time>2026-04-04T14:02:42.029Z</time></trkpt><trkpt lat="45.0172517" lon="8.34079"><ele>241.33333333333331</ele><time>2026-04-04T14:02:43.029Z</time></trkpt><trkpt lat="45.017325" lon="8.3407417"><ele>242.16666666666666</ele><time>2026-04-04T14:02:44.035Z</time></trkpt><trkpt lat="45.017395" lon="8.3407017"><ele>243.0</ele><time>2026-04-04T14:02:45.03Z</time></trkpt><trkpt lat="45.017455" lon="8.3406717"><ele>243.0</ele><time>2026-04-04T14:02:46.029Z</time></trkpt><trkpt lat="45.017545" lon="8.3406383"><ele>243.0</ele><time>2026-04-04T14:02:48.029Z</time></trkpt><trkpt lat="45.0176233" lon="8.3406967"><ele>243.0</ele><time>2026-04-04T14:02:51.031Z</time></trkpt><trkpt lat="45.0176333" lon="8.3408467"><ele>243.0</ele><time>2026-04-04T14:03:34.029Z</time></trkpt><trkpt lat="45.0176633" lon="8.3409267"><ele>243.0</ele><time>2026-04-04T14:03:36.03Z</time></trkpt><trkpt lat="45.017705" lon="8.3410333"><ele>243.0</ele><time>2026-04-04T14:03:38.03Z</time></trkpt><trkpt lat="45.0177533" lon="8.341175"><ele>243.0</ele><time>2026-04-04T14:03:40.03Z</time></trkpt><trkpt lat="45.0177917" lon="8.3413367"><ele>243.0</ele><time>2026-04-04T14:03:42.029Z</time></trkpt><trkpt lat="45.0178133" lon="8.341425"><ele>243.0</ele><time>2026-04-04T14:03:43.032Z</time></trkpt><trkpt lat="45.0178383" lon="8.3415183"><ele>243.0</ele><time>2026-04-04T14:03:44.03Z</time></trkpt><trkpt lat="45.01786" lon="8.34161"><ele>243.0</ele><time>2026-04-04T14:03:45.03Z</time></trkpt><trkpt lat="45.0178833" lon="8.3417033"><ele>243.0</ele><time>2026-04-04T14:03:46.029Z</time></trkpt><trkpt lat="45.0179083" lon="8.34179"><ele>242.42857142857142</ele><time>2026-04-04T14:03:47.029Z</time></trkpt><trkpt lat="45.01794" lon="8.3418717"><ele>241.8571428571429</ele><time>2026-04-04T14:03:48.03Z</time></trkpt><trkpt lat="45.0179733" lon="8.34195"><ele>241.2857142857143</ele><time>2026-04-04T14:03:49.028Z</time></trkpt><trkpt lat="45.0180183" lon="8.3420183"><ele>240.71428571428572</ele><time>2026-04-04T14:03:50.029Z</time></trkpt><trkpt lat="45.01807" lon="8.3420833"><ele>240.14285714285717</ele><time>2026-04-04T14:03:51.031Z</time></trkpt><trkpt lat="45.018125" lon="8.3421417"><ele>239.5714285714286</ele><time>2026-04-04T14:03:52.029Z</time></trkpt><trkpt lat="45.01819" lon="8.342195"><ele>239.00000000000003</ele><time>2026-04-04T14:03:53.029Z</time></trkpt><trkpt lat="45.018255" lon="8.34225"><ele>237.50000000000003</ele><time>2026-04-04T14:03:54.029Z</time></trkpt><trkpt lat="45.0183233" lon="8.3423033"><ele>236.0</ele><time>2026-04-04T14:03:55.03Z</time></trkpt><trkpt lat="45.01839" lon="8.34235"><ele>234.5</ele><time>2026-04-04T14:03:56.031Z</time></trkpt><trkpt lat="45.0184583" lon="8.342395"><ele>233.0</ele><time>2026-04-04T14:03:57.032Z</time></trkpt><trkpt lat="45.0185283" lon="8.3424433"><ele>231.50000000000003</ele><time>2026-04-04T14:03:58.03Z</time></trkpt><trkpt lat="45.0186017" lon="8.3424933"><ele>230.0</ele><time>2026-04-04T14:03:59.029Z</time></trkpt><trkpt lat="45.0186733" lon="8.3425467"><ele>230.00000000000003</ele><time>2026-04-04T14:04:00.03Z</time></trkpt><trkpt lat="45.0187417" lon="8.3426"><ele>230.0</ele><time>2026-04-04T14:04:01.032Z</time></trkpt><trkpt lat="45.0188083" lon="8.34266"><ele>230.0</ele><time>2026-04-04T14:04:02.029Z</time></trkpt><trkpt lat="45.0188733" lon="8.3427283"><ele>230.0</ele><time>2026-04-04T14:04:03.029Z</time></trkpt><trkpt lat="45.0189333" lon="8.3427983"><ele>230.00000000000003</ele><time>2026-04-04T14:04:04.029Z</time></trkpt><trkpt lat="45.0189883" lon="8.3428733"><ele>230.0</ele><time>2026-04-04T14:04:05.03Z</time></trkpt><trkpt lat="45.0190417" lon="8.3429567"><ele>229.83333333333334</ele><time>2026-04-04T14:04:06.03Z</time></trkpt><trkpt lat="45.0190833" lon="8.343055"><ele>229.66666666666669</ele><time>2026-04-04T14:04:07.031Z</time></trkpt><trkpt lat="45.0191167" lon="8.3431633"><ele>229.5</ele><time>2026-04-04T14:04:08.035Z</time></trkpt><trkpt lat="45.0191433" lon="8.34328"><ele>229.33333333333331</ele><time>2026-04-04T14:04:09.03Z</time></trkpt><trkpt lat="45.0191633" lon="8.3433967"><ele>229.16666666666666</ele><time>2026-04-04T14:04:10.03Z</time></trkpt><trkpt lat="45.0191833" lon="8.3435167"><ele>229.0</ele><time>2026-04-04T14:04:11.03Z</time></trkpt><trkpt lat="45.019205" lon="8.3436267"><ele>228.99999999999997</ele><time>2026-04-04T14:04:12.03Z</time></trkpt><trkpt lat="45.01922" lon="8.3437233"><ele>229.0</ele><time>2026-04-04T14:04:13.031Z</time></trkpt><trkpt lat="45.019235" lon="8.3438233"><ele>229.0</ele><time>2026-04-04T14:04:14.03Z</time></trkpt><trkpt lat="45.0192483" lon="8.3439267"><ele>229.0</ele><time>2026-04-04T14:04:15.031Z</time></trkpt><trkpt lat="45.0192583" lon="8.34402"><ele>228.99999999999997</ele><time>2026-04-04T14:04:16.029Z</time></trkpt><trkpt lat="45.0192667" lon="8.3441083"><ele>229.0</ele><time>2026-04-04T14:04:17.03Z</time></trkpt><trkpt lat="45.0192767" lon="8.3442733"><ele>228.83333333333331</ele><time>2026-04-04T14:04:19.03Z</time></trkpt><trkpt lat="45.01928" lon="8.3444433"><ele>228.66666666666666</ele><time>2026-04-04T14:04:21.03Z</time></trkpt><trkpt lat="45.019285" lon="8.34454"><ele>228.5</ele><time>2026-04-04T14:04:22.031Z</time></trkpt><trkpt lat="45.01929" lon="8.34464"><ele>228.33333333333331</ele><time>2026-04-04T14:04:23.029Z</time></trkpt><trkpt lat="45.0192967" lon="8.3447467"><ele>228.16666666666666</ele><time>2026-04-04T14:04:24.03Z</time></trkpt><trkpt lat="45.0193051" lon="8.3448603"><ele>228.0</ele><time>2026-04-04T14:04:25.031Z</time></trkpt><trkpt lat="45.0193097" lon="8.3449785"><ele>227.83333333333334</ele><time>2026-04-04T14:04:26.031Z</time></trkpt><trkpt lat="45.0193163" lon="8.3450901"><ele>227.66666666666669</ele><time>2026-04-04T14:04:27.029Z</time></trkpt><trkpt lat="45.0193222" lon="8.3451922"><ele>227.5</ele><time>2026-04-04T14:04:28.03Z</time></trkpt><trkpt lat="45.0193288" lon="8.3452854"><ele>227.33333333333334</ele><time>2026-04-04T14:04:29.03Z</time></trkpt><trkpt lat="45.0193441" lon="8.34547"><ele>227.16666666666669</ele><time>2026-04-04T14:04:31.03Z</time></trkpt><trkpt lat="45.0193577" lon="8.3455777"><ele>227.0</ele><time>2026-04-04T14:04:32.029Z</time></trkpt><trkpt lat="45.0193762" lon="8.3456926"><ele>227.00000000000003</ele><time>2026-04-04T14:04:33.032Z</time></trkpt><trkpt lat="45.0193953" lon="8.3458072"><ele>227.0</ele><time>2026-04-04T14:04:34.03Z</time></trkpt><trkpt lat="45.0194194" lon="8.3459172"><ele>227.0</ele><time>2026-04-04T14:04:35.03Z</time></trkpt><trkpt lat="45.0194451" lon="8.3460252"><ele>227.0</ele><time>2026-04-04T14:04:36.031Z</time></trkpt><trkpt lat="45.0194769" lon="8.3461289"><ele>227.00000000000003</ele><time>2026-04-04T14:04:37.029Z</time></trkpt><trkpt lat="45.0195175" lon="8.3462391"><ele>227.0</ele><time>2026-04-04T14:04:38.03Z</time></trkpt><trkpt lat="45.0195556" lon="8.3463372"><ele>226.71428571428572</ele><time>2026-04-04T14:04:39.03Z</time></trkpt><trkpt lat="45.0195955" lon="8.3464348"><ele>226.42857142857144</ele><time>2026-04-04T14:04:40.028Z</time></trkpt><trkpt lat="45.019635" lon="8.3465227"><ele>226.14285714285717</ele><time>2026-04-04T14:04:41.032Z</time></trkpt><trkpt lat="45.01967" lon="8.3466101"><ele>225.8571428571429</ele><time>2026-04-04T14:04:42.03Z</time></trkpt><trkpt lat="45.0197027" lon="8.3466995"><ele>225.57142857142858</ele><time>2026-04-04T14:04:43.029Z</time></trkpt><trkpt lat="45.0197407" lon="8.3467906"><ele>225.28571428571433</ele><time>2026-04-04T14:04:44.031Z</time></trkpt><trkpt lat="45.0197806" lon="8.346879"><ele>225.00000000000003</ele><time>2026-04-04T14:04:45.031Z</time></trkpt><trkpt lat="45.0198217" lon="8.3469743"><ele>225.0</ele><time>2026-04-04T14:04:46.028Z</time></trkpt><trkpt lat="45.0198619" lon="8.3470713"><ele>225.0</ele><time>2026-04-04T14:04:47.028Z</time></trkpt><trkpt lat="45.0199032" lon="8.3471709"><ele>225.0</ele><time>2026-04-04T14:04:48.031Z</time></trkpt><trkpt lat="45.0199451" lon="8.3472697"><ele>225.0</ele><time>2026-04-04T14:04:49.031Z</time></trkpt><trkpt lat="45.0199874" lon="8.3473639"><ele>225.0</ele><time>2026-04-04T14:04:50.03Z</time></trkpt><trkpt lat="45.0200297" lon="8.3474516"><ele>225.0</ele><time>2026-04-04T14:04:51.03Z</time></trkpt><trkpt lat="45.0200741" lon="8.3475375"><ele>226.14285714285717</ele><time>2026-04-04T14:04:52.031Z</time></trkpt><trkpt lat="45.0201176" lon="8.3476221"><ele>227.28571428571428</ele><time>2026-04-04T14:04:53.03Z</time></trkpt><trkpt lat="45.0201613" lon="8.347704"><ele>228.42857142857144</ele><time>2026-04-04T14:04:54.03Z</time></trkpt><trkpt lat="45.0202105" lon="8.3477782"><ele>229.57142857142858</ele><time>2026-04-04T14:04:55.032Z</time></trkpt><trkpt lat="45.0202665" lon="8.3478437"><ele>230.71428571428572</ele><time>2026-04-04T14:04:56.03Z</time></trkpt><trkpt lat="45.0203242" lon="8.3478995"><ele>231.85714285714286</ele><time>2026-04-04T14:04:57.031Z</time></trkpt><trkpt lat="45.0203816" lon="8.3479452"><ele>233.0</ele><time>2026-04-04T14:04:58.029Z</time></trkpt><trkpt lat="45.0204504" lon="8.3479883"><ele>233.00000000000003</ele><time>2026-04-04T14:04:59.03Z</time></trkpt><trkpt lat="45.0205267" lon="8.3480308"><ele>233.0</ele><time>2026-04-04T14:05:00.029Z</time></trkpt><trkpt lat="45.0206015" lon="8.3480707"><ele>233.0</ele><time>2026-04-04T14:05:01.03Z</time></trkpt><trkpt lat="45.0206685" lon="8.3481031"><ele>233.0</ele><time>2026-04-04T14:05:02.03Z</time></trkpt><trkpt lat="45.0207607" lon="8.348148"><ele>233.00000000000003</ele><time>2026-04-04T14:05:04.028Z</time></trkpt><trkpt lat="45.0208428" lon="8.348162"><ele>233.0</ele><time>2026-04-04T14:05:07.028Z</time></trkpt><trkpt lat="45.0208992" lon="8.3481008"><ele>234.60000000000002</ele><time>2026-04-04T14:05:09.028Z</time></trkpt><trkpt lat="45.0209326" lon="8.3479755"><ele>236.20000000000002</ele><time>2026-04-04T14:05:11.028Z</time></trkpt><trkpt lat="45.0209693" lon="8.3478305"><ele>237.8</ele><time>2026-04-04T14:05:13.028Z</time></trkpt><trkpt lat="45.02102" lon="8.3476886"><ele>239.4</ele><time>2026-04-04T14:05:15.029Z</time></trkpt><trkpt lat="45.0210523" lon="8.3476106"><ele>241.0</ele><time>2026-04-04T14:05:16.027Z</time></trkpt><trkpt lat="45.0210836" lon="8.3475205"><ele>241.0</ele><time>2026-04-04T14:05:17.027Z</time></trkpt><trkpt lat="45.0211113" lon="8.347425"><ele>241.00000000000003</ele><time>2026-04-04T14:05:18.027Z</time></trkpt><trkpt lat="45.0211326" lon="8.3473246"><ele>241.0</ele><time>2026-04-04T14:05:19.029Z</time></trkpt><trkpt lat="45.0211535" lon="8.3472212"><ele>241.0</ele><time>2026-04-04T14:05:20.028Z</time></trkpt><trkpt lat="45.0211773" lon="8.3471215"><ele>241.00000000000003</ele><time>2026-04-04T14:05:21.028Z</time></trkpt><trkpt lat="45.0212021" lon="8.3470213"><ele>241.0</ele><time>2026-04-04T14:05:22.028Z</time></trkpt><trkpt lat="45.0212275" lon="8.3469208"><ele>241.0</ele><time>2026-04-04T14:05:23.028Z</time></trkpt><trkpt lat="45.0212542" lon="8.3468205"><ele>241.42857142857144</ele><time>2026-04-04T14:05:24.028Z</time></trkpt><trkpt lat="45.0212758" lon="8.3467273"><ele>241.8571428571429</ele><time>2026-04-04T14:05:25.027Z</time></trkpt><trkpt lat="45.0212928" lon="8.3466401"><ele>242.28571428571428</ele><time>2026-04-04T14:05:26.028Z</time></trkpt><trkpt lat="45.0213119" lon="8.3465522"><ele>242.71428571428572</ele><time>2026-04-04T14:05:27.028Z</time></trkpt><trkpt lat="45.0213345" lon="8.3464546"><ele>243.14285714285714</ele><time>2026-04-04T14:05:28.029Z</time></trkpt><trkpt lat="45.0213579" lon="8.3463529"><ele>243.57142857142856</ele><time>2026-04-04T14:05:29.027Z</time></trkpt><trkpt lat="45.0213814" lon="8.3462437"><ele>243.99999999999997</ele><time>2026-04-04T14:05:30.028Z</time></trkpt><trkpt lat="45.0214074" lon="8.3461265"><ele>244.16666666666666</ele><time>2026-04-04T14:05:31.029Z</time></trkpt><trkpt lat="45.0214328" lon="8.346013"><ele>244.33333333333331</ele><time>2026-04-04T14:05:32.029Z</time></trkpt><trkpt lat="45.0214553" lon="8.3459052"><ele>244.5</ele><time>2026-04-04T14:05:33.028Z</time></trkpt><trkpt lat="45.0214741" lon="8.3458125"><ele>244.66666666666669</ele><time>2026-04-04T14:05:34.027Z</time></trkpt><trkpt lat="45.0214997" lon="8.3456904"><ele>244.83333333333334</ele><time>2026-04-04T14:05:36.028Z</time></trkpt><trkpt lat="45.0215287" lon="8.345571"><ele>245.0</ele><time>2026-04-04T14:05:39.029Z</time></trkpt><trkpt lat="45.0215593" lon="8.3454398"><ele>245.2</ele><time>2026-04-04T14:05:41.028Z</time></trkpt><trkpt lat="45.0216083" lon="8.3452851"><ele>245.4</ele><time>2026-04-04T14:05:43.029Z</time></trkpt><trkpt lat="45.0216576" lon="8.3451471"><ele>245.60000000000002</ele><time>2026-04-04T14:05:45.028Z</time></trkpt><trkpt lat="45.0216962" lon="8.3450245"><ele>245.8</ele><time>2026-04-04T14:05:47.029Z</time></trkpt><trkpt lat="45.0217379" lon="8.344941"><ele>246.0</ele><time>2026-04-04T14:05:49.027Z</time></trkpt><trkpt lat="45.0218073" lon="8.3448995"><ele>246.5</ele><time>2026-04-04T14:05:51.027Z</time></trkpt><trkpt lat="45.021893" lon="8.3449161"><ele>247.0</ele><time>2026-04-04T14:05:53.03Z</time></trkpt><trkpt lat="45.0219703" lon="8.3449412"><ele>247.5</ele><time>2026-04-04T14:05:55.03Z</time></trkpt><trkpt lat="45.0220545" lon="8.3449463"><ele>248.0</ele><time>2026-04-04T14:05:57.029Z</time></trkpt><trkpt lat="45.0221665" lon="8.3449374"><ele>248.5</ele><time>2026-04-04T14:05:59.029Z</time></trkpt><trkpt lat="45.0222352" lon="8.3449207"><ele>249.0</ele><time>2026-04-04T14:06:00.029Z</time></trkpt><trkpt lat="45.0223116" lon="8.3449014"><ele>249.0</ele><time>2026-04-04T14:06:01.03Z</time></trkpt><trkpt lat="45.0223948" lon="8.3448766"><ele>249.0</ele><time>2026-04-04T14:06:02.028Z</time></trkpt><trkpt lat="45.0224744" lon="8.3448507"><ele>249.0</ele><time>2026-04-04T14:06:03.03Z</time></trkpt><trkpt lat="45.0225534" lon="8.3448268"><ele>249.0</ele><time>2026-04-04T14:06:04.029Z</time></trkpt><trkpt lat="45.0226325" lon="8.3448048"><ele>249.0</ele><time>2026-04-04T14:06:05.03Z</time></trkpt><trkpt lat="45.0227167" lon="8.3447783"><ele>249.0</ele><time>2026-04-04T14:06:06.03Z</time></trkpt><trkpt lat="45.0228033" lon="8.3447483"><ele>248.66666666666666</ele><time>2026-04-04T14:06:07.028Z</time></trkpt><trkpt lat="45.0228867" lon="8.34472"><ele>248.33333333333331</ele><time>2026-04-04T14:06:08.028Z</time></trkpt><trkpt lat="45.0229667" lon="8.3446933"><ele>248.0</ele><time>2026-04-04T14:06:09.029Z</time></trkpt><trkpt lat="45.0230483" lon="8.3446683"><ele>247.66666666666666</ele><time>2026-04-04T14:06:10.029Z</time></trkpt><trkpt lat="45.023135" lon="8.344645"><ele>247.33333333333331</ele><time>2026-04-04T14:06:11.029Z</time></trkpt><trkpt lat="45.023225" lon="8.344625"><ele>247.0</ele><time>2026-04-04T14:06:12.028Z</time></trkpt><trkpt lat="45.0233133" lon="8.3446083"><ele>249.2</ele><time>2026-04-04T14:06:13.03Z</time></trkpt><trkpt lat="45.0234017" lon="8.3445917"><ele>251.39999999999998</ele><time>2026-04-04T14:06:14.029Z</time></trkpt><trkpt lat="45.02349" lon="8.34457"><ele>253.60000000000002</ele><time>2026-04-04T14:06:15.03Z</time></trkpt><trkpt lat="45.0235833" lon="8.3445467"><ele>255.8</ele><time>2026-04-04T14:06:16.028Z</time></trkpt><trkpt lat="45.02368" lon="8.3445233"><ele>258.0</ele><time>2026-04-04T14:06:17.029Z</time></trkpt><trkpt lat="45.023775" lon="8.3444983"><ele>258.0</ele><time>2026-04-04T14:06:18.03Z</time></trkpt><trkpt lat="45.0238717" lon="8.3444717"><ele>258.0</ele><time>2026-04-04T14:06:19.028Z</time></trkpt><trkpt lat="45.023965" lon="8.3444467"><ele>258.0</ele><time>2026-04-04T14:06:20.029Z</time></trkpt><trkpt lat="45.0240567" lon="8.34442"><ele>258.0</ele><time>2026-04-04T14:06:21.029Z</time></trkpt><trkpt lat="45.0241417" lon="8.3443933"><ele>258.0</ele><time>2026-04-04T14:06:22.03Z</time></trkpt><trkpt lat="45.02422" lon="8.3443683"><ele>257.1666666666667</ele><time>2026-04-04T14:06:23.028Z</time></trkpt><trkpt lat="45.0242967" lon="8.344345"><ele>256.3333333333333</ele><time>2026-04-04T14:06:24.028Z</time></trkpt><trkpt lat="45.0243783" lon="8.3443233"><ele>255.5</ele><time>2026-04-04T14:06:25.029Z</time></trkpt><trkpt lat="45.0244583" lon="8.344305"><ele>254.66666666666666</ele><time>2026-04-04T14:06:26.03Z</time></trkpt><trkpt lat="45.0245367" lon="8.3442883"><ele>253.83333333333331</ele><time>2026-04-04T14:06:27.029Z</time></trkpt><trkpt lat="45.02462" lon="8.3442667"><ele>253.0</ele><time>2026-04-04T14:06:28.028Z</time></trkpt><trkpt lat="45.0246983" lon="8.3442383"><ele>252.99999999999997</ele><time>2026-04-04T14:06:29.029Z</time></trkpt><trkpt lat="45.0247783" lon="8.3442017"><ele>253.0</ele><time>2026-04-04T14:06:30.03Z</time></trkpt><trkpt lat="45.0248533" lon="8.3441583"><ele>253.0</ele><time>2026-04-04T14:06:31.028Z</time></trkpt><trkpt lat="45.02492" lon="8.3441083"><ele>253.0</ele><time>2026-04-04T14:06:32.029Z</time></trkpt><trkpt lat="45.0250017" lon="8.3440517"><ele>252.99999999999997</ele><time>2026-04-04T14:06:33.029Z</time></trkpt><trkpt lat="45.0250967" lon="8.3439917"><ele>253.0</ele><time>2026-04-04T14:06:34.029Z</time></trkpt><trkpt lat="45.0251867" lon="8.3439367"><ele>252.60000000000002</ele><time>2026-04-04T14:06:35.029Z</time></trkpt><trkpt lat="45.0252767" lon="8.3438867"><ele>252.20000000000002</ele><time>2026-04-04T14:06:36.029Z</time></trkpt><trkpt lat="45.0253583" lon="8.3438367"><ele>251.8</ele><time>2026-04-04T14:06:37.028Z</time></trkpt><trkpt lat="45.0254383" lon="8.34378"><ele>251.4</ele><time>2026-04-04T14:06:38.03Z</time></trkpt><trkpt lat="45.025515" lon="8.3437133"><ele>251.0</ele><time>2026-04-04T14:06:39.029Z</time></trkpt><trkpt lat="45.0255933" lon="8.343635"><ele>252.83333333333334</ele><time>2026-04-04T14:06:40.029Z</time></trkpt><trkpt lat="45.0256599" lon="8.3435404"><ele>254.66666666666669</ele><time>2026-04-04T14:06:41.028Z</time></trkpt><trkpt lat="45.025715" lon="8.343436"><ele>256.5</ele><time>2026-04-04T14:06:42.029Z</time></trkpt><trkpt lat="45.0257527" lon="8.3433296"><ele>258.3333333333333</ele><time>2026-04-04T14:06:43.029Z</time></trkpt><trkpt lat="45.0257792" lon="8.3432265"><ele>260.16666666666663</ele><time>2026-04-04T14:06:44.029Z</time></trkpt><trkpt lat="45.0257994" lon="8.3431204"><ele>262.0</ele><time>2026-04-04T14:06:45.028Z</time></trkpt><trkpt lat="45.0258204" lon="8.3430243"><ele>262.0</ele><time>2026-04-04T14:06:46.03Z</time></trkpt><trkpt lat="45.0258817" lon="8.342878"><ele>262.0</ele><time>2026-04-04T14:06:48.029Z</time></trkpt><trkpt lat="45.0259934" lon="8.3427478"><ele>262.0</ele><time>2026-04-04T14:06:50.029Z</time></trkpt><trkpt lat="45.0260669" lon="8.3426636"><ele>262.0</ele><time>2026-04-04T14:06:51.03Z</time></trkpt><trkpt lat="45.0261433" lon="8.3425648"><ele>262.0</ele><time>2026-04-04T14:06:52.03Z</time></trkpt><trkpt lat="45.0262211" lon="8.3424567"><ele>262.0</ele><time>2026-04-04T14:06:53.028Z</time></trkpt><trkpt lat="45.0262951" lon="8.3423431"><ele>262.0</ele><time>2026-04-04T14:06:54.029Z</time></trkpt><trkpt lat="45.0263711" lon="8.342223"><ele>262.0</ele><time>2026-04-04T14:06:55.029Z</time></trkpt><trkpt lat="45.0264471" lon="8.3421021"><ele>262.0</ele><time>2026-04-04T14:06:56.029Z</time></trkpt><trkpt lat="45.0265175" lon="8.3419869"><ele>261.4</ele><time>2026-04-04T14:06:57.03Z</time></trkpt><trkpt lat="45.0265814" lon="8.3418795"><ele>260.79999999999995</ele><time>2026-04-04T14:06:58.029Z</time></trkpt><trkpt lat="45.0266476" lon="8.3417807"><ele>260.2</ele><time>2026-04-04T14:06:59.029Z</time></trkpt><trkpt lat="45.0267209" lon="8.3417013"><ele>259.59999999999997</ele><time>2026-04-04T14:07:00.03Z</time></trkpt><trkpt lat="45.0267973" lon="8.341638"><ele>259.0</ele><time>2026-04-04T14:07:01.03Z</time></trkpt><trkpt lat="45.0268708" lon="8.3415788"><ele>258.8</ele><time>2026-04-04T14:07:02.029Z</time></trkpt><trkpt lat="45.026943" lon="8.3415139"><ele>258.59999999999997</ele><time>2026-04-04T14:07:03.028Z</time></trkpt><trkpt lat="45.0270167" lon="8.3414461"><ele>258.4</ele><time>2026-04-04T14:07:04.029Z</time></trkpt><trkpt lat="45.0270893" lon="8.3413779"><ele>258.2</ele><time>2026-04-04T14:07:05.029Z</time></trkpt><trkpt lat="45.0271662" lon="8.3412998"><ele>258.0</ele><time>2026-04-04T14:07:06.029Z</time></trkpt><trkpt lat="45.0272393" lon="8.341212"><ele>258.0</ele><time>2026-04-04T14:07:07.028Z</time></trkpt><trkpt lat="45.0273075" lon="8.3411236"><ele>258.0</ele><time>2026-04-04T14:07:08.03Z</time></trkpt><trkpt lat="45.0273766" lon="8.3410435"><ele>258.0</ele><time>2026-04-04T14:07:09.03Z</time></trkpt><trkpt lat="45.02745" lon="8.3409727"><ele>258.0</ele><time>2026-04-04T14:07:10.029Z</time></trkpt><trkpt lat="45.0275197" lon="8.340906"><ele>258.0</ele><time>2026-04-04T14:07:11.029Z</time></trkpt><trkpt lat="45.027581" lon="8.3408379"><ele>258.0</ele><time>2026-04-04T14:07:12.029Z</time></trkpt><trkpt lat="45.0276363" lon="8.3407621"><ele>259.5</ele><time>2026-04-04T14:07:13.029Z</time></trkpt><trkpt lat="45.0276783" lon="8.3406716"><ele>261.0</ele><time>2026-04-04T14:07:14.029Z</time></trkpt><trkpt lat="45.0277051" lon="8.3405789"><ele>262.5</ele><time>2026-04-04T14:07:15.03Z</time></trkpt><trkpt lat="45.0277278" lon="8.3404866"><ele>264.0</ele><time>2026-04-04T14:07:16.029Z</time></trkpt><trkpt lat="45.0277577" lon="8.3403903"><ele>265.5</ele><time>2026-04-04T14:07:17.028Z</time></trkpt><trkpt lat="45.0277941" lon="8.3402784"><ele>267.0</ele><time>2026-04-04T14:07:18.03Z</time></trkpt><trkpt lat="45.0278315" lon="8.3401664"><ele>267.3333333333333</ele><time>2026-04-04T14:07:19.028Z</time></trkpt><trkpt lat="45.0278647" lon="8.3400639"><ele>267.6666666666667</ele><time>2026-04-04T14:07:20.029Z</time></trkpt><trkpt lat="45.0278972" lon="8.3399374"><ele>268.0</ele><time>2026-04-04T14:07:22.03Z</time></trkpt><trkpt lat="45.0279433" lon="8.339845"><ele>268.33333333333337</ele><time>2026-04-04T14:07:51.03Z</time></trkpt><trkpt lat="45.027985" lon="8.339735"><ele>268.6666666666667</ele><time>2026-04-04T14:07:53.03Z</time></trkpt><trkpt lat="45.0280267" lon="8.3396289"><ele>269.0</ele><time>2026-04-04T14:07:55.029Z</time></trkpt><trkpt lat="45.028061" lon="8.3395532"><ele>269.0</ele><time>2026-04-04T14:07:56.034Z</time></trkpt><trkpt lat="45.028128" lon="8.3394194"><ele>269.0</ele><time>2026-04-04T14:07:58.03Z</time></trkpt><trkpt lat="45.0281918" lon="8.339298"><ele>269.0</ele><time>2026-04-04T14:08:00.029Z</time></trkpt><trkpt lat="45.0282618" lon="8.3391682"><ele>269.0</ele><time>2026-04-04T14:08:02.031Z</time></trkpt><trkpt lat="45.0283042" lon="8.3391004"><ele>269.0</ele><time>2026-04-04T14:08:03.03Z</time></trkpt><trkpt lat="45.0283515" lon="8.3390265"><ele>269.0</ele><time>2026-04-04T14:08:04.028Z</time></trkpt><trkpt lat="45.0283969" lon="8.3389508"><ele>269.0</ele><time>2026-04-04T14:08:05.028Z</time></trkpt><trkpt lat="45.0284673" lon="8.3388245"><ele>269.0</ele><time>2026-04-04T14:08:07.029Z</time></trkpt><trkpt lat="45.0285165" lon="8.3387114"><ele>269.0</ele><time>2026-04-04T14:08:09.029Z</time></trkpt><trkpt lat="45.0285615" lon="8.3385903"><ele>269.0</ele><time>2026-04-04T14:08:11.03Z</time></trkpt><trkpt lat="45.0286037" lon="8.3384291"><ele>268.2857142857143</ele><time>2026-04-04T14:08:13.031Z</time></trkpt><trkpt lat="45.0286185" lon="8.3383392"><ele>267.5714285714286</ele><time>2026-04-04T14:08:14.029Z</time></trkpt><trkpt lat="45.0286317" lon="8.3382474"><ele>266.8571428571429</ele><time>2026-04-04T14:08:15.031Z</time></trkpt><trkpt lat="45.0286544" lon="8.3381619"><ele>266.14285714285717</ele><time>2026-04-04T14:08:16.034Z</time></trkpt><trkpt lat="45.0286784" lon="8.3380791"><ele>265.42857142857144</ele><time>2026-04-04T14:08:17.029Z</time></trkpt><trkpt lat="45.0287006" lon="8.3379908"><ele>264.7142857142857</ele><time>2026-04-04T14:08:18.03Z</time></trkpt><trkpt lat="45.0287257" lon="8.3378965"><ele>264.0</ele><time>2026-04-04T14:08:19.031Z</time></trkpt><trkpt lat="45.0287477" lon="8.3378025"><ele>262.42857142857144</ele><time>2026-04-04T14:08:20.031Z</time></trkpt><trkpt lat="45.0287692" lon="8.3377101"><ele>260.8571428571429</ele><time>2026-04-04T14:08:21.03Z</time></trkpt><trkpt lat="45.0287889" lon="8.3376158"><ele>259.28571428571433</ele><time>2026-04-04T14:08:22.029Z</time></trkpt><trkpt lat="45.0288122" lon="8.3375223"><ele>257.7142857142857</ele><time>2026-04-04T14:08:23.029Z</time></trkpt><trkpt lat="45.0288426" lon="8.3374303"><ele>256.14285714285717</ele><time>2026-04-04T14:08:24.03Z</time></trkpt><trkpt lat="45.028875" lon="8.3373359"><ele>254.5714285714286</ele><time>2026-04-04T14:08:25.032Z</time></trkpt><trkpt lat="45.0289126" lon="8.3372383"><ele>253.00000000000003</ele><time>2026-04-04T14:08:26.03Z</time></trkpt><trkpt lat="45.028951" lon="8.337141"><ele>251.5714285714286</ele><time>2026-04-04T14:08:27.029Z</time></trkpt><trkpt lat="45.0289834" lon="8.337048"><ele>250.14285714285717</ele><time>2026-04-04T14:08:28.03Z</time></trkpt><trkpt lat="45.0290107" lon="8.3369536"><ele>248.71428571428572</ele><time>2026-04-04T14:08:29.03Z</time></trkpt><trkpt lat="45.0290345" lon="8.3368658"><ele>247.2857142857143</ele><time>2026-04-04T14:08:30.029Z</time></trkpt><trkpt lat="45.0290574" lon="8.3367763"><ele>245.8571428571429</ele><time>2026-04-04T14:08:31.029Z</time></trkpt><trkpt lat="45.0290804" lon="8.3366861"><ele>244.42857142857142</ele><time>2026-04-04T14:08:32.031Z</time></trkpt><trkpt lat="45.0291063" lon="8.3365921"><ele>243.0</ele><time>2026-04-04T14:08:33.03Z</time></trkpt><trkpt lat="45.0291295" lon="8.3364983"><ele>244.14285714285714</ele><time>2026-04-04T14:08:34.028Z</time></trkpt><trkpt lat="45.0291474" lon="8.3364036"><ele>245.28571428571428</ele><time>2026-04-04T14:08:35.029Z</time></trkpt><trkpt lat="45.029163" lon="8.3363127"><ele>246.42857142857142</ele><time>2026-04-04T14:08:36.031Z</time></trkpt><trkpt lat="45.0291765" lon="8.3362256"><ele>247.57142857142856</ele><time>2026-04-04T14:08:37.03Z</time></trkpt><trkpt lat="45.0291939" lon="8.3360535"><ele>248.71428571428572</ele><time>2026-04-04T14:08:39.03Z</time></trkpt><trkpt lat="45.0292052" lon="8.3359642"><ele>249.85714285714283</ele><time>2026-04-04T14:08:40.031Z</time></trkpt><trkpt lat="45.0292169" lon="8.3358755"><ele>250.99999999999997</ele><time>2026-04-04T14:08:41.029Z</time></trkpt><trkpt lat="45.0292311" lon="8.335787"><ele>251.0</ele><time>2026-04-04T14:08:42.027Z</time></trkpt><trkpt lat="45.0292604" lon="8.3356408"><ele>251.00000000000003</ele><time>2026-04-04T14:08:44.027Z</time></trkpt><trkpt lat="45.0292899" lon="8.3355438"><ele>251.00000000000003</ele><time>2026-04-04T14:08:46.027Z</time></trkpt><trkpt lat="45.0293283" lon="8.3354445"><ele>251.0</ele><time>2026-04-04T14:08:48.028Z</time></trkpt><trkpt lat="45.0293742" lon="8.3353539"><ele>251.0</ele><time>2026-04-04T14:08:50.027Z</time></trkpt><trkpt lat="45.0294367" lon="8.3352125"><ele>250.16666666666669</ele><time>2026-04-04T14:09:05.029Z</time></trkpt><trkpt lat="45.0294455" lon="8.3350919"><ele>249.33333333333334</ele><time>2026-04-04T14:09:06.027Z</time></trkpt><trkpt lat="45.0294534" lon="8.334983"><ele>248.5</ele><time>2026-04-04T14:09:07.028Z</time></trkpt><trkpt lat="45.0294662" lon="8.334875"><ele>247.66666666666669</ele><time>2026-04-04T14:09:08.029Z</time></trkpt><trkpt lat="45.0294871" lon="8.3347687"><ele>246.83333333333334</ele><time>2026-04-04T14:09:09.028Z</time></trkpt><trkpt lat="45.0295153" lon="8.3346618"><ele>246.0</ele><time>2026-04-04T14:09:10.027Z</time></trkpt><trkpt lat="45.0295502" lon="8.3345555"><ele>245.4</ele><time>2026-04-04T14:09:11.028Z</time></trkpt><trkpt lat="45.029589" lon="8.3344497"><ele>244.8</ele><time>2026-04-04T14:09:12.027Z</time></trkpt><trkpt lat="45.0296324" lon="8.334343"><ele>244.20000000000002</ele><time>2026-04-04T14:09:13.027Z</time></trkpt><trkpt lat="45.0296741" lon="8.3342252"><ele>243.60000000000002</ele><time>2026-04-04T14:09:14.029Z</time></trkpt><trkpt lat="45.0297212" lon="8.3340983"><ele>243.0</ele><time>2026-04-04T14:09:15.029Z</time></trkpt><trkpt lat="45.0297697" lon="8.3339625"><ele>242.4</ele><time>2026-04-04T14:09:16.028Z</time></trkpt><trkpt lat="45.029821" lon="8.3338237"><ele>241.8</ele><time>2026-04-04T14:09:17.029Z</time></trkpt><trkpt lat="45.029868" lon="8.3336914"><ele>241.2</ele><time>2026-04-04T14:09:18.028Z</time></trkpt><trkpt lat="45.0299183" lon="8.333565"><ele>240.6</ele><time>2026-04-04T14:09:19.029Z</time></trkpt><trkpt lat="45.0299583" lon="8.3334617"><ele>240.0</ele><time>2026-04-04T14:09:20.027Z</time></trkpt><trkpt lat="45.0300067" lon="8.3333717"><ele>242.16666666666666</ele><time>2026-04-04T14:09:21.029Z</time></trkpt><trkpt lat="45.0300467" lon="8.33329"><ele>244.33333333333331</ele><time>2026-04-04T14:09:22.028Z</time></trkpt><trkpt lat="45.0300933" lon="8.33322"><ele>246.5</ele><time>2026-04-04T14:09:23.029Z</time></trkpt><trkpt lat="45.0302" lon="8.333125"><ele>248.66666666666666</ele><time>2026-04-04T14:09:25.028Z</time></trkpt><trkpt lat="45.0302717" lon="8.3330817"><ele>250.83333333333331</ele><time>2026-04-04T14:09:26.028Z</time></trkpt><trkpt lat="45.030345" lon="8.3330517"><ele>253.0</ele><time>2026-04-04T14:09:27.028Z</time></trkpt><trkpt lat="45.0304267" lon="8.3330317"><ele>253.00000000000003</ele><time>2026-04-04T14:09:28.027Z</time></trkpt><trkpt lat="45.0305067" lon="8.33302"><ele>253.0</ele><time>2026-04-04T14:09:29.028Z</time></trkpt><trkpt lat="45.0305783" lon="8.3330033"><ele>253.00000000000003</ele><time>2026-04-04T14:09:30.029Z</time></trkpt><trkpt lat="45.0306483" lon="8.3329833"><ele>253.00000000000003</ele><time>2026-04-04T14:09:31.027Z</time></trkpt><trkpt lat="45.0307167" lon="8.3329567"><ele>253.0</ele><time>2026-04-04T14:09:32.028Z</time></trkpt><trkpt lat="45.0307867" lon="8.3329333"><ele>253.00000000000003</ele><time>2026-04-04T14:09:33.028Z</time></trkpt><trkpt lat="45.03085" lon="8.3329083"><ele>253.00000000000003</ele><time>2026-04-04T14:09:34.027Z</time></trkpt><trkpt lat="45.0309317" lon="8.332875"><ele>255.33333333333331</ele><time>2026-04-04T14:09:35.027Z</time></trkpt><trkpt lat="45.0310117" lon="8.332835"><ele>257.66666666666663</ele><time>2026-04-04T14:09:36.028Z</time></trkpt><trkpt lat="45.0310867" lon="8.3327967"><ele>260.0</ele><time>2026-04-04T14:09:37.028Z</time></trkpt><trkpt lat="45.0311467" lon="8.33275"><ele>262.3333333333333</ele><time>2026-04-04T14:09:38.028Z</time></trkpt><trkpt lat="45.0312067" lon="8.3326883"><ele>264.6666666666667</ele><time>2026-04-04T14:09:39.03Z</time></trkpt><trkpt lat="45.03126" lon="8.33261"><ele>267.0</ele><time>2026-04-04T14:09:40.028Z</time></trkpt><trkpt lat="45.0313067" lon="8.332525"><ele>267.0</ele><time>2026-04-04T14:09:41.028Z</time></trkpt><trkpt lat="45.031355" lon="8.3324383"><ele>267.0</ele><time>2026-04-04T14:09:42.027Z</time></trkpt><trkpt lat="45.0313917" lon="8.33236"><ele>267.0</ele><time>2026-04-04T14:09:43.03Z</time></trkpt><trkpt lat="45.0314533" lon="8.33221"><ele>267.0</ele><time>2026-04-04T14:09:45.028Z</time></trkpt><trkpt lat="45.0314867" lon="8.332115"><ele>267.0</ele><time>2026-04-04T14:09:46.027Z</time></trkpt><trkpt lat="45.0315133" lon="8.3320133"><ele>267.0</ele><time>2026-04-04T14:09:47.028Z</time></trkpt><trkpt lat="45.0315317" lon="8.33192"><ele>266.8333333333333</ele><time>2026-04-04T14:09:48.029Z</time></trkpt><trkpt lat="45.0315667" lon="8.3317467"><ele>266.6666666666667</ele><time>2026-04-04T14:09:50.027Z</time></trkpt><trkpt lat="45.0315833" lon="8.3316567"><ele>266.5</ele><time>2026-04-04T14:09:51.029Z</time></trkpt><trkpt lat="45.0316017" lon="8.3315667"><ele>266.33333333333337</ele><time>2026-04-04T14:09:52.029Z</time></trkpt><trkpt lat="45.0316167" lon="8.3314733"><ele>266.1666666666667</ele><time>2026-04-04T14:09:53.027Z</time></trkpt><trkpt lat="45.0316349" lon="8.3313782"><ele>266.0</ele><time>2026-04-04T14:09:54.028Z</time></trkpt><trkpt lat="45.0316553" lon="8.3312803"><ele>267.5</ele><time>2026-04-04T14:09:55.028Z</time></trkpt><trkpt lat="45.0316698" lon="8.3311838"><ele>269.0</ele><time>2026-04-04T14:09:56.029Z</time></trkpt><trkpt lat="45.0316838" lon="8.3310887"><ele>270.5</ele><time>2026-04-04T14:09:57.027Z</time></trkpt><trkpt lat="45.0317021" lon="8.3309973"><ele>272.0</ele><time>2026-04-04T14:09:58.027Z</time></trkpt><trkpt lat="45.0317292" lon="8.330826"><ele>273.5</ele><time>2026-04-04T14:10:00.029Z</time></trkpt><trkpt lat="45.0317376" lon="8.3307342"><ele>275.0</ele><time>2026-04-04T14:10:01.03Z</time></trkpt><trkpt lat="45.0317508" lon="8.3306315"><ele>274.6666666666667</ele><time>2026-04-04T14:10:02.028Z</time></trkpt><trkpt lat="45.0317636" lon="8.3305284"><ele>274.33333333333337</ele><time>2026-04-04T14:10:03.029Z</time></trkpt><trkpt lat="45.0317809" lon="8.3304262"><ele>274.0</ele><time>2026-04-04T14:10:04.027Z</time></trkpt><trkpt lat="45.031804" lon="8.3303262"><ele>273.6666666666667</ele><time>2026-04-04T14:10:05.029Z</time></trkpt><trkpt lat="45.0318358" lon="8.3302287"><ele>273.3333333333333</ele><time>2026-04-04T14:10:06.028Z</time></trkpt><trkpt lat="45.0318816" lon="8.3301308"><ele>273.0</ele><time>2026-04-04T14:10:07.029Z</time></trkpt><trkpt lat="45.0319369" lon="8.3300332"><ele>273.0</ele><time>2026-04-04T14:10:08.028Z</time></trkpt><trkpt lat="45.0319968" lon="8.3299413"><ele>273.0</ele><time>2026-04-04T14:10:09.028Z</time></trkpt><trkpt lat="45.0320581" lon="8.3298571"><ele>273.0</ele><time>2026-04-04T14:10:10.029Z</time></trkpt><trkpt lat="45.0321166" lon="8.3297828"><ele>273.0</ele><time>2026-04-04T14:10:11.028Z</time></trkpt><trkpt lat="45.0321759" lon="8.3297196"><ele>273.0</ele><time>2026-04-04T14:10:12.027Z</time></trkpt><trkpt lat="45.0322397" lon="8.3296577"><ele>273.0</ele><time>2026-04-04T14:10:13.028Z</time></trkpt><trkpt lat="45.0323132" lon="8.3295995"><ele>273.0</ele><time>2026-04-04T14:10:14.029Z</time></trkpt><trkpt lat="45.0324032" lon="8.3295502"><ele>273.0</ele><time>2026-04-04T14:10:15.028Z</time></trkpt><trkpt lat="45.0324949" lon="8.3295074"><ele>273.0</ele><time>2026-04-04T14:10:16.027Z</time></trkpt><trkpt lat="45.0325854" lon="8.3294745"><ele>273.0</ele><time>2026-04-04T14:10:17.028Z</time></trkpt><trkpt lat="45.0326731" lon="8.3294445"><ele>273.0</ele><time>2026-04-04T14:10:18.028Z</time></trkpt><trkpt lat="45.0327532" lon="8.3294143"><ele>274.3333333333333</ele><time>2026-04-04T14:10:19.028Z</time></trkpt><trkpt lat="45.0328294" lon="8.3293794"><ele>275.6666666666667</ele><time>2026-04-04T14:10:20.027Z</time></trkpt><trkpt lat="45.032908" lon="8.3293417"><ele>277.0</ele><time>2026-04-04T14:10:21.028Z</time></trkpt><trkpt lat="45.0329867" lon="8.3292997"><ele>278.33333333333337</ele><time>2026-04-04T14:10:22.027Z</time></trkpt><trkpt lat="45.0330619" lon="8.3292602"><ele>279.6666666666667</ele><time>2026-04-04T14:10:23.027Z</time></trkpt><trkpt lat="45.0331361" lon="8.3292249"><ele>281.0</ele><time>2026-04-04T14:10:24.03Z</time></trkpt><trkpt lat="45.033212" lon="8.3291903"><ele>281.00000000000006</ele><time>2026-04-04T14:10:25.029Z</time></trkpt><trkpt lat="45.0332867" lon="8.3291475"><ele>281.0</ele><time>2026-04-04T14:10:26.028Z</time></trkpt><trkpt lat="45.0333558" lon="8.3290992"><ele>281.0</ele><time>2026-04-04T14:10:27.028Z</time></trkpt><trkpt lat="45.0334218" lon="8.3290474"><ele>281.0</ele><time>2026-04-04T14:10:28.028Z</time></trkpt><trkpt lat="45.0334807" lon="8.3289978"><ele>281.0</ele><time>2026-04-04T14:10:29.027Z</time></trkpt><trkpt lat="45.0335335" lon="8.3289386"><ele>281.00000000000006</ele><time>2026-04-04T14:10:30.029Z</time></trkpt><trkpt lat="45.0335817" lon="8.3288627"><ele>281.0</ele><time>2026-04-04T14:10:31.029Z</time></trkpt><trkpt lat="45.0336201" lon="8.3287841"><ele>282.0</ele><time>2026-04-04T14:10:32.028Z</time></trkpt><trkpt lat="45.0336825" lon="8.3286389"><ele>283.0</ele><time>2026-04-04T14:10:34.029Z</time></trkpt><trkpt lat="45.0337475" lon="8.3284966"><ele>284.0</ele><time>2026-04-04T14:10:36.029Z</time></trkpt><trkpt lat="45.0338098" lon="8.32834"><ele>285.0</ele><time>2026-04-04T14:10:38.028Z</time></trkpt><trkpt lat="45.0338445" lon="8.3282646"><ele>286.0</ele><time>2026-04-04T14:10:39.03Z</time></trkpt><trkpt lat="45.0339133" lon="8.328134"><ele>284.40000000000003</ele><time>2026-04-04T14:10:41.029Z</time></trkpt><trkpt lat="45.0339711" lon="8.3279935"><ele>282.8</ele><time>2026-04-04T14:10:43.028Z</time></trkpt><trkpt lat="45.0340292" lon="8.3278673"><ele>281.20000000000005</ele><time>2026-04-04T14:10:45.029Z</time></trkpt><trkpt lat="45.0340992" lon="8.3277386"><ele>279.6</ele><time>2026-04-04T14:10:47.027Z</time></trkpt><trkpt lat="45.0341418" lon="8.3276722"><ele>278.0</ele><time>2026-04-04T14:10:48.027Z</time></trkpt><trkpt lat="45.0341935" lon="8.3276045"><ele>278.0</ele><time>2026-04-04T14:10:49.028Z</time></trkpt><trkpt lat="45.0342484" lon="8.3275399"><ele>278.0</ele><time>2026-04-04T14:10:50.028Z</time></trkpt><trkpt lat="45.0343048" lon="8.3274834"><ele>278.0</ele><time>2026-04-04T14:10:51.029Z</time></trkpt><trkpt lat="45.0343611" lon="8.3274266"><ele>278.0</ele><time>2026-04-04T14:10:52.027Z</time></trkpt><trkpt lat="45.0344219" lon="8.3273795"><ele>278.0</ele><time>2026-04-04T14:10:53.028Z</time></trkpt><trkpt lat="45.0344918" lon="8.3273381"><ele>278.0</ele><time>2026-04-04T14:10:54.028Z</time></trkpt><trkpt lat="45.0345622" lon="8.3273033"><ele>278.0</ele><time>2026-04-04T14:10:55.028Z</time></trkpt><trkpt lat="45.034639" lon="8.3272674"><ele>278.0</ele><time>2026-04-04T14:10:56.027Z</time></trkpt><trkpt lat="45.0347014" lon="8.327235"><ele>278.0</ele><time>2026-04-04T14:10:57.028Z</time></trkpt><trkpt lat="45.0347625" lon="8.3272062"><ele>278.0</ele><time>2026-04-04T14:10:58.027Z</time></trkpt><trkpt lat="45.0348288" lon="8.3271759"><ele>278.0</ele><time>2026-04-04T14:10:59.029Z</time></trkpt><trkpt lat="45.034893" lon="8.3271462"><ele>278.0</ele><time>2026-04-04T14:11:00.029Z</time></trkpt><trkpt lat="45.0349509" lon="8.3271051"><ele>278.0</ele><time>2026-04-04T14:11:01.028Z</time></trkpt><trkpt lat="45.0350117" lon="8.3270468"><ele>278.0</ele><time>2026-04-04T14:11:02.029Z</time></trkpt><trkpt lat="45.0350571" lon="8.3269824"><ele>276.85714285714283</ele><time>2026-04-04T14:11:03.028Z</time></trkpt><trkpt lat="45.0350963" lon="8.326912"><ele>275.7142857142857</ele><time>2026-04-04T14:11:04.028Z</time></trkpt><trkpt lat="45.0351475" lon="8.3268466"><ele>274.57142857142856</ele><time>2026-04-04T14:11:05.028Z</time></trkpt><trkpt lat="45.0352065" lon="8.3267799"><ele>273.42857142857144</ele><time>2026-04-04T14:11:06.029Z</time></trkpt><trkpt lat="45.035269" lon="8.3267124"><ele>272.2857142857143</ele><time>2026-04-04T14:11:07.028Z</time></trkpt><trkpt lat="45.0353323" lon="8.3266505"><ele>271.1428571428571</ele><time>2026-04-04T14:11:08.029Z</time></trkpt><trkpt lat="45.0354" lon="8.3265925"><ele>270.0</ele><time>2026-04-04T14:11:09.029Z</time></trkpt><trkpt lat="45.0354607" lon="8.3265395"><ele>270.0</ele><time>2026-04-04T14:11:10.028Z</time></trkpt><trkpt lat="45.0355144" lon="8.3264855"><ele>270.0</ele><time>2026-04-04T14:11:11.028Z</time></trkpt><trkpt lat="45.0355659" lon="8.3264297"><ele>270.0</ele><time>2026-04-04T14:11:12.029Z</time></trkpt><trkpt lat="45.0356173" lon="8.3263705"><ele>270.0</ele><time>2026-04-04T14:11:13.029Z</time></trkpt><trkpt lat="45.0356703" lon="8.3263079"><ele>270.0</ele><time>2026-04-04T14:11:14.029Z</time></trkpt><trkpt lat="45.0357267" lon="8.3262538"><ele>270.0</ele><time>2026-04-04T14:11:15.028Z</time></trkpt><trkpt lat="45.0357861" lon="8.3262058"><ele>270.0</ele><time>2026-04-04T14:11:16.028Z</time></trkpt><trkpt lat="45.0358529" lon="8.3261635"><ele>269.2857142857143</ele><time>2026-04-04T14:11:17.028Z</time></trkpt><trkpt lat="45.0359234" lon="8.3261199"><ele>268.57142857142856</ele><time>2026-04-04T14:11:18.028Z</time></trkpt><trkpt lat="45.0359933" lon="8.3260883"><ele>267.85714285714283</ele><time>2026-04-04T14:11:19.029Z</time></trkpt><trkpt lat="45.036066" lon="8.3260664"><ele>267.1428571428571</ele><time>2026-04-04T14:11:20.027Z</time></trkpt><trkpt lat="45.0361367" lon="8.3260556"><ele>266.42857142857144</ele><time>2026-04-04T14:11:21.029Z</time></trkpt><trkpt lat="45.0362053" lon="8.3260605"><ele>265.71428571428567</ele><time>2026-04-04T14:11:22.028Z</time></trkpt><trkpt lat="45.0362768" lon="8.3260712"><ele>265.0</ele><time>2026-04-04T14:11:23.029Z</time></trkpt><trkpt lat="45.036347" lon="8.3260694"><ele>265.0</ele><time>2026-04-04T14:11:24.028Z</time></trkpt><trkpt lat="45.0364484" lon="8.3260068"><ele>265.0</ele><time>2026-04-04T14:11:26.028Z</time></trkpt><trkpt lat="45.0365017" lon="8.3259311"><ele>265.0</ele><time>2026-04-04T14:11:27.029Z</time></trkpt><trkpt lat="45.0365513" lon="8.3258247"><ele>265.0</ele><time>2026-04-04T14:11:28.029Z</time></trkpt><trkpt lat="45.0365881" lon="8.3256632"><ele>265.0</ele><time>2026-04-04T14:11:29.028Z</time></trkpt><trkpt lat="45.0366224" lon="8.3255013"><ele>263.6</ele><time>2026-04-04T14:11:30.029Z</time></trkpt><trkpt lat="45.036652" lon="8.3253518"><ele>262.2</ele><time>2026-04-04T14:11:31.03Z</time></trkpt><trkpt lat="45.0366804" lon="8.3252068"><ele>260.8</ele><time>2026-04-04T14:11:32.029Z</time></trkpt><trkpt lat="45.0367051" lon="8.3250638"><ele>259.4</ele><time>2026-04-04T14:11:33.028Z</time></trkpt><trkpt lat="45.0367223" lon="8.3249217"><ele>258.0</ele><time>2026-04-04T14:11:34.03Z</time></trkpt><trkpt lat="45.036736" lon="8.3247746"><ele>258.0</ele><time>2026-04-04T14:11:35.029Z</time></trkpt><trkpt lat="45.0367397" lon="8.3246306"><ele>258.0</ele><time>2026-04-04T14:11:36.028Z</time></trkpt><trkpt lat="45.0367306" lon="8.324492"><ele>258.0</ele><time>2026-04-04T14:11:37.028Z</time></trkpt><trkpt lat="45.0367138" lon="8.3243645"><ele>258.0</ele><time>2026-04-04T14:11:38.028Z</time></trkpt><trkpt lat="45.03669" lon="8.3242387"><ele>258.0</ele><time>2026-04-04T14:11:39.029Z</time></trkpt><trkpt lat="45.0366651" lon="8.3241233"><ele>258.0</ele><time>2026-04-04T14:11:40.029Z</time></trkpt><trkpt lat="45.0366469" lon="8.3240187"><ele>258.0</ele><time>2026-04-04T14:11:41.029Z</time></trkpt><trkpt lat="45.0366481" lon="8.3239256"><ele>258.0</ele><time>2026-04-04T14:11:42.029Z</time></trkpt><trkpt lat="45.0366959" lon="8.3237641"><ele>258.0</ele><time>2026-04-04T14:11:44.029Z</time></trkpt><trkpt lat="45.0367345" lon="8.3236883"><ele>258.0</ele><time>2026-04-04T14:11:45.029Z</time></trkpt><trkpt lat="45.0367912" lon="8.3236067"><ele>258.0</ele><time>2026-04-04T14:11:46.028Z</time></trkpt><trkpt lat="45.0368734" lon="8.3235192"><ele>256.6</ele><time>2026-04-04T14:11:47.029Z</time></trkpt><trkpt lat="45.036962" lon="8.3234369"><ele>255.20000000000002</ele><time>2026-04-04T14:11:48.028Z</time></trkpt><trkpt lat="45.0370555" lon="8.3233552"><ele>253.8</ele><time>2026-04-04T14:11:49.028Z</time></trkpt><trkpt lat="45.0371445" lon="8.3232714"><ele>252.4</ele><time>2026-04-04T14:11:50.028Z</time></trkpt><trkpt lat="45.0372336" lon="8.3231904"><ele>251.0</ele><time>2026-04-04T14:11:51.029Z</time></trkpt><trkpt lat="45.0373196" lon="8.3231024"><ele>251.8</ele><time>2026-04-04T14:11:52.028Z</time></trkpt><trkpt lat="45.0373998" lon="8.3230074"><ele>252.60000000000002</ele><time>2026-04-04T14:11:53.028Z</time></trkpt><trkpt lat="45.0374794" lon="8.3229084"><ele>253.4</ele><time>2026-04-04T14:11:54.028Z</time></trkpt><trkpt lat="45.037554" lon="8.3228064"><ele>254.2</ele><time>2026-04-04T14:11:55.028Z</time></trkpt><trkpt lat="45.0376244" lon="8.3227082"><ele>255.0</ele><time>2026-04-04T14:11:56.028Z</time></trkpt><trkpt lat="45.0376922" lon="8.3226148"><ele>255.0</ele><time>2026-04-04T14:11:57.029Z</time></trkpt><trkpt lat="45.0377556" lon="8.322524"><ele>255.0</ele><time>2026-04-04T14:11:58.028Z</time></trkpt><trkpt lat="45.0378079" lon="8.3224317"><ele>255.0</ele><time>2026-04-04T14:11:59.029Z</time></trkpt><trkpt lat="45.0378535" lon="8.3223336"><ele>255.0</ele><time>2026-04-04T14:12:00.029Z</time></trkpt><trkpt lat="45.0378907" lon="8.3222312"><ele>255.0</ele><time>2026-04-04T14:12:01.029Z</time></trkpt><trkpt lat="45.0379152" lon="8.3221237"><ele>255.0</ele><time>2026-04-04T14:12:02.028Z</time></trkpt><trkpt lat="45.0379266" lon="8.3219997"><ele>254.42857142857144</ele><time>2026-04-04T14:12:03.028Z</time></trkpt><trkpt lat="45.0379326" lon="8.3218796"><ele>253.8571428571429</ele><time>2026-04-04T14:12:04.028Z</time></trkpt><trkpt lat="45.0379364" lon="8.3217662"><ele>253.28571428571428</ele><time>2026-04-04T14:12:05.029Z</time></trkpt><trkpt lat="45.0379362" lon="8.3216653"><ele>252.71428571428572</ele><time>2026-04-04T14:12:06.028Z</time></trkpt><trkpt lat="45.0379391" lon="8.3215703"><ele>252.14285714285714</ele><time>2026-04-04T14:12:07.028Z</time></trkpt><trkpt lat="45.0379411" lon="8.3214804"><ele>251.57142857142856</ele><time>2026-04-04T14:12:08.029Z</time></trkpt><trkpt lat="45.0379441" lon="8.3213908"><ele>250.99999999999997</ele><time>2026-04-04T14:12:09.028Z</time></trkpt><trkpt lat="45.0379527" lon="8.3213001"><ele>252.33333333333334</ele><time>2026-04-04T14:12:10.029Z</time></trkpt><trkpt lat="45.0379665" lon="8.3212119"><ele>253.66666666666669</ele><time>2026-04-04T14:12:11.029Z</time></trkpt><trkpt lat="45.0379963" lon="8.3210586"><ele>255.0</ele><time>2026-04-04T14:12:13.029Z</time></trkpt><trkpt lat="45.0380479" lon="8.3209135"><ele>256.3333333333333</ele><time>2026-04-04T14:12:15.029Z</time></trkpt><trkpt lat="45.0380867" lon="8.3208418"><ele>257.66666666666663</ele><time>2026-04-04T14:12:16.028Z</time></trkpt><trkpt lat="45.0381279" lon="8.3207654"><ele>259.0</ele><time>2026-04-04T14:12:17.028Z</time></trkpt><trkpt lat="45.0381747" lon="8.3206754"><ele>259.0</ele><time>2026-04-04T14:12:18.028Z</time></trkpt><trkpt lat="45.0382199" lon="8.3205769"><ele>259.0</ele><time>2026-04-04T14:12:19.029Z</time></trkpt><trkpt lat="45.0382599" lon="8.3204649"><ele>259.0</ele><time>2026-04-04T14:12:20.028Z</time></trkpt><trkpt lat="45.0383008" lon="8.3203252"><ele>259.0</ele><time>2026-04-04T14:12:21.029Z</time></trkpt><trkpt lat="45.0383474" lon="8.3201762"><ele>259.0</ele><time>2026-04-04T14:12:22.027Z</time></trkpt><trkpt lat="45.038398" lon="8.3200239"><ele>260.8</ele><time>2026-04-04T14:12:23.027Z</time></trkpt><trkpt lat="45.0384452" lon="8.3198773"><ele>262.59999999999997</ele><time>2026-04-04T14:12:24.028Z</time></trkpt><trkpt lat="45.0384827" lon="8.3197412"><ele>264.4</ele><time>2026-04-04T14:12:25.028Z</time></trkpt><trkpt lat="45.038513" lon="8.3196112"><ele>266.2</ele><time>2026-04-04T14:12:26.027Z</time></trkpt><trkpt lat="45.0385328" lon="8.3194796"><ele>268.0</ele><time>2026-04-04T14:12:27.028Z</time></trkpt><trkpt lat="45.038545" lon="8.3193476"><ele>269.8</ele><time>2026-04-04T14:12:28.026Z</time></trkpt><trkpt lat="45.0385496" lon="8.3192169"><ele>271.6</ele><time>2026-04-04T14:12:29.027Z</time></trkpt><trkpt lat="45.0385503" lon="8.3190858"><ele>273.4</ele><time>2026-04-04T14:12:30.027Z</time></trkpt><trkpt lat="45.0385551" lon="8.3189465"><ele>275.2</ele><time>2026-04-04T14:12:31.027Z</time></trkpt><trkpt lat="45.0385595" lon="8.3188099"><ele>277.0</ele><time>2026-04-04T14:12:32.027Z</time></trkpt><trkpt lat="45.0385671" lon="8.3186719"><ele>277.0</ele><time>2026-04-04T14:12:33.028Z</time></trkpt><trkpt lat="45.0385764" lon="8.3185336"><ele>277.0</ele><time>2026-04-04T14:12:34.028Z</time></trkpt><trkpt lat="45.0385902" lon="8.318407"><ele>277.0</ele><time>2026-04-04T14:12:35.027Z</time></trkpt><trkpt lat="45.0386104" lon="8.3182859"><ele>277.0</ele><time>2026-04-04T14:12:36.027Z</time></trkpt><trkpt lat="45.0386287" lon="8.3181555"><ele>277.0</ele><time>2026-04-04T14:12:37.027Z</time></trkpt><trkpt lat="45.0386449" lon="8.318025"><ele>277.2</ele><time>2026-04-04T14:12:38.027Z</time></trkpt><trkpt lat="45.0386563" lon="8.3178904"><ele>277.4</ele><time>2026-04-04T14:12:39.028Z</time></trkpt><trkpt lat="45.0386635" lon="8.3177512"><ele>277.6</ele><time>2026-04-04T14:12:40.027Z</time></trkpt><trkpt lat="45.0386696" lon="8.3176143"><ele>277.8</ele><time>2026-04-04T14:12:41.026Z</time></trkpt><trkpt lat="45.038676" lon="8.3174787"><ele>278.0</ele><time>2026-04-04T14:12:42.028Z</time></trkpt><trkpt lat="45.0386853" lon="8.3173499"><ele>276.83333333333337</ele><time>2026-04-04T14:12:43.027Z</time></trkpt><trkpt lat="45.0387022" lon="8.3172249"><ele>275.6666666666667</ele><time>2026-04-04T14:12:44.03Z</time></trkpt><trkpt lat="45.0387273" lon="8.3171092"><ele>274.5</ele><time>2026-04-04T14:12:45.027Z</time></trkpt><trkpt lat="45.0387558" lon="8.3170057"><ele>273.3333333333333</ele><time>2026-04-04T14:12:46.027Z</time></trkpt><trkpt lat="45.0387932" lon="8.3169016"><ele>272.16666666666663</ele><time>2026-04-04T14:12:47.027Z</time></trkpt><trkpt lat="45.0388351" lon="8.3168051"><ele>271.0</ele><time>2026-04-04T14:12:48.027Z</time></trkpt><trkpt lat="45.0388779" lon="8.3167109"><ele>271.0</ele><time>2026-04-04T14:12:49.027Z</time></trkpt><trkpt lat="45.0389185" lon="8.3166299"><ele>271.0</ele><time>2026-04-04T14:12:50.029Z</time></trkpt><trkpt lat="45.0389643" lon="8.3165457"><ele>271.0</ele><time>2026-04-04T14:12:51.027Z</time></trkpt><trkpt lat="45.0390089" lon="8.3164626"><ele>271.0</ele><time>2026-04-04T14:12:52.027Z</time></trkpt><trkpt lat="45.039054" lon="8.3163926"><ele>271.0</ele><time>2026-04-04T14:12:53.027Z</time></trkpt><trkpt lat="45.0390977" lon="8.3163206"><ele>271.0</ele><time>2026-04-04T14:12:54.027Z</time></trkpt><trkpt lat="45.0391344" lon="8.3162455"><ele>271.0</ele><time>2026-04-04T14:12:55.027Z</time></trkpt><trkpt lat="45.0391678" lon="8.3161573"><ele>272.0</ele><time>2026-04-04T14:12:56.027Z</time></trkpt><trkpt lat="45.0391915" lon="8.3160043"><ele>273.0</ele><time>2026-04-04T14:12:58.027Z</time></trkpt><trkpt lat="45.0391689" lon="8.31585"><ele>274.0</ele><time>2026-04-04T14:13:00.027Z</time></trkpt><trkpt lat="45.039141" lon="8.3156827"><ele>275.0</ele><time>2026-04-04T14:13:02.028Z</time></trkpt><trkpt lat="45.0391224" lon="8.3155869"><ele>276.0</ele><time>2026-04-04T14:13:03.028Z</time></trkpt><trkpt lat="45.0390935" lon="8.3154814"><ele>273.3333333333333</ele><time>2026-04-04T14:13:04.026Z</time></trkpt><trkpt lat="45.0390629" lon="8.3153693"><ele>270.6666666666667</ele><time>2026-04-04T14:13:05.028Z</time></trkpt><trkpt lat="45.0390433" lon="8.3152697"><ele>268.0</ele><time>2026-04-04T14:13:06.027Z</time></trkpt><trkpt lat="45.0390194" lon="8.3151735"><ele>265.33333333333337</ele><time>2026-04-04T14:13:07.028Z</time></trkpt><trkpt lat="45.0389966" lon="8.3150867"><ele>262.6666666666667</ele><time>2026-04-04T14:13:08.027Z</time></trkpt><trkpt lat="45.0389583" lon="8.3149149"><ele>260.0</ele><time>2026-04-04T14:13:10.027Z</time></trkpt><trkpt lat="45.038944" lon="8.3148276"><ele>261.6666666666667</ele><time>2026-04-04T14:13:11.027Z</time></trkpt><trkpt lat="45.0389283" lon="8.3147367"><ele>263.33333333333337</ele><time>2026-04-04T14:13:12.028Z</time></trkpt><trkpt lat="45.0389183" lon="8.3146396"><ele>265.0</ele><time>2026-04-04T14:13:13.027Z</time></trkpt><trkpt lat="45.0389074" lon="8.314543"><ele>266.6666666666667</ele><time>2026-04-04T14:13:14.027Z</time></trkpt><trkpt lat="45.0388856" lon="8.3143699"><ele>268.3333333333333</ele><time>2026-04-04T14:13:16.027Z</time></trkpt><trkpt lat="45.0388549" lon="8.3142061"><ele>270.0</ele><time>2026-04-04T14:13:18.027Z</time></trkpt><trkpt lat="45.0387985" lon="8.3140666"><ele>270.0</ele><time>2026-04-04T14:13:20.028Z</time></trkpt><trkpt lat="45.0387582" lon="8.3139953"><ele>270.0</ele><time>2026-04-04T14:13:21.029Z</time></trkpt><trkpt lat="45.0387172" lon="8.3139242"><ele>270.0</ele><time>2026-04-04T14:13:22.026Z</time></trkpt><trkpt lat="45.0386739" lon="8.3138593"><ele>270.0</ele><time>2026-04-04T14:13:23.028Z</time></trkpt><trkpt lat="45.0386006" lon="8.3137482"><ele>270.0</ele><time>2026-04-04T14:13:25.027Z</time></trkpt><trkpt lat="45.0385659" lon="8.3136574"><ele>270.0</ele><time>2026-04-04T14:13:27.03Z</time></trkpt><trkpt lat="45.0385921" lon="8.3135654"><ele>270.0</ele><time>2026-04-04T14:13:29.028Z</time></trkpt><trkpt lat="45.0386267" lon="8.3134749"><ele>270.1666666666667</ele><time>2026-04-04T14:13:31.029Z</time></trkpt><trkpt lat="45.0386773" lon="8.3133619"><ele>270.3333333333333</ele><time>2026-04-04T14:13:33.028Z</time></trkpt><trkpt lat="45.0387144" lon="8.3132724"><ele>270.5</ele><time>2026-04-04T14:13:35.027Z</time></trkpt><trkpt lat="45.0387428" lon="8.3131611"><ele>270.66666666666663</ele><time>2026-04-04T14:13:38.029Z</time></trkpt><trkpt lat="45.0388133" lon="8.313175"><ele>270.8333333333333</ele><time>2026-04-04T14:13:42.031Z</time></trkpt><trkpt lat="45.0387567" lon="8.3132333"><ele>271.0</ele><time>2026-04-04T14:13:46.028Z</time></trkpt><trkpt lat="45.0386967" lon="8.3132967"><ele>271.0</ele><time>2026-04-04T14:13:50.028Z</time></trkpt><trkpt lat="45.038985" lon="8.313275"><ele>271.0</ele><time>2026-04-04T14:16:02.734Z</time></trkpt><trkpt lat="45.03873" lon="8.3133167"><ele>271.0</ele><time>2026-04-04T14:16:07.003Z</time></trkpt><trkpt lat="45.038655" lon="8.313315"><ele>271.0</ele><time>2026-04-04T14:16:26.028Z</time></trkpt><trkpt lat="45.0385783" lon="8.3133767"><ele>271.0</ele><time>2026-04-04T14:16:30.027Z</time></trkpt><trkpt lat="45.0385417" lon="8.3134717"><ele>271.0</ele><time>2026-04-04T14:16:33.028Z</time></trkpt><trkpt lat="45.0385533" lon="8.31358"><ele>271.0</ele><time>2026-04-04T14:16:36.029Z</time></trkpt><trkpt lat="45.0385783" lon="8.3136933"><ele>271.0</ele><time>2026-04-04T14:16:39.027Z</time></trkpt><trkpt lat="45.0386233" lon="8.3137783"><ele>271.0</ele><time>2026-04-04T14:16:41.028Z</time></trkpt><trkpt lat="45.0386833" lon="8.3138783"><ele>271.0</ele><time>2026-04-04T14:16:44.027Z</time></trkpt><trkpt lat="45.0387283" lon="8.3139583"><ele>271.0</ele><time>2026-04-04T14:16:46.026Z</time></trkpt><trkpt lat="45.0387867" lon="8.31406"><ele>271.0</ele><time>2026-04-04T14:16:48.027Z</time></trkpt><trkpt lat="45.038845" lon="8.3141933"><ele>271.0</ele><time>2026-04-04T14:16:50.028Z</time></trkpt><trkpt lat="45.0388733" lon="8.3143417"><ele>270.8333333333333</ele><time>2026-04-04T14:16:52.028Z</time></trkpt><trkpt lat="45.0388933" lon="8.3145183"><ele>270.66666666666663</ele><time>2026-04-04T14:16:54.027Z</time></trkpt><trkpt lat="45.038905" lon="8.31461"><ele>270.5</ele><time>2026-04-04T14:16:55.026Z</time></trkpt><trkpt lat="45.0389183" lon="8.3147117"><ele>270.3333333333333</ele><time>2026-04-04T14:16:56.027Z</time></trkpt><trkpt lat="45.03893" lon="8.3148083"><ele>270.1666666666667</ele><time>2026-04-04T14:16:57.029Z</time></trkpt><trkpt lat="45.0389417" lon="8.3149033"><ele>270.0</ele><time>2026-04-04T14:16:58.027Z</time></trkpt><trkpt lat="45.0389617" lon="8.3149967"><ele>268.57142857142856</ele><time>2026-04-04T14:16:59.027Z</time></trkpt><trkpt lat="45.0389683" lon="8.3150883"><ele>267.1428571428571</ele><time>2026-04-04T14:17:00.027Z</time></trkpt><trkpt lat="45.0389717" lon="8.31519"><ele>265.7142857142857</ele><time>2026-04-04T14:17:01.027Z</time></trkpt><trkpt lat="45.0389767" lon="8.315305"><ele>264.2857142857143</ele><time>2026-04-04T14:17:02.028Z</time></trkpt><trkpt lat="45.0389867" lon="8.3154017"><ele>262.8571428571429</ele><time>2026-04-04T14:17:03.028Z</time></trkpt><trkpt lat="45.0389917" lon="8.3155017"><ele>261.42857142857144</ele><time>2026-04-04T14:17:04.026Z</time></trkpt><trkpt lat="45.0390017" lon="8.3156033"><ele>260.0</ele><time>2026-04-04T14:17:05.028Z</time></trkpt><trkpt lat="45.039015" lon="8.3156983"><ele>260.0</ele><time>2026-04-04T14:17:06.028Z</time></trkpt><trkpt lat="45.0390467" lon="8.31584"><ele>260.0</ele><time>2026-04-04T14:17:08.027Z</time></trkpt><trkpt lat="45.0390833" lon="8.3159683"><ele>260.0</ele><time>2026-04-04T14:17:10.026Z</time></trkpt><trkpt lat="45.0391567" lon="8.3160583"><ele>260.0</ele><time>2026-04-04T14:17:12.029Z</time></trkpt><trkpt lat="45.0392617" lon="8.3160567"><ele>260.0</ele><time>2026-04-04T14:17:14.028Z</time></trkpt><trkpt lat="45.03937" lon="8.3160133"><ele>264.0</ele><time>2026-04-04T14:17:16.026Z</time></trkpt><trkpt lat="45.0394767" lon="8.3159517"><ele>268.0</ele><time>2026-04-04T14:17:18.027Z</time></trkpt><trkpt lat="45.0395733" lon="8.315885"><ele>272.0</ele><time>2026-04-04T14:17:20.028Z</time></trkpt><trkpt lat="45.0396817" lon="8.3157183"><ele>276.0</ele><time>2026-04-04T14:17:22.027Z</time></trkpt><trkpt lat="45.0397517" lon="8.315585"><ele>276.3333333333333</ele><time>2026-04-04T14:17:23.028Z</time></trkpt><trkpt lat="45.0398117" lon="8.31548"><ele>276.6666666666667</ele><time>2026-04-04T14:17:24.028Z</time></trkpt><trkpt lat="45.0398717" lon="8.3153733"><ele>277.0</ele><time>2026-04-04T14:17:25.027Z</time></trkpt><trkpt lat="45.0399283" lon="8.3152683"><ele>277.33333333333337</ele><time>2026-04-04T14:17:26.028Z</time></trkpt><trkpt lat="45.0399767" lon="8.3151833"><ele>277.6666666666667</ele><time>2026-04-04T14:17:27.029Z</time></trkpt><trkpt lat="45.0400167" lon="8.3150867"><ele>278.0</ele><time>2026-04-04T14:17:28.027Z</time></trkpt><trkpt lat="45.04005" lon="8.315005"><ele>278.33333333333337</ele><time>2026-04-04T14:17:29.028Z</time></trkpt><trkpt lat="45.0400883" lon="8.3148383"><ele>278.6666666666667</ele><time>2026-04-04T14:17:31.028Z</time></trkpt><trkpt lat="45.0400983" lon="8.3147383"><ele>279.0</ele><time>2026-04-04T14:17:32.028Z</time></trkpt><trkpt lat="45.0401083" lon="8.3146433"><ele>279.3333333333333</ele><time>2026-04-04T14:17:33.027Z</time></trkpt><trkpt lat="45.0401183" lon="8.314545"><ele>279.66666666666663</ele><time>2026-04-04T14:17:34.028Z</time></trkpt><trkpt lat="45.0401217" lon="8.3144517"><ele>280.0</ele><time>2026-04-04T14:17:35.027Z</time></trkpt><trkpt lat="45.0401283" lon="8.3142683"><ele>280.0</ele><time>2026-04-04T14:17:37.028Z</time></trkpt><trkpt lat="45.04014" lon="8.314175"><ele>280.0</ele><time>2026-04-04T14:17:38.027Z</time></trkpt><trkpt lat="45.0401533" lon="8.3140767"><ele>280.0</ele><time>2026-04-04T14:17:39.028Z</time></trkpt><trkpt lat="45.0401767" lon="8.3139783"><ele>280.0</ele><time>2026-04-04T14:17:40.028Z</time></trkpt><trkpt lat="45.0402067" lon="8.3138833"><ele>280.0</ele><time>2026-04-04T14:17:41.027Z</time></trkpt><trkpt lat="45.04024" lon="8.31379"><ele>280.0</ele><time>2026-04-04T14:17:42.028Z</time></trkpt><trkpt lat="45.0402767" lon="8.3136967"><ele>280.0</ele><time>2026-04-04T14:17:43.029Z</time></trkpt><trkpt lat="45.0403117" lon="8.313605"><ele>279.7142857142857</ele><time>2026-04-04T14:17:44.028Z</time></trkpt><trkpt lat="45.04034" lon="8.3135183"><ele>279.42857142857144</ele><time>2026-04-04T14:17:45.027Z</time></trkpt><trkpt lat="45.0403667" lon="8.3134283"><ele>279.1428571428571</ele><time>2026-04-04T14:17:46.027Z</time></trkpt><trkpt lat="45.0403883" lon="8.3133317"><ele>278.8571428571429</ele><time>2026-04-04T14:17:47.027Z</time></trkpt><trkpt lat="45.0404083" lon="8.31323"><ele>278.57142857142856</ele><time>2026-04-04T14:17:48.03Z</time></trkpt><trkpt lat="45.04043" lon="8.313135"><ele>278.2857142857143</ele><time>2026-04-04T14:17:49.027Z</time></trkpt><trkpt lat="45.0404467" lon="8.313045"><ele>278.0</ele><time>2026-04-04T14:17:50.029Z</time></trkpt><trkpt lat="45.0404767" lon="8.3128867"><ele>276.4</ele><time>2026-04-04T14:17:52.028Z</time></trkpt><trkpt lat="45.0405" lon="8.3127233"><ele>274.8</ele><time>2026-04-04T14:17:54.028Z</time></trkpt><trkpt lat="45.0405167" lon="8.312595"><ele>273.2</ele><time>2026-04-04T14:17:56.028Z</time></trkpt><trkpt lat="45.040515" lon="8.312485"><ele>271.6</ele><time>2026-04-04T14:17:58.028Z</time></trkpt><trkpt lat="45.040515" lon="8.3123517"><ele>270.0</ele><time>2026-04-04T14:18:00.027Z</time></trkpt><trkpt lat="45.0405167" lon="8.3122067"><ele>268.4</ele><time>2026-04-04T14:18:02.027Z</time></trkpt><trkpt lat="45.0405167" lon="8.312065"><ele>266.8</ele><time>2026-04-04T14:18:04.027Z</time></trkpt><trkpt lat="45.0405217" lon="8.3119517"><ele>265.2</ele><time>2026-04-04T14:18:06.028Z</time></trkpt><trkpt lat="45.04056" lon="8.3118283"><ele>263.6</ele><time>2026-04-04T14:18:08.028Z</time></trkpt><trkpt lat="45.0406333" lon="8.3116733"><ele>262.0</ele><time>2026-04-04T14:18:10.028Z</time></trkpt><trkpt lat="45.0406767" lon="8.3115767"><ele>262.0</ele><time>2026-04-04T14:18:11.028Z</time></trkpt><trkpt lat="45.0407267" lon="8.311495"><ele>262.0</ele><time>2026-04-04T14:18:12.027Z</time></trkpt><trkpt lat="45.0407667" lon="8.3114"><ele>262.0</ele><time>2026-04-04T14:18:13.028Z</time></trkpt><trkpt lat="45.0408033" lon="8.3112917"><ele>262.0</ele><time>2026-04-04T14:18:14.028Z</time></trkpt><trkpt lat="45.04084" lon="8.31119"><ele>262.0</ele><time>2026-04-04T14:18:15.028Z</time></trkpt><trkpt lat="45.0408833" lon="8.311105"><ele>262.0</ele><time>2026-04-04T14:18:16.027Z</time></trkpt><trkpt lat="45.0409233" lon="8.3110283"><ele>263.3333333333333</ele><time>2026-04-04T14:18:17.029Z</time></trkpt><trkpt lat="45.04099" lon="8.3109117"><ele>264.66666666666663</ele><time>2026-04-04T14:18:19.027Z</time></trkpt><trkpt lat="45.0410533" lon="8.3109083"><ele>266.0</ele><time>2026-04-04T14:18:20.028Z</time></trkpt><trkpt lat="45.0411233" lon="8.31092"><ele>267.3333333333333</ele><time>2026-04-04T14:18:21.03Z</time></trkpt><trkpt lat="45.0412517" lon="8.3109033"><ele>268.6666666666667</ele><time>2026-04-04T14:18:23.03Z</time></trkpt><trkpt lat="45.041325" lon="8.3108967"><ele>270.0</ele><time>2026-04-04T14:18:24.032Z</time></trkpt><trkpt lat="45.0413917" lon="8.3108817"><ele>270.0</ele><time>2026-04-04T14:18:25.029Z</time></trkpt><trkpt lat="45.041455" lon="8.31087"><ele>270.0</ele><time>2026-04-04T14:18:26.03Z</time></trkpt><trkpt lat="45.0415717" lon="8.3108333"><ele>270.0</ele><time>2026-04-04T14:18:28.029Z</time></trkpt><trkpt lat="45.04168" lon="8.3107867"><ele>270.0</ele><time>2026-04-04T14:18:30.029Z</time></trkpt><trkpt lat="45.04177" lon="8.3107283"><ele>270.0</ele><time>2026-04-04T14:18:32.029Z</time></trkpt><trkpt lat="45.0418617" lon="8.3106733"><ele>270.0</ele><time>2026-04-04T14:18:34.028Z</time></trkpt><trkpt lat="45.041935" lon="8.3106267"><ele>270.0</ele><time>2026-04-04T14:18:36.029Z</time></trkpt><trkpt lat="45.0420133" lon="8.310615"><ele>270.0</ele><time>2026-04-04T14:18:38.028Z</time></trkpt><trkpt lat="45.042085" lon="8.31065"><ele>270.0</ele><time>2026-04-04T14:18:41.029Z</time></trkpt><trkpt lat="45.042085" lon="8.310755"><ele>270.0</ele><time>2026-04-04T14:19:35.029Z</time></trkpt><trkpt lat="45.04219" lon="8.310745"><ele>270.0</ele><time>2026-04-04T14:19:48.028Z</time></trkpt><trkpt lat="45.042315" lon="8.310815"><ele>270.0</ele><time>2026-04-04T14:19:50.028Z</time></trkpt><trkpt lat="45.0423917" lon="8.310865"><ele>270.0</ele><time>2026-04-04T14:19:51.027Z</time></trkpt><trkpt lat="45.0424783" lon="8.3109167"><ele>270.0</ele><time>2026-04-04T14:19:52.028Z</time></trkpt><trkpt lat="45.0425617" lon="8.3109833"><ele>270.0</ele><time>2026-04-04T14:19:53.028Z</time></trkpt><trkpt lat="45.0426383" lon="8.3110617"><ele>270.0</ele><time>2026-04-04T14:19:54.027Z</time></trkpt><trkpt lat="45.0427133" lon="8.3111483"><ele>270.2</ele><time>2026-04-04T14:19:55.028Z</time></trkpt><trkpt lat="45.04281" lon="8.311215"><ele>270.4</ele><time>2026-04-04T14:19:56.027Z</time></trkpt><trkpt lat="45.0428783" lon="8.3113017"><ele>270.6</ele><time>2026-04-04T14:19:57.027Z</time></trkpt><trkpt lat="45.0429467" lon="8.3114017"><ele>270.8</ele><time>2026-04-04T14:19:58.03Z</time></trkpt><trkpt lat="45.0429983" lon="8.3115217"><ele>271.0</ele><time>2026-04-04T14:19:59.03Z</time></trkpt><trkpt lat="45.04304" lon="8.3116467"><ele>271.0</ele><time>2026-04-04T14:20:00.029Z</time></trkpt><trkpt lat="45.0430883" lon="8.31176"><ele>271.0</ele><time>2026-04-04T14:20:01.028Z</time></trkpt><trkpt lat="45.043135" lon="8.3118533"><ele>271.0</ele><time>2026-04-04T14:20:02.028Z</time></trkpt><trkpt lat="45.04318" lon="8.3119383"><ele>271.0</ele><time>2026-04-04T14:20:03.029Z</time></trkpt><trkpt lat="45.0432317" lon="8.3120133"><ele>271.0</ele><time>2026-04-04T14:20:04.027Z</time></trkpt><trkpt lat="45.04329" lon="8.3120717"><ele>271.0</ele><time>2026-04-04T14:20:05.028Z</time></trkpt><trkpt lat="45.0433683" lon="8.3120983"><ele>271.0</ele><time>2026-04-04T14:20:06.028Z</time></trkpt><trkpt lat="45.0434532" lon="8.3120936"><ele>271.0</ele><time>2026-04-04T14:20:07.027Z</time></trkpt><trkpt lat="45.0435397" lon="8.312081"><ele>271.0</ele><time>2026-04-04T14:20:08.028Z</time></trkpt><trkpt lat="45.0436502" lon="8.3120244"><ele>271.0</ele><time>2026-04-04T14:20:09.029Z</time></trkpt><trkpt lat="45.0437498" lon="8.3119322"><ele>271.0</ele><time>2026-04-04T14:20:10.03Z</time></trkpt><trkpt lat="45.0438278" lon="8.3118014"><ele>271.0</ele><time>2026-04-04T14:20:11.028Z</time></trkpt><trkpt lat="45.0438956" lon="8.311661"><ele>271.0</ele><time>2026-04-04T14:20:12.028Z</time></trkpt><trkpt lat="45.0439343" lon="8.311423"><ele>271.0</ele><time>2026-04-04T14:20:13.028Z</time></trkpt><trkpt lat="45.0439936" lon="8.3111754"><ele>273.3333333333333</ele><time>2026-04-04T14:20:14.028Z</time></trkpt><trkpt lat="45.0440455" lon="8.3109722"><ele>275.6666666666667</ele><time>2026-04-04T14:20:15.028Z</time></trkpt><trkpt lat="45.0441119" lon="8.3107614"><ele>278.0</ele><time>2026-04-04T14:20:16.03Z</time></trkpt><trkpt lat="45.0442043" lon="8.3104953"><ele>278.0</ele><time>2026-04-04T14:20:17.028Z</time></trkpt><trkpt lat="45.0442901" lon="8.3102965"><ele>278.0</ele><time>2026-04-04T14:20:18.028Z</time></trkpt><trkpt lat="45.0443778" lon="8.310133"><ele>278.0</ele><time>2026-04-04T14:20:19.029Z</time></trkpt><trkpt lat="45.0444686" lon="8.3099836"><ele>278.0</ele><time>2026-04-04T14:20:20.029Z</time></trkpt><trkpt lat="45.0445744" lon="8.3098284"><ele>280.0</ele><time>2026-04-04T14:20:21.03Z</time></trkpt><trkpt lat="45.044699" lon="8.3096608"><ele>282.0</ele><time>2026-04-04T14:20:22.029Z</time></trkpt><trkpt lat="45.0448301" lon="8.3094823"><ele>284.0</ele><time>2026-04-04T14:20:23.029Z</time></trkpt><trkpt lat="45.0449499" lon="8.3093012"><ele>281.33333333333337</ele><time>2026-04-04T14:20:24.029Z</time></trkpt><trkpt lat="45.0450582" lon="8.309119"><ele>278.6666666666667</ele><time>2026-04-04T14:20:25.027Z</time></trkpt><trkpt lat="45.0451559" lon="8.3089356"><ele>276.0</ele><time>2026-04-04T14:20:26.028Z</time></trkpt><trkpt lat="45.0452271" lon="8.3087546"><ele>276.0</ele><time>2026-04-04T14:20:27.027Z</time></trkpt><trkpt lat="45.0452745" lon="8.3085799"><ele>276.0</ele><time>2026-04-04T14:20:28.028Z</time></trkpt><trkpt lat="45.0453091" lon="8.3084203"><ele>276.0</ele><time>2026-04-04T14:20:29.027Z</time></trkpt><trkpt lat="45.0453333" lon="8.3082824"><ele>276.0</ele><time>2026-04-04T14:20:30.028Z</time></trkpt><trkpt lat="45.0453554" lon="8.3081786"><ele>276.0</ele><time>2026-04-04T14:20:31.028Z</time></trkpt><trkpt lat="45.0453783" lon="8.3080767"><ele>276.0</ele><time>2026-04-04T14:20:33.028Z</time></trkpt><trkpt lat="45.0454867" lon="8.3082917"><ele>276.0</ele><time>2026-04-04T14:20:36.028Z</time></trkpt><trkpt lat="45.0455333" lon="8.30851"><ele>276.0</ele><time>2026-04-04T14:20:37.027Z</time></trkpt><trkpt lat="45.045515" lon="8.308705"><ele>274.0</ele><time>2026-04-04T14:20:38.027Z</time></trkpt><trkpt lat="45.0454217" lon="8.3089167"><ele>272.0</ele><time>2026-04-04T14:20:39.029Z</time></trkpt><trkpt lat="45.0453317" lon="8.3091183"><ele>270.0</ele><time>2026-04-04T14:20:40.027Z</time></trkpt><trkpt lat="45.045265" lon="8.3093167"><ele>270.0</ele><time>2026-04-04T14:20:41.028Z</time></trkpt><trkpt lat="45.04516" lon="8.3095383"><ele>270.0</ele><time>2026-04-04T14:20:42.029Z</time></trkpt><trkpt lat="45.0451" lon="8.309735"><ele>270.0</ele><time>2026-04-04T14:20:43.027Z</time></trkpt><trkpt lat="45.04504" lon="8.309935"><ele>267.6666666666667</ele><time>2026-04-04T14:20:44.028Z</time></trkpt><trkpt lat="45.0449733" lon="8.310135"><ele>265.33333333333337</ele><time>2026-04-04T14:20:45.029Z</time></trkpt><trkpt lat="45.0449117" lon="8.3103317"><ele>263.0</ele><time>2026-04-04T14:20:46.028Z</time></trkpt><trkpt lat="45.0448517" lon="8.3105267"><ele>264.0</ele><time>2026-04-04T14:20:47.027Z</time></trkpt><trkpt lat="45.0447917" lon="8.3107217"><ele>265.0</ele><time>2026-04-04T14:20:48.027Z</time></trkpt><trkpt lat="45.0447333" lon="8.3109183"><ele>266.0</ele><time>2026-04-04T14:20:49.027Z</time></trkpt><trkpt lat="45.04468" lon="8.311105"><ele>267.0</ele><time>2026-04-04T14:20:50.028Z</time></trkpt><trkpt lat="45.0446317" lon="8.311285"><ele>264.5</ele><time>2026-04-04T14:20:51.028Z</time></trkpt><trkpt lat="45.0445867" lon="8.3114633"><ele>262.0</ele><time>2026-04-04T14:20:52.028Z</time></trkpt><trkpt lat="45.0445467" lon="8.31164"><ele>259.5</ele><time>2026-04-04T14:20:53.028Z</time></trkpt><trkpt lat="45.0445083" lon="8.3118117"><ele>257.0</ele><time>2026-04-04T14:20:54.028Z</time></trkpt><trkpt lat="45.0444683" lon="8.31198"><ele>257.0</ele><time>2026-04-04T14:20:55.029Z</time></trkpt><trkpt lat="45.0444283" lon="8.3121417"><ele>257.0</ele><time>2026-04-04T14:20:56.028Z</time></trkpt><trkpt lat="45.0443817" lon="8.31229"><ele>257.0</ele><time>2026-04-04T14:20:57.028Z</time></trkpt><trkpt lat="45.044325" lon="8.3124283"><ele>257.0</ele><time>2026-04-04T14:20:58.028Z</time></trkpt><trkpt lat="45.0442617" lon="8.3125567"><ele>257.8</ele><time>2026-04-04T14:20:59.028Z</time></trkpt><trkpt lat="45.044195" lon="8.3126783"><ele>258.6</ele><time>2026-04-04T14:21:00.029Z</time></trkpt><trkpt lat="45.0441317" lon="8.3128"><ele>259.40000000000003</ele><time>2026-04-04T14:21:01.028Z</time></trkpt><trkpt lat="45.0440667" lon="8.312925"><ele>260.2</ele><time>2026-04-04T14:21:02.027Z</time></trkpt><trkpt lat="45.0440133" lon="8.3130483"><ele>261.0</ele><time>2026-04-04T14:21:03.027Z</time></trkpt><trkpt lat="45.0439683" lon="8.31317"><ele>259.1666666666667</ele><time>2026-04-04T14:21:04.028Z</time></trkpt><trkpt lat="45.0439417" lon="8.3132867"><ele>257.3333333333333</ele><time>2026-04-04T14:21:05.028Z</time></trkpt><trkpt lat="45.0439267" lon="8.3133917"><ele>255.5</ele><time>2026-04-04T14:21:06.028Z</time></trkpt><trkpt lat="45.0439383" lon="8.3134817"><ele>253.66666666666666</ele><time>2026-04-04T14:21:07.027Z</time></trkpt><trkpt lat="45.0439533" lon="8.3136133"><ele>251.83333333333331</ele><time>2026-04-04T14:21:09.027Z</time></trkpt><trkpt lat="45.0439433" lon="8.3137083"><ele>250.0</ele><time>2026-04-04T14:21:11.028Z</time></trkpt><trkpt lat="45.0438833" lon="8.3137767"><ele>250.0</ele><time>2026-04-04T14:21:13.028Z</time></trkpt><trkpt lat="45.0437633" lon="8.3138533"><ele>250.0</ele><time>2026-04-04T14:21:15.029Z</time></trkpt><trkpt lat="45.043685" lon="8.3139067"><ele>250.0</ele><time>2026-04-04T14:21:16.027Z</time></trkpt><trkpt lat="45.0435883" lon="8.3139683"><ele>250.0</ele><time>2026-04-04T14:21:17.028Z</time></trkpt><trkpt lat="45.0434733" lon="8.31403"><ele>250.0</ele><time>2026-04-04T14:21:18.028Z</time></trkpt><trkpt lat="45.0433617" lon="8.31409"><ele>247.2</ele><time>2026-04-04T14:21:19.029Z</time></trkpt><trkpt lat="45.0432583" lon="8.31415"><ele>244.4</ele><time>2026-04-04T14:21:20.029Z</time></trkpt><trkpt lat="45.0431533" lon="8.314195"><ele>241.60000000000002</ele><time>2026-04-04T14:21:21.027Z</time></trkpt><trkpt lat="45.04305" lon="8.3142067"><ele>238.8</ele><time>2026-04-04T14:21:22.03Z</time></trkpt><trkpt lat="45.0429583" lon="8.3142"><ele>236.0</ele><time>2026-04-04T14:21:23.028Z</time></trkpt><trkpt lat="45.042875" lon="8.3141717"><ele>236.0</ele><time>2026-04-04T14:21:24.028Z</time></trkpt><trkpt lat="45.0427967" lon="8.3141117"><ele>236.0</ele><time>2026-04-04T14:21:25.027Z</time></trkpt><trkpt lat="45.0427317" lon="8.3140033"><ele>236.0</ele><time>2026-04-04T14:21:26.029Z</time></trkpt><trkpt lat="45.0426883" lon="8.31382"><ele>236.0</ele><time>2026-04-04T14:21:27.029Z</time></trkpt><trkpt lat="45.0426283" lon="8.3136633"><ele>238.0</ele><time>2026-04-04T14:21:28.027Z</time></trkpt><trkpt lat="45.04256" lon="8.3134817"><ele>240.0</ele><time>2026-04-04T14:21:29.03Z</time></trkpt><trkpt lat="45.0424917" lon="8.3132983"><ele>242.0</ele><time>2026-04-04T14:21:30.027Z</time></trkpt><trkpt lat="45.0424233" lon="8.3131117"><ele>244.0</ele><time>2026-04-04T14:21:31.028Z</time></trkpt><trkpt lat="45.042355" lon="8.312925"><ele>246.5</ele><time>2026-04-04T14:21:32.029Z</time></trkpt><trkpt lat="45.042285" lon="8.3127283"><ele>249.0</ele><time>2026-04-04T14:21:33.028Z</time></trkpt><trkpt lat="45.0422167" lon="8.3125433"><ele>251.5</ele><time>2026-04-04T14:21:34.027Z</time></trkpt><trkpt lat="45.04215" lon="8.3123717"><ele>254.0</ele><time>2026-04-04T14:21:35.03Z</time></trkpt><trkpt lat="45.0420817" lon="8.3122117"><ele>256.0</ele><time>2026-04-04T14:21:36.029Z</time></trkpt><trkpt lat="45.042005" lon="8.31207"><ele>258.0</ele><time>2026-04-04T14:21:37.028Z</time></trkpt><trkpt lat="45.04192" lon="8.31195"><ele>260.0</ele><time>2026-04-04T14:21:38.028Z</time></trkpt><trkpt lat="45.0418233" lon="8.3118567"><ele>262.0</ele><time>2026-04-04T14:21:39.029Z</time></trkpt><trkpt lat="45.0417217" lon="8.3118033"><ele>263.5</ele><time>2026-04-04T14:21:40.027Z</time></trkpt><trkpt lat="45.041605" lon="8.3117767"><ele>265.0</ele><time>2026-04-04T14:21:41.028Z</time></trkpt><trkpt lat="45.0414967" lon="8.311785"><ele>266.5</ele><time>2026-04-04T14:21:42.028Z</time></trkpt><trkpt lat="45.04139" lon="8.311835"><ele>268.0</ele><time>2026-04-04T14:21:43.028Z</time></trkpt><trkpt lat="45.0412817" lon="8.3119167"><ele>268.0</ele><time>2026-04-04T14:21:44.027Z</time></trkpt><trkpt lat="45.0411833" lon="8.312035"><ele>268.0</ele><time>2026-04-04T14:21:45.029Z</time></trkpt><trkpt lat="45.04109" lon="8.3121617"><ele>268.0</ele><time>2026-04-04T14:21:46.029Z</time></trkpt><trkpt lat="45.0410083" lon="8.3122833"><ele>268.0</ele><time>2026-04-04T14:21:47.028Z</time></trkpt><trkpt lat="45.0409333" lon="8.31239"><ele>268.3333333333333</ele><time>2026-04-04T14:21:48.027Z</time></trkpt><trkpt lat="45.0408583" lon="8.31247"><ele>268.66666666666663</ele><time>2026-04-04T14:21:49.027Z</time></trkpt><trkpt lat="45.0407767" lon="8.3125233"><ele>269.0</ele><time>2026-04-04T14:21:50.028Z</time></trkpt><trkpt lat="45.0406933" lon="8.3125533"><ele>269.3333333333333</ele><time>2026-04-04T14:21:51.028Z</time></trkpt><trkpt lat="45.0406117" lon="8.31255"><ele>269.6666666666667</ele><time>2026-04-04T14:21:52.028Z</time></trkpt><trkpt lat="45.0405367" lon="8.31253"><ele>270.0</ele><time>2026-04-04T14:21:53.029Z</time></trkpt><trkpt lat="45.04048" lon="8.31248"><ele>270.0</ele><time>2026-04-04T14:21:54.028Z</time></trkpt><trkpt lat="45.0404017" lon="8.3123617"><ele>270.0</ele><time>2026-04-04T14:21:56.029Z</time></trkpt><trkpt lat="45.040385" lon="8.3122367"><ele>270.0</ele><time>2026-04-04T14:21:58.028Z</time></trkpt><trkpt lat="45.040405" lon="8.3121283"><ele>270.0</ele><time>2026-04-04T14:22:00.027Z</time></trkpt><trkpt lat="45.04045" lon="8.31199"><ele>270.0</ele><time>2026-04-04T14:22:02.027Z</time></trkpt><trkpt lat="45.0404867" lon="8.3119067"><ele>268.6666666666667</ele><time>2026-04-04T14:22:03.029Z</time></trkpt><trkpt lat="45.0405217" lon="8.3118317"><ele>267.3333333333333</ele><time>2026-04-04T14:22:04.027Z</time></trkpt><trkpt lat="45.040565" lon="8.311745"><ele>266.0</ele><time>2026-04-04T14:22:05.028Z</time></trkpt><trkpt lat="45.0406167" lon="8.3116383"><ele>264.66666666666663</ele><time>2026-04-04T14:22:06.028Z</time></trkpt><trkpt lat="45.0406667" lon="8.3115367"><ele>263.3333333333333</ele><time>2026-04-04T14:22:07.029Z</time></trkpt><trkpt lat="45.0407133" lon="8.3114333"><ele>262.0</ele><time>2026-04-04T14:22:08.028Z</time></trkpt><trkpt lat="45.040755" lon="8.311325"><ele>260.8</ele><time>2026-04-04T14:22:09.03Z</time></trkpt><trkpt lat="45.04079" lon="8.31122"><ele>259.6</ele><time>2026-04-04T14:22:10.027Z</time></trkpt><trkpt lat="45.040825" lon="8.3111433"><ele>258.40000000000003</ele><time>2026-04-04T14:22:11.03Z</time></trkpt><trkpt lat="45.04085" lon="8.3109817"><ele>257.2</ele><time>2026-04-04T14:22:13.031Z</time></trkpt><trkpt lat="45.0408683" lon="8.3108617"><ele>256.0</ele><time>2026-04-04T14:22:15.03Z</time></trkpt><trkpt lat="45.0408717" lon="8.3107117"><ele>258.5</ele><time>2026-04-04T14:22:19.029Z</time></trkpt><trkpt lat="45.0409" lon="8.3105417"><ele>261.0</ele><time>2026-04-04T14:22:21.03Z</time></trkpt><trkpt lat="45.0408967" lon="8.3104417"><ele>263.5</ele><time>2026-04-04T14:22:22.028Z</time></trkpt><trkpt lat="45.040895" lon="8.31034"><ele>266.0</ele><time>2026-04-04T14:22:23.029Z</time></trkpt><trkpt lat="45.0408883" lon="8.31024"><ele>268.5</ele><time>2026-04-04T14:22:24.028Z</time></trkpt><trkpt lat="45.04087" lon="8.3101283"><ele>271.0</ele><time>2026-04-04T14:22:25.029Z</time></trkpt><trkpt lat="45.040855" lon="8.3100117"><ele>271.0</ele><time>2026-04-04T14:22:26.028Z</time></trkpt><trkpt lat="45.04085" lon="8.3098883"><ele>271.0</ele><time>2026-04-04T14:22:27.029Z</time></trkpt><trkpt lat="45.040845" lon="8.3097617"><ele>271.0</ele><time>2026-04-04T14:22:28.028Z</time></trkpt><trkpt lat="45.040835" lon="8.3096333"><ele>271.0</ele><time>2026-04-04T14:22:29.029Z</time></trkpt><trkpt lat="45.0408233" lon="8.3094967"><ele>271.0</ele><time>2026-04-04T14:22:30.028Z</time></trkpt><trkpt lat="45.0408233" lon="8.30936"><ele>271.0</ele><time>2026-04-04T14:22:31.029Z</time></trkpt><trkpt lat="45.0408267" lon="8.309225"><ele>271.0</ele><time>2026-04-04T14:22:32.027Z</time></trkpt><trkpt lat="45.04082" lon="8.309095"><ele>271.0</ele><time>2026-04-04T14:22:33.03Z</time></trkpt><trkpt lat="45.04081" lon="8.3089733"><ele>271.0</ele><time>2026-04-04T14:22:34.029Z</time></trkpt><trkpt lat="45.0408033" lon="8.3088583"><ele>271.0</ele><time>2026-04-04T14:22:35.028Z</time></trkpt><trkpt lat="45.0407933" lon="8.308755"><ele>271.0</ele><time>2026-04-04T14:22:36.03Z</time></trkpt><trkpt lat="45.040795" lon="8.3086583"><ele>271.0</ele><time>2026-04-04T14:22:37.029Z</time></trkpt><trkpt lat="45.0408033" lon="8.308565"><ele>271.0</ele><time>2026-04-04T14:22:38.028Z</time></trkpt><trkpt lat="45.040805" lon="8.3084117"><ele>271.0</ele><time>2026-04-04T14:22:40.027Z</time></trkpt><trkpt lat="45.04079" lon="8.3083083"><ele>271.0</ele><time>2026-04-04T14:22:42.028Z</time></trkpt><trkpt lat="45.04077" lon="8.3081817"><ele>271.0</ele><time>2026-04-04T14:23:09.027Z</time></trkpt><trkpt lat="45.0407317" lon="8.3081083"><ele>271.0</ele><time>2026-04-04T14:23:12.027Z</time></trkpt><trkpt lat="45.040695" lon="8.308"><ele>270.16666666666663</ele><time>2026-04-04T14:23:15.028Z</time></trkpt><trkpt lat="45.0406717" lon="8.30789"><ele>269.3333333333333</ele><time>2026-04-04T14:23:18.027Z</time></trkpt><trkpt lat="45.040625" lon="8.3078117"><ele>268.5</ele><time>2026-04-04T14:23:20.026Z</time></trkpt><trkpt lat="45.0405917" lon="8.307725"><ele>267.6666666666667</ele><time>2026-04-04T14:23:22.028Z</time></trkpt><trkpt lat="45.0405533" lon="8.307635"><ele>266.83333333333337</ele><time>2026-04-04T14:23:24.028Z</time></trkpt><trkpt lat="45.0404983" lon="8.30752"><ele>266.0</ele><time>2026-04-04T14:23:27.028Z</time></trkpt><trkpt lat="45.0404467" lon="8.3074417"><ele>266.0</ele><time>2026-04-04T14:23:30.029Z</time></trkpt><trkpt lat="45.0403917" lon="8.307345"><ele>266.0</ele><time>2026-04-04T14:23:33.027Z</time></trkpt><trkpt lat="45.040375" lon="8.3072533"><ele>266.0</ele><time>2026-04-04T14:23:48.027Z</time></trkpt><trkpt lat="45.0404033" lon="8.3071567"><ele>266.0</ele><time>2026-04-04T14:23:52.026Z</time></trkpt><trkpt lat="45.0404667" lon="8.307145"><ele>266.0</ele><time>2026-04-04T14:23:56.027Z</time></trkpt><trkpt lat="45.040435" lon="8.30723"><ele>266.0</ele><time>2026-04-04T14:24:18.028Z</time></trkpt><trkpt lat="45.04048" lon="8.3073333"><ele>266.0</ele><time>2026-04-04T14:24:21.029Z</time></trkpt><trkpt lat="45.0405317" lon="8.30744"><ele>266.0</ele><time>2026-04-04T14:24:23.028Z</time></trkpt><trkpt lat="45.04058" lon="8.3075517"><ele>266.0</ele><time>2026-04-04T14:24:25.028Z</time></trkpt><trkpt lat="45.0406167" lon="8.3076533"><ele>266.0</ele><time>2026-04-04T14:24:27.028Z</time></trkpt><trkpt lat="45.0406667" lon="8.3077517"><ele>266.0</ele><time>2026-04-04T14:24:29.027Z</time></trkpt><trkpt lat="45.04071" lon="8.3078517"><ele>266.0</ele><time>2026-04-04T14:24:31.028Z</time></trkpt><trkpt lat="45.0407567" lon="8.3079817"><ele>266.0</ele><time>2026-04-04T14:24:39.028Z</time></trkpt><trkpt lat="45.040715" lon="8.307885"><ele>266.0</ele><time>2026-04-04T14:24:53.028Z</time></trkpt><trkpt lat="45.040655" lon="8.3077867"><ele>266.0</ele><time>2026-04-04T14:24:55.028Z</time></trkpt><trkpt lat="45.0406" lon="8.30766"><ele>266.0</ele><time>2026-04-04T14:24:57.031Z</time></trkpt><trkpt lat="45.04054" lon="8.3075417"><ele>266.0</ele><time>2026-04-04T14:24:59.028Z</time></trkpt><trkpt lat="45.0404983" lon="8.3074433"><ele>266.0</ele><time>2026-04-04T14:25:01.028Z</time></trkpt><trkpt lat="45.0404567" lon="8.3073517"><ele>266.0</ele><time>2026-04-04T14:25:03.029Z</time></trkpt><trkpt lat="45.0404283" lon="8.3072667"><ele>266.0</ele><time>2026-04-04T14:25:05.029Z</time></trkpt><trkpt lat="45.0403833" lon="8.3071967"><ele>266.0</ele><time>2026-04-04T14:25:08.029Z</time></trkpt><trkpt lat="45.0403617" lon="8.307295"><ele>266.0</ele><time>2026-04-04T14:25:15.027Z</time></trkpt><trkpt lat="45.0404033" lon="8.3073733"><ele>266.0</ele><time>2026-04-04T14:25:17.028Z</time></trkpt><trkpt lat="45.040465" lon="8.3074633"><ele>266.0</ele><time>2026-04-04T14:25:19.027Z</time></trkpt><trkpt lat="45.040525" lon="8.3075883"><ele>266.0</ele><time>2026-04-04T14:25:21.029Z</time></trkpt><trkpt lat="45.0405517" lon="8.3077183"><ele>266.0</ele><time>2026-04-04T14:25:23.032Z</time></trkpt><trkpt lat="45.0405743" lon="8.3078487"><ele>266.0</ele><time>2026-04-04T14:25:25.027Z</time></trkpt><trkpt lat="45.0406243" lon="8.3079769"><ele>266.0</ele><time>2026-04-04T14:25:27.028Z</time></trkpt><trkpt lat="45.0406854" lon="8.3080965"><ele>266.0</ele><time>2026-04-04T14:25:29.028Z</time></trkpt><trkpt lat="45.0407281" lon="8.3081918"><ele>266.83333333333337</ele><time>2026-04-04T14:25:31.029Z</time></trkpt><trkpt lat="45.0407683" lon="8.308261"><ele>267.6666666666667</ele><time>2026-04-04T14:25:34.028Z</time></trkpt><trkpt lat="45.0406933" lon="8.30822"><ele>268.5</ele><time>2026-04-04T14:25:46.027Z</time></trkpt><trkpt lat="45.0406333" lon="8.30819"><ele>269.3333333333333</ele><time>2026-04-04T14:25:47.028Z</time></trkpt><trkpt lat="45.0405583" lon="8.308165"><ele>270.16666666666663</ele><time>2026-04-04T14:25:48.029Z</time></trkpt><trkpt lat="45.0404817" lon="8.3081367"><ele>271.0</ele><time>2026-04-04T14:25:49.029Z</time></trkpt><trkpt lat="45.0403967" lon="8.3080917"><ele>270.0</ele><time>2026-04-04T14:25:50.029Z</time></trkpt><trkpt lat="45.0402983" lon="8.3080333"><ele>269.0</ele><time>2026-04-04T14:25:51.029Z</time></trkpt><trkpt lat="45.0402" lon="8.3079733"><ele>268.0</ele><time>2026-04-04T14:25:52.028Z</time></trkpt><trkpt lat="45.0400967" lon="8.3078983"><ele>267.0</ele><time>2026-04-04T14:25:53.028Z</time></trkpt><trkpt lat="45.03999" lon="8.30783"><ele>266.0</ele><time>2026-04-04T14:25:54.028Z</time></trkpt><trkpt lat="45.039885" lon="8.3077633"><ele>265.2</ele><time>2026-04-04T14:25:55.028Z</time></trkpt><trkpt lat="45.0397867" lon="8.3077"><ele>264.40000000000003</ele><time>2026-04-04T14:25:56.029Z</time></trkpt><trkpt lat="45.0396933" lon="8.3076417"><ele>263.6</ele><time>2026-04-04T14:25:57.029Z</time></trkpt><trkpt lat="45.0396" lon="8.3075867"><ele>262.8</ele><time>2026-04-04T14:25:58.027Z</time></trkpt><trkpt lat="45.03951" lon="8.30754"><ele>262.0</ele><time>2026-04-04T14:25:59.032Z</time></trkpt><trkpt lat="45.0394133" lon="8.3074983"><ele>262.0</ele><time>2026-04-04T14:26:00.028Z</time></trkpt><trkpt lat="45.03931" lon="8.3074633"><ele>262.0</ele><time>2026-04-04T14:26:01.028Z</time></trkpt><trkpt lat="45.0392117" lon="8.3074433"><ele>262.0</ele><time>2026-04-04T14:26:02.029Z</time></trkpt><trkpt lat="45.0391167" lon="8.3074233"><ele>262.0</ele><time>2026-04-04T14:26:03.029Z</time></trkpt><trkpt lat="45.0390217" lon="8.307405"><ele>262.0</ele><time>2026-04-04T14:26:04.028Z</time></trkpt><trkpt lat="45.038925" lon="8.3073917"><ele>262.2</ele><time>2026-04-04T14:26:05.029Z</time></trkpt><trkpt lat="45.03883" lon="8.307375"><ele>262.4</ele><time>2026-04-04T14:26:06.029Z</time></trkpt><trkpt lat="45.0387317" lon="8.3073567"><ele>262.6</ele><time>2026-04-04T14:26:07.029Z</time></trkpt><trkpt lat="45.0386467" lon="8.3073267"><ele>262.8</ele><time>2026-04-04T14:26:08.029Z</time></trkpt><trkpt lat="45.03855" lon="8.3072967"><ele>263.0</ele><time>2026-04-04T14:26:09.028Z</time></trkpt><trkpt lat="45.0384533" lon="8.3072433"><ele>263.4</ele><time>2026-04-04T14:26:10.027Z</time></trkpt><trkpt lat="45.0383733" lon="8.3071617"><ele>263.8</ele><time>2026-04-04T14:26:11.028Z</time></trkpt><trkpt lat="45.0383067" lon="8.307055"><ele>264.2</ele><time>2026-04-04T14:26:12.029Z</time></trkpt><trkpt lat="45.038245" lon="8.3069117"><ele>264.6</ele><time>2026-04-04T14:26:13.03Z</time></trkpt><trkpt lat="45.0381867" lon="8.3067667"><ele>265.0</ele><time>2026-04-04T14:26:14.028Z</time></trkpt><trkpt lat="45.0381283" lon="8.306635"><ele>265.3333333333333</ele><time>2026-04-04T14:26:15.03Z</time></trkpt><trkpt lat="45.0380717" lon="8.3065183"><ele>265.66666666666663</ele><time>2026-04-04T14:26:16.028Z</time></trkpt><trkpt lat="45.0380183" lon="8.3064117"><ele>266.0</ele><time>2026-04-04T14:26:17.029Z</time></trkpt><trkpt lat="45.0379583" lon="8.3063117"><ele>266.3333333333333</ele><time>2026-04-04T14:26:18.028Z</time></trkpt><trkpt lat="45.0379017" lon="8.3062433"><ele>266.6666666666667</ele><time>2026-04-04T14:26:19.029Z</time></trkpt><trkpt lat="45.0378467" lon="8.3061867"><ele>267.0</ele><time>2026-04-04T14:26:20.027Z</time></trkpt><trkpt lat="45.0377783" lon="8.3061367"><ele>267.3333333333333</ele><time>2026-04-04T14:26:21.03Z</time></trkpt><trkpt lat="45.037715" lon="8.3060783"><ele>267.6666666666667</ele><time>2026-04-04T14:26:22.029Z</time></trkpt><trkpt lat="45.03765" lon="8.3060133"><ele>268.0</ele><time>2026-04-04T14:26:23.028Z</time></trkpt><trkpt lat="45.0375867" lon="8.30595"><ele>268.33333333333337</ele><time>2026-04-04T14:26:24.029Z</time></trkpt><trkpt lat="45.0374933" lon="8.3058517"><ele>268.6666666666667</ele><time>2026-04-04T14:26:26.029Z</time></trkpt><trkpt lat="45.0374233" lon="8.3057817"><ele>269.0</ele><time>2026-04-04T14:26:28.027Z</time></trkpt><trkpt lat="45.037495" lon="8.305765"><ele>269.6666666666667</ele><time>2026-04-04T14:26:43.028Z</time></trkpt><trkpt lat="45.0375683" lon="8.305815"><ele>270.33333333333337</ele><time>2026-04-04T14:26:45.028Z</time></trkpt><trkpt lat="45.03765" lon="8.3058783"><ele>271.0</ele><time>2026-04-04T14:26:46.028Z</time></trkpt><trkpt lat="45.03773" lon="8.3059533"><ele>271.6666666666667</ele><time>2026-04-04T14:26:47.027Z</time></trkpt><trkpt lat="45.0378" lon="8.3060267"><ele>272.3333333333333</ele><time>2026-04-04T14:26:48.027Z</time></trkpt><trkpt lat="45.03787" lon="8.3060983"><ele>273.0</ele><time>2026-04-04T14:26:49.028Z</time></trkpt><trkpt lat="45.0379317" lon="8.3061833"><ele>273.0</ele><time>2026-04-04T14:26:50.027Z</time></trkpt><trkpt lat="45.0379883" lon="8.3062783"><ele>273.0</ele><time>2026-04-04T14:26:51.026Z</time></trkpt><trkpt lat="45.0380467" lon="8.30638"><ele>273.0</ele><time>2026-04-04T14:26:52.026Z</time></trkpt><trkpt lat="45.0381083" lon="8.3064933"><ele>273.0</ele><time>2026-04-04T14:26:53.027Z</time></trkpt><trkpt lat="45.0381517" lon="8.3066183"><ele>273.0</ele><time>2026-04-04T14:26:54.028Z</time></trkpt><trkpt lat="45.0382" lon="8.3067433"><ele>271.8</ele><time>2026-04-04T14:26:55.031Z</time></trkpt><trkpt lat="45.0382717" lon="8.30688"><ele>270.6</ele><time>2026-04-04T14:26:56.027Z</time></trkpt><trkpt lat="45.0383133" lon="8.3070183"><ele>269.4</ele><time>2026-04-04T14:26:57.028Z</time></trkpt><trkpt lat="45.0383733" lon="8.3071233"><ele>268.2</ele><time>2026-04-04T14:26:58.029Z</time></trkpt><trkpt lat="45.038435" lon="8.30722"><ele>267.0</ele><time>2026-04-04T14:26:59.027Z</time></trkpt><trkpt lat="45.0385" lon="8.3072917"><ele>266.3333333333333</ele><time>2026-04-04T14:27:00.027Z</time></trkpt><trkpt lat="45.0385667" lon="8.3073517"><ele>265.6666666666667</ele><time>2026-04-04T14:27:01.027Z</time></trkpt><trkpt lat="45.0386467" lon="8.307395"><ele>265.0</ele><time>2026-04-04T14:27:02.028Z</time></trkpt><trkpt lat="45.0387367" lon="8.3074333"><ele>264.33333333333337</ele><time>2026-04-04T14:27:03.03Z</time></trkpt><trkpt lat="45.0388317" lon="8.3074533"><ele>263.6666666666667</ele><time>2026-04-04T14:27:04.026Z</time></trkpt><trkpt lat="45.038905" lon="8.3074533"><ele>263.0</ele><time>2026-04-04T14:27:05.028Z</time></trkpt><trkpt lat="45.0389783" lon="8.30746"><ele>263.0</ele><time>2026-04-04T14:27:06.027Z</time></trkpt><trkpt lat="45.0390467" lon="8.3074633"><ele>263.0</ele><time>2026-04-04T14:27:07.027Z</time></trkpt><trkpt lat="45.0391117" lon="8.3074683"><ele>263.0</ele><time>2026-04-04T14:27:08.03Z</time></trkpt><trkpt lat="45.0392183" lon="8.307485"><ele>263.0</ele><time>2026-04-04T14:27:10.028Z</time></trkpt><trkpt lat="45.0392983" lon="8.3074583"><ele>263.0</ele><time>2026-04-04T14:27:13.028Z</time></trkpt><trkpt lat="45.0392333" lon="8.3073917"><ele>263.0</ele><time>2026-04-04T14:27:30.028Z</time></trkpt><trkpt lat="45.0391233" lon="8.3073467"><ele>263.0</ele><time>2026-04-04T14:27:32.028Z</time></trkpt><trkpt lat="45.0390033" lon="8.30731"><ele>263.0</ele><time>2026-04-04T14:27:34.027Z</time></trkpt><trkpt lat="45.038885" lon="8.3072767"><ele>263.0</ele><time>2026-04-04T14:27:36.028Z</time></trkpt><trkpt lat="45.0387717" lon="8.3072433"><ele>263.0</ele><time>2026-04-04T14:27:38.029Z</time></trkpt><trkpt lat="45.038665" lon="8.307195"><ele>263.4</ele><time>2026-04-04T14:27:40.028Z</time></trkpt><trkpt lat="45.0385483" lon="8.30713"><ele>263.8</ele><time>2026-04-04T14:27:42.029Z</time></trkpt><trkpt lat="45.0384383" lon="8.3070017"><ele>264.2</ele><time>2026-04-04T14:27:44.031Z</time></trkpt><trkpt lat="45.03841" lon="8.3068983"><ele>264.6</ele><time>2026-04-04T14:27:45.029Z</time></trkpt><trkpt lat="45.038375" lon="8.3068117"><ele>265.0</ele><time>2026-04-04T14:27:46.029Z</time></trkpt><trkpt lat="45.0383667" lon="8.30672"><ele>265.0</ele><time>2026-04-04T14:27:47.029Z</time></trkpt><trkpt lat="45.0383767" lon="8.306615"><ele>265.0</ele><time>2026-04-04T14:27:48.031Z</time></trkpt><trkpt lat="45.0383767" lon="8.3065083"><ele>265.0</ele><time>2026-04-04T14:27:49.03Z</time></trkpt><trkpt lat="45.0383733" lon="8.306415"><ele>265.0</ele><time>2026-04-04T14:27:50.03Z</time></trkpt><trkpt lat="45.0383917" lon="8.30625"><ele>265.0</ele><time>2026-04-04T14:27:51.031Z</time></trkpt><trkpt lat="45.0383833" lon="8.3060483"><ele>264.3333333333333</ele><time>2026-04-04T14:27:53.029Z</time></trkpt><trkpt lat="45.0383717" lon="8.3059467"><ele>263.66666666666663</ele><time>2026-04-04T14:27:54.028Z</time></trkpt><trkpt lat="45.0383583" lon="8.3058433"><ele>263.0</ele><time>2026-04-04T14:27:55.029Z</time></trkpt><trkpt lat="45.03834" lon="8.3057333"><ele>262.3333333333333</ele><time>2026-04-04T14:27:56.028Z</time></trkpt><trkpt lat="45.03831" lon="8.30563"><ele>261.6666666666667</ele><time>2026-04-04T14:27:57.029Z</time></trkpt><trkpt lat="45.038265" lon="8.305525"><ele>261.0</ele><time>2026-04-04T14:27:58.028Z</time></trkpt><trkpt lat="45.0382083" lon="8.3054033"><ele>261.0</ele><time>2026-04-04T14:27:59.03Z</time></trkpt><trkpt lat="45.03816" lon="8.3052917"><ele>261.0</ele><time>2026-04-04T14:28:00.029Z</time></trkpt><trkpt lat="45.0380917" lon="8.3051583"><ele>261.0</ele><time>2026-04-04T14:28:01.03Z</time></trkpt><trkpt lat="45.0380267" lon="8.3050367"><ele>261.0</ele><time>2026-04-04T14:28:02.031Z</time></trkpt><trkpt lat="45.03796" lon="8.3049417"><ele>261.0</ele><time>2026-04-04T14:28:03.028Z</time></trkpt><trkpt lat="45.0378967" lon="8.30484"><ele>261.0</ele><time>2026-04-04T14:28:04.027Z</time></trkpt><trkpt lat="45.037835" lon="8.3047467"><ele>261.0</ele><time>2026-04-04T14:28:05.029Z</time></trkpt><trkpt lat="45.03777" lon="8.304645"><ele>261.0</ele><time>2026-04-04T14:28:06.028Z</time></trkpt><trkpt lat="45.0377" lon="8.3045533"><ele>261.0</ele><time>2026-04-04T14:28:07.028Z</time></trkpt><trkpt lat="45.03763" lon="8.3044583"><ele>261.0</ele><time>2026-04-04T14:28:08.03Z</time></trkpt><trkpt lat="45.0375633" lon="8.30436"><ele>259.1666666666667</ele><time>2026-04-04T14:28:09.03Z</time></trkpt><trkpt lat="45.0375017" lon="8.3042733"><ele>257.3333333333333</ele><time>2026-04-04T14:28:10.029Z</time></trkpt><trkpt lat="45.0374383" lon="8.3041983"><ele>255.5</ele><time>2026-04-04T14:28:11.028Z</time></trkpt><trkpt lat="45.0373767" lon="8.3041283"><ele>253.66666666666666</ele><time>2026-04-04T14:28:12.028Z</time></trkpt><trkpt lat="45.0373133" lon="8.304055"><ele>251.83333333333331</ele><time>2026-04-04T14:28:13.028Z</time></trkpt><trkpt lat="45.0372467" lon="8.30398"><ele>250.0</ele><time>2026-04-04T14:28:14.03Z</time></trkpt><trkpt lat="45.0371717" lon="8.303905"><ele>246.66666666666666</ele><time>2026-04-04T14:28:15.03Z</time></trkpt><trkpt lat="45.0371014" lon="8.3038375"><ele>243.33333333333331</ele><time>2026-04-04T14:28:16.028Z</time></trkpt><trkpt lat="45.0370354" lon="8.3037726"><ele>240.0</ele><time>2026-04-04T14:28:17.028Z</time></trkpt><trkpt lat="45.0369645" lon="8.303708"><ele>236.66666666666669</ele><time>2026-04-04T14:28:18.029Z</time></trkpt><trkpt lat="45.0368951" lon="8.3036481"><ele>233.33333333333334</ele><time>2026-04-04T14:28:19.03Z</time></trkpt><trkpt lat="45.0368306" lon="8.3035911"><ele>230.0</ele><time>2026-04-04T14:28:20.029Z</time></trkpt><trkpt lat="45.0367677" lon="8.3035453"><ele>230.0</ele><time>2026-04-04T14:28:21.029Z</time></trkpt><trkpt lat="45.0366557" lon="8.3034895"><ele>230.0</ele><time>2026-04-04T14:28:23.03Z</time></trkpt><trkpt lat="45.0365589" lon="8.3034797"><ele>230.0</ele><time>2026-04-04T14:28:25.029Z</time></trkpt><trkpt lat="45.0364751" lon="8.3034758"><ele>230.0</ele><time>2026-04-04T14:28:28.028Z</time></trkpt><trkpt lat="45.036395" lon="8.3034033"><ele>230.0</ele><time>2026-04-04T14:29:05.031Z</time></trkpt><trkpt lat="45.036335" lon="8.3033233"><ele>229.4</ele><time>2026-04-04T14:29:07.028Z</time></trkpt><trkpt lat="45.0362967" lon="8.3032033"><ele>228.8</ele><time>2026-04-04T14:29:09.03Z</time></trkpt><trkpt lat="45.036285" lon="8.3030383"><ele>228.2</ele><time>2026-04-04T14:29:11.029Z</time></trkpt><trkpt lat="45.03626" lon="8.3028533"><ele>227.6</ele><time>2026-04-04T14:29:13.03Z</time></trkpt><trkpt lat="45.0362483" lon="8.3027433"><ele>227.0</ele><time>2026-04-04T14:29:14.029Z</time></trkpt><trkpt lat="45.0362333" lon="8.3026383"><ele>227.0</ele><time>2026-04-04T14:29:15.03Z</time></trkpt><trkpt lat="45.036224" lon="8.3025392"><ele>227.00000000000003</ele><time>2026-04-04T14:29:16.029Z</time></trkpt><trkpt lat="45.0362065" lon="8.3024382"><ele>227.0</ele><time>2026-04-04T14:29:17.03Z</time></trkpt><trkpt lat="45.0361912" lon="8.3023362"><ele>227.0</ele><time>2026-04-04T14:29:18.03Z</time></trkpt><trkpt lat="45.036174" lon="8.3022379"><ele>227.00000000000003</ele><time>2026-04-04T14:29:19.029Z</time></trkpt><trkpt lat="45.0361568" lon="8.302142"><ele>227.0</ele><time>2026-04-04T14:29:20.029Z</time></trkpt><trkpt lat="45.0361304" lon="8.3020382"><ele>227.0</ele><time>2026-04-04T14:29:21.029Z</time></trkpt><trkpt lat="45.0360973" lon="8.3019327"><ele>226.16666666666669</ele><time>2026-04-04T14:29:22.028Z</time></trkpt><trkpt lat="45.0360615" lon="8.3018365"><ele>225.33333333333334</ele><time>2026-04-04T14:29:23.029Z</time></trkpt><trkpt lat="45.0360236" lon="8.3017452"><ele>224.5</ele><time>2026-04-04T14:29:24.029Z</time></trkpt><trkpt lat="45.0359806" lon="8.30165"><ele>223.66666666666669</ele><time>2026-04-04T14:29:25.029Z</time></trkpt><trkpt lat="45.0359343" lon="8.3015567"><ele>222.83333333333334</ele><time>2026-04-04T14:29:26.029Z</time></trkpt><trkpt lat="45.0358845" lon="8.3014537"><ele>222.0</ele><time>2026-04-04T14:29:27.031Z</time></trkpt><trkpt lat="45.0358321" lon="8.301341"><ele>223.6</ele><time>2026-04-04T14:29:28.028Z</time></trkpt><trkpt lat="45.035782" lon="8.3012211"><ele>225.2</ele><time>2026-04-04T14:29:29.03Z</time></trkpt><trkpt lat="45.0357355" lon="8.3011078"><ele>226.8</ele><time>2026-04-04T14:29:30.029Z</time></trkpt><trkpt lat="45.0356902" lon="8.3009945"><ele>228.4</ele><time>2026-04-04T14:29:31.029Z</time></trkpt><trkpt lat="45.0356465" lon="8.3008826"><ele>230.0</ele><time>2026-04-04T14:29:32.029Z</time></trkpt><trkpt lat="45.0356042" lon="8.3007703"><ele>230.00000000000003</ele><time>2026-04-04T14:29:33.029Z</time></trkpt><trkpt lat="45.0355727" lon="8.3006584"><ele>230.0</ele><time>2026-04-04T14:29:34.029Z</time></trkpt><trkpt lat="45.0355438" lon="8.300549"><ele>230.0</ele><time>2026-04-04T14:29:35.029Z</time></trkpt><trkpt lat="45.0355088" lon="8.3004445"><ele>230.0</ele><time>2026-04-04T14:29:36.029Z</time></trkpt><trkpt lat="45.0354743" lon="8.3003422"><ele>230.00000000000003</ele><time>2026-04-04T14:29:37.029Z</time></trkpt><trkpt lat="45.0354543" lon="8.3002515"><ele>230.0</ele><time>2026-04-04T14:29:38.032Z</time></trkpt><trkpt lat="45.0354287" lon="8.300082"><ele>229.50000000000003</ele><time>2026-04-04T14:29:40.03Z</time></trkpt><trkpt lat="45.0354017" lon="8.2999909"><ele>229.0</ele><time>2026-04-04T14:29:41.03Z</time></trkpt><trkpt lat="45.0353665" lon="8.2998949"><ele>228.5</ele><time>2026-04-04T14:29:42.029Z</time></trkpt><trkpt lat="45.0353317" lon="8.2998023"><ele>228.0</ele><time>2026-04-04T14:29:43.03Z</time></trkpt><trkpt lat="45.035292" lon="8.2997027"><ele>227.50000000000003</ele><time>2026-04-04T14:29:44.03Z</time></trkpt><trkpt lat="45.0352566" lon="8.2996"><ele>227.0</ele><time>2026-04-04T14:29:45.03Z</time></trkpt><trkpt lat="45.0352294" lon="8.2994857"><ele>225.66666666666669</ele><time>2026-04-04T14:29:46.029Z</time></trkpt><trkpt lat="45.0352047" lon="8.2993734"><ele>224.33333333333334</ele><time>2026-04-04T14:29:47.031Z</time></trkpt><trkpt lat="45.0351832" lon="8.2992633"><ele>223.0</ele><time>2026-04-04T14:29:48.033Z</time></trkpt><trkpt lat="45.0351649" lon="8.2991519"><ele>221.66666666666669</ele><time>2026-04-04T14:29:49.031Z</time></trkpt><trkpt lat="45.035146" lon="8.299037"><ele>220.33333333333334</ele><time>2026-04-04T14:29:50.029Z</time></trkpt><trkpt lat="45.0351342" lon="8.298928"><ele>219.0</ele><time>2026-04-04T14:29:51.03Z</time></trkpt><trkpt lat="45.0351243" lon="8.2988225"><ele>218.0</ele><time>2026-04-04T14:29:52.029Z</time></trkpt><trkpt lat="45.035114" lon="8.2987106"><ele>217.0</ele><time>2026-04-04T14:29:53.028Z</time></trkpt><trkpt lat="45.0351035" lon="8.2986036"><ele>216.0</ele><time>2026-04-04T14:29:54.028Z</time></trkpt><trkpt lat="45.0350949" lon="8.2985101"><ele>215.0</ele><time>2026-04-04T14:29:55.028Z</time></trkpt><trkpt lat="45.0350858" lon="8.2983615"><ele>214.0</ele><time>2026-04-04T14:29:57.028Z</time></trkpt><trkpt lat="45.0350893" lon="8.2982113"><ele>213.0</ele><time>2026-04-04T14:29:59.027Z</time></trkpt><trkpt lat="45.0350855" lon="8.2980415"><ele>212.85714285714283</ele><time>2026-04-04T14:30:01.029Z</time></trkpt><trkpt lat="45.0350746" lon="8.2979506"><ele>212.71428571428572</ele><time>2026-04-04T14:30:02.028Z</time></trkpt><trkpt lat="45.0350592" lon="8.2978563"><ele>212.57142857142856</ele><time>2026-04-04T14:30:03.028Z</time></trkpt><trkpt lat="45.0350453" lon="8.2977608"><ele>212.42857142857142</ele><time>2026-04-04T14:30:04.028Z</time></trkpt><trkpt lat="45.0350344" lon="8.2976626"><ele>212.28571428571428</ele><time>2026-04-04T14:30:05.027Z</time></trkpt><trkpt lat="45.0350238" lon="8.2975599"><ele>212.14285714285714</ele><time>2026-04-04T14:30:06.028Z</time></trkpt><trkpt lat="45.0350127" lon="8.2974538"><ele>212.0</ele><time>2026-04-04T14:30:07.027Z</time></trkpt><trkpt lat="45.0350032" lon="8.2973506"><ele>212.0</ele><time>2026-04-04T14:30:08.028Z</time></trkpt><trkpt lat="45.0349927" lon="8.2972431"><ele>212.0</ele><time>2026-04-04T14:30:09.028Z</time></trkpt><trkpt lat="45.0349813" lon="8.2971493"><ele>212.0</ele><time>2026-04-04T14:30:10.028Z</time></trkpt><trkpt lat="45.0349649" lon="8.2969942"><ele>212.0</ele><time>2026-04-04T14:30:12.027Z</time></trkpt><trkpt lat="45.0349628" lon="8.2968815"><ele>212.0</ele><time>2026-04-04T14:30:14.028Z</time></trkpt><trkpt lat="45.0349535" lon="8.296715"><ele>211.85714285714286</ele><time>2026-04-04T14:30:34.029Z</time></trkpt><trkpt lat="45.034947" lon="8.2966207"><ele>211.7142857142857</ele><time>2026-04-04T14:30:35.03Z</time></trkpt><trkpt lat="45.0349376" lon="8.2965172"><ele>211.57142857142856</ele><time>2026-04-04T14:30:36.029Z</time></trkpt><trkpt lat="45.0349273" lon="8.2964173"><ele>211.42857142857144</ele><time>2026-04-04T14:30:37.027Z</time></trkpt><trkpt lat="45.0349172" lon="8.296321"><ele>211.28571428571428</ele><time>2026-04-04T14:30:38.027Z</time></trkpt><trkpt lat="45.0349109" lon="8.296227"><ele>211.14285714285714</ele><time>2026-04-04T14:30:39.027Z</time></trkpt><trkpt lat="45.0349046" lon="8.296135"><ele>211.0</ele><time>2026-04-04T14:30:40.027Z</time></trkpt><trkpt lat="45.0348992" lon="8.2960447"><ele>210.99999999999997</ele><time>2026-04-04T14:30:41.027Z</time></trkpt><trkpt lat="45.034885" lon="8.2958803"><ele>211.0</ele><time>2026-04-04T14:30:43.027Z</time></trkpt><trkpt lat="45.0348721" lon="8.2957454"><ele>211.0</ele><time>2026-04-04T14:30:45.028Z</time></trkpt><trkpt lat="45.0348649" lon="8.2956431"><ele>211.0</ele><time>2026-04-04T14:30:47.028Z</time></trkpt><trkpt lat="45.0348568" lon="8.2955309"><ele>210.99999999999997</ele><time>2026-04-04T14:30:50.028Z</time></trkpt><trkpt lat="45.0348917" lon="8.2956083"><ele>211.0</ele><time>2026-04-04T14:38:50.031Z</time></trkpt><trkpt lat="45.0348717" lon="8.2957583"><ele>211.0</ele><time>2026-04-04T14:38:52.346Z</time></trkpt><trkpt lat="45.0348817" lon="8.2956667"><ele>211.0</ele><time>2026-04-04T14:38:54.03Z</time></trkpt><trkpt lat="45.034905" lon="8.2955833"><ele>211.0</ele><time>2026-04-04T14:39:06.029Z</time></trkpt><trkpt lat="45.03496" lon="8.2954383"><ele>211.0</ele><time>2026-04-04T14:39:13.028Z</time></trkpt><trkpt lat="45.0349767" lon="8.2953483"><ele>211.0</ele><time>2026-04-04T14:39:19.027Z</time></trkpt><trkpt lat="45.03502" lon="8.2952833"><ele>211.0</ele><time>2026-04-04T14:40:16.028Z</time></trkpt><trkpt lat="45.0350383" lon="8.295185"><ele>211.0</ele><time>2026-04-04T14:42:06.027Z</time></trkpt><trkpt lat="45.0349517" lon="8.2952567"><ele>211.83333333333331</ele><time>2026-04-04T14:42:56.028Z</time></trkpt><trkpt lat="45.03491" lon="8.2953333"><ele>212.66666666666666</ele><time>2026-04-04T14:43:30.027Z</time></trkpt><trkpt lat="45.0348683" lon="8.29541"><ele>213.5</ele><time>2026-04-04T14:43:39.028Z</time></trkpt><trkpt lat="45.0349083" lon="8.2952867"><ele>214.33333333333331</ele><time>2026-04-04T14:43:45.029Z</time></trkpt><trkpt lat="45.0349583" lon="8.2952217"><ele>215.16666666666666</ele><time>2026-04-04T14:45:10.028Z</time></trkpt><trkpt lat="45.0349067" lon="8.2953067"><ele>216.0</ele><time>2026-04-04T14:45:38.03Z</time></trkpt><trkpt lat="45.0348483" lon="8.29525"><ele>216.0</ele><time>2026-04-04T14:46:30.028Z</time></trkpt><trkpt lat="45.034865" lon="8.295155"><ele>216.0</ele><time>2026-04-04T14:46:41.028Z</time></trkpt><trkpt lat="45.0348617" lon="8.2950067"><ele>216.0</ele><time>2026-04-04T14:46:44.027Z</time></trkpt><trkpt lat="45.0348583" lon="8.29489"><ele>216.0</ele><time>2026-04-04T14:46:46.029Z</time></trkpt><trkpt lat="45.0348433" lon="8.2947783"><ele>216.0</ele><time>2026-04-04T14:46:49.029Z</time></trkpt><trkpt lat="45.0347917" lon="8.2946683"><ele>216.0</ele><time>2026-04-04T14:54:15.028Z</time></trkpt><trkpt lat="45.0347933" lon="8.2945033"><ele>217.0</ele><time>2026-04-04T14:54:17.028Z</time></trkpt><trkpt lat="45.0347917" lon="8.2944067"><ele>218.0</ele><time>2026-04-04T14:54:18.028Z</time></trkpt><trkpt lat="45.0347883" lon="8.2943117"><ele>219.0</ele><time>2026-04-04T14:54:19.028Z</time></trkpt><trkpt lat="45.03478" lon="8.2942167"><ele>220.0</ele><time>2026-04-04T14:54:20.028Z</time></trkpt><trkpt lat="45.0347567" lon="8.2940533"><ele>221.0</ele><time>2026-04-04T14:54:22.027Z</time></trkpt><trkpt lat="45.0347183" lon="8.293905"><ele>222.0</ele><time>2026-04-04T14:54:24.03Z</time></trkpt><trkpt lat="45.034655" lon="8.2937967"><ele>222.5</ele><time>2026-04-04T14:54:26.028Z</time></trkpt><trkpt lat="45.0345567" lon="8.2936867"><ele>223.0</ele><time>2026-04-04T14:54:28.027Z</time></trkpt><trkpt lat="45.0345067" lon="8.293615"><ele>223.5</ele><time>2026-04-04T14:54:29.029Z</time></trkpt><trkpt lat="45.0344633" lon="8.293535"><ele>224.0</ele><time>2026-04-04T14:54:30.029Z</time></trkpt><trkpt lat="45.03443" lon="8.29345"><ele>224.5</ele><time>2026-04-04T14:54:31.027Z</time></trkpt><trkpt lat="45.0344117" lon="8.2933567"><ele>225.0</ele><time>2026-04-04T14:54:32.028Z</time></trkpt><trkpt lat="45.0344033" lon="8.293255"><ele>225.00000000000003</ele><time>2026-04-04T14:54:33.029Z</time></trkpt><trkpt lat="45.0344033" lon="8.293145"><ele>225.0</ele><time>2026-04-04T14:54:34.027Z</time></trkpt><trkpt lat="45.0344033" lon="8.2930433"><ele>225.00000000000003</ele><time>2026-04-04T14:54:35.028Z</time></trkpt><trkpt lat="45.03441" lon="8.29294"><ele>225.00000000000003</ele><time>2026-04-04T14:54:36.029Z</time></trkpt><trkpt lat="45.03442" lon="8.29284"><ele>225.0</ele><time>2026-04-04T14:54:37.028Z</time></trkpt><trkpt lat="45.034435" lon="8.2927383"><ele>225.00000000000003</ele><time>2026-04-04T14:54:38.028Z</time></trkpt><trkpt lat="45.0344517" lon="8.2926417"><ele>225.00000000000003</ele><time>2026-04-04T14:54:39.03Z</time></trkpt><trkpt lat="45.0344683" lon="8.29255"><ele>225.71428571428575</ele><time>2026-04-04T14:54:40.028Z</time></trkpt><trkpt lat="45.0344833" lon="8.2924617"><ele>226.42857142857144</ele><time>2026-04-04T14:54:41.029Z</time></trkpt><trkpt lat="45.034495" lon="8.29237"><ele>227.14285714285714</ele><time>2026-04-04T14:54:42.027Z</time></trkpt><trkpt lat="45.0345117" lon="8.2922817"><ele>227.85714285714286</ele><time>2026-04-04T14:54:43.028Z</time></trkpt><trkpt lat="45.0345317" lon="8.29219"><ele>228.57142857142856</ele><time>2026-04-04T14:54:44.028Z</time></trkpt><trkpt lat="45.0345517" lon="8.2920967"><ele>229.28571428571425</ele><time>2026-04-04T14:54:45.028Z</time></trkpt><trkpt lat="45.03457" lon="8.2919967"><ele>229.99999999999997</ele><time>2026-04-04T14:54:46.027Z</time></trkpt><trkpt lat="45.0345883" lon="8.2918983"><ele>231.1428571428571</ele><time>2026-04-04T14:54:47.027Z</time></trkpt><trkpt lat="45.034615" lon="8.2918017"><ele>232.28571428571428</ele><time>2026-04-04T14:54:48.026Z</time></trkpt><trkpt lat="45.0346367" lon="8.2917083"><ele>233.42857142857142</ele><time>2026-04-04T14:54:49.027Z</time></trkpt><trkpt lat="45.034655" lon="8.2916167"><ele>234.57142857142856</ele><time>2026-04-04T14:54:50.027Z</time></trkpt><trkpt lat="45.03467" lon="8.2915233"><ele>235.71428571428572</ele><time>2026-04-04T14:54:51.027Z</time></trkpt><trkpt lat="45.0346883" lon="8.29143"><ele>236.85714285714286</ele><time>2026-04-04T14:54:52.026Z</time></trkpt><trkpt lat="45.0347067" lon="8.2913383"><ele>238.0</ele><time>2026-04-04T14:54:53.028Z</time></trkpt><trkpt lat="45.0347317" lon="8.2912517"><ele>239.57142857142856</ele><time>2026-04-04T14:54:54.027Z</time></trkpt><trkpt lat="45.0347633" lon="8.2911683"><ele>241.14285714285714</ele><time>2026-04-04T14:54:55.027Z</time></trkpt><trkpt lat="45.0347983" lon="8.2910883"><ele>242.71428571428572</ele><time>2026-04-04T14:54:56.027Z</time></trkpt><trkpt lat="45.03484" lon="8.2910133"><ele>244.28571428571428</ele><time>2026-04-04T14:54:57.027Z</time></trkpt><trkpt lat="45.0348867" lon="8.2909517"><ele>245.85714285714283</ele><time>2026-04-04T14:54:58.026Z</time></trkpt><trkpt lat="45.0349317" lon="8.2908817"><ele>247.42857142857142</ele><time>2026-04-04T14:54:59.027Z</time></trkpt><trkpt lat="45.0349767" lon="8.290815"><ele>249.0</ele><time>2026-04-04T14:55:00.029Z</time></trkpt><trkpt lat="45.0350226" lon="8.2907175"><ele>247.75</ele><time>2026-04-04T14:55:02.028Z</time></trkpt><trkpt lat="45.035037" lon="8.2904585"><ele>246.5</ele><time>2026-04-04T14:55:28.113Z</time></trkpt><trkpt lat="45.0350717" lon="8.2903115"><ele>245.25</ele><time>2026-04-04T14:55:29.028Z</time></trkpt><trkpt lat="45.0350968" lon="8.2901787"><ele>244.0</ele><time>2026-04-04T14:55:30.029Z</time></trkpt><trkpt lat="45.035125" lon="8.2900638"><ele>243.99999999999997</ele><time>2026-04-04T14:55:31.028Z</time></trkpt><trkpt lat="45.0351479" lon="8.2899645"><ele>244.0</ele><time>2026-04-04T14:55:32.029Z</time></trkpt><trkpt lat="45.0351703" lon="8.2898782"><ele>244.0</ele><time>2026-04-04T14:55:33.028Z</time></trkpt><trkpt lat="45.0352348" lon="8.2897313"><ele>244.0</ele><time>2026-04-04T14:55:35.027Z</time></trkpt><trkpt lat="45.0352856" lon="8.2896681"><ele>243.99999999999997</ele><time>2026-04-04T14:55:36.027Z</time></trkpt><trkpt lat="45.0353445" lon="8.2896101"><ele>244.0</ele><time>2026-04-04T14:55:37.028Z</time></trkpt><trkpt lat="45.0354083" lon="8.2895591"><ele>242.33333333333331</ele><time>2026-04-04T14:55:38.028Z</time></trkpt><trkpt lat="45.0354769" lon="8.2895105"><ele>240.66666666666666</ele><time>2026-04-04T14:55:39.028Z</time></trkpt><trkpt lat="45.0355439" lon="8.2894656"><ele>239.0</ele><time>2026-04-04T14:55:40.026Z</time></trkpt><trkpt lat="45.0356118" lon="8.2894252"><ele>237.33333333333331</ele><time>2026-04-04T14:55:41.027Z</time></trkpt><trkpt lat="45.0356822" lon="8.2893863"><ele>235.66666666666666</ele><time>2026-04-04T14:55:42.027Z</time></trkpt><trkpt lat="45.0357556" lon="8.2893506"><ele>234.0</ele><time>2026-04-04T14:55:43.029Z</time></trkpt><trkpt lat="45.0358317" lon="8.2893204"><ele>233.83333333333334</ele><time>2026-04-04T14:55:44.028Z</time></trkpt><trkpt lat="45.0359104" lon="8.2892955"><ele>233.66666666666669</ele><time>2026-04-04T14:55:45.027Z</time></trkpt><trkpt lat="45.0359893" lon="8.2892765"><ele>233.5</ele><time>2026-04-04T14:55:46.026Z</time></trkpt><trkpt lat="45.0360691" lon="8.2892673"><ele>233.33333333333334</ele><time>2026-04-04T14:55:47.028Z</time></trkpt><trkpt lat="45.0361489" lon="8.289269"><ele>233.16666666666669</ele><time>2026-04-04T14:55:48.029Z</time></trkpt><trkpt lat="45.0362315" lon="8.2892794"><ele>233.0</ele><time>2026-04-04T14:55:49.027Z</time></trkpt><trkpt lat="45.0363144" lon="8.289299"><ele>233.00000000000003</ele><time>2026-04-04T14:55:50.027Z</time></trkpt><trkpt lat="45.036394" lon="8.2893249"><ele>233.0</ele><time>2026-04-04T14:55:51.027Z</time></trkpt><trkpt lat="45.0364708" lon="8.2893568"><ele>233.0</ele><time>2026-04-04T14:55:52.028Z</time></trkpt><trkpt lat="45.0365499" lon="8.289394"><ele>233.0</ele><time>2026-04-04T14:55:53.029Z</time></trkpt><trkpt lat="45.0366351" lon="8.2894361"><ele>233.00000000000003</ele><time>2026-04-04T14:55:54.027Z</time></trkpt><trkpt lat="45.0367182" lon="8.2894789"><ele>233.0</ele><time>2026-04-04T14:55:55.028Z</time></trkpt><trkpt lat="45.0367892" lon="8.2895166"><ele>232.2</ele><time>2026-04-04T14:55:56.028Z</time></trkpt><trkpt lat="45.0368908" lon="8.2895675"><ele>231.4</ele><time>2026-04-04T14:55:58.028Z</time></trkpt><trkpt lat="45.03698" lon="8.2896067"><ele>230.59999999999997</ele><time>2026-04-04T14:56:14.03Z</time></trkpt><trkpt lat="45.037065" lon="8.289595"><ele>229.79999999999998</ele><time>2026-04-04T14:56:18.029Z</time></trkpt><trkpt lat="45.0371167" lon="8.2895433"><ele>229.0</ele><time>2026-04-04T14:56:21.029Z</time></trkpt><trkpt lat="45.0371883" lon="8.28944"><ele>228.99999999999997</ele><time>2026-04-04T14:56:30.029Z</time></trkpt><trkpt lat="45.0372333" lon="8.28934"><ele>229.0</ele><time>2026-04-04T14:56:33.027Z</time></trkpt><trkpt lat="45.03727" lon="8.2892517"><ele>229.0</ele><time>2026-04-04T14:56:36.028Z</time></trkpt><trkpt lat="45.0373033" lon="8.289155"><ele>229.0</ele><time>2026-04-04T14:56:39.028Z</time></trkpt><trkpt lat="45.0373417" lon="8.2890517"><ele>228.99999999999997</ele><time>2026-04-04T14:56:43.027Z</time></trkpt><trkpt lat="45.0373824" lon="8.2889591"><ele>229.0</ele><time>2026-04-04T14:56:46.07Z</time></trkpt><trkpt lat="45.0374226" lon="8.2888624"><ele>227.16666666666666</ele><time>2026-04-04T14:56:48.094Z</time></trkpt><trkpt lat="45.0374703" lon="8.2887596"><ele>225.33333333333331</ele><time>2026-04-04T14:56:50.114Z</time></trkpt><trkpt lat="45.0375272" lon="8.2886665"><ele>223.5</ele><time>2026-04-04T14:56:52.082Z</time></trkpt><trkpt lat="45.0375871" lon="8.2885747"><ele>221.66666666666669</ele><time>2026-04-04T14:56:54.05Z</time></trkpt><trkpt lat="45.0376408" lon="8.2884674"><ele>219.83333333333334</ele><time>2026-04-04T14:56:56.126Z</time></trkpt><trkpt lat="45.0376997" lon="8.2883755"><ele>218.0</ele><time>2026-04-04T14:56:58.034Z</time></trkpt><trkpt lat="45.0376979" lon="8.2882048"><ele>217.33333333333334</ele><time>2026-04-04T14:57:01.043Z</time></trkpt><trkpt lat="45.037747" lon="8.2880859"><ele>216.66666666666669</ele><time>2026-04-04T14:57:03.121Z</time></trkpt><trkpt lat="45.0378109" lon="8.2880431"><ele>216.0</ele><time>2026-04-04T14:57:05.052Z</time></trkpt><trkpt lat="45.0378886" lon="8.2879372"><ele>215.33333333333331</ele><time>2026-04-04T14:57:09.131Z</time></trkpt><trkpt lat="45.0379389" lon="8.2878482"><ele>214.66666666666666</ele><time>2026-04-04T14:57:11.956Z</time></trkpt><trkpt lat="45.0379776" lon="8.2877617"><ele>214.0</ele><time>2026-04-04T14:57:14.05Z</time></trkpt><trkpt lat="45.0379865" lon="8.2875954"><ele>213.99999999999997</ele><time>2026-04-04T14:57:16.028Z</time></trkpt><trkpt lat="45.0379697" lon="8.287429"><ele>214.0</ele><time>2026-04-04T14:57:18.029Z</time></trkpt><trkpt lat="45.0379309" lon="8.2872756"><ele>214.0</ele><time>2026-04-04T14:57:20.028Z</time></trkpt><trkpt lat="45.0379089" lon="8.2871903"><ele>214.0</ele><time>2026-04-04T14:57:21.029Z</time></trkpt><trkpt lat="45.0378843" lon="8.2871"><ele>213.99999999999997</ele><time>2026-04-04T14:57:22.027Z</time></trkpt><trkpt lat="45.0378589" lon="8.2870068"><ele>214.0</ele><time>2026-04-04T14:57:23.028Z</time></trkpt><trkpt lat="45.0378337" lon="8.2869114"><ele>214.49999999999997</ele><time>2026-04-04T14:57:24.027Z</time></trkpt><trkpt lat="45.0378104" lon="8.2868068"><ele>215.0</ele><time>2026-04-04T14:57:25.028Z</time></trkpt><trkpt lat="45.0377849" lon="8.2866978"><ele>215.5</ele><time>2026-04-04T14:57:26.028Z</time></trkpt><trkpt lat="45.0377592" lon="8.2865924"><ele>216.0</ele><time>2026-04-04T14:57:27.03Z</time></trkpt><trkpt lat="45.0377312" lon="8.2864903"><ele>216.49999999999997</ele><time>2026-04-04T14:57:28.027Z</time></trkpt><trkpt lat="45.0377033" lon="8.2863947"><ele>217.0</ele><time>2026-04-04T14:57:29.028Z</time></trkpt><trkpt lat="45.0376761" lon="8.286302"><ele>217.49999999999997</ele><time>2026-04-04T14:57:30.029Z</time></trkpt><trkpt lat="45.0376444" lon="8.2862117"><ele>218.0</ele><time>2026-04-04T14:57:31.028Z</time></trkpt><trkpt lat="45.0376068" lon="8.2861185"><ele>218.5</ele><time>2026-04-04T14:57:32.028Z</time></trkpt><trkpt lat="45.0375634" lon="8.2860248"><ele>219.0</ele><time>2026-04-04T14:57:33.029Z</time></trkpt><trkpt lat="45.0375162" lon="8.2859308"><ele>219.49999999999997</ele><time>2026-04-04T14:57:34.03Z</time></trkpt><trkpt lat="45.037469" lon="8.2858289"><ele>220.0</ele><time>2026-04-04T14:57:35.027Z</time></trkpt><trkpt lat="45.037423" lon="8.2857188"><ele>219.99999999999997</ele><time>2026-04-04T14:57:36.028Z</time></trkpt><trkpt lat="45.0373764" lon="8.2856072"><ele>220.0</ele><time>2026-04-04T14:57:37.027Z</time></trkpt><trkpt lat="45.037334" lon="8.2854993"><ele>220.0</ele><time>2026-04-04T14:57:38.031Z</time></trkpt><trkpt lat="45.0372983" lon="8.2853958"><ele>220.0</ele><time>2026-04-04T14:57:39.028Z</time></trkpt><trkpt lat="45.0372673" lon="8.2853029"><ele>219.99999999999997</ele><time>2026-04-04T14:57:40.027Z</time></trkpt><trkpt lat="45.0372376" lon="8.2852171"><ele>220.0</ele><time>2026-04-04T14:57:41.027Z</time></trkpt><trkpt lat="45.0372099" lon="8.2851364"><ele>221.8</ele><time>2026-04-04T14:57:42.028Z</time></trkpt><trkpt lat="45.0371635" lon="8.285"><ele>223.6</ele><time>2026-04-04T14:57:44.028Z</time></trkpt><trkpt lat="45.0371083" lon="8.2849086"><ele>225.39999999999998</ele><time>2026-04-04T14:57:46.028Z</time></trkpt><trkpt lat="45.0370371" lon="8.2848294"><ele>227.2</ele><time>2026-04-04T14:57:48.027Z</time></trkpt><trkpt lat="45.0369289" lon="8.2847765"><ele>229.0</ele><time>2026-04-04T14:57:50.029Z</time></trkpt><trkpt lat="45.036822" lon="8.2847144"><ele>229.25</ele><time>2026-04-04T14:57:52.027Z</time></trkpt><trkpt lat="45.0367222" lon="8.2846192"><ele>229.5</ele><time>2026-04-04T14:57:54.03Z</time></trkpt><trkpt lat="45.0366666" lon="8.28448"><ele>229.75</ele><time>2026-04-04T14:57:56.032Z</time></trkpt><trkpt lat="45.0366653" lon="8.2843119"><ele>230.0</ele><time>2026-04-04T14:57:58.028Z</time></trkpt><trkpt lat="45.0366747" lon="8.2841358"><ele>229.99999999999997</ele><time>2026-04-04T14:58:00.029Z</time></trkpt><trkpt lat="45.0366832" lon="8.2840404"><ele>230.0</ele><time>2026-04-04T14:58:01.028Z</time></trkpt><trkpt lat="45.0366979" lon="8.283947"><ele>229.99999999999997</ele><time>2026-04-04T14:58:02.028Z</time></trkpt><trkpt lat="45.0367154" lon="8.2838439"><ele>229.99999999999997</ele><time>2026-04-04T14:58:03.028Z</time></trkpt><trkpt lat="45.0367362" lon="8.2837357"><ele>230.0</ele><time>2026-04-04T14:58:04.027Z</time></trkpt><trkpt lat="45.0367618" lon="8.283632"><ele>229.99999999999997</ele><time>2026-04-04T14:58:05.027Z</time></trkpt><trkpt lat="45.0367934" lon="8.2835249"><ele>229.99999999999997</ele><time>2026-04-04T14:58:06.027Z</time></trkpt><trkpt lat="45.0368342" lon="8.2834142"><ele>229.6</ele><time>2026-04-04T14:58:07.028Z</time></trkpt><trkpt lat="45.0368797" lon="8.2832995"><ele>229.2</ele><time>2026-04-04T14:58:08.027Z</time></trkpt><trkpt lat="45.0369255" lon="8.2831867"><ele>228.8</ele><time>2026-04-04T14:58:09.028Z</time></trkpt><trkpt lat="45.0369718" lon="8.2830701"><ele>228.4</ele><time>2026-04-04T14:58:10.027Z</time></trkpt><trkpt lat="45.0370185" lon="8.2829528"><ele>228.0</ele><time>2026-04-04T14:58:11.028Z</time></trkpt><trkpt lat="45.0370642" lon="8.2828332"><ele>227.2</ele><time>2026-04-04T14:58:12.028Z</time></trkpt><trkpt lat="45.0371104" lon="8.282712"><ele>226.4</ele><time>2026-04-04T14:58:13.028Z</time></trkpt><trkpt lat="45.0371594" lon="8.2825907"><ele>225.59999999999997</ele><time>2026-04-04T14:58:14.027Z</time></trkpt><trkpt lat="45.0372056" lon="8.2824778"><ele>224.79999999999998</ele><time>2026-04-04T14:58:15.027Z</time></trkpt><trkpt lat="45.0372507" lon="8.2823591"><ele>224.0</ele><time>2026-04-04T14:58:16.027Z</time></trkpt><trkpt lat="45.0372961" lon="8.2822288"><ele>223.0</ele><time>2026-04-04T14:58:17.027Z</time></trkpt><trkpt lat="45.0373427" lon="8.2820789"><ele>222.0</ele><time>2026-04-04T14:58:18.027Z</time></trkpt><trkpt lat="45.0373874" lon="8.2819206"><ele>221.0</ele><time>2026-04-04T14:58:19.027Z</time></trkpt><trkpt lat="45.0374345" lon="8.281764"><ele>220.0</ele><time>2026-04-04T14:58:20.027Z</time></trkpt><trkpt lat="45.0374814" lon="8.2816067"><ele>221.6</ele><time>2026-04-04T14:58:21.027Z</time></trkpt><trkpt lat="45.0375225" lon="8.2814535"><ele>223.2</ele><time>2026-04-04T14:58:22.028Z</time></trkpt><trkpt lat="45.0375624" lon="8.2813117"><ele>224.8</ele><time>2026-04-04T14:58:23.028Z</time></trkpt><trkpt lat="45.0376021" lon="8.2811742"><ele>226.4</ele><time>2026-04-04T14:58:24.028Z</time></trkpt><trkpt lat="45.0376433" lon="8.2810176"><ele>228.0</ele><time>2026-04-04T14:58:25.028Z</time></trkpt><trkpt lat="45.0376918" lon="8.2808436"><ele>228.0</ele><time>2026-04-04T14:58:26.027Z</time></trkpt><trkpt lat="45.0377418" lon="8.2806664"><ele>228.0</ele><time>2026-04-04T14:58:27.028Z</time></trkpt><trkpt lat="45.0377891" lon="8.2804967"><ele>228.0</ele><time>2026-04-04T14:58:28.027Z</time></trkpt><trkpt lat="45.037833" lon="8.2803418"><ele>228.0</ele><time>2026-04-04T14:58:29.027Z</time></trkpt><trkpt lat="45.0378728" lon="8.2802016"><ele>227.60000000000002</ele><time>2026-04-04T14:58:30.028Z</time></trkpt><trkpt lat="45.0379109" lon="8.2800685"><ele>227.20000000000002</ele><time>2026-04-04T14:58:31.028Z</time></trkpt><trkpt lat="45.0379466" lon="8.2799402"><ele>226.8</ele><time>2026-04-04T14:58:32.027Z</time></trkpt><trkpt lat="45.0379803" lon="8.2798183"><ele>226.4</ele><time>2026-04-04T14:58:33.027Z</time></trkpt><trkpt lat="45.0380135" lon="8.2797059"><ele>226.0</ele><time>2026-04-04T14:58:34.027Z</time></trkpt><trkpt lat="45.0380481" lon="8.2795998"><ele>226.16666666666666</ele><time>2026-04-04T14:58:35.027Z</time></trkpt><trkpt lat="45.0380862" lon="8.2795001"><ele>226.33333333333331</ele><time>2026-04-04T14:58:36.027Z</time></trkpt><trkpt lat="45.0381317" lon="8.2794106"><ele>226.5</ele><time>2026-04-04T14:58:37.027Z</time></trkpt><trkpt lat="45.0381861" lon="8.2793204"><ele>226.66666666666669</ele><time>2026-04-04T14:58:38.028Z</time></trkpt><trkpt lat="45.0382534" lon="8.2792297"><ele>226.83333333333334</ele><time>2026-04-04T14:58:39.029Z</time></trkpt><trkpt lat="45.0383257" lon="8.2791444"><ele>227.0</ele><time>2026-04-04T14:58:40.026Z</time></trkpt><trkpt lat="45.038397" lon="8.2790685"><ele>227.00000000000003</ele><time>2026-04-04T14:58:41.028Z</time></trkpt><trkpt lat="45.0384689" lon="8.2790028"><ele>227.0</ele><time>2026-04-04T14:58:42.028Z</time></trkpt><trkpt lat="45.0385396" lon="8.2789444"><ele>227.0</ele><time>2026-04-04T14:58:43.027Z</time></trkpt><trkpt lat="45.0386069" lon="8.2788902"><ele>227.0</ele><time>2026-04-04T14:58:44.028Z</time></trkpt><trkpt lat="45.0386691" lon="8.2788341"><ele>227.00000000000003</ele><time>2026-04-04T14:58:45.028Z</time></trkpt><trkpt lat="45.0387315" lon="8.2787782"><ele>227.0</ele><time>2026-04-04T14:58:46.027Z</time></trkpt><trkpt lat="45.0387917" lon="8.2787234"><ele>226.33333333333334</ele><time>2026-04-04T14:58:47.028Z</time></trkpt><trkpt lat="45.0388476" lon="8.2786733"><ele>225.66666666666669</ele><time>2026-04-04T14:58:48.028Z</time></trkpt><trkpt lat="45.0389021" lon="8.2786219"><ele>225.0</ele><time>2026-04-04T14:58:49.027Z</time></trkpt><trkpt lat="45.0389883" lon="8.2785298"><ele>224.33333333333331</ele><time>2026-04-04T14:58:51.028Z</time></trkpt><trkpt lat="45.039044" lon="8.2784176"><ele>223.66666666666666</ele><time>2026-04-04T14:58:53.028Z</time></trkpt><trkpt lat="45.03907" lon="8.2783356"><ele>223.0</ele><time>2026-04-04T14:58:54.027Z</time></trkpt><trkpt lat="45.0390904" lon="8.27824"><ele>222.99999999999997</ele><time>2026-04-04T14:58:55.029Z</time></trkpt><trkpt lat="45.0391046" lon="8.2781381"><ele>223.0</ele><time>2026-04-04T14:58:56.028Z</time></trkpt><trkpt lat="45.0391199" lon="8.2780317"><ele>223.0</ele><time>2026-04-04T14:58:57.029Z</time></trkpt><trkpt lat="45.0391404" lon="8.2779212"><ele>223.0</ele><time>2026-04-04T14:58:58.028Z</time></trkpt><trkpt lat="45.0391734" lon="8.277802"><ele>222.99999999999997</ele><time>2026-04-04T14:58:59.028Z</time></trkpt><trkpt lat="45.0392183" lon="8.2776796"><ele>223.0</ele><time>2026-04-04T14:59:00.028Z</time></trkpt><trkpt lat="45.0392772" lon="8.2775599"><ele>223.4</ele><time>2026-04-04T14:59:01.03Z</time></trkpt><trkpt lat="45.0393517" lon="8.2774556"><ele>223.8</ele><time>2026-04-04T14:59:02.029Z</time></trkpt><trkpt lat="45.0394421" lon="8.2773625"><ele>224.2</ele><time>2026-04-04T14:59:03.029Z</time></trkpt><trkpt lat="45.0395402" lon="8.277282"><ele>224.6</ele><time>2026-04-04T14:59:04.027Z</time></trkpt><trkpt lat="45.0396377" lon="8.2772095"><ele>225.0</ele><time>2026-04-04T14:59:05.028Z</time></trkpt><trkpt lat="45.039731" lon="8.2771351"><ele>225.6</ele><time>2026-04-04T14:59:06.028Z</time></trkpt><trkpt lat="45.0398145" lon="8.2770425"><ele>226.2</ele><time>2026-04-04T14:59:07.028Z</time></trkpt><trkpt lat="45.0398835" lon="8.2769333"><ele>226.8</ele><time>2026-04-04T14:59:08.027Z</time></trkpt><trkpt lat="45.0399325" lon="8.2768084"><ele>227.4</ele><time>2026-04-04T14:59:09.027Z</time></trkpt><trkpt lat="45.0399689" lon="8.2766707"><ele>228.0</ele><time>2026-04-04T14:59:10.028Z</time></trkpt><trkpt lat="45.0399967" lon="8.2765301"><ele>230.60000000000002</ele><time>2026-04-04T14:59:11.027Z</time></trkpt><trkpt lat="45.0400177" lon="8.2763895"><ele>233.20000000000002</ele><time>2026-04-04T14:59:12.029Z</time></trkpt><trkpt lat="45.0400333" lon="8.2762508"><ele>235.8</ele><time>2026-04-04T14:59:13.028Z</time></trkpt><trkpt lat="45.0400372" lon="8.2761055"><ele>238.4</ele><time>2026-04-04T14:59:14.029Z</time></trkpt><trkpt lat="45.0400302" lon="8.2759614"><ele>241.0</ele><time>2026-04-04T14:59:15.029Z</time></trkpt><trkpt lat="45.0400213" lon="8.2758143"><ele>241.0</ele><time>2026-04-04T14:59:16.028Z</time></trkpt><trkpt lat="45.0400134" lon="8.2756643"><ele>241.00000000000003</ele><time>2026-04-04T14:59:17.029Z</time></trkpt><trkpt lat="45.0400132" lon="8.2755124"><ele>241.00000000000003</ele><time>2026-04-04T14:59:18.028Z</time></trkpt><trkpt lat="45.0400182" lon="8.2753598"><ele>241.0</ele><time>2026-04-04T14:59:19.029Z</time></trkpt><trkpt lat="45.040028" lon="8.2752074"><ele>241.0</ele><time>2026-04-04T14:59:20.028Z</time></trkpt><trkpt lat="45.0400326" lon="8.2750598"><ele>241.75</ele><time>2026-04-04T14:59:21.029Z</time></trkpt><trkpt lat="45.0400311" lon="8.2749045"><ele>242.5</ele><time>2026-04-04T14:59:22.029Z</time></trkpt><trkpt lat="45.0400239" lon="8.2747435"><ele>243.25</ele><time>2026-04-04T14:59:23.028Z</time></trkpt><trkpt lat="45.040021" lon="8.2745778"><ele>244.0</ele><time>2026-04-04T14:59:24.029Z</time></trkpt><trkpt lat="45.0400055" lon="8.2744136"><ele>244.75</ele><time>2026-04-04T14:59:25.029Z</time></trkpt><trkpt lat="45.0399855" lon="8.2742527"><ele>245.5</ele><time>2026-04-04T14:59:26.028Z</time></trkpt><trkpt lat="45.0399719" lon="8.2740881"><ele>246.25</ele><time>2026-04-04T14:59:27.028Z</time></trkpt><trkpt lat="45.0399562" lon="8.2739275"><ele>247.0</ele><time>2026-04-04T14:59:28.029Z</time></trkpt><trkpt lat="45.0399451" lon="8.2737696"><ele>247.66666666666666</ele><time>2026-04-04T14:59:29.027Z</time></trkpt><trkpt lat="45.0399312" lon="8.2736354"><ele>248.33333333333331</ele><time>2026-04-04T14:59:30.029Z</time></trkpt><trkpt lat="45.0399205" lon="8.2735199"><ele>249.0</ele><time>2026-04-04T14:59:31.027Z</time></trkpt><trkpt lat="45.0399185" lon="8.273421"><ele>249.66666666666669</ele><time>2026-04-04T14:59:32.028Z</time></trkpt><trkpt lat="45.039941" lon="8.2733107"><ele>250.33333333333334</ele><time>2026-04-04T14:59:33.028Z</time></trkpt><trkpt lat="45.0399805" lon="8.2731998"><ele>251.0</ele><time>2026-04-04T14:59:34.028Z</time></trkpt><trkpt lat="45.0400353" lon="8.2730823"><ele>252.60000000000002</ele><time>2026-04-04T14:59:35.03Z</time></trkpt><trkpt lat="45.0401073" lon="8.2729681"><ele>254.20000000000002</ele><time>2026-04-04T14:59:36.028Z</time></trkpt><trkpt lat="45.0401826" lon="8.272848"><ele>255.79999999999998</ele><time>2026-04-04T14:59:37.028Z</time></trkpt><trkpt lat="45.0402541" lon="8.2727309"><ele>257.4</ele><time>2026-04-04T14:59:38.028Z</time></trkpt><trkpt lat="45.0403111" lon="8.2726189"><ele>259.0</ele><time>2026-04-04T14:59:39.028Z</time></trkpt><trkpt lat="45.0403554" lon="8.2725143"><ele>259.0</ele><time>2026-04-04T14:59:40.028Z</time></trkpt><trkpt lat="45.0403937" lon="8.2724162"><ele>259.0</ele><time>2026-04-04T14:59:41.027Z</time></trkpt><trkpt lat="45.0404338" lon="8.2723265"><ele>259.0</ele><time>2026-04-04T14:59:42.027Z</time></trkpt><trkpt lat="45.0404765" lon="8.2722363"><ele>259.0</ele><time>2026-04-04T14:59:43.028Z</time></trkpt><trkpt lat="45.0405185" lon="8.2721476"><ele>259.0</ele><time>2026-04-04T14:59:44.029Z</time></trkpt><trkpt lat="45.0405674" lon="8.2720559"><ele>259.0</ele><time>2026-04-04T14:59:45.029Z</time></trkpt><trkpt lat="45.0406219" lon="8.2719708"><ele>258.3333333333333</ele><time>2026-04-04T14:59:46.028Z</time></trkpt><trkpt lat="45.0406754" lon="8.2718866"><ele>257.66666666666663</ele><time>2026-04-04T14:59:47.029Z</time></trkpt><trkpt lat="45.0407357" lon="8.2718024"><ele>257.0</ele><time>2026-04-04T14:59:48.029Z</time></trkpt><trkpt lat="45.0407929" lon="8.2717195"><ele>256.3333333333333</ele><time>2026-04-04T14:59:49.029Z</time></trkpt><trkpt lat="45.0408567" lon="8.2716443"><ele>255.66666666666666</ele><time>2026-04-04T14:59:50.028Z</time></trkpt><trkpt lat="45.0409238" lon="8.2715764"><ele>255.0</ele><time>2026-04-04T14:59:51.029Z</time></trkpt><trkpt lat="45.0409951" lon="8.2715152"><ele>254.8</ele><time>2026-04-04T14:59:52.028Z</time></trkpt><trkpt lat="45.0410754" lon="8.2714745"><ele>254.6</ele><time>2026-04-04T14:59:53.028Z</time></trkpt><trkpt lat="45.0411619" lon="8.2714423"><ele>254.39999999999998</ele><time>2026-04-04T14:59:54.028Z</time></trkpt><trkpt lat="45.0412551" lon="8.2714239"><ele>254.2</ele><time>2026-04-04T14:59:55.027Z</time></trkpt><trkpt lat="45.041354" lon="8.2714095"><ele>254.0</ele><time>2026-04-04T14:59:56.027Z</time></trkpt><trkpt lat="45.0414591" lon="8.2714036"><ele>251.79999999999998</ele><time>2026-04-04T14:59:57.028Z</time></trkpt><trkpt lat="45.041567" lon="8.2713954"><ele>249.59999999999997</ele><time>2026-04-04T14:59:58.028Z</time></trkpt><trkpt lat="45.0416798" lon="8.2713914"><ele>247.4</ele><time>2026-04-04T14:59:59.027Z</time></trkpt><trkpt lat="45.0417941" lon="8.2713885"><ele>245.2</ele><time>2026-04-04T15:00:00.029Z</time></trkpt><trkpt lat="45.0419084" lon="8.2713873"><ele>243.0</ele><time>2026-04-04T15:00:01.028Z</time></trkpt><trkpt lat="45.042025" lon="8.2713877"><ele>242.25</ele><time>2026-04-04T15:00:02.028Z</time></trkpt><trkpt lat="45.0421423" lon="8.271386"><ele>241.5</ele><time>2026-04-04T15:00:03.027Z</time></trkpt><trkpt lat="45.0422595" lon="8.2713753"><ele>240.75</ele><time>2026-04-04T15:00:04.027Z</time></trkpt><trkpt lat="45.0423723" lon="8.2713602"><ele>240.0</ele><time>2026-04-04T15:00:05.031Z</time></trkpt><trkpt lat="45.0424818" lon="8.2713535"><ele>240.0</ele><time>2026-04-04T15:00:06.028Z</time></trkpt><trkpt lat="45.0425864" lon="8.2713574"><ele>240.0</ele><time>2026-04-04T15:00:07.032Z</time></trkpt><trkpt lat="45.0426879" lon="8.2713708"><ele>240.0</ele><time>2026-04-04T15:00:08.028Z</time></trkpt><trkpt lat="45.0427896" lon="8.2713947"><ele>240.0</ele><time>2026-04-04T15:00:09.029Z</time></trkpt><trkpt lat="45.0428914" lon="8.2714211"><ele>240.0</ele><time>2026-04-04T15:00:10.027Z</time></trkpt><trkpt lat="45.0429879" lon="8.2714335"><ele>240.0</ele><time>2026-04-04T15:00:11.027Z</time></trkpt><trkpt lat="45.0430761" lon="8.2714278"><ele>240.0</ele><time>2026-04-04T15:00:12.028Z</time></trkpt><trkpt lat="45.0431595" lon="8.2714029"><ele>240.0</ele><time>2026-04-04T15:00:13.029Z</time></trkpt><trkpt lat="45.0432382" lon="8.2713556"><ele>240.0</ele><time>2026-04-04T15:00:14.029Z</time></trkpt><trkpt lat="45.0433144" lon="8.271286"><ele>240.0</ele><time>2026-04-04T15:00:15.028Z</time></trkpt><trkpt lat="45.0433864" lon="8.2711993"><ele>240.0</ele><time>2026-04-04T15:00:16.028Z</time></trkpt><trkpt lat="45.0434477" lon="8.271092"><ele>240.16666666666666</ele><time>2026-04-04T15:00:17.029Z</time></trkpt><trkpt lat="45.0434999" lon="8.2709751"><ele>240.33333333333331</ele><time>2026-04-04T15:00:18.029Z</time></trkpt><trkpt lat="45.0435433" lon="8.2708558"><ele>240.5</ele><time>2026-04-04T15:00:19.028Z</time></trkpt><trkpt lat="45.0435779" lon="8.2707374"><ele>240.66666666666666</ele><time>2026-04-04T15:00:20.027Z</time></trkpt><trkpt lat="45.0436039" lon="8.2706262"><ele>240.83333333333331</ele><time>2026-04-04T15:00:21.033Z</time></trkpt><trkpt lat="45.0436262" lon="8.270525"><ele>241.0</ele><time>2026-04-04T15:00:22.028Z</time></trkpt><trkpt lat="45.0436486" lon="8.2704332"><ele>240.99999999999997</ele><time>2026-04-04T15:00:23.028Z</time></trkpt><trkpt lat="45.04369" lon="8.2702914"><ele>241.0</ele><time>2026-04-04T15:00:25.03Z</time></trkpt><trkpt lat="45.0437383" lon="8.27023"><ele>241.0</ele><time>2026-04-04T15:00:46.03Z</time></trkpt><trkpt lat="45.043825" lon="8.2701917"><ele>241.0</ele><time>2026-04-04T15:00:48.029Z</time></trkpt><trkpt lat="45.0438933" lon="8.27016"><ele>240.99999999999997</ele><time>2026-04-04T15:00:49.029Z</time></trkpt><trkpt lat="45.043975" lon="8.27012"><ele>241.0</ele><time>2026-04-04T15:00:50.03Z</time></trkpt><trkpt lat="45.0440617" lon="8.2700733"><ele>243.0</ele><time>2026-04-04T15:00:51.028Z</time></trkpt><trkpt lat="45.0441533" lon="8.270015"><ele>245.0</ele><time>2026-04-04T15:00:52.029Z</time></trkpt><trkpt lat="45.044285" lon="8.26994"><ele>247.0</ele><time>2026-04-04T15:00:53.028Z</time></trkpt><trkpt lat="45.0444133" lon="8.2698467"><ele>249.0</ele><time>2026-04-04T15:00:54.03Z</time></trkpt><trkpt lat="45.044545" lon="8.2697567"><ele>249.0</ele><time>2026-04-04T15:00:55.028Z</time></trkpt><trkpt lat="45.0446833" lon="8.269645"><ele>249.0</ele><time>2026-04-04T15:00:56.028Z</time></trkpt><trkpt lat="45.0448117" lon="8.2695283"><ele>249.0</ele><time>2026-04-04T15:00:57.029Z</time></trkpt><trkpt lat="45.0449367" lon="8.2694083"><ele>251.25</ele><time>2026-04-04T15:00:58.028Z</time></trkpt><trkpt lat="45.0450567" lon="8.2692867"><ele>253.5</ele><time>2026-04-04T15:00:59.028Z</time></trkpt><trkpt lat="45.0451717" lon="8.269175"><ele>255.75</ele><time>2026-04-04T15:01:00.028Z</time></trkpt><trkpt lat="45.04528" lon="8.2690667"><ele>258.0</ele><time>2026-04-04T15:01:01.029Z</time></trkpt><trkpt lat="45.04539" lon="8.2689683"><ele>257.0</ele><time>2026-04-04T15:01:02.029Z</time></trkpt><trkpt lat="45.045495" lon="8.2688667"><ele>256.0</ele><time>2026-04-04T15:01:03.028Z</time></trkpt><trkpt lat="45.0455967" lon="8.2687717"><ele>255.0</ele><time>2026-04-04T15:01:04.029Z</time></trkpt><trkpt lat="45.0456817" lon="8.2686833"><ele>254.0</ele><time>2026-04-04T15:01:05.027Z</time></trkpt><trkpt lat="45.045765" lon="8.268605"><ele>256.0</ele><time>2026-04-04T15:01:06.028Z</time></trkpt><trkpt lat="45.0458483" lon="8.268525"><ele>258.0</ele><time>2026-04-04T15:01:07.029Z</time></trkpt><trkpt lat="45.04593" lon="8.2684433"><ele>260.0</ele><time>2026-04-04T15:01:08.028Z</time></trkpt><trkpt lat="45.0460117" lon="8.268365"><ele>262.0</ele><time>2026-04-04T15:01:09.029Z</time></trkpt><trkpt lat="45.046095" lon="8.2682867"><ele>264.0</ele><time>2026-04-04T15:01:10.027Z</time></trkpt><trkpt lat="45.0461783" lon="8.2682033"><ele>264.0</ele><time>2026-04-04T15:01:11.028Z</time></trkpt><trkpt lat="45.0462617" lon="8.268115"><ele>264.0</ele><time>2026-04-04T15:01:12.03Z</time></trkpt><trkpt lat="45.046345" lon="8.268025"><ele>264.0</ele><time>2026-04-04T15:01:13.029Z</time></trkpt><trkpt lat="45.0464317" lon="8.2679383"><ele>264.0</ele><time>2026-04-04T15:01:14.028Z</time></trkpt><trkpt lat="45.046515" lon="8.2678433"><ele>264.0</ele><time>2026-04-04T15:01:15.029Z</time></trkpt><trkpt lat="45.0465967" lon="8.267755"><ele>265.0</ele><time>2026-04-04T15:01:16.028Z</time></trkpt><trkpt lat="45.0466817" lon="8.2677083"><ele>266.0</ele><time>2026-04-04T15:01:17.028Z</time></trkpt><trkpt lat="45.0467667" lon="8.2676167"><ele>267.0</ele><time>2026-04-04T15:01:18.028Z</time></trkpt><trkpt lat="45.0468533" lon="8.26752"><ele>268.0</ele><time>2026-04-04T15:01:19.028Z</time></trkpt><trkpt lat="45.04694" lon="8.2674217"><ele>269.0</ele><time>2026-04-04T15:01:20.029Z</time></trkpt><trkpt lat="45.047025" lon="8.2673367"><ele>268.1666666666667</ele><time>2026-04-04T15:01:21.028Z</time></trkpt><trkpt lat="45.04711" lon="8.267265"><ele>267.33333333333337</ele><time>2026-04-04T15:01:22.028Z</time></trkpt><trkpt lat="45.0471883" lon="8.2672033"><ele>266.5</ele><time>2026-04-04T15:01:23.028Z</time></trkpt><trkpt lat="45.047265" lon="8.2671633"><ele>265.6666666666667</ele><time>2026-04-04T15:01:24.028Z</time></trkpt><trkpt lat="45.0473417" lon="8.26714"><ele>264.8333333333333</ele><time>2026-04-04T15:01:25.028Z</time></trkpt><trkpt lat="45.047415" lon="8.2671317"><ele>264.0</ele><time>2026-04-04T15:01:26.028Z</time></trkpt><trkpt lat="45.0474917" lon="8.2671383"><ele>266.8</ele><time>2026-04-04T15:01:27.028Z</time></trkpt><trkpt lat="45.0475733" lon="8.2671517"><ele>269.59999999999997</ele><time>2026-04-04T15:01:28.028Z</time></trkpt><trkpt lat="45.04766" lon="8.2671733"><ele>272.4</ele><time>2026-04-04T15:01:29.029Z</time></trkpt><trkpt lat="45.0477517" lon="8.2671967"><ele>275.2</ele><time>2026-04-04T15:01:30.03Z</time></trkpt><trkpt lat="45.0478483" lon="8.2672233"><ele>278.0</ele><time>2026-04-04T15:01:31.028Z</time></trkpt><trkpt lat="45.04795" lon="8.2672517"><ele>280.25</ele><time>2026-04-04T15:01:32.028Z</time></trkpt><trkpt lat="45.048065" lon="8.26729"><ele>282.5</ele><time>2026-04-04T15:01:33.029Z</time></trkpt><trkpt lat="45.0482017" lon="8.267335"><ele>284.75</ele><time>2026-04-04T15:01:34.03Z</time></trkpt><trkpt lat="45.0483267" lon="8.2674083"><ele>287.0</ele><time>2026-04-04T15:01:35.029Z</time></trkpt><trkpt lat="45.0484567" lon="8.2674967"><ele>291.25</ele><time>2026-04-04T15:01:36.028Z</time></trkpt><trkpt lat="45.0485883" lon="8.2675817"><ele>295.5</ele><time>2026-04-04T15:01:37.028Z</time></trkpt><trkpt lat="45.04871" lon="8.267635"><ele>299.75</ele><time>2026-04-04T15:01:38.028Z</time></trkpt><trkpt lat="45.048835" lon="8.26769"><ele>304.0</ele><time>2026-04-04T15:01:39.028Z</time></trkpt><trkpt lat="45.0489717" lon="8.26776"><ele>304.0</ele><time>2026-04-04T15:01:40.028Z</time></trkpt><trkpt lat="45.0490583" lon="8.267785"><ele>304.0</ele><time>2026-04-04T15:01:41.027Z</time></trkpt><trkpt lat="45.0491833" lon="8.2678033"><ele>304.0</ele><time>2026-04-04T15:01:42.028Z</time></trkpt><trkpt lat="45.04933" lon="8.26792"><ele>304.0</ele><time>2026-04-04T15:01:43.028Z</time></trkpt><trkpt lat="45.0494517" lon="8.2679617"><ele>300.0</ele><time>2026-04-04T15:01:44.028Z</time></trkpt><trkpt lat="45.0495783" lon="8.2679683"><ele>296.0</ele><time>2026-04-04T15:01:45.027Z</time></trkpt><trkpt lat="45.0497133" lon="8.2679733"><ele>292.0</ele><time>2026-04-04T15:01:46.028Z</time></trkpt><trkpt lat="45.0498333" lon="8.2679583"><ele>288.0</ele><time>2026-04-04T15:01:47.029Z</time></trkpt><trkpt lat="45.0499683" lon="8.2679633"><ele>286.0</ele><time>2026-04-04T15:01:48.027Z</time></trkpt><trkpt lat="45.0500917" lon="8.26796"><ele>284.0</ele><time>2026-04-04T15:01:49.028Z</time></trkpt><trkpt lat="45.05021" lon="8.2679717"><ele>282.0</ele><time>2026-04-04T15:01:50.027Z</time></trkpt><trkpt lat="45.0503317" lon="8.2680117"><ele>280.0</ele><time>2026-04-04T15:01:51.028Z</time></trkpt><trkpt lat="45.0504467" lon="8.2680783"><ele>277.0</ele><time>2026-04-04T15:01:52.026Z</time></trkpt><trkpt lat="45.0505617" lon="8.2681517"><ele>274.0</ele><time>2026-04-04T15:01:53.028Z</time></trkpt><trkpt lat="45.050665" lon="8.268245"><ele>271.0</ele><time>2026-04-04T15:01:54.027Z</time></trkpt><trkpt lat="45.0507583" lon="8.2683483"><ele>268.0</ele><time>2026-04-04T15:01:55.027Z</time></trkpt><trkpt lat="45.05085" lon="8.268465"><ele>268.0</ele><time>2026-04-04T15:01:56.026Z</time></trkpt><trkpt lat="45.0509367" lon="8.26859"><ele>268.0</ele><time>2026-04-04T15:01:57.028Z</time></trkpt><trkpt lat="45.0510233" lon="8.2687183"><ele>268.0</ele><time>2026-04-04T15:01:58.026Z</time></trkpt><trkpt lat="45.0511133" lon="8.2688467"><ele>268.0</ele><time>2026-04-04T15:01:59.027Z</time></trkpt><trkpt lat="45.0512" lon="8.2689667"><ele>265.6</ele><time>2026-04-04T15:02:00.027Z</time></trkpt><trkpt lat="45.0512733" lon="8.2690883"><ele>263.20000000000005</ele><time>2026-04-04T15:02:01.027Z</time></trkpt><trkpt lat="45.051335" lon="8.2692133"><ele>260.8</ele><time>2026-04-04T15:02:02.029Z</time></trkpt><trkpt lat="45.0513883" lon="8.2693383"><ele>258.40000000000003</ele><time>2026-04-04T15:02:03.027Z</time></trkpt><trkpt lat="45.051435" lon="8.269455"><ele>256.0</ele><time>2026-04-04T15:02:04.026Z</time></trkpt><trkpt lat="45.0514667" lon="8.26955"><ele>255.99999999999997</ele><time>2026-04-04T15:02:05.027Z</time></trkpt><trkpt lat="45.0515033" lon="8.26963"><ele>256.0</ele><time>2026-04-04T15:02:06.028Z</time></trkpt><trkpt lat="45.0515567" lon="8.2697017"><ele>256.0</ele><time>2026-04-04T15:02:08.029Z</time></trkpt><trkpt lat="45.051615" lon="8.2696167"><ele>256.0</ele><time>2026-04-04T15:02:10.028Z</time></trkpt><trkpt lat="45.0516367" lon="8.2695233"><ele>255.99999999999997</ele><time>2026-04-04T15:02:11.027Z</time></trkpt><trkpt lat="45.051665" lon="8.2694317"><ele>256.0</ele><time>2026-04-04T15:02:12.027Z</time></trkpt><trkpt lat="45.0517183" lon="8.2693067"><ele>257.2</ele><time>2026-04-04T15:02:13.027Z</time></trkpt><trkpt lat="45.0517883" lon="8.26921"><ele>258.40000000000003</ele><time>2026-04-04T15:02:14.03Z</time></trkpt><trkpt lat="45.051865" lon="8.2691317"><ele>259.6</ele><time>2026-04-04T15:02:15.027Z</time></trkpt><trkpt lat="45.0519517" lon="8.2690733"><ele>260.8</ele><time>2026-04-04T15:02:16.026Z</time></trkpt><trkpt lat="45.0520667" lon="8.2690217"><ele>262.0</ele><time>2026-04-04T15:02:17.027Z</time></trkpt><trkpt lat="45.0521733" lon="8.2689667"><ele>263.16666666666663</ele><time>2026-04-04T15:02:18.028Z</time></trkpt><trkpt lat="45.0522667" lon="8.2689083"><ele>264.3333333333333</ele><time>2026-04-04T15:02:19.029Z</time></trkpt><trkpt lat="45.0523417" lon="8.2688367"><ele>265.5</ele><time>2026-04-04T15:02:20.03Z</time></trkpt><trkpt lat="45.052405" lon="8.2687483"><ele>266.6666666666667</ele><time>2026-04-04T15:02:21.027Z</time></trkpt><trkpt lat="45.0524417" lon="8.268655"><ele>267.83333333333337</ele><time>2026-04-04T15:02:22.027Z</time></trkpt><trkpt lat="45.05248" lon="8.268555"><ele>269.0</ele><time>2026-04-04T15:02:23.028Z</time></trkpt><trkpt lat="45.0524683" lon="8.2684367"><ele>270.0</ele><time>2026-04-04T15:02:24.028Z</time></trkpt><trkpt lat="45.0524133" lon="8.2683033"><ele>271.0</ele><time>2026-04-04T15:02:25.028Z</time></trkpt><trkpt lat="45.05234" lon="8.2681733"><ele>272.0</ele><time>2026-04-04T15:02:26.028Z</time></trkpt><trkpt lat="45.05224" lon="8.26806"><ele>273.0</ele><time>2026-04-04T15:02:27.029Z</time></trkpt><trkpt lat="45.05214" lon="8.2679917"><ele>276.6666666666667</ele><time>2026-04-04T15:02:28.026Z</time></trkpt><trkpt lat="45.0520567" lon="8.267915"><ele>280.3333333333333</ele><time>2026-04-04T15:02:29.027Z</time></trkpt><trkpt lat="45.05197" lon="8.2678833"><ele>284.0</ele><time>2026-04-04T15:02:30.027Z</time></trkpt><trkpt lat="45.0519083" lon="8.267815"><ele>287.66666666666663</ele><time>2026-04-04T15:02:31.027Z</time></trkpt><trkpt lat="45.0518333" lon="8.2677583"><ele>291.3333333333333</ele><time>2026-04-04T15:02:32.027Z</time></trkpt><trkpt lat="45.05176" lon="8.2677"><ele>295.0</ele><time>2026-04-04T15:02:33.028Z</time></trkpt><trkpt lat="45.0516817" lon="8.2676433"><ele>293.6</ele><time>2026-04-04T15:02:34.027Z</time></trkpt><trkpt lat="45.0515983" lon="8.26759"><ele>292.2</ele><time>2026-04-04T15:02:35.028Z</time></trkpt><trkpt lat="45.051505" lon="8.2675533"><ele>290.8</ele><time>2026-04-04T15:02:36.027Z</time></trkpt><trkpt lat="45.0514083" lon="8.26749"><ele>289.4</ele><time>2026-04-04T15:02:37.027Z</time></trkpt><trkpt lat="45.0513067" lon="8.2674217"><ele>288.0</ele><time>2026-04-04T15:02:38.028Z</time></trkpt><trkpt lat="45.051205" lon="8.26733"><ele>292.25</ele><time>2026-04-04T15:02:39.028Z</time></trkpt><trkpt lat="45.051095" lon="8.267255"><ele>296.5</ele><time>2026-04-04T15:02:40.026Z</time></trkpt><trkpt lat="45.0509867" lon="8.2671867"><ele>300.75</ele><time>2026-04-04T15:02:41.028Z</time></trkpt><trkpt lat="45.0508783" lon="8.2671133"><ele>305.0</ele><time>2026-04-04T15:02:42.027Z</time></trkpt><trkpt lat="45.0507967" lon="8.2670233"><ele>303.0</ele><time>2026-04-04T15:02:43.028Z</time></trkpt><trkpt lat="45.050715" lon="8.26694"><ele>301.0</ele><time>2026-04-04T15:02:44.027Z</time></trkpt><trkpt lat="45.0506333" lon="8.266855"><ele>299.0</ele><time>2026-04-04T15:02:45.028Z</time></trkpt><trkpt lat="45.0505517" lon="8.2667683"><ele>297.0</ele><time>2026-04-04T15:02:46.027Z</time></trkpt><trkpt lat="45.0504567" lon="8.2666933"><ele>295.0</ele><time>2026-04-04T15:02:47.028Z</time></trkpt><trkpt lat="45.0503567" lon="8.266615"><ele>295.0</ele><time>2026-04-04T15:02:48.028Z</time></trkpt><trkpt lat="45.0502633" lon="8.26654"><ele>295.0</ele><time>2026-04-04T15:02:49.029Z</time></trkpt><trkpt lat="45.0501767" lon="8.2664633"><ele>295.0</ele><time>2026-04-04T15:02:50.027Z</time></trkpt><trkpt lat="45.050095" lon="8.2663983"><ele>295.0</ele><time>2026-04-04T15:02:51.029Z</time></trkpt><trkpt lat="45.0500083" lon="8.26635"><ele>295.0</ele><time>2026-04-04T15:02:52.027Z</time></trkpt><trkpt lat="45.0499317" lon="8.2662933"><ele>295.3333333333333</ele><time>2026-04-04T15:02:53.027Z</time></trkpt><trkpt lat="45.0498583" lon="8.2662433"><ele>295.66666666666663</ele><time>2026-04-04T15:02:54.028Z</time></trkpt><trkpt lat="45.0497933" lon="8.266175"><ele>296.0</ele><time>2026-04-04T15:02:55.027Z</time></trkpt><trkpt lat="45.0497333" lon="8.266105"><ele>296.3333333333333</ele><time>2026-04-04T15:02:56.028Z</time></trkpt><trkpt lat="45.04969" lon="8.26601"><ele>296.6666666666667</ele><time>2026-04-04T15:02:57.027Z</time></trkpt><trkpt lat="45.0496133" lon="8.2658717"><ele>297.0</ele><time>2026-04-04T15:02:59.03Z</time></trkpt><trkpt lat="45.0495767" lon="8.2657967"><ele>297.0</ele><time>2026-04-04T15:03:00.027Z</time></trkpt><trkpt lat="45.0495417" lon="8.2657217"><ele>297.0</ele><time>2026-04-04T15:03:01.028Z</time></trkpt><trkpt lat="45.049465" lon="8.2655733"><ele>297.0</ele><time>2026-04-04T15:03:03.029Z</time></trkpt><trkpt lat="45.0494167" lon="8.2654917"><ele>297.0</ele><time>2026-04-04T15:03:04.028Z</time></trkpt><trkpt lat="45.0493617" lon="8.2654033"><ele>297.0</ele><time>2026-04-04T15:03:05.027Z</time></trkpt><trkpt lat="45.049315" lon="8.265325"><ele>297.0</ele><time>2026-04-04T15:03:06.027Z</time></trkpt><trkpt lat="45.04926" lon="8.2652683"><ele>294.6</ele><time>2026-04-04T15:03:07.029Z</time></trkpt><trkpt lat="45.0492" lon="8.26522"><ele>292.2</ele><time>2026-04-04T15:03:08.028Z</time></trkpt><trkpt lat="45.0490933" lon="8.2651717"><ele>289.8</ele><time>2026-04-04T15:03:10.027Z</time></trkpt><trkpt lat="45.0489767" lon="8.2651783"><ele>287.4</ele><time>2026-04-04T15:03:12.028Z</time></trkpt><trkpt lat="45.0488917" lon="8.265195"><ele>285.0</ele><time>2026-04-04T15:03:14.027Z</time></trkpt><trkpt lat="45.048825" lon="8.2651467"><ele>285.0</ele><time>2026-04-04T15:03:17.028Z</time></trkpt><trkpt lat="45.0489033" lon="8.2650883"><ele>285.0</ele><time>2026-04-04T15:03:19.027Z</time></trkpt><trkpt lat="45.0490033" lon="8.2650433"><ele>285.0</ele><time>2026-04-04T15:03:21.027Z</time></trkpt><trkpt lat="45.0490817" lon="8.2649667"><ele>285.0</ele><time>2026-04-04T15:03:23.027Z</time></trkpt><trkpt lat="45.049155" lon="8.2648417"><ele>285.0</ele><time>2026-04-04T15:03:25.027Z</time></trkpt><trkpt lat="45.04922" lon="8.2647267"><ele>283.3333333333333</ele><time>2026-04-04T15:03:27.028Z</time></trkpt><trkpt lat="45.049275" lon="8.2646333"><ele>281.6666666666667</ele><time>2026-04-04T15:03:29.027Z</time></trkpt><trkpt lat="45.0493217" lon="8.2645633"><ele>280.0</ele><time>2026-04-04T15:03:32.029Z</time></trkpt><trkpt lat="45.0493717" lon="8.2644733"><ele>278.33333333333337</ele><time>2026-04-04T15:03:50.028Z</time></trkpt><trkpt lat="45.0494017" lon="8.2643933"><ele>276.6666666666667</ele><time>2026-04-04T15:03:52.027Z</time></trkpt><trkpt lat="45.0494583" lon="8.26428"><ele>275.0</ele><time>2026-04-04T15:03:54.029Z</time></trkpt><trkpt lat="45.0495083" lon="8.26413"><ele>275.0</ele><time>2026-04-04T15:03:56.028Z</time></trkpt><trkpt lat="45.049565" lon="8.2639917"><ele>275.0</ele><time>2026-04-04T15:03:58.028Z</time></trkpt><trkpt lat="45.049625" lon="8.2638633"><ele>275.0</ele><time>2026-04-04T15:04:00.028Z</time></trkpt><trkpt lat="45.049685" lon="8.2637383"><ele>275.0</ele><time>2026-04-04T15:04:02.028Z</time></trkpt><trkpt lat="45.0497367" lon="8.2636167"><ele>275.0</ele><time>2026-04-04T15:04:04.028Z</time></trkpt><trkpt lat="45.0497833" lon="8.2634867"><ele>273.2</ele><time>2026-04-04T15:04:06.028Z</time></trkpt><trkpt lat="45.0498317" lon="8.2633633"><ele>271.4</ele><time>2026-04-04T15:04:08.028Z</time></trkpt><trkpt lat="45.0498917" lon="8.26324"><ele>269.6</ele><time>2026-04-04T15:04:10.027Z</time></trkpt><trkpt lat="45.0499383" lon="8.26312"><ele>267.8</ele><time>2026-04-04T15:04:12.029Z</time></trkpt><trkpt lat="45.0499117" lon="8.262935"><ele>266.0</ele><time>2026-04-04T15:04:14.028Z</time></trkpt><trkpt lat="45.0499033" lon="8.262835"><ele>265.1666666666667</ele><time>2026-04-04T15:04:15.029Z</time></trkpt><trkpt lat="45.0498983" lon="8.2627333"><ele>264.33333333333337</ele><time>2026-04-04T15:04:16.029Z</time></trkpt><trkpt lat="45.0498967" lon="8.2626333"><ele>263.5</ele><time>2026-04-04T15:04:17.028Z</time></trkpt><trkpt lat="45.0498967" lon="8.2625383"><ele>262.6666666666667</ele><time>2026-04-04T15:04:18.029Z</time></trkpt><trkpt lat="45.0499117" lon="8.262365"><ele>261.8333333333333</ele><time>2026-04-04T15:04:20.029Z</time></trkpt><trkpt lat="45.049905" lon="8.262225"><ele>261.0</ele><time>2026-04-04T15:04:22.029Z</time></trkpt><trkpt lat="45.0498767" lon="8.26212"><ele>261.0</ele><time>2026-04-04T15:04:24.028Z</time></trkpt><trkpt lat="45.0498133" lon="8.26211"><ele>261.0</ele><time>2026-04-04T15:04:27.032Z</time></trkpt><trkpt lat="45.0498333" lon="8.2622367"><ele>261.0</ele><time>2026-04-04T15:04:31.029Z</time></trkpt><trkpt lat="45.04984" lon="8.2623483"><ele>261.0</ele><time>2026-04-04T15:04:33.03Z</time></trkpt><trkpt lat="45.0498383" lon="8.2624667"><ele>261.0</ele><time>2026-04-04T15:04:35.028Z</time></trkpt><trkpt lat="45.0498383" lon="8.2625967"><ele>261.0</ele><time>2026-04-04T15:04:37.029Z</time></trkpt><trkpt lat="45.04984" lon="8.2627417"><ele>261.0</ele><time>2026-04-04T15:04:39.029Z</time></trkpt><trkpt lat="45.0498583" lon="8.2629017"><ele>261.0</ele><time>2026-04-04T15:04:41.028Z</time></trkpt><trkpt lat="45.049875" lon="8.2630483"><ele>261.0</ele><time>2026-04-04T15:04:43.029Z</time></trkpt><trkpt lat="45.0498633" lon="8.26321"><ele>261.0</ele><time>2026-04-04T15:04:45.03Z</time></trkpt><trkpt lat="45.04985" lon="8.2633017"><ele>261.0</ele><time>2026-04-04T15:04:46.03Z</time></trkpt><trkpt lat="45.0498283" lon="8.2633967"><ele>261.8333333333333</ele><time>2026-04-04T15:04:47.03Z</time></trkpt><trkpt lat="45.0497783" lon="8.2634967"><ele>262.6666666666667</ele><time>2026-04-04T15:04:48.029Z</time></trkpt><trkpt lat="45.0497317" lon="8.2636033"><ele>263.5</ele><time>2026-04-04T15:04:49.03Z</time></trkpt><trkpt lat="45.049685" lon="8.2637117"><ele>264.33333333333337</ele><time>2026-04-04T15:04:50.028Z</time></trkpt><trkpt lat="45.049645" lon="8.2638033"><ele>265.1666666666667</ele><time>2026-04-04T15:04:51.03Z</time></trkpt><trkpt lat="45.0496017" lon="8.263895"><ele>266.0</ele><time>2026-04-04T15:04:52.028Z</time></trkpt><trkpt lat="45.0495533" lon="8.26398"><ele>267.5</ele><time>2026-04-04T15:04:53.029Z</time></trkpt><trkpt lat="45.0495117" lon="8.264055"><ele>269.0</ele><time>2026-04-04T15:04:54.029Z</time></trkpt><trkpt lat="45.0494783" lon="8.26414"><ele>270.5</ele><time>2026-04-04T15:04:55.029Z</time></trkpt><trkpt lat="45.0494367" lon="8.2642283"><ele>272.0</ele><time>2026-04-04T15:04:56.03Z</time></trkpt><trkpt lat="45.0493967" lon="8.2643367"><ele>273.5</ele><time>2026-04-04T15:04:57.03Z</time></trkpt><trkpt lat="45.0493317" lon="8.2644567"><ele>275.0</ele><time>2026-04-04T15:04:58.029Z</time></trkpt><trkpt lat="45.0492767" lon="8.2645733"><ele>275.0</ele><time>2026-04-04T15:04:59.029Z</time></trkpt><trkpt lat="45.0492067" lon="8.2646817"><ele>275.0</ele><time>2026-04-04T15:05:00.03Z</time></trkpt><trkpt lat="45.0491367" lon="8.264785"><ele>275.0</ele><time>2026-04-04T15:05:01.029Z</time></trkpt><trkpt lat="45.049075" lon="8.2648833"><ele>275.0</ele><time>2026-04-04T15:05:02.028Z</time></trkpt><trkpt lat="45.049015" lon="8.264965"><ele>275.0</ele><time>2026-04-04T15:05:03.03Z</time></trkpt><trkpt lat="45.0489617" lon="8.26506"><ele>275.0</ele><time>2026-04-04T15:05:04.03Z</time></trkpt><trkpt lat="45.0489183" lon="8.2651417"><ele>275.0</ele><time>2026-04-04T15:05:05.029Z</time></trkpt><trkpt lat="45.0488583" lon="8.26532"><ele>275.0</ele><time>2026-04-04T15:05:07.029Z</time></trkpt><trkpt lat="45.048825" lon="8.2654133"><ele>275.0</ele><time>2026-04-04T15:05:08.032Z</time></trkpt><trkpt lat="45.0488067" lon="8.2655433"><ele>275.0</ele><time>2026-04-04T15:05:10.03Z</time></trkpt><trkpt lat="45.0488967" lon="8.2655417"><ele>275.0</ele><time>2026-04-04T15:05:15.028Z</time></trkpt><trkpt lat="45.0490083" lon="8.2655467"><ele>275.0</ele><time>2026-04-04T15:05:17.027Z</time></trkpt><trkpt lat="45.0490767" lon="8.2655533"><ele>275.0</ele><time>2026-04-04T15:05:18.027Z</time></trkpt><trkpt lat="45.0491733" lon="8.265525"><ele>275.0</ele><time>2026-04-04T15:05:20.028Z</time></trkpt><trkpt lat="45.0492333" lon="8.26546"><ele>275.0</ele><time>2026-04-04T15:05:22.027Z</time></trkpt><trkpt lat="45.04927" lon="8.2653817"><ele>275.0</ele><time>2026-04-04T15:05:26.029Z</time></trkpt><trkpt lat="45.0492983" lon="8.265275"><ele>275.0</ele><time>2026-04-04T15:05:30.028Z</time></trkpt><trkpt lat="45.04929" lon="8.26518"><ele>275.0</ele><time>2026-04-04T15:05:32.028Z</time></trkpt><trkpt lat="45.0493217" lon="8.2651017"><ele>275.0</ele><time>2026-04-04T15:05:34.028Z</time></trkpt><trkpt lat="45.049385" lon="8.2650117"><ele>275.0</ele><time>2026-04-04T15:05:36.028Z</time></trkpt><trkpt lat="45.0494633" lon="8.2648983"><ele>275.0</ele><time>2026-04-04T15:05:38.027Z</time></trkpt><trkpt lat="45.049535" lon="8.26477"><ele>275.0</ele><time>2026-04-04T15:05:40.028Z</time></trkpt><trkpt lat="45.0495983" lon="8.2646633"><ele>275.0</ele><time>2026-04-04T15:05:42.028Z</time></trkpt><trkpt lat="45.04966" lon="8.2645217"><ele>275.0</ele><time>2026-04-04T15:05:44.029Z</time></trkpt><trkpt lat="45.0497067" lon="8.2644517"><ele>275.0</ele><time>2026-04-04T15:05:45.028Z</time></trkpt><trkpt lat="45.0497383" lon="8.26437"><ele>275.0</ele><time>2026-04-04T15:05:46.027Z</time></trkpt><trkpt lat="45.0497833" lon="8.264285"><ele>275.0</ele><time>2026-04-04T15:05:47.027Z</time></trkpt><trkpt lat="45.04983" lon="8.2641983"><ele>275.0</ele><time>2026-04-04T15:05:48.028Z</time></trkpt><trkpt lat="45.0498883" lon="8.2641167"><ele>276.2</ele><time>2026-04-04T15:05:49.027Z</time></trkpt><trkpt lat="45.04996" lon="8.2640467"><ele>277.4</ele><time>2026-04-04T15:05:50.029Z</time></trkpt><trkpt lat="45.05004" lon="8.26398"><ele>278.6</ele><time>2026-04-04T15:05:51.028Z</time></trkpt><trkpt lat="45.0501167" lon="8.263905"><ele>279.8</ele><time>2026-04-04T15:05:52.027Z</time></trkpt><trkpt lat="45.0501933" lon="8.2638383"><ele>281.0</ele><time>2026-04-04T15:05:53.028Z</time></trkpt><trkpt lat="45.0502667" lon="8.2637733"><ele>281.00000000000006</ele><time>2026-04-04T15:05:54.027Z</time></trkpt><trkpt lat="45.0503267" lon="8.263715"><ele>281.0</ele><time>2026-04-04T15:05:55.028Z</time></trkpt><trkpt lat="45.0503867" lon="8.2636533"><ele>281.0</ele><time>2026-04-04T15:05:56.027Z</time></trkpt><trkpt lat="45.0504433" lon="8.2635933"><ele>281.0</ele><time>2026-04-04T15:05:57.027Z</time></trkpt><trkpt lat="45.0504983" lon="8.2635233"><ele>281.0</ele><time>2026-04-04T15:05:58.029Z</time></trkpt><trkpt lat="45.0505467" lon="8.26344"><ele>281.00000000000006</ele><time>2026-04-04T15:05:59.027Z</time></trkpt><trkpt lat="45.0505867" lon="8.26335"><ele>281.0</ele><time>2026-04-04T15:06:00.027Z</time></trkpt><trkpt lat="45.05063" lon="8.2632617"><ele>281.0</ele><time>2026-04-04T15:06:01.028Z</time></trkpt><trkpt lat="45.0506733" lon="8.263165"><ele>281.0</ele><time>2026-04-04T15:06:02.028Z</time></trkpt><trkpt lat="45.0507117" lon="8.2630667"><ele>281.0</ele><time>2026-04-04T15:06:03.028Z</time></trkpt><trkpt lat="45.0507583" lon="8.26296"><ele>281.0</ele><time>2026-04-04T15:06:04.027Z</time></trkpt><trkpt lat="45.0508" lon="8.2628533"><ele>281.0</ele><time>2026-04-04T15:06:05.028Z</time></trkpt><trkpt lat="45.0508433" lon="8.2627417"><ele>281.0</ele><time>2026-04-04T15:06:06.028Z</time></trkpt><trkpt lat="45.0508883" lon="8.2626367"><ele>281.6666666666667</ele><time>2026-04-04T15:06:07.028Z</time></trkpt><trkpt lat="45.0509383" lon="8.2625333"><ele>282.33333333333337</ele><time>2026-04-04T15:06:08.028Z</time></trkpt><trkpt lat="45.050995" lon="8.2624433"><ele>283.0</ele><time>2026-04-04T15:06:09.029Z</time></trkpt><trkpt lat="45.0510533" lon="8.2623533"><ele>283.6666666666667</ele><time>2026-04-04T15:06:10.027Z</time></trkpt><trkpt lat="45.0511083" lon="8.262255"><ele>284.3333333333333</ele><time>2026-04-04T15:06:11.027Z</time></trkpt><trkpt lat="45.0511633" lon="8.2621517"><ele>285.0</ele><time>2026-04-04T15:06:12.027Z</time></trkpt><trkpt lat="45.05122" lon="8.2620383"><ele>285.0</ele><time>2026-04-04T15:06:13.027Z</time></trkpt><trkpt lat="45.051275" lon="8.2619117"><ele>285.0</ele><time>2026-04-04T15:06:14.027Z</time></trkpt><trkpt lat="45.0513317" lon="8.26177"><ele>285.0</ele><time>2026-04-04T15:06:15.028Z</time></trkpt><trkpt lat="45.05139" lon="8.2616283"><ele>285.0</ele><time>2026-04-04T15:06:16.028Z</time></trkpt><trkpt lat="45.0514483" lon="8.2614867"><ele>283.4</ele><time>2026-04-04T15:06:17.028Z</time></trkpt><trkpt lat="45.0515117" lon="8.26136"><ele>281.8</ele><time>2026-04-04T15:06:18.027Z</time></trkpt><trkpt lat="45.05157" lon="8.2612283"><ele>280.2</ele><time>2026-04-04T15:06:19.028Z</time></trkpt><trkpt lat="45.05163" lon="8.2611017"><ele>278.6</ele><time>2026-04-04T15:06:20.027Z</time></trkpt><trkpt lat="45.0516867" lon="8.2609767"><ele>277.0</ele><time>2026-04-04T15:06:21.028Z</time></trkpt><trkpt lat="45.05174" lon="8.2608517"><ele>279.8333333333333</ele><time>2026-04-04T15:06:22.027Z</time></trkpt><trkpt lat="45.0517983" lon="8.2607317"><ele>282.66666666666663</ele><time>2026-04-04T15:06:23.028Z</time></trkpt><trkpt lat="45.051855" lon="8.260625"><ele>285.5</ele><time>2026-04-04T15:06:24.027Z</time></trkpt><trkpt lat="45.0519083" lon="8.2605217"><ele>288.3333333333333</ele><time>2026-04-04T15:06:25.028Z</time></trkpt><trkpt lat="45.0519467" lon="8.2604367"><ele>291.1666666666667</ele><time>2026-04-04T15:06:26.027Z</time></trkpt><trkpt lat="45.0519717" lon="8.2603367"><ele>294.0</ele><time>2026-04-04T15:06:27.028Z</time></trkpt><trkpt lat="45.0519483" lon="8.2601933"><ele>294.0</ele><time>2026-04-04T15:06:28.028Z</time></trkpt><trkpt lat="45.0519367" lon="8.2600833"><ele>294.0</ele><time>2026-04-04T15:06:29.028Z</time></trkpt><trkpt lat="45.0519283" lon="8.2599783"><ele>294.0</ele><time>2026-04-04T15:06:30.027Z</time></trkpt><trkpt lat="45.0519317" lon="8.2598667"><ele>294.0</ele><time>2026-04-04T15:06:31.028Z</time></trkpt><trkpt lat="45.051945" lon="8.25976"><ele>294.0</ele><time>2026-04-04T15:06:32.028Z</time></trkpt><trkpt lat="45.05196" lon="8.259645"><ele>294.0</ele><time>2026-04-04T15:06:33.028Z</time></trkpt><trkpt lat="45.05199" lon="8.2595317"><ele>293.5</ele><time>2026-04-04T15:06:34.028Z</time></trkpt><trkpt lat="45.0520133" lon="8.2594267"><ele>293.0</ele><time>2026-04-04T15:06:35.027Z</time></trkpt><trkpt lat="45.0520467" lon="8.25933"><ele>292.5</ele><time>2026-04-04T15:06:36.028Z</time></trkpt><trkpt lat="45.0520817" lon="8.2592267"><ele>292.0</ele><time>2026-04-04T15:06:37.027Z</time></trkpt><trkpt lat="45.05213" lon="8.2591283"><ele>291.5</ele><time>2026-04-04T15:06:38.027Z</time></trkpt><trkpt lat="45.0521817" lon="8.2590183"><ele>291.0</ele><time>2026-04-04T15:06:39.029Z</time></trkpt><trkpt lat="45.052235" lon="8.2589033"><ele>290.0</ele><time>2026-04-04T15:06:40.027Z</time></trkpt><trkpt lat="45.0522867" lon="8.258795"><ele>289.0</ele><time>2026-04-04T15:06:41.028Z</time></trkpt><trkpt lat="45.0523317" lon="8.2586967"><ele>288.0</ele><time>2026-04-04T15:06:42.029Z</time></trkpt><trkpt lat="45.0523817" lon="8.2585933"><ele>287.0</ele><time>2026-04-04T15:06:43.027Z</time></trkpt><trkpt lat="45.052435" lon="8.2584867"><ele>286.0</ele><time>2026-04-04T15:06:44.029Z</time></trkpt><trkpt lat="45.05249" lon="8.25838"><ele>285.0</ele><time>2026-04-04T15:06:45.027Z</time></trkpt><trkpt lat="45.0525517" lon="8.2582833"><ele>286.8333333333333</ele><time>2026-04-04T15:06:46.026Z</time></trkpt><trkpt lat="45.0526183" lon="8.2581917"><ele>288.6666666666667</ele><time>2026-04-04T15:06:47.028Z</time></trkpt><trkpt lat="45.0526867" lon="8.2581017"><ele>290.5</ele><time>2026-04-04T15:06:48.029Z</time></trkpt><trkpt lat="45.0527533" lon="8.2580117"><ele>292.33333333333337</ele><time>2026-04-04T15:06:49.028Z</time></trkpt><trkpt lat="45.0528167" lon="8.2579267"><ele>294.1666666666667</ele><time>2026-04-04T15:06:50.028Z</time></trkpt><trkpt lat="45.052865" lon="8.2578483"><ele>296.0</ele><time>2026-04-04T15:06:51.027Z</time></trkpt><trkpt lat="45.0529183" lon="8.2577733"><ele>296.0</ele><time>2026-04-04T15:06:52.027Z</time></trkpt><trkpt lat="45.0529733" lon="8.2577067"><ele>296.0</ele><time>2026-04-04T15:06:53.028Z</time></trkpt><trkpt lat="45.053025" lon="8.25764"><ele>296.0</ele><time>2026-04-04T15:06:54.027Z</time></trkpt><trkpt lat="45.0530667" lon="8.2575683"><ele>296.0</ele><time>2026-04-04T15:06:55.027Z</time></trkpt><trkpt lat="45.0531117" lon="8.2575033"><ele>296.0</ele><time>2026-04-04T15:06:56.027Z</time></trkpt><trkpt lat="45.0532067" lon="8.2574033"><ele>296.0</ele><time>2026-04-04T15:06:58.028Z</time></trkpt><trkpt lat="45.0533" lon="8.2573"><ele>297.33333333333337</ele><time>2026-04-04T15:07:00.028Z</time></trkpt><trkpt lat="45.0533683" lon="8.25719"><ele>298.6666666666667</ele><time>2026-04-04T15:07:02.027Z</time></trkpt><trkpt lat="45.05341" lon="8.2570767"><ele>300.0</ele><time>2026-04-04T15:07:04.026Z</time></trkpt><trkpt lat="45.053445" lon="8.2569283"><ele>301.3333333333333</ele><time>2026-04-04T15:07:06.027Z</time></trkpt><trkpt lat="45.0534683" lon="8.2568433"><ele>302.66666666666663</ele><time>2026-04-04T15:07:07.029Z</time></trkpt><trkpt lat="45.053495" lon="8.2567583"><ele>304.0</ele><time>2026-04-04T15:07:08.029Z</time></trkpt><trkpt lat="45.0535283" lon="8.256675"><ele>304.0</ele><time>2026-04-04T15:07:09.027Z</time></trkpt><trkpt lat="45.0535583" lon="8.256585"><ele>304.0</ele><time>2026-04-04T15:07:10.028Z</time></trkpt><trkpt lat="45.0535867" lon="8.2564833"><ele>304.0</ele><time>2026-04-04T15:07:11.029Z</time></trkpt><trkpt lat="45.05362" lon="8.2563717"><ele>304.0</ele><time>2026-04-04T15:07:12.031Z</time></trkpt><trkpt lat="45.0536583" lon="8.256255"><ele>304.0</ele><time>2026-04-04T15:07:13.028Z</time></trkpt><trkpt lat="45.0536883" lon="8.256135"><ele>304.0</ele><time>2026-04-04T15:07:14.027Z</time></trkpt><trkpt lat="45.0537167" lon="8.2560133"><ele>303.0</ele><time>2026-04-04T15:07:15.028Z</time></trkpt><trkpt lat="45.0537517" lon="8.2558967"><ele>302.0</ele><time>2026-04-04T15:07:16.028Z</time></trkpt><trkpt lat="45.0537817" lon="8.25578"><ele>301.0</ele><time>2026-04-04T15:07:17.028Z</time></trkpt><trkpt lat="45.0538067" lon="8.25566"><ele>300.0</ele><time>2026-04-04T15:07:18.028Z</time></trkpt><trkpt lat="45.0538283" lon="8.2555433"><ele>299.0</ele><time>2026-04-04T15:07:19.027Z</time></trkpt><trkpt lat="45.0538483" lon="8.25543"><ele>298.0</ele><time>2026-04-04T15:07:20.027Z</time></trkpt><trkpt lat="45.0538683" lon="8.2553183"><ele>298.0</ele><time>2026-04-04T15:07:21.028Z</time></trkpt><trkpt lat="45.0538867" lon="8.255195"><ele>298.0</ele><time>2026-04-04T15:07:22.028Z</time></trkpt><trkpt lat="45.0539033" lon="8.255075"><ele>298.0</ele><time>2026-04-04T15:07:23.027Z</time></trkpt><trkpt lat="45.0539217" lon="8.25496"><ele>298.0</ele><time>2026-04-04T15:07:24.028Z</time></trkpt><trkpt lat="45.0539383" lon="8.2548517"><ele>298.0</ele><time>2026-04-04T15:07:25.029Z</time></trkpt><trkpt lat="45.0539483" lon="8.2547483"><ele>298.0</ele><time>2026-04-04T15:07:26.029Z</time></trkpt><trkpt lat="45.053955" lon="8.254635"><ele>299.3333333333333</ele><time>2026-04-04T15:07:27.028Z</time></trkpt><trkpt lat="45.0539467" lon="8.2545217"><ele>300.66666666666663</ele><time>2026-04-04T15:07:28.028Z</time></trkpt><trkpt lat="45.0539283" lon="8.2543983"><ele>302.0</ele><time>2026-04-04T15:07:29.027Z</time></trkpt><trkpt lat="45.053895" lon="8.25428"><ele>303.3333333333333</ele><time>2026-04-04T15:07:30.029Z</time></trkpt><trkpt lat="45.053865" lon="8.2541683"><ele>304.6666666666667</ele><time>2026-04-04T15:07:31.028Z</time></trkpt><trkpt lat="45.0538283" lon="8.254065"><ele>306.0</ele><time>2026-04-04T15:07:32.027Z</time></trkpt><trkpt lat="45.0537883" lon="8.25396"><ele>307.5</ele><time>2026-04-04T15:07:33.029Z</time></trkpt><trkpt lat="45.053745" lon="8.25385"><ele>309.0</ele><time>2026-04-04T15:07:34.028Z</time></trkpt><trkpt lat="45.0536967" lon="8.2537533"><ele>310.5</ele><time>2026-04-04T15:07:35.027Z</time></trkpt><trkpt lat="45.0536433" lon="8.25366"><ele>312.0</ele><time>2026-04-04T15:07:36.029Z</time></trkpt><trkpt lat="45.05358" lon="8.2535683"><ele>313.5</ele><time>2026-04-04T15:07:37.027Z</time></trkpt><trkpt lat="45.0535067" lon="8.25349"><ele>315.0</ele><time>2026-04-04T15:07:38.027Z</time></trkpt><trkpt lat="45.0534283" lon="8.253415"><ele>315.0</ele><time>2026-04-04T15:07:39.028Z</time></trkpt><trkpt lat="45.0533433" lon="8.2533517"><ele>315.0</ele><time>2026-04-04T15:07:40.027Z</time></trkpt><trkpt lat="45.0532567" lon="8.2532967"><ele>315.0</ele><time>2026-04-04T15:07:41.029Z</time></trkpt><trkpt lat="45.053175" lon="8.253255"><ele>315.0</ele><time>2026-04-04T15:07:42.028Z</time></trkpt><trkpt lat="45.0530983" lon="8.2532217"><ele>315.0</ele><time>2026-04-04T15:07:43.028Z</time></trkpt><trkpt lat="45.053025" lon="8.25319"><ele>315.0</ele><time>2026-04-04T15:07:44.029Z</time></trkpt><trkpt lat="45.052955" lon="8.253155"><ele>313.1666666666667</ele><time>2026-04-04T15:07:45.027Z</time></trkpt><trkpt lat="45.052885" lon="8.2531217"><ele>311.3333333333333</ele><time>2026-04-04T15:07:46.028Z</time></trkpt><trkpt lat="45.0528183" lon="8.2530883"><ele>309.5</ele><time>2026-04-04T15:07:47.029Z</time></trkpt><trkpt lat="45.05276" lon="8.2530483"><ele>307.66666666666663</ele><time>2026-04-04T15:07:48.027Z</time></trkpt><trkpt lat="45.0526717" lon="8.2529383"><ele>305.8333333333333</ele><time>2026-04-04T15:07:50.029Z</time></trkpt><trkpt lat="45.052625" lon="8.25279"><ele>304.0</ele><time>2026-04-04T15:07:52.028Z</time></trkpt><trkpt lat="45.0526183" lon="8.252625"><ele>304.0</ele><time>2026-04-04T15:07:54.028Z</time></trkpt><trkpt lat="45.0526733" lon="8.2524867"><ele>304.0</ele><time>2026-04-04T15:07:56.028Z</time></trkpt><trkpt lat="45.0527867" lon="8.252375"><ele>304.0</ele><time>2026-04-04T15:07:58.028Z</time></trkpt><trkpt lat="45.05285" lon="8.2523067"><ele>304.0</ele><time>2026-04-04T15:07:59.029Z</time></trkpt><trkpt lat="45.05291" lon="8.2522433"><ele>304.0</ele><time>2026-04-04T15:08:00.028Z</time></trkpt><trkpt lat="45.0529783" lon="8.2521617"><ele>304.8333333333333</ele><time>2026-04-04T15:08:01.028Z</time></trkpt><trkpt lat="45.0530417" lon="8.2520783"><ele>305.66666666666663</ele><time>2026-04-04T15:08:02.028Z</time></trkpt><trkpt lat="45.0531033" lon="8.2519933"><ele>306.5</ele><time>2026-04-04T15:08:03.029Z</time></trkpt><trkpt lat="45.0531583" lon="8.2519183"><ele>307.3333333333333</ele><time>2026-04-04T15:08:04.027Z</time></trkpt><trkpt lat="45.0532133" lon="8.2518383"><ele>308.1666666666667</ele><time>2026-04-04T15:08:05.029Z</time></trkpt><trkpt lat="45.0532617" lon="8.2517417"><ele>309.0</ele><time>2026-04-04T15:08:06.029Z</time></trkpt><trkpt lat="45.0533017" lon="8.2516383"><ele>309.0</ele><time>2026-04-04T15:08:07.028Z</time></trkpt><trkpt lat="45.05334" lon="8.2515333"><ele>309.0</ele><time>2026-04-04T15:08:08.03Z</time></trkpt><trkpt lat="45.05336" lon="8.2514317"><ele>309.0</ele><time>2026-04-04T15:08:09.029Z</time></trkpt><trkpt lat="45.053365" lon="8.2513133"><ele>309.0</ele><time>2026-04-04T15:08:10.029Z</time></trkpt><trkpt lat="45.05334" lon="8.2511883"><ele>309.0</ele><time>2026-04-04T15:08:11.028Z</time></trkpt><trkpt lat="45.053295" lon="8.2510567"><ele>309.0</ele><time>2026-04-04T15:08:12.029Z</time></trkpt><trkpt lat="45.05324" lon="8.2509183"><ele>304.4</ele><time>2026-04-04T15:08:13.028Z</time></trkpt><trkpt lat="45.0532" lon="8.2507733"><ele>299.79999999999995</ele><time>2026-04-04T15:08:14.027Z</time></trkpt><trkpt lat="45.0531617" lon="8.25063"><ele>295.20000000000005</ele><time>2026-04-04T15:08:15.028Z</time></trkpt><trkpt lat="45.0531217" lon="8.250485"><ele>290.6</ele><time>2026-04-04T15:08:16.027Z</time></trkpt><trkpt lat="45.05308" lon="8.2503433"><ele>286.0</ele><time>2026-04-04T15:08:17.028Z</time></trkpt><trkpt lat="45.0530233" lon="8.2502033"><ele>286.0</ele><time>2026-04-04T15:08:18.029Z</time></trkpt><trkpt lat="45.052955" lon="8.2500733"><ele>286.0</ele><time>2026-04-04T15:08:19.027Z</time></trkpt><trkpt lat="45.05288" lon="8.24995"><ele>286.0</ele><time>2026-04-04T15:08:20.028Z</time></trkpt><trkpt lat="45.0528067" lon="8.2498283"><ele>286.0</ele><time>2026-04-04T15:08:21.029Z</time></trkpt><trkpt lat="45.0527317" lon="8.2497117"><ele>286.3333333333333</ele><time>2026-04-04T15:08:22.027Z</time></trkpt><trkpt lat="45.052665" lon="8.2496017"><ele>286.66666666666663</ele><time>2026-04-04T15:08:23.028Z</time></trkpt><trkpt lat="45.0526133" lon="8.2494833"><ele>287.0</ele><time>2026-04-04T15:08:24.029Z</time></trkpt><trkpt lat="45.0525833" lon="8.2493733"><ele>287.3333333333333</ele><time>2026-04-04T15:08:25.03Z</time></trkpt><trkpt lat="45.0525667" lon="8.2492617"><ele>287.6666666666667</ele><time>2026-04-04T15:08:26.029Z</time></trkpt><trkpt lat="45.05254" lon="8.2491617"><ele>288.0</ele><time>2026-04-04T15:08:27.029Z</time></trkpt><trkpt lat="45.0525317" lon="8.2490567"><ele>286.3333333333333</ele><time>2026-04-04T15:08:28.029Z</time></trkpt><trkpt lat="45.0525417" lon="8.2489567"><ele>284.6666666666667</ele><time>2026-04-04T15:08:29.029Z</time></trkpt><trkpt lat="45.052585" lon="8.2488733"><ele>283.0</ele><time>2026-04-04T15:08:30.028Z</time></trkpt><trkpt lat="45.05267" lon="8.2488033"><ele>281.33333333333337</ele><time>2026-04-04T15:08:31.028Z</time></trkpt><trkpt lat="45.0527433" lon="8.2487433"><ele>279.6666666666667</ele><time>2026-04-04T15:08:32.028Z</time></trkpt><trkpt lat="45.05284" lon="8.24873"><ele>278.0</ele><time>2026-04-04T15:08:33.028Z</time></trkpt><trkpt lat="45.05292" lon="8.2487183"><ele>278.0</ele><time>2026-04-04T15:08:34.027Z</time></trkpt><trkpt lat="45.0530233" lon="8.2487633"><ele>278.0</ele><time>2026-04-04T15:08:35.027Z</time></trkpt><trkpt lat="45.0531483" lon="8.2488467"><ele>278.0</ele><time>2026-04-04T15:08:36.028Z</time></trkpt><trkpt lat="45.053275" lon="8.2489417"><ele>278.0</ele><time>2026-04-04T15:08:37.028Z</time></trkpt><trkpt lat="45.05339" lon="8.2490117"><ele>281.75</ele><time>2026-04-04T15:08:38.028Z</time></trkpt><trkpt lat="45.053505" lon="8.249075"><ele>285.5</ele><time>2026-04-04T15:08:39.028Z</time></trkpt><trkpt lat="45.0536217" lon="8.2491067"><ele>289.25</ele><time>2026-04-04T15:08:40.027Z</time></trkpt><trkpt lat="45.05373" lon="8.2491617"><ele>293.0</ele><time>2026-04-04T15:08:41.028Z</time></trkpt><trkpt lat="45.0538517" lon="8.2491933"><ele>293.0</ele><time>2026-04-04T15:08:42.029Z</time></trkpt><trkpt lat="45.05397" lon="8.2491933"><ele>293.0</ele><time>2026-04-04T15:08:43.029Z</time></trkpt><trkpt lat="45.0540783" lon="8.24916"><ele>293.0</ele><time>2026-04-04T15:08:44.028Z</time></trkpt><trkpt lat="45.05418" lon="8.2491067"><ele>293.0</ele><time>2026-04-04T15:08:45.029Z</time></trkpt><trkpt lat="45.0542733" lon="8.2490333"><ele>293.0</ele><time>2026-04-04T15:08:46.027Z</time></trkpt><trkpt lat="45.05437" lon="8.2489533"><ele>289.4</ele><time>2026-04-04T15:08:47.028Z</time></trkpt><trkpt lat="45.054465" lon="8.248875"><ele>285.8</ele><time>2026-04-04T15:08:48.029Z</time></trkpt><trkpt lat="45.054555" lon="8.2487983"><ele>282.2</ele><time>2026-04-04T15:08:49.027Z</time></trkpt><trkpt lat="45.054645" lon="8.2487167"><ele>278.6</ele><time>2026-04-04T15:08:50.03Z</time></trkpt><trkpt lat="45.0547333" lon="8.2486317"><ele>275.0</ele><time>2026-04-04T15:08:51.027Z</time></trkpt><trkpt lat="45.054815" lon="8.2485433"><ele>275.0</ele><time>2026-04-04T15:08:52.028Z</time></trkpt><trkpt lat="45.0548883" lon="8.248455"><ele>275.0</ele><time>2026-04-04T15:08:53.028Z</time></trkpt><trkpt lat="45.0549583" lon="8.2483567"><ele>275.0</ele><time>2026-04-04T15:08:54.028Z</time></trkpt><trkpt lat="45.055025" lon="8.24826"><ele>275.0</ele><time>2026-04-04T15:08:55.028Z</time></trkpt><trkpt lat="45.055075" lon="8.2481667"><ele>275.0</ele><time>2026-04-04T15:08:56.027Z</time></trkpt><trkpt lat="45.055115" lon="8.2480783"><ele>275.0</ele><time>2026-04-04T15:08:57.028Z</time></trkpt><trkpt lat="45.0551533" lon="8.2479917"><ele>274.6666666666667</ele><time>2026-04-04T15:08:58.029Z</time></trkpt><trkpt lat="45.055205" lon="8.2478717"><ele>274.33333333333337</ele><time>2026-04-04T15:09:00.027Z</time></trkpt><trkpt lat="45.0552333" lon="8.2477817"><ele>274.0</ele><time>2026-04-04T15:09:03.027Z</time></trkpt><trkpt lat="45.055235" lon="8.2476883"><ele>273.6666666666667</ele><time>2026-04-04T15:09:13.028Z</time></trkpt><trkpt lat="45.05524" lon="8.2474967"><ele>273.3333333333333</ele><time>2026-04-04T15:09:15.028Z</time></trkpt><trkpt lat="45.05524" lon="8.2474"><ele>273.0</ele><time>2026-04-04T15:09:16.028Z</time></trkpt><trkpt lat="45.055235" lon="8.2472667"><ele>270.3333333333333</ele><time>2026-04-04T15:09:17.027Z</time></trkpt><trkpt lat="45.0552283" lon="8.2470667"><ele>267.66666666666663</ele><time>2026-04-04T15:09:18.028Z</time></trkpt><trkpt lat="45.0551917" lon="8.246795"><ele>265.0</ele><time>2026-04-04T15:09:19.028Z</time></trkpt><trkpt lat="45.0551717" lon="8.2465417"><ele>263.66666666666663</ele><time>2026-04-04T15:09:20.028Z</time></trkpt><trkpt lat="45.0551567" lon="8.2462817"><ele>262.3333333333333</ele><time>2026-04-04T15:09:21.028Z</time></trkpt><trkpt lat="45.0551533" lon="8.2460217"><ele>261.0</ele><time>2026-04-04T15:09:22.028Z</time></trkpt><trkpt lat="45.055145" lon="8.2457967"><ele>260.0</ele><time>2026-04-04T15:09:23.028Z</time></trkpt><trkpt lat="45.0551317" lon="8.2455667"><ele>259.0</ele><time>2026-04-04T15:09:24.027Z</time></trkpt><trkpt lat="45.055125" lon="8.2453333"><ele>258.0</ele><time>2026-04-04T15:09:25.028Z</time></trkpt><trkpt lat="45.0551067" lon="8.2451233"><ele>258.0</ele><time>2026-04-04T15:09:26.027Z</time></trkpt><trkpt lat="45.0550883" lon="8.2449167"><ele>258.0</ele><time>2026-04-04T15:09:27.027Z</time></trkpt><trkpt lat="45.0550733" lon="8.2447133"><ele>258.0</ele><time>2026-04-04T15:09:28.028Z</time></trkpt><trkpt lat="45.0550633" lon="8.2445217"><ele>258.0</ele><time>2026-04-04T15:09:29.028Z</time></trkpt><trkpt lat="45.0550533" lon="8.2443383"><ele>257.25</ele><time>2026-04-04T15:09:30.028Z</time></trkpt><trkpt lat="45.05504" lon="8.2441617"><ele>256.5</ele><time>2026-04-04T15:09:31.027Z</time></trkpt><trkpt lat="45.055025" lon="8.2439883"><ele>255.75</ele><time>2026-04-04T15:09:32.028Z</time></trkpt><trkpt lat="45.0550133" lon="8.2438183"><ele>255.0</ele><time>2026-04-04T15:09:33.029Z</time></trkpt><trkpt lat="45.055" lon="8.2436467"><ele>253.5</ele><time>2026-04-04T15:09:34.027Z</time></trkpt><trkpt lat="45.054985" lon="8.2434817"><ele>252.0</ele><time>2026-04-04T15:09:35.027Z</time></trkpt><trkpt lat="45.05497" lon="8.2433117"><ele>250.5</ele><time>2026-04-04T15:09:36.027Z</time></trkpt><trkpt lat="45.0549567" lon="8.2431333"><ele>249.0</ele><time>2026-04-04T15:09:37.028Z</time></trkpt><trkpt lat="45.0549433" lon="8.242955"><ele>245.5</ele><time>2026-04-04T15:09:38.027Z</time></trkpt><trkpt lat="45.0549283" lon="8.2427917"><ele>242.0</ele><time>2026-04-04T15:09:39.027Z</time></trkpt><trkpt lat="45.0549233" lon="8.2426183"><ele>238.5</ele><time>2026-04-04T15:09:40.027Z</time></trkpt><trkpt lat="45.0549367" lon="8.2424483"><ele>235.0</ele><time>2026-04-04T15:09:41.027Z</time></trkpt><trkpt lat="45.05497" lon="8.242275"><ele>235.0</ele><time>2026-04-04T15:09:42.027Z</time></trkpt><trkpt lat="45.05502" lon="8.2421033"><ele>235.0</ele><time>2026-04-04T15:09:43.028Z</time></trkpt><trkpt lat="45.0550717" lon="8.2419233"><ele>235.0</ele><time>2026-04-04T15:09:44.028Z</time></trkpt><trkpt lat="45.0551167" lon="8.2417333"><ele>235.0</ele><time>2026-04-04T15:09:45.028Z</time></trkpt><trkpt lat="45.0551417" lon="8.2415467"><ele>233.5</ele><time>2026-04-04T15:09:46.028Z</time></trkpt><trkpt lat="45.0551533" lon="8.2413617"><ele>232.0</ele><time>2026-04-04T15:09:47.027Z</time></trkpt><trkpt lat="45.0551533" lon="8.2411833"><ele>230.5</ele><time>2026-04-04T15:09:48.027Z</time></trkpt><trkpt lat="45.0551467" lon="8.2410083"><ele>229.0</ele><time>2026-04-04T15:09:49.028Z</time></trkpt><trkpt lat="45.0551433" lon="8.2408383"><ele>229.0</ele><time>2026-04-04T15:09:50.027Z</time></trkpt><trkpt lat="45.0551367" lon="8.2406667"><ele>229.0</ele><time>2026-04-04T15:09:51.03Z</time></trkpt><trkpt lat="45.05513" lon="8.2404883"><ele>229.0</ele><time>2026-04-04T15:09:52.028Z</time></trkpt><trkpt lat="45.05512" lon="8.24031"><ele>229.0</ele><time>2026-04-04T15:09:53.028Z</time></trkpt><trkpt lat="45.0551083" lon="8.240135"><ele>228.5</ele><time>2026-04-04T15:09:54.027Z</time></trkpt><trkpt lat="45.0550983" lon="8.2399583"><ele>228.0</ele><time>2026-04-04T15:09:55.028Z</time></trkpt><trkpt lat="45.0550917" lon="8.239785"><ele>227.5</ele><time>2026-04-04T15:09:56.028Z</time></trkpt><trkpt lat="45.0550867" lon="8.2396133"><ele>227.0</ele><time>2026-04-04T15:09:57.027Z</time></trkpt><trkpt lat="45.05508" lon="8.2394483"><ele>226.0</ele><time>2026-04-04T15:09:58.026Z</time></trkpt><trkpt lat="45.0550715" lon="8.2392824"><ele>225.0</ele><time>2026-04-04T15:09:59.027Z</time></trkpt><trkpt lat="45.05507" lon="8.2391194"><ele>224.0</ele><time>2026-04-04T15:10:00.028Z</time></trkpt><trkpt lat="45.0550704" lon="8.2389574"><ele>223.0</ele><time>2026-04-04T15:10:01.03Z</time></trkpt><trkpt lat="45.0550686" lon="8.2387972"><ele>221.8</ele><time>2026-04-04T15:10:02.028Z</time></trkpt><trkpt lat="45.0550688" lon="8.2386376"><ele>220.60000000000002</ele><time>2026-04-04T15:10:03.029Z</time></trkpt><trkpt lat="45.0550654" lon="8.2384851"><ele>219.39999999999998</ele><time>2026-04-04T15:10:04.027Z</time></trkpt><trkpt lat="45.0550596" lon="8.2383369"><ele>218.2</ele><time>2026-04-04T15:10:05.028Z</time></trkpt><trkpt lat="45.0550579" lon="8.2381923"><ele>217.0</ele><time>2026-04-04T15:10:06.027Z</time></trkpt><trkpt lat="45.0550636" lon="8.2380545"><ele>215.66666666666666</ele><time>2026-04-04T15:10:07.027Z</time></trkpt><trkpt lat="45.0550854" lon="8.2379398"><ele>214.33333333333331</ele><time>2026-04-04T15:10:08.027Z</time></trkpt><trkpt lat="45.0551214" lon="8.2378431"><ele>213.0</ele><time>2026-04-04T15:10:09.028Z</time></trkpt><trkpt lat="45.055164" lon="8.2377666"><ele>211.66666666666669</ele><time>2026-04-04T15:10:10.028Z</time></trkpt><trkpt lat="45.0552293" lon="8.2377239"><ele>210.33333333333334</ele><time>2026-04-04T15:10:11.028Z</time></trkpt><trkpt lat="45.0553259" lon="8.237712"><ele>209.0</ele><time>2026-04-04T15:10:12.028Z</time></trkpt><trkpt lat="45.0554585" lon="8.2377236"><ele>209.0</ele><time>2026-04-04T15:10:13.027Z</time></trkpt><trkpt lat="45.0556001" lon="8.2377382"><ele>209.0</ele><time>2026-04-04T15:10:14.028Z</time></trkpt><trkpt lat="45.0557324" lon="8.2377464"><ele>209.0</ele><time>2026-04-04T15:10:15.028Z</time></trkpt><trkpt lat="45.0558506" lon="8.2377512"><ele>209.0</ele><time>2026-04-04T15:10:16.028Z</time></trkpt><trkpt lat="45.0559573" lon="8.2377502"><ele>208.83333333333334</ele><time>2026-04-04T15:10:17.028Z</time></trkpt><trkpt lat="45.0560467" lon="8.2377191"><ele>208.66666666666669</ele><time>2026-04-04T15:10:18.027Z</time></trkpt><trkpt lat="45.0561205" lon="8.237668"><ele>208.5</ele><time>2026-04-04T15:10:19.027Z</time></trkpt><trkpt lat="45.0561808" lon="8.2375988"><ele>208.33333333333331</ele><time>2026-04-04T15:10:20.027Z</time></trkpt><trkpt lat="45.0562141" lon="8.2375131"><ele>208.16666666666666</ele><time>2026-04-04T15:10:21.028Z</time></trkpt><trkpt lat="45.0562062" lon="8.2373475"><ele>208.0</ele><time>2026-04-04T15:10:23.028Z</time></trkpt><trkpt lat="45.0560759" lon="8.2372306"><ele>206.33333333333331</ele><time>2026-04-04T15:10:24.027Z</time></trkpt><trkpt lat="45.0559427" lon="8.2371336"><ele>204.66666666666669</ele><time>2026-04-04T15:10:25.028Z</time></trkpt><trkpt lat="45.0557043" lon="8.2370258"><ele>203.0</ele><time>2026-04-04T15:10:26.028Z</time></trkpt><trkpt lat="45.0555093" lon="8.2369259"><ele>203.0</ele><time>2026-04-04T15:10:27.027Z</time></trkpt><trkpt lat="45.0553609" lon="8.2368118"><ele>203.0</ele><time>2026-04-04T15:10:28.027Z</time></trkpt><trkpt lat="45.0552453" lon="8.2366923"><ele>203.0</ele><time>2026-04-04T15:10:29.027Z</time></trkpt><trkpt lat="45.0551494" lon="8.2365698"><ele>203.0</ele><time>2026-04-04T15:10:30.028Z</time></trkpt><trkpt lat="45.0550648" lon="8.2364578"><ele>201.60000000000002</ele><time>2026-04-04T15:10:31.027Z</time></trkpt><trkpt lat="45.0549866" lon="8.2363519"><ele>200.20000000000002</ele><time>2026-04-04T15:10:32.028Z</time></trkpt><trkpt lat="45.054922" lon="8.2362421"><ele>198.8</ele><time>2026-04-04T15:10:33.027Z</time></trkpt><trkpt lat="45.0548695" lon="8.2361281"><ele>197.4</ele><time>2026-04-04T15:10:34.028Z</time></trkpt><trkpt lat="45.0548359" lon="8.2360074"><ele>196.0</ele><time>2026-04-04T15:10:35.03Z</time></trkpt><trkpt lat="45.0548123" lon="8.2358828"><ele>195.4</ele><time>2026-04-04T15:10:36.03Z</time></trkpt><trkpt lat="45.0548146" lon="8.2357451"><ele>194.8</ele><time>2026-04-04T15:10:37.028Z</time></trkpt><trkpt lat="45.0548327" lon="8.2356077"><ele>194.20000000000002</ele><time>2026-04-04T15:10:38.03Z</time></trkpt><trkpt lat="45.0548533" lon="8.2354785"><ele>193.60000000000002</ele><time>2026-04-04T15:10:39.028Z</time></trkpt><trkpt lat="45.0548717" lon="8.2353582"><ele>193.0</ele><time>2026-04-04T15:10:40.031Z</time></trkpt><trkpt lat="45.0548845" lon="8.2352434"><ele>191.99999999999997</ele><time>2026-04-04T15:10:41.03Z</time></trkpt><trkpt lat="45.0548934" lon="8.2351333"><ele>191.0</ele><time>2026-04-04T15:10:42.031Z</time></trkpt><trkpt lat="45.0548967" lon="8.2350255"><ele>190.0</ele><time>2026-04-04T15:10:43.03Z</time></trkpt><trkpt lat="45.0548951" lon="8.2349166"><ele>189.0</ele><time>2026-04-04T15:10:44.028Z</time></trkpt><trkpt lat="45.0548848" lon="8.2348025"><ele>188.0</ele><time>2026-04-04T15:10:45.027Z</time></trkpt><trkpt lat="45.0548738" lon="8.2346776"><ele>187.0</ele><time>2026-04-04T15:10:46.027Z</time></trkpt><trkpt lat="45.0548631" lon="8.2345388"><ele>187.25</ele><time>2026-04-04T15:10:47.028Z</time></trkpt><trkpt lat="45.0548486" lon="8.2343798"><ele>187.5</ele><time>2026-04-04T15:10:48.028Z</time></trkpt><trkpt lat="45.0548316" lon="8.2342065"><ele>187.75</ele><time>2026-04-04T15:10:49.027Z</time></trkpt><trkpt lat="45.0548128" lon="8.23402"><ele>188.0</ele><time>2026-04-04T15:10:50.028Z</time></trkpt><trkpt lat="45.0547927" lon="8.2338258"><ele>188.0</ele><time>2026-04-04T15:10:51.029Z</time></trkpt><trkpt lat="45.0547667" lon="8.2336303"><ele>188.0</ele><time>2026-04-04T15:10:52.027Z</time></trkpt><trkpt lat="45.0547286" lon="8.2334463"><ele>188.0</ele><time>2026-04-04T15:10:53.028Z</time></trkpt><trkpt lat="45.0546675" lon="8.2333007"><ele>188.0</ele><time>2026-04-04T15:10:54.029Z</time></trkpt><trkpt lat="45.0545792" lon="8.2331913"><ele>189.75</ele><time>2026-04-04T15:10:55.027Z</time></trkpt><trkpt lat="45.0544614" lon="8.2331126"><ele>191.5</ele><time>2026-04-04T15:10:56.028Z</time></trkpt><trkpt lat="45.0543175" lon="8.2330659"><ele>193.25</ele><time>2026-04-04T15:10:57.029Z</time></trkpt><trkpt lat="45.0541485" lon="8.2330462"><ele>195.0</ele><time>2026-04-04T15:10:58.027Z</time></trkpt><trkpt lat="45.0539716" lon="8.2330221"><ele>195.0</ele><time>2026-04-04T15:10:59.026Z</time></trkpt><trkpt lat="45.0537883" lon="8.2329964"><ele>195.0</ele><time>2026-04-04T15:11:00.027Z</time></trkpt><trkpt lat="45.0536" lon="8.2329686"><ele>195.0</ele><time>2026-04-04T15:11:01.028Z</time></trkpt><trkpt lat="45.0534156" lon="8.2329354"><ele>193.0</ele><time>2026-04-04T15:11:02.028Z</time></trkpt><trkpt lat="45.0532435" lon="8.2329047"><ele>191.0</ele><time>2026-04-04T15:11:03.028Z</time></trkpt><trkpt lat="45.053082" lon="8.2328737"><ele>189.0</ele><time>2026-04-04T15:11:04.027Z</time></trkpt><trkpt lat="45.0529211" lon="8.2328267"><ele>189.0</ele><time>2026-04-04T15:11:05.027Z</time></trkpt><trkpt lat="45.0527667" lon="8.2327433"><ele>189.0</ele><time>2026-04-04T15:11:06.028Z</time></trkpt><trkpt lat="45.0526267" lon="8.2326433"><ele>189.0</ele><time>2026-04-04T15:11:07.028Z</time></trkpt><trkpt lat="45.052505" lon="8.232535"><ele>188.6</ele><time>2026-04-04T15:11:08.027Z</time></trkpt><trkpt lat="45.0524017" lon="8.2324283"><ele>188.2</ele><time>2026-04-04T15:11:09.029Z</time></trkpt><trkpt lat="45.05232" lon="8.23233"><ele>187.79999999999998</ele><time>2026-04-04T15:11:10.028Z</time></trkpt><trkpt lat="45.0522617" lon="8.2322283"><ele>187.39999999999998</ele><time>2026-04-04T15:11:11.027Z</time></trkpt><trkpt lat="45.0521883" lon="8.2321267"><ele>187.0</ele><time>2026-04-04T15:11:12.028Z</time></trkpt><trkpt lat="45.052095" lon="8.2320467"><ele>187.0</ele><time>2026-04-04T15:11:13.028Z</time></trkpt><trkpt lat="45.051995" lon="8.23196"><ele>187.0</ele><time>2026-04-04T15:11:14.029Z</time></trkpt><trkpt lat="45.051895" lon="8.23186"><ele>187.0</ele><time>2026-04-04T15:11:15.028Z</time></trkpt><trkpt lat="45.0518" lon="8.2317583"><ele>187.0</ele><time>2026-04-04T15:11:16.027Z</time></trkpt><trkpt lat="45.05171" lon="8.2316583"><ele>187.0</ele><time>2026-04-04T15:11:17.028Z</time></trkpt><trkpt lat="45.0516233" lon="8.23155"><ele>187.0</ele><time>2026-04-04T15:11:18.027Z</time></trkpt><trkpt lat="45.0515333" lon="8.2314367"><ele>187.0</ele><time>2026-04-04T15:11:19.027Z</time></trkpt><trkpt lat="45.05144" lon="8.23131"><ele>187.0</ele><time>2026-04-04T15:11:20.028Z</time></trkpt><trkpt lat="45.0513433" lon="8.2311733"><ele>187.0</ele><time>2026-04-04T15:11:21.028Z</time></trkpt><trkpt lat="45.0512467" lon="8.2310267"><ele>187.0</ele><time>2026-04-04T15:11:22.027Z</time></trkpt><trkpt lat="45.0511583" lon="8.230875"><ele>187.0</ele><time>2026-04-04T15:11:23.028Z</time></trkpt><trkpt lat="45.05108" lon="8.230725"><ele>187.0</ele><time>2026-04-04T15:11:24.029Z</time></trkpt><trkpt lat="45.0509983" lon="8.23058"><ele>187.0</ele><time>2026-04-04T15:11:25.028Z</time></trkpt><trkpt lat="45.0509133" lon="8.2304417"><ele>187.0</ele><time>2026-04-04T15:11:26.027Z</time></trkpt><trkpt lat="45.050825" lon="8.23031"><ele>187.0</ele><time>2026-04-04T15:11:27.028Z</time></trkpt><trkpt lat="45.0507383" lon="8.2301767"><ele>187.0</ele><time>2026-04-04T15:11:28.027Z</time></trkpt><trkpt lat="45.0506533" lon="8.2300383"><ele>187.0</ele><time>2026-04-04T15:11:29.03Z</time></trkpt><trkpt lat="45.0505717" lon="8.2298917"><ele>187.0</ele><time>2026-04-04T15:11:30.029Z</time></trkpt><trkpt lat="45.0504967" lon="8.2297383"><ele>187.0</ele><time>2026-04-04T15:11:31.028Z</time></trkpt><trkpt lat="45.0504333" lon="8.2295667"><ele>187.0</ele><time>2026-04-04T15:11:32.027Z</time></trkpt><trkpt lat="45.0503783" lon="8.2293817"><ele>187.75</ele><time>2026-04-04T15:11:33.028Z</time></trkpt><trkpt lat="45.0503267" lon="8.229185"><ele>188.5</ele><time>2026-04-04T15:11:34.028Z</time></trkpt><trkpt lat="45.0502717" lon="8.2289867"><ele>189.25</ele><time>2026-04-04T15:11:35.029Z</time></trkpt><trkpt lat="45.050215" lon="8.2287917"><ele>190.0</ele><time>2026-04-04T15:11:36.028Z</time></trkpt><trkpt lat="45.0501533" lon="8.2285933"><ele>190.33333333333334</ele><time>2026-04-04T15:11:37.027Z</time></trkpt><trkpt lat="45.0500867" lon="8.22839"><ele>190.66666666666666</ele><time>2026-04-04T15:11:38.029Z</time></trkpt><trkpt lat="45.050015" lon="8.228185"><ele>191.0</ele><time>2026-04-04T15:11:39.028Z</time></trkpt><trkpt lat="45.04993" lon="8.2279933"><ele>192.5</ele><time>2026-04-04T15:11:40.028Z</time></trkpt><trkpt lat="45.0498417" lon="8.22782"><ele>194.0</ele><time>2026-04-04T15:11:41.027Z</time></trkpt><trkpt lat="45.04976" lon="8.22766"><ele>195.5</ele><time>2026-04-04T15:11:42.03Z</time></trkpt><trkpt lat="45.0496833" lon="8.2275183"><ele>197.0</ele><time>2026-04-04T15:11:43.028Z</time></trkpt><trkpt lat="45.049625" lon="8.2273883"><ele>198.0</ele><time>2026-04-04T15:11:44.027Z</time></trkpt><trkpt lat="45.0495883" lon="8.227255"><ele>199.0</ele><time>2026-04-04T15:11:45.028Z</time></trkpt><trkpt lat="45.04959" lon="8.22712"><ele>200.0</ele><time>2026-04-04T15:11:46.028Z</time></trkpt><trkpt lat="45.0496367" lon="8.2269967"><ele>201.0</ele><time>2026-04-04T15:11:47.028Z</time></trkpt><trkpt lat="45.0497117" lon="8.2269017"><ele>202.0</ele><time>2026-04-04T15:11:48.029Z</time></trkpt><trkpt lat="45.0497733" lon="8.2268017"><ele>201.99999999999997</ele><time>2026-04-04T15:11:49.028Z</time></trkpt><trkpt lat="45.0498067" lon="8.2266867"><ele>202.0</ele><time>2026-04-04T15:11:50.027Z</time></trkpt><trkpt lat="45.0498267" lon="8.2265817"><ele>202.0</ele><time>2026-04-04T15:11:51.029Z</time></trkpt><trkpt lat="45.0498117" lon="8.2264767"><ele>202.0</ele><time>2026-04-04T15:11:52.027Z</time></trkpt><trkpt lat="45.0497783" lon="8.22639"><ele>201.99999999999997</ele><time>2026-04-04T15:11:53.028Z</time></trkpt><trkpt lat="45.049715" lon="8.22633"><ele>202.0</ele><time>2026-04-04T15:11:54.028Z</time></trkpt><trkpt lat="45.0496417" lon="8.2262867"><ele>202.8</ele><time>2026-04-04T15:11:55.027Z</time></trkpt><trkpt lat="45.049525" lon="8.2262867"><ele>203.6</ele><time>2026-04-04T15:11:56.027Z</time></trkpt><trkpt lat="45.0494317" lon="8.226275"><ele>204.4</ele><time>2026-04-04T15:11:57.03Z</time></trkpt><trkpt lat="45.0493117" lon="8.2262617"><ele>205.20000000000002</ele><time>2026-04-04T15:11:58.027Z</time></trkpt><trkpt lat="45.0492117" lon="8.22621"><ele>206.0</ele><time>2026-04-04T15:11:59.029Z</time></trkpt><trkpt lat="45.049125" lon="8.2261217"><ele>206.0</ele><time>2026-04-04T15:12:00.029Z</time></trkpt><trkpt lat="45.0490533" lon="8.22601"><ele>206.0</ele><time>2026-04-04T15:12:01.03Z</time></trkpt><trkpt lat="45.0489917" lon="8.2258767"><ele>206.0</ele><time>2026-04-04T15:12:02.028Z</time></trkpt><trkpt lat="45.04893" lon="8.22574"><ele>206.0</ele><time>2026-04-04T15:12:03.029Z</time></trkpt><trkpt lat="45.048875" lon="8.2255883"><ele>207.0</ele><time>2026-04-04T15:12:04.028Z</time></trkpt><trkpt lat="45.048825" lon="8.2254333"><ele>208.0</ele><time>2026-04-04T15:12:05.028Z</time></trkpt><trkpt lat="45.0487733" lon="8.2252833"><ele>209.0</ele><time>2026-04-04T15:12:06.028Z</time></trkpt><trkpt lat="45.0487217" lon="8.2251283"><ele>210.0</ele><time>2026-04-04T15:12:07.028Z</time></trkpt><trkpt lat="45.048665" lon="8.2249667"><ele>212.25</ele><time>2026-04-04T15:12:08.029Z</time></trkpt><trkpt lat="45.0486067" lon="8.2248017"><ele>214.5</ele><time>2026-04-04T15:12:09.028Z</time></trkpt><trkpt lat="45.0485483" lon="8.224635"><ele>216.75</ele><time>2026-04-04T15:12:10.028Z</time></trkpt><trkpt lat="45.04849" lon="8.2244717"><ele>219.0</ele><time>2026-04-04T15:12:11.027Z</time></trkpt><trkpt lat="45.0484317" lon="8.224305"><ele>219.0</ele><time>2026-04-04T15:12:12.028Z</time></trkpt><trkpt lat="45.0483733" lon="8.2241433"><ele>219.0</ele><time>2026-04-04T15:12:13.029Z</time></trkpt><trkpt lat="45.0483167" lon="8.2239833"><ele>219.0</ele><time>2026-04-04T15:12:14.028Z</time></trkpt><trkpt lat="45.0482583" lon="8.223825"><ele>219.0</ele><time>2026-04-04T15:12:15.028Z</time></trkpt><trkpt lat="45.048195" lon="8.2236667"><ele>220.75</ele><time>2026-04-04T15:12:16.028Z</time></trkpt><trkpt lat="45.0481233" lon="8.223515"><ele>222.5</ele><time>2026-04-04T15:12:17.029Z</time></trkpt><trkpt lat="45.0480517" lon="8.22336"><ele>224.25</ele><time>2026-04-04T15:12:18.028Z</time></trkpt><trkpt lat="45.047985" lon="8.2231967"><ele>226.0</ele><time>2026-04-04T15:12:19.031Z</time></trkpt><trkpt lat="45.047925" lon="8.2230217"><ele>228.75</ele><time>2026-04-04T15:12:20.029Z</time></trkpt><trkpt lat="45.0478683" lon="8.2228417"><ele>231.5</ele><time>2026-04-04T15:12:21.028Z</time></trkpt><trkpt lat="45.0478033" lon="8.2226583"><ele>234.25</ele><time>2026-04-04T15:12:22.028Z</time></trkpt><trkpt lat="45.0477267" lon="8.2224767"><ele>237.0</ele><time>2026-04-04T15:12:23.028Z</time></trkpt><trkpt lat="45.0476367" lon="8.2222983"><ele>238.0</ele><time>2026-04-04T15:12:24.027Z</time></trkpt><trkpt lat="45.04754" lon="8.2221267"><ele>239.0</ele><time>2026-04-04T15:12:25.028Z</time></trkpt><trkpt lat="45.04744" lon="8.221965"><ele>240.0</ele><time>2026-04-04T15:12:26.027Z</time></trkpt><trkpt lat="45.0473383" lon="8.2218183"><ele>240.0</ele><time>2026-04-04T15:12:27.028Z</time></trkpt><trkpt lat="45.0472267" lon="8.221695"><ele>240.0</ele><time>2026-04-04T15:12:28.027Z</time></trkpt><trkpt lat="45.0471" lon="8.221605"><ele>240.0</ele><time>2026-04-04T15:12:29.028Z</time></trkpt><trkpt lat="45.0469633" lon="8.2215283"><ele>240.0</ele><time>2026-04-04T15:12:30.03Z</time></trkpt><trkpt lat="45.046825" lon="8.2214583"><ele>244.0</ele><time>2026-04-04T15:12:31.027Z</time></trkpt><trkpt lat="45.0466867" lon="8.2213567"><ele>248.0</ele><time>2026-04-04T15:12:32.028Z</time></trkpt><trkpt lat="45.0465433" lon="8.2212417"><ele>252.0</ele><time>2026-04-04T15:12:33.029Z</time></trkpt><trkpt lat="45.0464017" lon="8.22111"><ele>252.0</ele><time>2026-04-04T15:12:34.027Z</time></trkpt><trkpt lat="45.0462617" lon="8.2209767"><ele>252.0</ele><time>2026-04-04T15:12:35.028Z</time></trkpt><trkpt lat="45.046125" lon="8.2208383"><ele>252.0</ele><time>2026-04-04T15:12:36.028Z</time></trkpt><trkpt lat="45.0459933" lon="8.2207117"><ele>255.5</ele><time>2026-04-04T15:12:37.029Z</time></trkpt><trkpt lat="45.0458617" lon="8.2206083"><ele>259.0</ele><time>2026-04-04T15:12:38.029Z</time></trkpt><trkpt lat="45.0457283" lon="8.2205533"><ele>262.5</ele><time>2026-04-04T15:12:39.027Z</time></trkpt><trkpt lat="45.0455967" lon="8.2205283"><ele>266.0</ele><time>2026-04-04T15:12:40.027Z</time></trkpt><trkpt lat="45.0454783" lon="8.22057"><ele>264.5</ele><time>2026-04-04T15:12:41.029Z</time></trkpt><trkpt lat="45.0453667" lon="8.22065"><ele>263.0</ele><time>2026-04-04T15:12:42.027Z</time></trkpt><trkpt lat="45.04531" lon="8.2208233"><ele>261.5</ele><time>2026-04-04T15:12:43.028Z</time></trkpt><trkpt lat="45.0452483" lon="8.22102"><ele>260.0</ele><time>2026-04-04T15:12:44.028Z</time></trkpt><trkpt lat="45.0451817" lon="8.2211183"><ele>260.0</ele><time>2026-04-04T15:12:45.028Z</time></trkpt><trkpt lat="45.045105" lon="8.22118"><ele>260.0</ele><time>2026-04-04T15:12:46.026Z</time></trkpt><trkpt lat="45.0450183" lon="8.221215"><ele>260.0</ele><time>2026-04-04T15:12:47.027Z</time></trkpt><trkpt lat="45.0449317" lon="8.2212033"><ele>260.0</ele><time>2026-04-04T15:12:48.033Z</time></trkpt><trkpt lat="45.044865" lon="8.2211833"><ele>260.0</ele><time>2026-04-04T15:12:49.028Z</time></trkpt><trkpt lat="45.0448183" lon="8.2210617"><ele>260.0</ele><time>2026-04-04T15:12:50.027Z</time></trkpt><trkpt lat="45.044785" lon="8.2209133"><ele>262.0</ele><time>2026-04-04T15:12:51.027Z</time></trkpt><trkpt lat="45.0447617" lon="8.220745"><ele>264.0</ele><time>2026-04-04T15:12:52.027Z</time></trkpt><trkpt lat="45.0447567" lon="8.2205433"><ele>266.0</ele><time>2026-04-04T15:12:53.03Z</time></trkpt><trkpt lat="45.0447467" lon="8.2203583"><ele>268.0</ele><time>2026-04-04T15:12:54.027Z</time></trkpt><trkpt lat="45.0447333" lon="8.2201983"><ele>268.0</ele><time>2026-04-04T15:12:55.026Z</time></trkpt><trkpt lat="45.0447133" lon="8.2200733"><ele>268.0</ele><time>2026-04-04T15:12:56.026Z</time></trkpt><trkpt lat="45.0447017" lon="8.219955"><ele>268.0</ele><time>2026-04-04T15:12:57.029Z</time></trkpt><trkpt lat="45.044705" lon="8.21984"><ele>268.0</ele><time>2026-04-04T15:12:58.026Z</time></trkpt><trkpt lat="45.0447167" lon="8.2197283"><ele>268.0</ele><time>2026-04-04T15:12:59.028Z</time></trkpt><trkpt lat="45.0447517" lon="8.2196"><ele>268.0</ele><time>2026-04-04T15:13:00.027Z</time></trkpt><trkpt lat="45.0447833" lon="8.219495"><ele>267.4</ele><time>2026-04-04T15:13:01.028Z</time></trkpt><trkpt lat="45.0448617" lon="8.219425"><ele>266.8</ele><time>2026-04-04T15:13:02.026Z</time></trkpt><trkpt lat="45.0449467" lon="8.2193683"><ele>266.2</ele><time>2026-04-04T15:13:03.028Z</time></trkpt><trkpt lat="45.0450617" lon="8.219325"><ele>265.6</ele><time>2026-04-04T15:13:04.026Z</time></trkpt><trkpt lat="45.045155" lon="8.21927"><ele>265.0</ele><time>2026-04-04T15:13:05.028Z</time></trkpt><trkpt lat="45.0452517" lon="8.21921"><ele>265.0</ele><time>2026-04-04T15:13:06.027Z</time></trkpt><trkpt lat="45.0453467" lon="8.2191333"><ele>265.0</ele><time>2026-04-04T15:13:07.027Z</time></trkpt><trkpt lat="45.0454517" lon="8.21904"><ele>265.0</ele><time>2026-04-04T15:13:08.028Z</time></trkpt><trkpt lat="45.04553" lon="8.2189333"><ele>265.0</ele><time>2026-04-04T15:13:09.028Z</time></trkpt><trkpt lat="45.045605" lon="8.2188183"><ele>265.25</ele><time>2026-04-04T15:13:10.028Z</time></trkpt><trkpt lat="45.04568" lon="8.218695"><ele>265.5</ele><time>2026-04-04T15:13:11.027Z</time></trkpt><trkpt lat="45.04576" lon="8.218575"><ele>265.75</ele><time>2026-04-04T15:13:12.029Z</time></trkpt><trkpt lat="45.0458467" lon="8.21846"><ele>266.0</ele><time>2026-04-04T15:13:13.028Z</time></trkpt><trkpt lat="45.045945" lon="8.2183533"><ele>266.0</ele><time>2026-04-04T15:13:14.027Z</time></trkpt><trkpt lat="45.0460533" lon="8.218265"><ele>266.0</ele><time>2026-04-04T15:13:15.027Z</time></trkpt><trkpt lat="45.0461733" lon="8.218195"><ele>266.0</ele><time>2026-04-04T15:13:16.03Z</time></trkpt><trkpt lat="45.0463" lon="8.2181483"><ele>266.0</ele><time>2026-04-04T15:13:17.027Z</time></trkpt><trkpt lat="45.0464333" lon="8.2181267"><ele>265.75</ele><time>2026-04-04T15:13:18.028Z</time></trkpt><trkpt lat="45.0465683" lon="8.2181233"><ele>265.5</ele><time>2026-04-04T15:13:19.028Z</time></trkpt><trkpt lat="45.04671" lon="8.2181183"><ele>265.25</ele><time>2026-04-04T15:13:20.028Z</time></trkpt><trkpt lat="45.0468533" lon="8.2180983"><ele>265.0</ele><time>2026-04-04T15:13:21.027Z</time></trkpt><trkpt lat="45.0469917" lon="8.2180683"><ele>265.0</ele><time>2026-04-04T15:13:22.028Z</time></trkpt><trkpt lat="45.04713" lon="8.2180283"><ele>265.0</ele><time>2026-04-04T15:13:23.027Z</time></trkpt><trkpt lat="45.047265" lon="8.2179783"><ele>265.0</ele><time>2026-04-04T15:13:24.027Z</time></trkpt><trkpt lat="45.04739" lon="8.2179167"><ele>265.0</ele><time>2026-04-04T15:13:25.027Z</time></trkpt><trkpt lat="45.0475067" lon="8.2178383"><ele>267.75</ele><time>2026-04-04T15:13:26.028Z</time></trkpt><trkpt lat="45.0476167" lon="8.2177467"><ele>270.5</ele><time>2026-04-04T15:13:27.029Z</time></trkpt><trkpt lat="45.0477133" lon="8.2176483"><ele>273.25</ele><time>2026-04-04T15:13:28.028Z</time></trkpt><trkpt lat="45.04781" lon="8.21754"><ele>276.0</ele><time>2026-04-04T15:13:29.027Z</time></trkpt><trkpt lat="45.047915" lon="8.2174433"><ele>276.0</ele><time>2026-04-04T15:13:30.027Z</time></trkpt><trkpt lat="45.0480317" lon="8.2173633"><ele>276.0</ele><time>2026-04-04T15:13:31.028Z</time></trkpt><trkpt lat="45.0481583" lon="8.2172917"><ele>276.0</ele><time>2026-04-04T15:13:32.028Z</time></trkpt><trkpt lat="45.0482817" lon="8.2172217"><ele>276.0</ele><time>2026-04-04T15:13:33.029Z</time></trkpt><trkpt lat="45.0484033" lon="8.217145"><ele>275.75</ele><time>2026-04-04T15:13:34.027Z</time></trkpt><trkpt lat="45.04852" lon="8.217045"><ele>275.5</ele><time>2026-04-04T15:13:35.028Z</time></trkpt><trkpt lat="45.0486367" lon="8.2169267"><ele>275.25</ele><time>2026-04-04T15:13:36.028Z</time></trkpt><trkpt lat="45.0487517" lon="8.2167967"><ele>275.0</ele><time>2026-04-04T15:13:37.027Z</time></trkpt><trkpt lat="45.0488633" lon="8.2166633"><ele>275.0</ele><time>2026-04-04T15:13:38.028Z</time></trkpt><trkpt lat="45.0489783" lon="8.216535"><ele>275.0</ele><time>2026-04-04T15:13:39.027Z</time></trkpt><trkpt lat="45.0490883" lon="8.216415"><ele>275.0</ele><time>2026-04-04T15:13:40.027Z</time></trkpt><trkpt lat="45.0491883" lon="8.2163033"><ele>275.0</ele><time>2026-04-04T15:13:41.028Z</time></trkpt><trkpt lat="45.0492783" lon="8.216195"><ele>275.8</ele><time>2026-04-04T15:13:42.029Z</time></trkpt><trkpt lat="45.04936" lon="8.21609"><ele>276.6</ele><time>2026-04-04T15:13:43.027Z</time></trkpt><trkpt lat="45.0494283" lon="8.2159867"><ele>277.4</ele><time>2026-04-04T15:13:44.028Z</time></trkpt><trkpt lat="45.0494817" lon="8.2158667"><ele>278.2</ele><time>2026-04-04T15:13:45.028Z</time></trkpt><trkpt lat="45.0495133" lon="8.2157283"><ele>279.0</ele><time>2026-04-04T15:13:46.027Z</time></trkpt><trkpt lat="45.0495233" lon="8.2155833"><ele>280.2</ele><time>2026-04-04T15:13:47.028Z</time></trkpt><trkpt lat="45.0495033" lon="8.2154383"><ele>281.4</ele><time>2026-04-04T15:13:48.028Z</time></trkpt><trkpt lat="45.0494633" lon="8.215295"><ele>282.6</ele><time>2026-04-04T15:13:49.028Z</time></trkpt><trkpt lat="45.04941" lon="8.2151567"><ele>283.8</ele><time>2026-04-04T15:13:50.027Z</time></trkpt><trkpt lat="45.04934" lon="8.21503"><ele>285.0</ele><time>2026-04-04T15:13:51.031Z</time></trkpt><trkpt lat="45.0492533" lon="8.2149217"><ele>285.0</ele><time>2026-04-04T15:13:52.027Z</time></trkpt><trkpt lat="45.04915" lon="8.2148367"><ele>285.0</ele><time>2026-04-04T15:13:53.028Z</time></trkpt><trkpt lat="45.04903" lon="8.2147783"><ele>285.0</ele><time>2026-04-04T15:13:54.028Z</time></trkpt><trkpt lat="45.0488983" lon="8.2147333"><ele>285.0</ele><time>2026-04-04T15:13:55.028Z</time></trkpt><trkpt lat="45.0487667" lon="8.2146817"><ele>285.5</ele><time>2026-04-04T15:13:56.028Z</time></trkpt><trkpt lat="45.0486333" lon="8.2146267"><ele>286.0</ele><time>2026-04-04T15:13:57.027Z</time></trkpt><trkpt lat="45.04851" lon="8.21456"><ele>286.5</ele><time>2026-04-04T15:13:58.027Z</time></trkpt><trkpt lat="45.0484117" lon="8.2144633"><ele>287.0</ele><time>2026-04-04T15:13:59.028Z</time></trkpt><trkpt lat="45.04834" lon="8.2143333"><ele>284.75</ele><time>2026-04-04T15:14:00.027Z</time></trkpt><trkpt lat="45.04829" lon="8.21419"><ele>282.5</ele><time>2026-04-04T15:14:01.03Z</time></trkpt><trkpt lat="45.0482683" lon="8.2140217"><ele>280.25</ele><time>2026-04-04T15:14:02.027Z</time></trkpt><trkpt lat="45.0482583" lon="8.2138433"><ele>278.0</ele><time>2026-04-04T15:14:03.029Z</time></trkpt><trkpt lat="45.0482367" lon="8.213665"><ele>278.0</ele><time>2026-04-04T15:14:04.027Z</time></trkpt><trkpt lat="45.0481983" lon="8.2134883"><ele>278.0</ele><time>2026-04-04T15:14:05.03Z</time></trkpt><trkpt lat="45.0481383" lon="8.2133283"><ele>278.0</ele><time>2026-04-04T15:14:06.028Z</time></trkpt><trkpt lat="45.0480533" lon="8.2131867"><ele>278.0</ele><time>2026-04-04T15:14:07.027Z</time></trkpt><trkpt lat="45.047965" lon="8.2130617"><ele>279.2</ele><time>2026-04-04T15:14:08.028Z</time></trkpt><trkpt lat="45.0478817" lon="8.212945"><ele>280.4</ele><time>2026-04-04T15:14:09.027Z</time></trkpt><trkpt lat="45.0478117" lon="8.21283"><ele>281.59999999999997</ele><time>2026-04-04T15:14:10.027Z</time></trkpt><trkpt lat="45.0477617" lon="8.212715"><ele>282.8</ele><time>2026-04-04T15:14:11.028Z</time></trkpt><trkpt lat="45.0477283" lon="8.21259"><ele>284.0</ele><time>2026-04-04T15:14:12.027Z</time></trkpt><trkpt lat="45.047715" lon="8.2124567"><ele>283.4</ele><time>2026-04-04T15:14:13.027Z</time></trkpt><trkpt lat="45.0477133" lon="8.212305"><ele>282.79999999999995</ele><time>2026-04-04T15:14:14.029Z</time></trkpt><trkpt lat="45.0477217" lon="8.2121467"><ele>282.20000000000005</ele><time>2026-04-04T15:14:15.029Z</time></trkpt><trkpt lat="45.0477383" lon="8.2119983"><ele>281.6</ele><time>2026-04-04T15:14:16.028Z</time></trkpt><trkpt lat="45.0477633" lon="8.2118433"><ele>281.0</ele><time>2026-04-04T15:14:17.029Z</time></trkpt><trkpt lat="45.047795" lon="8.2116933"><ele>281.0</ele><time>2026-04-04T15:14:18.028Z</time></trkpt><trkpt lat="45.0478317" lon="8.2115517"><ele>281.0</ele><time>2026-04-04T15:14:19.027Z</time></trkpt><trkpt lat="45.0478683" lon="8.2114133"><ele>281.0</ele><time>2026-04-04T15:14:20.032Z</time></trkpt><trkpt lat="45.0479017" lon="8.21128"><ele>281.0</ele><time>2026-04-04T15:14:21.028Z</time></trkpt><trkpt lat="45.0479333" lon="8.2111567"><ele>281.0</ele><time>2026-04-04T15:14:22.027Z</time></trkpt><trkpt lat="45.0479633" lon="8.2110417"><ele>280.1666666666667</ele><time>2026-04-04T15:14:23.029Z</time></trkpt><trkpt lat="45.0479933" lon="8.2109283"><ele>279.33333333333337</ele><time>2026-04-04T15:14:24.028Z</time></trkpt><trkpt lat="45.0480267" lon="8.2108267"><ele>278.5</ele><time>2026-04-04T15:14:25.028Z</time></trkpt><trkpt lat="45.0480583" lon="8.2107283"><ele>277.6666666666667</ele><time>2026-04-04T15:14:26.029Z</time></trkpt><trkpt lat="45.0480867" lon="8.2106283"><ele>276.8333333333333</ele><time>2026-04-04T15:14:27.028Z</time></trkpt><trkpt lat="45.0481117" lon="8.21054"><ele>276.0</ele><time>2026-04-04T15:14:28.027Z</time></trkpt><trkpt lat="45.0481467" lon="8.2104433"><ele>275.8333333333333</ele><time>2026-04-04T15:14:29.028Z</time></trkpt><trkpt lat="45.0481917" lon="8.2103533"><ele>275.6666666666667</ele><time>2026-04-04T15:14:30.027Z</time></trkpt><trkpt lat="45.0482383" lon="8.2102683"><ele>275.5</ele><time>2026-04-04T15:14:31.028Z</time></trkpt><trkpt lat="45.0482867" lon="8.2101867"><ele>275.33333333333337</ele><time>2026-04-04T15:14:32.028Z</time></trkpt><trkpt lat="45.04833" lon="8.2101133"><ele>275.1666666666667</ele><time>2026-04-04T15:14:33.028Z</time></trkpt><trkpt lat="45.048395" lon="8.2099683"><ele>275.0</ele><time>2026-04-04T15:14:35.028Z</time></trkpt><trkpt lat="45.0484033" lon="8.2098017"><ele>276.7142857142857</ele><time>2026-04-04T15:14:37.027Z</time></trkpt><trkpt lat="45.0484" lon="8.2097083"><ele>278.42857142857144</ele><time>2026-04-04T15:14:38.028Z</time></trkpt><trkpt lat="45.0484017" lon="8.209605"><ele>280.1428571428571</ele><time>2026-04-04T15:14:39.029Z</time></trkpt><trkpt lat="45.048425" lon="8.2095083"><ele>281.8571428571429</ele><time>2026-04-04T15:14:40.027Z</time></trkpt><trkpt lat="45.04846" lon="8.2094133"><ele>283.57142857142856</ele><time>2026-04-04T15:14:41.028Z</time></trkpt><trkpt lat="45.048495" lon="8.2093167"><ele>285.2857142857143</ele><time>2026-04-04T15:14:42.027Z</time></trkpt><trkpt lat="45.0485267" lon="8.2092167"><ele>287.0</ele><time>2026-04-04T15:14:43.027Z</time></trkpt><trkpt lat="45.04856" lon="8.2091217"><ele>287.0</ele><time>2026-04-04T15:14:44.028Z</time></trkpt><trkpt lat="45.0486017" lon="8.2090217"><ele>287.0</ele><time>2026-04-04T15:14:45.028Z</time></trkpt><trkpt lat="45.0486583" lon="8.2089233"><ele>287.0</ele><time>2026-04-04T15:14:46.027Z</time></trkpt><trkpt lat="45.0487183" lon="8.2088233"><ele>287.0</ele><time>2026-04-04T15:14:47.027Z</time></trkpt><trkpt lat="45.0487783" lon="8.2087217"><ele>287.0</ele><time>2026-04-04T15:14:48.028Z</time></trkpt><trkpt lat="45.0488483" lon="8.2086283"><ele>286.6</ele><time>2026-04-04T15:14:49.027Z</time></trkpt><trkpt lat="45.0489183" lon="8.2085233"><ele>286.2</ele><time>2026-04-04T15:14:50.029Z</time></trkpt><trkpt lat="45.0489817" lon="8.2084217"><ele>285.8</ele><time>2026-04-04T15:14:51.029Z</time></trkpt><trkpt lat="45.04904" lon="8.2083217"><ele>285.4</ele><time>2026-04-04T15:14:52.028Z</time></trkpt><trkpt lat="45.049095" lon="8.2082183"><ele>285.0</ele><time>2026-04-04T15:14:53.028Z</time></trkpt><trkpt lat="45.049145" lon="8.20812"><ele>285.0</ele><time>2026-04-04T15:14:54.027Z</time></trkpt><trkpt lat="45.0491967" lon="8.208015"><ele>285.0</ele><time>2026-04-04T15:14:55.028Z</time></trkpt><trkpt lat="45.049245" lon="8.2079167"><ele>285.0</ele><time>2026-04-04T15:14:56.027Z</time></trkpt><trkpt lat="45.0492883" lon="8.2078333"><ele>285.0</ele><time>2026-04-04T15:14:57.027Z</time></trkpt><trkpt lat="45.0493283" lon="8.2077567"><ele>285.0</ele><time>2026-04-04T15:14:58.028Z</time></trkpt><trkpt lat="45.0493617" lon="8.2076767"><ele>285.0</ele><time>2026-04-04T15:14:59.028Z</time></trkpt><trkpt lat="45.0493983" lon="8.20759"><ele>285.0</ele><time>2026-04-04T15:15:00.028Z</time></trkpt><trkpt lat="45.0494367" lon="8.2074967"><ele>285.0</ele><time>2026-04-04T15:15:01.028Z</time></trkpt><trkpt lat="45.0494783" lon="8.2074"><ele>285.0</ele><time>2026-04-04T15:15:02.028Z</time></trkpt><trkpt lat="45.049505" lon="8.20729"><ele>285.0</ele><time>2026-04-04T15:15:03.029Z</time></trkpt><trkpt lat="45.0495283" lon="8.2071717"><ele>285.0</ele><time>2026-04-04T15:15:04.028Z</time></trkpt><trkpt lat="45.0495467" lon="8.2070583"><ele>285.0</ele><time>2026-04-04T15:15:05.027Z</time></trkpt><trkpt lat="45.049565" lon="8.20695"><ele>284.1428571428571</ele><time>2026-04-04T15:15:06.028Z</time></trkpt><trkpt lat="45.04958" lon="8.2068383"><ele>283.2857142857143</ele><time>2026-04-04T15:15:07.027Z</time></trkpt><trkpt lat="45.0495983" lon="8.2067267"><ele>282.42857142857144</ele><time>2026-04-04T15:15:08.027Z</time></trkpt><trkpt lat="45.0496133" lon="8.2066217"><ele>281.57142857142856</ele><time>2026-04-04T15:15:09.028Z</time></trkpt><trkpt lat="45.0496317" lon="8.2065217"><ele>280.7142857142857</ele><time>2026-04-04T15:15:10.028Z</time></trkpt><trkpt lat="45.0496467" lon="8.2064267"><ele>279.85714285714283</ele><time>2026-04-04T15:15:11.027Z</time></trkpt><trkpt lat="45.049655" lon="8.206335"><ele>279.0</ele><time>2026-04-04T15:15:12.028Z</time></trkpt><trkpt lat="45.0496567" lon="8.206235"><ele>277.59999999999997</ele><time>2026-04-04T15:15:13.028Z</time></trkpt><trkpt lat="45.0496617" lon="8.20612"><ele>276.2</ele><time>2026-04-04T15:15:14.03Z</time></trkpt><trkpt lat="45.0496783" lon="8.2059983"><ele>274.79999999999995</ele><time>2026-04-04T15:15:15.028Z</time></trkpt><trkpt lat="45.0497" lon="8.205865"><ele>273.4</ele><time>2026-04-04T15:15:16.028Z</time></trkpt><trkpt lat="45.0497217" lon="8.205725"><ele>272.0</ele><time>2026-04-04T15:15:17.027Z</time></trkpt><trkpt lat="45.049735" lon="8.20557"><ele>270.75</ele><time>2026-04-04T15:15:18.028Z</time></trkpt><trkpt lat="45.0497433" lon="8.2054117"><ele>269.5</ele><time>2026-04-04T15:15:19.028Z</time></trkpt><trkpt lat="45.04975" lon="8.2052483"><ele>268.25</ele><time>2026-04-04T15:15:20.029Z</time></trkpt><trkpt lat="45.0497467" lon="8.2050883"><ele>267.0</ele><time>2026-04-04T15:15:21.028Z</time></trkpt><trkpt lat="45.04973" lon="8.2049217"><ele>265.75</ele><time>2026-04-04T15:15:22.027Z</time></trkpt><trkpt lat="45.0497183" lon="8.204755"><ele>264.5</ele><time>2026-04-04T15:15:23.028Z</time></trkpt><trkpt lat="45.0497183" lon="8.2045783"><ele>263.25</ele><time>2026-04-04T15:15:24.028Z</time></trkpt><trkpt lat="45.049735" lon="8.2043967"><ele>262.0</ele><time>2026-04-04T15:15:25.027Z</time></trkpt><trkpt lat="45.0497633" lon="8.204215"><ele>262.0</ele><time>2026-04-04T15:15:26.027Z</time></trkpt><trkpt lat="45.0498" lon="8.2040317"><ele>262.0</ele><time>2026-04-04T15:15:27.028Z</time></trkpt><trkpt lat="45.0498433" lon="8.203845"><ele>262.0</ele><time>2026-04-04T15:15:28.027Z</time></trkpt><trkpt lat="45.0498933" lon="8.2036617"><ele>262.0</ele><time>2026-04-04T15:15:29.027Z</time></trkpt><trkpt lat="45.0499333" lon="8.2034783"><ele>262.5</ele><time>2026-04-04T15:15:30.028Z</time></trkpt><trkpt lat="45.0499767" lon="8.2033033"><ele>263.0</ele><time>2026-04-04T15:15:31.031Z</time></trkpt><trkpt lat="45.0500217" lon="8.20313"><ele>263.5</ele><time>2026-04-04T15:15:32.031Z</time></trkpt><trkpt lat="45.0500667" lon="8.20296"><ele>264.0</ele><time>2026-04-04T15:15:33.027Z</time></trkpt><trkpt lat="45.050125" lon="8.2027967"><ele>264.0</ele><time>2026-04-04T15:15:34.028Z</time></trkpt><trkpt lat="45.05019" lon="8.2026283"><ele>264.0</ele><time>2026-04-04T15:15:35.028Z</time></trkpt><trkpt lat="45.0502583" lon="8.2024517"><ele>264.0</ele><time>2026-04-04T15:15:36.031Z</time></trkpt><trkpt lat="45.050325" lon="8.20227"><ele>264.0</ele><time>2026-04-04T15:15:37.03Z</time></trkpt><trkpt lat="45.0503917" lon="8.2020883"><ele>262.5</ele><time>2026-04-04T15:15:38.028Z</time></trkpt><trkpt lat="45.050455" lon="8.201905"><ele>261.0</ele><time>2026-04-04T15:15:39.031Z</time></trkpt><trkpt lat="45.0505233" lon="8.20172"><ele>259.5</ele><time>2026-04-04T15:15:40.028Z</time></trkpt><trkpt lat="45.050595" lon="8.20155"><ele>258.0</ele><time>2026-04-04T15:15:41.027Z</time></trkpt><trkpt lat="45.0506733" lon="8.20138"><ele>257.75</ele><time>2026-04-04T15:15:42.033Z</time></trkpt><trkpt lat="45.0507517" lon="8.2012117"><ele>257.5</ele><time>2026-04-04T15:15:43.031Z</time></trkpt><trkpt lat="45.0508283" lon="8.201035"><ele>257.25</ele><time>2026-04-04T15:15:44.031Z</time></trkpt><trkpt lat="45.0508967" lon="8.2008567"><ele>257.0</ele><time>2026-04-04T15:15:45.029Z</time></trkpt><trkpt lat="45.0509633" lon="8.2006817"><ele>259.25</ele><time>2026-04-04T15:15:46.028Z</time></trkpt><trkpt lat="45.0510267" lon="8.2005033"><ele>261.5</ele><time>2026-04-04T15:15:47.032Z</time></trkpt><trkpt lat="45.05108" lon="8.2003233"><ele>263.75</ele><time>2026-04-04T15:15:48.031Z</time></trkpt><trkpt lat="45.05112" lon="8.200145"><ele>266.0</ele><time>2026-04-04T15:15:49.028Z</time></trkpt><trkpt lat="45.0511533" lon="8.19997"><ele>266.6</ele><time>2026-04-04T15:15:50.028Z</time></trkpt><trkpt lat="45.0511883" lon="8.1998033"><ele>267.20000000000005</ele><time>2026-04-04T15:15:51.029Z</time></trkpt><trkpt lat="45.0512183" lon="8.1996467"><ele>267.79999999999995</ele><time>2026-04-04T15:15:52.028Z</time></trkpt><trkpt lat="45.051245" lon="8.1995017"><ele>268.4</ele><time>2026-04-04T15:15:53.028Z</time></trkpt><trkpt lat="45.0512683" lon="8.1993583"><ele>269.0</ele><time>2026-04-04T15:15:54.029Z</time></trkpt><trkpt lat="45.051295" lon="8.19922"><ele>269.0</ele><time>2026-04-04T15:15:55.027Z</time></trkpt><trkpt lat="45.0513317" lon="8.1990883"><ele>269.0</ele><time>2026-04-04T15:15:56.028Z</time></trkpt><trkpt lat="45.0513817" lon="8.1989583"><ele>269.0</ele><time>2026-04-04T15:15:57.028Z</time></trkpt><trkpt lat="45.0514367" lon="8.1988217"><ele>269.0</ele><time>2026-04-04T15:15:58.028Z</time></trkpt><trkpt lat="45.05149" lon="8.198675"><ele>269.0</ele><time>2026-04-04T15:15:59.029Z</time></trkpt><trkpt lat="45.0515483" lon="8.1985117"><ele>267.75</ele><time>2026-04-04T15:16:00.028Z</time></trkpt><trkpt lat="45.0516117" lon="8.1983417"><ele>266.5</ele><time>2026-04-04T15:16:01.031Z</time></trkpt><trkpt lat="45.0516833" lon="8.198165"><ele>265.25</ele><time>2026-04-04T15:16:02.03Z</time></trkpt><trkpt lat="45.05176" lon="8.19799"><ele>264.0</ele><time>2026-04-04T15:16:03.03Z</time></trkpt><trkpt lat="45.0518383" lon="8.1978033"><ele>262.3333333333333</ele><time>2026-04-04T15:16:04.03Z</time></trkpt><trkpt lat="45.0519183" lon="8.1976083"><ele>260.66666666666663</ele><time>2026-04-04T15:16:05.028Z</time></trkpt><trkpt lat="45.0520017" lon="8.1974083"><ele>259.0</ele><time>2026-04-04T15:16:06.028Z</time></trkpt><trkpt lat="45.0520867" lon="8.1972017"><ele>256.3333333333333</ele><time>2026-04-04T15:16:07.027Z</time></trkpt><trkpt lat="45.0521733" lon="8.196995"><ele>253.66666666666669</ele><time>2026-04-04T15:16:08.033Z</time></trkpt><trkpt lat="45.0522583" lon="8.1967933"><ele>251.0</ele><time>2026-04-04T15:16:09.03Z</time></trkpt><trkpt lat="45.052335" lon="8.1965967"><ele>250.75</ele><time>2026-04-04T15:16:10.028Z</time></trkpt><trkpt lat="45.0523817" lon="8.1963967"><ele>250.5</ele><time>2026-04-04T15:16:11.029Z</time></trkpt><trkpt lat="45.0523967" lon="8.1961933"><ele>250.25</ele><time>2026-04-04T15:16:12.028Z</time></trkpt><trkpt lat="45.0523883" lon="8.195985"><ele>250.0</ele><time>2026-04-04T15:16:13.03Z</time></trkpt><trkpt lat="45.0523367" lon="8.195765"><ele>251.33333333333331</ele><time>2026-04-04T15:16:14.029Z</time></trkpt><trkpt lat="45.0522767" lon="8.195565"><ele>252.66666666666669</ele><time>2026-04-04T15:16:15.029Z</time></trkpt><trkpt lat="45.05222" lon="8.1953683"><ele>254.0</ele><time>2026-04-04T15:16:16.027Z</time></trkpt><trkpt lat="45.05218" lon="8.1951667"><ele>254.0</ele><time>2026-04-04T15:16:17.027Z</time></trkpt><trkpt lat="45.0521683" lon="8.194955"><ele>254.0</ele><time>2026-04-04T15:16:18.028Z</time></trkpt><trkpt lat="45.052195" lon="8.1947417"><ele>254.0</ele><time>2026-04-04T15:16:19.029Z</time></trkpt><trkpt lat="45.052245" lon="8.194525"><ele>255.66666666666669</ele><time>2026-04-04T15:16:20.027Z</time></trkpt><trkpt lat="45.0523" lon="8.1942917"><ele>257.3333333333333</ele><time>2026-04-04T15:16:21.029Z</time></trkpt><trkpt lat="45.0523383" lon="8.19405"><ele>259.0</ele><time>2026-04-04T15:16:22.027Z</time></trkpt><trkpt lat="45.052365" lon="8.1938033"><ele>261.0</ele><time>2026-04-04T15:16:23.028Z</time></trkpt><trkpt lat="45.0523783" lon="8.19356"><ele>263.0</ele><time>2026-04-04T15:16:24.028Z</time></trkpt><trkpt lat="45.0523767" lon="8.1933283"><ele>265.0</ele><time>2026-04-04T15:16:25.028Z</time></trkpt><trkpt lat="45.052365" lon="8.19311"><ele>266.5</ele><time>2026-04-04T15:16:26.029Z</time></trkpt><trkpt lat="45.0523533" lon="8.192905"><ele>268.0</ele><time>2026-04-04T15:16:27.029Z</time></trkpt><trkpt lat="45.0523483" lon="8.1927067"><ele>269.5</ele><time>2026-04-04T15:16:28.028Z</time></trkpt><trkpt lat="45.0523567" lon="8.1925167"><ele>271.0</ele><time>2026-04-04T15:16:29.028Z</time></trkpt><trkpt lat="45.0523733" lon="8.19233"><ele>272.5</ele><time>2026-04-04T15:16:30.031Z</time></trkpt><trkpt lat="45.0523917" lon="8.1921517"><ele>274.0</ele><time>2026-04-04T15:16:31.03Z</time></trkpt><trkpt lat="45.052415" lon="8.191975"><ele>275.5</ele><time>2026-04-04T15:16:32.029Z</time></trkpt><trkpt lat="45.0524483" lon="8.19181"><ele>277.0</ele><time>2026-04-04T15:16:33.031Z</time></trkpt><trkpt lat="45.0524867" lon="8.19165"><ele>277.8</ele><time>2026-04-04T15:16:34.03Z</time></trkpt><trkpt lat="45.0525267" lon="8.1914917"><ele>278.6</ele><time>2026-04-04T15:16:35.03Z</time></trkpt><trkpt lat="45.052565" lon="8.1913467"><ele>279.40000000000003</ele><time>2026-04-04T15:16:36.03Z</time></trkpt><trkpt lat="45.052605" lon="8.191205"><ele>280.2</ele><time>2026-04-04T15:16:37.03Z</time></trkpt><trkpt lat="45.052645" lon="8.1910567"><ele>281.0</ele><time>2026-04-04T15:16:38.031Z</time></trkpt><trkpt lat="45.0526817" lon="8.19089"><ele>281.0</ele><time>2026-04-04T15:16:39.031Z</time></trkpt><trkpt lat="45.0527133" lon="8.1907183"><ele>281.0</ele><time>2026-04-04T15:16:40.031Z</time></trkpt><trkpt lat="45.0527433" lon="8.1905533"><ele>281.0</ele><time>2026-04-04T15:16:41.029Z</time></trkpt><trkpt lat="45.0527717" lon="8.190395"><ele>281.0</ele><time>2026-04-04T15:16:42.031Z</time></trkpt><trkpt lat="45.0527967" lon="8.19024"><ele>279.8</ele><time>2026-04-04T15:16:43.03Z</time></trkpt><trkpt lat="45.052825" lon="8.19009"><ele>278.6</ele><time>2026-04-04T15:16:44.031Z</time></trkpt><trkpt lat="45.05285" lon="8.1899383"><ele>277.4</ele><time>2026-04-04T15:16:45.032Z</time></trkpt><trkpt lat="45.05287" lon="8.1897917"><ele>276.2</ele><time>2026-04-04T15:16:46.03Z</time></trkpt><trkpt lat="45.0528767" lon="8.1896433"><ele>275.0</ele><time>2026-04-04T15:16:47.031Z</time></trkpt><trkpt lat="45.0528767" lon="8.1894967"><ele>274.0</ele><time>2026-04-04T15:16:48.032Z</time></trkpt><trkpt lat="45.0528767" lon="8.1893483"><ele>273.0</ele><time>2026-04-04T15:16:49.028Z</time></trkpt><trkpt lat="45.0528833" lon="8.1892083"><ele>272.0</ele><time>2026-04-04T15:16:50.028Z</time></trkpt><trkpt lat="45.0529117" lon="8.1890683"><ele>271.0</ele><time>2026-04-04T15:16:51.029Z</time></trkpt><trkpt lat="45.0529583" lon="8.1889333"><ele>270.0</ele><time>2026-04-04T15:16:52.028Z</time></trkpt><trkpt lat="45.0530233" lon="8.1888"><ele>270.0</ele><time>2026-04-04T15:16:53.027Z</time></trkpt><trkpt lat="45.0531" lon="8.1886683"><ele>270.0</ele><time>2026-04-04T15:16:54.027Z</time></trkpt><trkpt lat="45.05318" lon="8.18853"><ele>270.0</ele><time>2026-04-04T15:16:55.028Z</time></trkpt><trkpt lat="45.05326" lon="8.1884"><ele>270.0</ele><time>2026-04-04T15:16:56.029Z</time></trkpt><trkpt lat="45.0533383" lon="8.1882717"><ele>267.75</ele><time>2026-04-04T15:16:57.028Z</time></trkpt><trkpt lat="45.0534167" lon="8.188145"><ele>265.5</ele><time>2026-04-04T15:16:58.027Z</time></trkpt><trkpt lat="45.05349" lon="8.188015"><ele>263.25</ele><time>2026-04-04T15:16:59.028Z</time></trkpt><trkpt lat="45.05355" lon="8.1878817"><ele>261.0</ele><time>2026-04-04T15:17:00.028Z</time></trkpt><trkpt lat="45.0535883" lon="8.1877383"><ele>261.0</ele><time>2026-04-04T15:17:01.028Z</time></trkpt><trkpt lat="45.05359" lon="8.18759"><ele>261.0</ele><time>2026-04-04T15:17:02.029Z</time></trkpt><trkpt lat="45.053565" lon="8.1874433"><ele>261.0</ele><time>2026-04-04T15:17:03.027Z</time></trkpt><trkpt lat="45.05351" lon="8.1873067"><ele>261.0</ele><time>2026-04-04T15:17:04.028Z</time></trkpt><trkpt lat="45.053435" lon="8.1871917"><ele>261.0</ele><time>2026-04-04T15:17:05.031Z</time></trkpt><trkpt lat="45.0533467" lon="8.1871083"><ele>257.0</ele><time>2026-04-04T15:17:06.027Z</time></trkpt><trkpt lat="45.0532433" lon="8.1870533"><ele>253.0</ele><time>2026-04-04T15:17:07.028Z</time></trkpt><trkpt lat="45.0531283" lon="8.1870417"><ele>249.0</ele><time>2026-04-04T15:17:08.027Z</time></trkpt><trkpt lat="45.0529917" lon="8.1870667"><ele>245.0</ele><time>2026-04-04T15:17:09.028Z</time></trkpt><trkpt lat="45.0528383" lon="8.187115"><ele>245.0</ele><time>2026-04-04T15:17:10.029Z</time></trkpt><trkpt lat="45.0526783" lon="8.1871633"><ele>245.0</ele><time>2026-04-04T15:17:11.029Z</time></trkpt><trkpt lat="45.0525117" lon="8.18721"><ele>245.0</ele><time>2026-04-04T15:17:12.028Z</time></trkpt><trkpt lat="45.0523417" lon="8.18726"><ele>246.0</ele><time>2026-04-04T15:17:13.027Z</time></trkpt><trkpt lat="45.0521683" lon="8.1873033"><ele>247.0</ele><time>2026-04-04T15:17:14.028Z</time></trkpt><trkpt lat="45.0520083" lon="8.1873333"><ele>248.0</ele><time>2026-04-04T15:17:15.029Z</time></trkpt><trkpt lat="45.0518517" lon="8.1873617"><ele>248.0</ele><time>2026-04-04T15:17:16.028Z</time></trkpt><trkpt lat="45.0517017" lon="8.1873867"><ele>248.0</ele><time>2026-04-04T15:17:17.03Z</time></trkpt><trkpt lat="45.0515533" lon="8.187415"><ele>248.0</ele><time>2026-04-04T15:17:18.027Z</time></trkpt><trkpt lat="45.0514133" lon="8.1874467"><ele>248.0</ele><time>2026-04-04T15:17:19.028Z</time></trkpt><trkpt lat="45.0512833" lon="8.1874633"><ele>246.60000000000002</ele><time>2026-04-04T15:17:20.028Z</time></trkpt><trkpt lat="45.0511733" lon="8.1874483"><ele>245.20000000000002</ele><time>2026-04-04T15:17:21.027Z</time></trkpt><trkpt lat="45.0510767" lon="8.1873933"><ele>243.8</ele><time>2026-04-04T15:17:22.027Z</time></trkpt><trkpt lat="45.051015" lon="8.18727"><ele>242.4</ele><time>2026-04-04T15:17:23.027Z</time></trkpt><trkpt lat="45.0509833" lon="8.1871167"><ele>241.0</ele><time>2026-04-04T15:17:24.027Z</time></trkpt><trkpt lat="45.0509667" lon="8.18696"><ele>239.0</ele><time>2026-04-04T15:17:25.028Z</time></trkpt><trkpt lat="45.0509767" lon="8.18679"><ele>237.0</ele><time>2026-04-04T15:17:26.027Z</time></trkpt><trkpt lat="45.05103" lon="8.1866367"><ele>235.0</ele><time>2026-04-04T15:17:27.028Z</time></trkpt><trkpt lat="45.0511583" lon="8.186495"><ele>233.0</ele><time>2026-04-04T15:17:28.027Z</time></trkpt><trkpt lat="45.05127" lon="8.1863483"><ele>232.25</ele><time>2026-04-04T15:17:29.028Z</time></trkpt><trkpt lat="45.05139" lon="8.1862"><ele>231.5</ele><time>2026-04-04T15:17:30.028Z</time></trkpt><trkpt lat="45.0515" lon="8.18606"><ele>230.75</ele><time>2026-04-04T15:17:31.028Z</time></trkpt><trkpt lat="45.0515983" lon="8.1859283"><ele>230.0</ele><time>2026-04-04T15:17:32.028Z</time></trkpt><trkpt lat="45.05169" lon="8.185795"><ele>229.0</ele><time>2026-04-04T15:17:33.029Z</time></trkpt><trkpt lat="45.0517783" lon="8.185665"><ele>228.0</ele><time>2026-04-04T15:17:34.031Z</time></trkpt><trkpt lat="45.0518583" lon="8.1855483"><ele>227.0</ele><time>2026-04-04T15:17:35.03Z</time></trkpt><trkpt lat="45.0519217" lon="8.1854283"><ele>226.0</ele><time>2026-04-04T15:17:36.028Z</time></trkpt><trkpt lat="45.0519717" lon="8.185305"><ele>225.0</ele><time>2026-04-04T15:17:37.028Z</time></trkpt><trkpt lat="45.0519983" lon="8.18518"><ele>225.0</ele><time>2026-04-04T15:17:38.028Z</time></trkpt><trkpt lat="45.0520033" lon="8.1850683"><ele>225.0</ele><time>2026-04-04T15:17:39.028Z</time></trkpt><trkpt lat="45.0519667" lon="8.1849733"><ele>225.0</ele><time>2026-04-04T15:17:40.028Z</time></trkpt><trkpt lat="45.051775" lon="8.1848633"><ele>225.0</ele><time>2026-04-04T15:17:41.028Z</time></trkpt><trkpt lat="45.0516983" lon="8.1847533"><ele>224.2</ele><time>2026-04-04T15:17:42.027Z</time></trkpt><trkpt lat="45.051615" lon="8.1846333"><ele>223.4</ele><time>2026-04-04T15:17:43.027Z</time></trkpt><trkpt lat="45.0515783" lon="8.184505"><ele>222.60000000000002</ele><time>2026-04-04T15:17:44.027Z</time></trkpt><trkpt lat="45.0515817" lon="8.18438"><ele>221.8</ele><time>2026-04-04T15:17:45.027Z</time></trkpt><trkpt lat="45.0516117" lon="8.1842733"><ele>221.0</ele><time>2026-04-04T15:17:46.028Z</time></trkpt><trkpt lat="45.0516533" lon="8.1841933"><ele>221.0</ele><time>2026-04-04T15:17:47.028Z</time></trkpt><trkpt lat="45.05173" lon="8.1841367"><ele>221.0</ele><time>2026-04-04T15:17:48.028Z</time></trkpt><trkpt lat="45.0518633" lon="8.18411"><ele>221.0</ele><time>2026-04-04T15:17:49.028Z</time></trkpt><trkpt lat="45.05203" lon="8.1841183"><ele>221.0</ele><time>2026-04-04T15:17:50.027Z</time></trkpt><trkpt lat="45.0521867" lon="8.184135"><ele>221.0</ele><time>2026-04-04T15:17:51.028Z</time></trkpt><trkpt lat="45.0523117" lon="8.1841233"><ele>221.00000000000003</ele><time>2026-04-04T15:17:52.027Z</time></trkpt><trkpt lat="45.0524183" lon="8.1841067"><ele>221.00000000000003</ele><time>2026-04-04T15:17:53.028Z</time></trkpt><trkpt lat="45.0525233" lon="8.1840917"><ele>221.0</ele><time>2026-04-04T15:17:54.029Z</time></trkpt><trkpt lat="45.0526283" lon="8.1840717"><ele>221.0</ele><time>2026-04-04T15:17:55.027Z</time></trkpt><trkpt lat="45.0527317" lon="8.184055"><ele>220.83333333333334</ele><time>2026-04-04T15:17:56.028Z</time></trkpt><trkpt lat="45.0528233" lon="8.1840367"><ele>220.66666666666669</ele><time>2026-04-04T15:17:57.029Z</time></trkpt><trkpt lat="45.0529083" lon="8.18402"><ele>220.5</ele><time>2026-04-04T15:17:58.028Z</time></trkpt><trkpt lat="45.0529917" lon="8.1840017"><ele>220.33333333333331</ele><time>2026-04-04T15:17:59.028Z</time></trkpt><trkpt lat="45.0530633" lon="8.183975"><ele>220.16666666666666</ele><time>2026-04-04T15:18:00.028Z</time></trkpt><trkpt lat="45.0531283" lon="8.183945"><ele>220.0</ele><time>2026-04-04T15:18:01.028Z</time></trkpt><trkpt lat="45.05319" lon="8.1839117"><ele>220.0</ele><time>2026-04-04T15:18:02.028Z</time></trkpt><trkpt lat="45.053255" lon="8.1838733"><ele>220.0</ele><time>2026-04-04T15:18:03.028Z</time></trkpt><trkpt lat="45.0533283" lon="8.1838233"><ele>220.0</ele><time>2026-04-04T15:18:04.027Z</time></trkpt><trkpt lat="45.0534133" lon="8.1837683"><ele>220.0</ele><time>2026-04-04T15:18:05.029Z</time></trkpt><trkpt lat="45.0535117" lon="8.183705"><ele>220.0</ele><time>2026-04-04T15:18:06.028Z</time></trkpt><trkpt lat="45.0536133" lon="8.1836267"><ele>221.25</ele><time>2026-04-04T15:18:07.029Z</time></trkpt><trkpt lat="45.053715" lon="8.1835317"><ele>222.5</ele><time>2026-04-04T15:18:08.028Z</time></trkpt><trkpt lat="45.0538033" lon="8.1834067"><ele>223.75</ele><time>2026-04-04T15:18:09.028Z</time></trkpt><trkpt lat="45.0538733" lon="8.183265"><ele>225.0</ele><time>2026-04-04T15:18:10.027Z</time></trkpt><trkpt lat="45.0539267" lon="8.1831167"><ele>225.6</ele><time>2026-04-04T15:18:11.027Z</time></trkpt><trkpt lat="45.0539517" lon="8.1829633"><ele>226.2</ele><time>2026-04-04T15:18:12.027Z</time></trkpt><trkpt lat="45.0539433" lon="8.1828133"><ele>226.8</ele><time>2026-04-04T15:18:13.027Z</time></trkpt><trkpt lat="45.0539067" lon="8.1826717"><ele>227.4</ele><time>2026-04-04T15:18:14.031Z</time></trkpt><trkpt lat="45.0538267" lon="8.1825533"><ele>228.0</ele><time>2026-04-04T15:18:15.029Z</time></trkpt><trkpt lat="45.0537167" lon="8.1824717"><ele>228.0</ele><time>2026-04-04T15:18:16.028Z</time></trkpt><trkpt lat="45.0536083" lon="8.182405"><ele>228.0</ele><time>2026-04-04T15:18:17.029Z</time></trkpt><trkpt lat="45.053485" lon="8.1823433"><ele>228.0</ele><time>2026-04-04T15:18:18.028Z</time></trkpt><trkpt lat="45.05336" lon="8.182285"><ele>228.0</ele><time>2026-04-04T15:18:19.028Z</time></trkpt><trkpt lat="45.0532383" lon="8.1822233"><ele>230.5</ele><time>2026-04-04T15:18:20.028Z</time></trkpt><trkpt lat="45.0531133" lon="8.1821633"><ele>233.0</ele><time>2026-04-04T15:18:21.027Z</time></trkpt><trkpt lat="45.05299" lon="8.1821167"><ele>235.5</ele><time>2026-04-04T15:18:22.028Z</time></trkpt><trkpt lat="45.0528667" lon="8.1820667"><ele>238.0</ele><time>2026-04-04T15:18:23.027Z</time></trkpt><trkpt lat="45.052745" lon="8.1820033"><ele>238.0</ele><time>2026-04-04T15:18:24.028Z</time></trkpt><trkpt lat="45.0526267" lon="8.1819283"><ele>238.0</ele><time>2026-04-04T15:18:25.027Z</time></trkpt><trkpt lat="45.05251" lon="8.1818533"><ele>238.0</ele><time>2026-04-04T15:18:26.027Z</time></trkpt><trkpt lat="45.0524" lon="8.1817767"><ele>238.0</ele><time>2026-04-04T15:18:27.027Z</time></trkpt><trkpt lat="45.0522933" lon="8.1817017"><ele>238.0</ele><time>2026-04-04T15:18:28.027Z</time></trkpt><trkpt lat="45.05219" lon="8.1816267"><ele>238.0</ele><time>2026-04-04T15:18:29.028Z</time></trkpt><trkpt lat="45.0520817" lon="8.1815567"><ele>238.0</ele><time>2026-04-04T15:18:30.028Z</time></trkpt><trkpt lat="45.051975" lon="8.1814967"><ele>238.0</ele><time>2026-04-04T15:18:31.027Z</time></trkpt><trkpt lat="45.0518717" lon="8.1814417"><ele>239.60000000000002</ele><time>2026-04-04T15:18:32.028Z</time></trkpt><trkpt lat="45.05177" lon="8.1813783"><ele>241.20000000000002</ele><time>2026-04-04T15:18:33.027Z</time></trkpt><trkpt lat="45.0516767" lon="8.18131"><ele>242.8</ele><time>2026-04-04T15:18:34.027Z</time></trkpt><trkpt lat="45.0515917" lon="8.1812383"><ele>244.4</ele><time>2026-04-04T15:18:35.028Z</time></trkpt><trkpt lat="45.0515167" lon="8.1811633"><ele>246.0</ele><time>2026-04-04T15:18:36.027Z</time></trkpt><trkpt lat="45.0514583" lon="8.1810733"><ele>246.0</ele><time>2026-04-04T15:18:37.028Z</time></trkpt><trkpt lat="45.0514133" lon="8.1809767"><ele>246.0</ele><time>2026-04-04T15:18:38.028Z</time></trkpt><trkpt lat="45.0513817" lon="8.1808767"><ele>246.0</ele><time>2026-04-04T15:18:39.029Z</time></trkpt><trkpt lat="45.0513583" lon="8.180785"><ele>246.0</ele><time>2026-04-04T15:18:40.028Z</time></trkpt><trkpt lat="45.0513233" lon="8.1806317"><ele>246.0</ele><time>2026-04-04T15:18:42.029Z</time></trkpt><trkpt lat="45.0513083" lon="8.1805083"><ele>246.0</ele><time>2026-04-04T15:18:44.028Z</time></trkpt><trkpt lat="45.0512967" lon="8.180415"><ele>245.42857142857144</ele><time>2026-04-04T15:18:47.027Z</time></trkpt><trkpt lat="45.0512167" lon="8.1804"><ele>244.85714285714286</ele><time>2026-04-04T15:18:51.028Z</time></trkpt><trkpt lat="45.0511467" lon="8.18043"><ele>244.28571428571428</ele><time>2026-04-04T15:18:54.029Z</time></trkpt><trkpt lat="45.0510817" lon="8.1804317"><ele>243.71428571428572</ele><time>2026-04-04T15:19:15.028Z</time></trkpt><trkpt lat="45.0510267" lon="8.180385"><ele>243.1428571428571</ele><time>2026-04-04T15:19:19.028Z</time></trkpt><trkpt lat="45.051115" lon="8.1804133"><ele>242.57142857142856</ele><time>2026-04-04T15:19:25.029Z</time></trkpt><trkpt lat="45.0511883" lon="8.18041"><ele>242.0</ele><time>2026-04-04T15:19:27.03Z</time></trkpt><trkpt lat="45.0512533" lon="8.18042"><ele>242.00000000000003</ele><time>2026-04-04T15:19:29.027Z</time></trkpt><trkpt lat="45.0513033" lon="8.18048"><ele>242.0</ele><time>2026-04-04T15:19:31.028Z</time></trkpt><trkpt lat="45.051335" lon="8.18059"><ele>242.0</ele><time>2026-04-04T15:19:33.031Z</time></trkpt><trkpt lat="45.05135" lon="8.1807033"><ele>242.0</ele><time>2026-04-04T15:19:35.028Z</time></trkpt><trkpt lat="45.0513533" lon="8.1808083"><ele>242.00000000000003</ele><time>2026-04-04T15:19:37.029Z</time></trkpt><trkpt lat="45.0513683" lon="8.1809183"><ele>242.0</ele><time>2026-04-04T15:19:40.027Z</time></trkpt><trkpt lat="45.0513683" lon="8.1810483"><ele>242.8</ele><time>2026-04-04T15:19:43.029Z</time></trkpt><trkpt lat="45.0513917" lon="8.1811633"><ele>243.6</ele><time>2026-04-04T15:19:45.03Z</time></trkpt><trkpt lat="45.051435" lon="8.1812733"><ele>244.40000000000003</ele><time>2026-04-04T15:19:47.028Z</time></trkpt><trkpt lat="45.051495" lon="8.1813883"><ele>245.20000000000002</ele><time>2026-04-04T15:19:49.03Z</time></trkpt><trkpt lat="45.0515733" lon="8.1814933"><ele>246.0</ele><time>2026-04-04T15:19:51.029Z</time></trkpt><trkpt lat="45.0516567" lon="8.1815817"><ele>244.0</ele><time>2026-04-04T15:19:53.028Z</time></trkpt><trkpt lat="45.051735" lon="8.181675"><ele>242.0</ele><time>2026-04-04T15:19:55.028Z</time></trkpt><trkpt lat="45.0518217" lon="8.1817733"><ele>240.0</ele><time>2026-04-04T15:19:57.028Z</time></trkpt><trkpt lat="45.0519117" lon="8.1818883"><ele>238.0</ele><time>2026-04-04T15:19:59.028Z</time></trkpt><trkpt lat="45.0519817" lon="8.182035"><ele>237.99999999999997</ele><time>2026-04-04T15:20:01.028Z</time></trkpt><trkpt lat="45.0520333" lon="8.1822017"><ele>238.0</ele><time>2026-04-04T15:20:03.029Z</time></trkpt><trkpt lat="45.0520567" lon="8.1822917"><ele>238.0</ele><time>2026-04-04T15:20:04.029Z</time></trkpt><trkpt lat="45.0520733" lon="8.18238"><ele>238.0</ele><time>2026-04-04T15:20:05.028Z</time></trkpt><trkpt lat="45.0521017" lon="8.1825117"><ele>237.99999999999997</ele><time>2026-04-04T15:20:07.028Z</time></trkpt><trkpt lat="45.0520533" lon="8.1826183"><ele>238.0</ele><time>2026-04-04T15:20:34.031Z</time></trkpt><trkpt lat="45.0519683" lon="8.1826217"><ele>234.99999999999997</ele><time>2026-04-04T15:20:36.028Z</time></trkpt><trkpt lat="45.0518483" lon="8.1826267"><ele>232.0</ele><time>2026-04-04T15:20:38.028Z</time></trkpt><trkpt lat="45.0517833" lon="8.1826267"><ele>229.0</ele><time>2026-04-04T15:20:39.03Z</time></trkpt><trkpt lat="45.0517133" lon="8.1826233"><ele>226.0</ele><time>2026-04-04T15:20:40.027Z</time></trkpt><trkpt lat="45.0516367" lon="8.18262"><ele>222.99999999999997</ele><time>2026-04-04T15:20:41.027Z</time></trkpt><trkpt lat="45.051555" lon="8.1826133"><ele>220.0</ele><time>2026-04-04T15:20:42.028Z</time></trkpt><trkpt lat="45.051475" lon="8.1826017"><ele>219.49999999999997</ele><time>2026-04-04T15:20:43.028Z</time></trkpt><trkpt lat="45.0513967" lon="8.1825917"><ele>219.0</ele><time>2026-04-04T15:20:44.029Z</time></trkpt><trkpt lat="45.0513217" lon="8.1825833"><ele>218.5</ele><time>2026-04-04T15:20:45.03Z</time></trkpt><trkpt lat="45.0512433" lon="8.182575"><ele>218.0</ele><time>2026-04-04T15:20:46.028Z</time></trkpt><trkpt lat="45.0511633" lon="8.1825733"><ele>217.49999999999997</ele><time>2026-04-04T15:20:47.03Z</time></trkpt><trkpt lat="45.0510817" lon="8.1825833"><ele>217.0</ele><time>2026-04-04T15:20:48.029Z</time></trkpt><trkpt lat="45.0509983" lon="8.1826033"><ele>216.99999999999997</ele><time>2026-04-04T15:20:49.028Z</time></trkpt><trkpt lat="45.0509183" lon="8.1826317"><ele>217.0</ele><time>2026-04-04T15:20:50.029Z</time></trkpt><trkpt lat="45.0508367" lon="8.182665"><ele>217.0</ele><time>2026-04-04T15:20:51.028Z</time></trkpt><trkpt lat="45.050755" lon="8.1827017"><ele>217.0</ele><time>2026-04-04T15:20:52.027Z</time></trkpt><trkpt lat="45.05067" lon="8.1827433"><ele>216.99999999999997</ele><time>2026-04-04T15:20:53.029Z</time></trkpt><trkpt lat="45.0505817" lon="8.18277"><ele>217.0</ele><time>2026-04-04T15:20:54.03Z</time></trkpt><trkpt lat="45.050495" lon="8.1827967"><ele>217.49999999999997</ele><time>2026-04-04T15:20:55.027Z</time></trkpt><trkpt lat="45.050405" lon="8.1828217"><ele>218.0</ele><time>2026-04-04T15:20:56.029Z</time></trkpt><trkpt lat="45.0503183" lon="8.1828367"><ele>218.5</ele><time>2026-04-04T15:20:57.03Z</time></trkpt><trkpt lat="45.050235" lon="8.1828433"><ele>219.0</ele><time>2026-04-04T15:20:58.028Z</time></trkpt><trkpt lat="45.050155" lon="8.1828517"><ele>219.49999999999997</ele><time>2026-04-04T15:20:59.028Z</time></trkpt><trkpt lat="45.0500733" lon="8.182855"><ele>220.0</ele><time>2026-04-04T15:21:00.03Z</time></trkpt><trkpt lat="45.0499867" lon="8.1828567"><ele>219.8</ele><time>2026-04-04T15:21:01.028Z</time></trkpt><trkpt lat="45.0498967" lon="8.182875"><ele>219.6</ele><time>2026-04-04T15:21:02.029Z</time></trkpt><trkpt lat="45.0498083" lon="8.1829033"><ele>219.39999999999998</ele><time>2026-04-04T15:21:03.029Z</time></trkpt><trkpt lat="45.0497183" lon="8.182935"><ele>219.2</ele><time>2026-04-04T15:21:04.029Z</time></trkpt><trkpt lat="45.0496233" lon="8.1829717"><ele>219.0</ele><time>2026-04-04T15:21:05.032Z</time></trkpt><trkpt lat="45.0495233" lon="8.1830083"><ele>219.0</ele><time>2026-04-04T15:21:06.029Z</time></trkpt><trkpt lat="45.0494217" lon="8.1830383"><ele>218.99999999999997</ele><time>2026-04-04T15:21:07.028Z</time></trkpt><trkpt lat="45.0493167" lon="8.183065"><ele>218.99999999999997</ele><time>2026-04-04T15:21:08.027Z</time></trkpt><trkpt lat="45.0492133" lon="8.1830867"><ele>219.0</ele><time>2026-04-04T15:21:09.028Z</time></trkpt><trkpt lat="45.049115" lon="8.1831017"><ele>219.0</ele><time>2026-04-04T15:21:10.028Z</time></trkpt><trkpt lat="45.049015" lon="8.1831033"><ele>218.79999999999998</ele><time>2026-04-04T15:21:11.027Z</time></trkpt><trkpt lat="45.0489133" lon="8.1831017"><ele>218.59999999999997</ele><time>2026-04-04T15:21:12.028Z</time></trkpt><trkpt lat="45.0488133" lon="8.1831033"><ele>218.4</ele><time>2026-04-04T15:21:13.029Z</time></trkpt><trkpt lat="45.0487167" lon="8.1831067"><ele>218.2</ele><time>2026-04-04T15:21:14.029Z</time></trkpt><trkpt lat="45.0486167" lon="8.18311"><ele>218.0</ele><time>2026-04-04T15:21:15.029Z</time></trkpt><trkpt lat="45.04852" lon="8.183125"><ele>218.00000000000003</ele><time>2026-04-04T15:21:16.028Z</time></trkpt><trkpt lat="45.048425" lon="8.1831417"><ele>218.0</ele><time>2026-04-04T15:21:17.029Z</time></trkpt><trkpt lat="45.0483367" lon="8.18315"><ele>218.0</ele><time>2026-04-04T15:21:18.03Z</time></trkpt><trkpt lat="45.0482533" lon="8.18315"><ele>218.0</ele><time>2026-04-04T15:21:19.03Z</time></trkpt><trkpt lat="45.04817" lon="8.1831367"><ele>218.00000000000003</ele><time>2026-04-04T15:21:20.028Z</time></trkpt><trkpt lat="45.0480967" lon="8.18313"><ele>218.0</ele><time>2026-04-04T15:21:21.03Z</time></trkpt><trkpt lat="45.048025" lon="8.1831267"><ele>215.60000000000002</ele><time>2026-04-04T15:21:22.029Z</time></trkpt><trkpt lat="45.0479617" lon="8.1831217"><ele>213.20000000000002</ele><time>2026-04-04T15:21:23.029Z</time></trkpt><trkpt lat="45.0478567" lon="8.1831067"><ele>210.8</ele><time>2026-04-04T15:21:25.028Z</time></trkpt><trkpt lat="45.0477583" lon="8.1831667"><ele>208.4</ele><time>2026-04-04T15:21:27.028Z</time></trkpt><trkpt lat="45.0477133" lon="8.1833283"><ele>206.0</ele><time>2026-04-04T15:21:29.029Z</time></trkpt><trkpt lat="45.0476767" lon="8.1835083"><ele>206.16666666666669</ele><time>2026-04-04T15:21:31.028Z</time></trkpt><trkpt lat="45.047655" lon="8.183605"><ele>206.33333333333334</ele><time>2026-04-04T15:21:32.029Z</time></trkpt><trkpt lat="45.0476333" lon="8.183705"><ele>206.5</ele><time>2026-04-04T15:21:33.028Z</time></trkpt><trkpt lat="45.0476083" lon="8.1838083"><ele>206.66666666666669</ele><time>2026-04-04T15:21:34.027Z</time></trkpt><trkpt lat="45.0475833" lon="8.1839183"><ele>206.83333333333334</ele><time>2026-04-04T15:21:35.028Z</time></trkpt><trkpt lat="45.047565" lon="8.184045"><ele>207.0</ele><time>2026-04-04T15:21:36.031Z</time></trkpt><trkpt lat="45.047545" lon="8.1841617"><ele>207.0</ele><time>2026-04-04T15:21:37.028Z</time></trkpt><trkpt lat="45.047525" lon="8.1842767"><ele>207.0</ele><time>2026-04-04T15:21:38.03Z</time></trkpt><trkpt lat="45.0475083" lon="8.1843733"><ele>207.0</ele><time>2026-04-04T15:21:39.029Z</time></trkpt><trkpt lat="45.047485" lon="8.1844733"><ele>207.0</ele><time>2026-04-04T15:21:40.029Z</time></trkpt><trkpt lat="45.047415" lon="8.1846117"><ele>207.0</ele><time>2026-04-04T15:21:42.028Z</time></trkpt><trkpt lat="45.047335" lon="8.1846483"><ele>207.0</ele><time>2026-04-04T15:21:44.028Z</time></trkpt><trkpt lat="45.0472133" lon="8.1846067"><ele>206.8</ele><time>2026-04-04T15:21:46.027Z</time></trkpt><trkpt lat="45.0471133" lon="8.18448"><ele>206.6</ele><time>2026-04-04T15:21:47.028Z</time></trkpt><trkpt lat="45.047035" lon="8.1844"><ele>206.4</ele><time>2026-04-04T15:21:48.029Z</time></trkpt><trkpt lat="45.0469583" lon="8.184335"><ele>206.20000000000002</ele><time>2026-04-04T15:21:49.028Z</time></trkpt><trkpt lat="45.04688" lon="8.1842683"><ele>206.0</ele><time>2026-04-04T15:21:50.03Z</time></trkpt><trkpt lat="45.0468017" lon="8.1842167"><ele>206.00000000000003</ele><time>2026-04-04T15:21:51.03Z</time></trkpt><trkpt lat="45.0467267" lon="8.18417"><ele>206.0</ele><time>2026-04-04T15:21:52.028Z</time></trkpt><trkpt lat="45.0466533" lon="8.1841217"><ele>206.0</ele><time>2026-04-04T15:21:53.029Z</time></trkpt><trkpt lat="45.046585" lon="8.1840783"><ele>206.0</ele><time>2026-04-04T15:21:54.029Z</time></trkpt><trkpt lat="45.046495" lon="8.1839917"><ele>206.00000000000003</ele><time>2026-04-04T15:21:56.029Z</time></trkpt><trkpt lat="45.046425" lon="8.1839317"><ele>206.0</ele><time>2026-04-04T15:21:59.029Z</time></trkpt><trkpt lat="45.0463633" lon="8.1838967"><ele>204.66666666666669</ele><time>2026-04-04T15:22:01.028Z</time></trkpt><trkpt lat="45.046295" lon="8.183845"><ele>203.33333333333334</ele><time>2026-04-04T15:22:03.029Z</time></trkpt><trkpt lat="45.0462383" lon="8.1837667"><ele>202.0</ele><time>2026-04-04T15:22:07.03Z</time></trkpt><trkpt lat="45.0461833" lon="8.1837117"><ele>200.66666666666669</ele><time>2026-04-04T15:22:10.029Z</time></trkpt><trkpt lat="45.0461117" lon="8.1836867"><ele>199.33333333333334</ele><time>2026-04-04T15:22:12.03Z</time></trkpt><trkpt lat="45.0460317" lon="8.1836633"><ele>198.0</ele><time>2026-04-04T15:22:14.03Z</time></trkpt><trkpt lat="45.0459467" lon="8.18363"><ele>198.0</ele><time>2026-04-04T15:22:16.029Z</time></trkpt><trkpt lat="45.0458417" lon="8.1835767"><ele>198.0</ele><time>2026-04-04T15:22:18.028Z</time></trkpt><trkpt lat="45.04578" lon="8.18355"><ele>198.0</ele><time>2026-04-04T15:22:19.028Z</time></trkpt><trkpt lat="45.0456567" lon="8.1835233"><ele>198.0</ele><time>2026-04-04T15:22:21.029Z</time></trkpt><trkpt lat="45.0455932" lon="8.1835192"><ele>198.0</ele><time>2026-04-04T15:22:22.028Z</time></trkpt><trkpt lat="45.0455261" lon="8.1835172"><ele>198.0</ele><time>2026-04-04T15:22:23.03Z</time></trkpt><trkpt lat="45.0454605" lon="8.1835151"><ele>198.0</ele><time>2026-04-04T15:22:24.029Z</time></trkpt><trkpt lat="45.0453442" lon="8.1835105"><ele>198.0</ele><time>2026-04-04T15:22:26.029Z</time></trkpt><trkpt lat="45.0452457" lon="8.1834681"><ele>198.0</ele><time>2026-04-04T15:22:28.031Z</time></trkpt><trkpt lat="45.0451718" lon="8.1833494"><ele>198.0</ele><time>2026-04-04T15:22:30.029Z</time></trkpt><trkpt lat="45.0451585" lon="8.1832472"><ele>198.0</ele><time>2026-04-04T15:22:31.028Z</time></trkpt><trkpt lat="45.0451472" lon="8.1831263"><ele>198.0</ele><time>2026-04-04T15:22:32.03Z</time></trkpt><trkpt lat="45.0451312" lon="8.1830083"><ele>198.0</ele><time>2026-04-04T15:22:33.029Z</time></trkpt><trkpt lat="45.0451001" lon="8.1829104"><ele>198.0</ele><time>2026-04-04T15:22:34.028Z</time></trkpt><trkpt lat="45.0450581" lon="8.1828318"><ele>198.0</ele><time>2026-04-04T15:22:35.029Z</time></trkpt><trkpt lat="45.0449614" lon="8.1827433"><ele>198.0</ele><time>2026-04-04T15:22:37.029Z</time></trkpt><trkpt lat="45.0448613" lon="8.1826777"><ele>197.8</ele><time>2026-04-04T15:22:39.028Z</time></trkpt><trkpt lat="45.0447564" lon="8.182598"><ele>197.60000000000002</ele><time>2026-04-04T15:22:41.03Z</time></trkpt><trkpt lat="45.0446463" lon="8.182497"><ele>197.39999999999998</ele><time>2026-04-04T15:22:43.029Z</time></trkpt><trkpt lat="45.0445915" lon="8.1824309"><ele>197.2</ele><time>2026-04-04T15:22:44.029Z</time></trkpt><trkpt lat="45.044537" lon="8.1823503"><ele>197.0</ele><time>2026-04-04T15:22:45.03Z</time></trkpt><trkpt lat="45.044486" lon="8.1822602"><ele>196.50000000000003</ele><time>2026-04-04T15:22:46.028Z</time></trkpt><trkpt lat="45.0444391" lon="8.1821603"><ele>196.0</ele><time>2026-04-04T15:22:47.03Z</time></trkpt><trkpt lat="45.0443975" lon="8.1820593"><ele>195.5</ele><time>2026-04-04T15:22:48.029Z</time></trkpt><trkpt lat="45.0443618" lon="8.1819551"><ele>195.0</ele><time>2026-04-04T15:22:49.029Z</time></trkpt><trkpt lat="45.0443283" lon="8.1818552"><ele>194.50000000000003</ele><time>2026-04-04T15:22:50.03Z</time></trkpt><trkpt lat="45.0442928" lon="8.1817661"><ele>194.0</ele><time>2026-04-04T15:22:51.029Z</time></trkpt><trkpt lat="45.0442576" lon="8.1816834"><ele>194.0</ele><time>2026-04-04T15:22:52.029Z</time></trkpt><trkpt lat="45.0442227" lon="8.1816051"><ele>194.0</ele><time>2026-04-04T15:22:53.029Z</time></trkpt><trkpt lat="45.04418" lon="8.181536"><ele>194.0</ele><time>2026-04-04T15:22:54.029Z</time></trkpt><trkpt lat="45.0441316" lon="8.1814681"><ele>194.0</ele><time>2026-04-04T15:22:55.031Z</time></trkpt><trkpt lat="45.0440828" lon="8.1813997"><ele>194.0</ele><time>2026-04-04T15:22:56.03Z</time></trkpt><trkpt lat="45.0440327" lon="8.1813217"><ele>194.0</ele><time>2026-04-04T15:22:57.029Z</time></trkpt><trkpt lat="45.043985" lon="8.1812367"><ele>194.0</ele><time>2026-04-04T15:22:58.03Z</time></trkpt><trkpt lat="45.0439343" lon="8.1811451"><ele>194.00000000000003</ele><time>2026-04-04T15:22:59.029Z</time></trkpt><trkpt lat="45.0438839" lon="8.1810491"><ele>194.0</ele><time>2026-04-04T15:23:00.029Z</time></trkpt><trkpt lat="45.0438323" lon="8.1809588"><ele>194.0</ele><time>2026-04-04T15:23:01.028Z</time></trkpt><trkpt lat="45.0437791" lon="8.1808625"><ele>194.0</ele><time>2026-04-04T15:23:02.03Z</time></trkpt><trkpt lat="45.0437259" lon="8.1807746"><ele>194.00000000000003</ele><time>2026-04-04T15:23:03.028Z</time></trkpt><trkpt lat="45.0436767" lon="8.1806865"><ele>194.0</ele><time>2026-04-04T15:23:04.029Z</time></trkpt><trkpt lat="45.0436283" lon="8.1805994"><ele>194.16666666666669</ele><time>2026-04-04T15:23:05.028Z</time></trkpt><trkpt lat="45.0435785" lon="8.180513"><ele>194.33333333333334</ele><time>2026-04-04T15:23:06.029Z</time></trkpt><trkpt lat="45.0435257" lon="8.1804307"><ele>194.5</ele><time>2026-04-04T15:23:07.031Z</time></trkpt><trkpt lat="45.0434709" lon="8.1803546"><ele>194.66666666666669</ele><time>2026-04-04T15:23:08.03Z</time></trkpt><trkpt lat="45.043414" lon="8.1802775"><ele>194.83333333333334</ele><time>2026-04-04T15:23:09.029Z</time></trkpt><trkpt lat="45.0433512" lon="8.1802069"><ele>195.0</ele><time>2026-04-04T15:23:10.03Z</time></trkpt><trkpt lat="45.0432856" lon="8.1801429"><ele>195.0</ele><time>2026-04-04T15:23:11.028Z</time></trkpt><trkpt lat="45.0432175" lon="8.1800853"><ele>195.0</ele><time>2026-04-04T15:23:12.028Z</time></trkpt><trkpt lat="45.0431439" lon="8.180028"><ele>195.0</ele><time>2026-04-04T15:23:13.029Z</time></trkpt><trkpt lat="45.0430619" lon="8.1799843"><ele>195.0</ele><time>2026-04-04T15:23:14.03Z</time></trkpt><trkpt lat="45.0429713" lon="8.1799672"><ele>195.0</ele><time>2026-04-04T15:23:15.03Z</time></trkpt><trkpt lat="45.0428832" lon="8.1799688"><ele>195.0</ele><time>2026-04-04T15:23:16.028Z</time></trkpt><trkpt lat="45.0428051" lon="8.1799521"><ele>195.0</ele><time>2026-04-04T15:23:17.03Z</time></trkpt><trkpt lat="45.0427391" lon="8.1799203"><ele>195.0</ele><time>2026-04-04T15:23:18.029Z</time></trkpt><trkpt lat="45.0426799" lon="8.179871"><ele>195.0</ele><time>2026-04-04T15:23:19.029Z</time></trkpt><trkpt lat="45.0426246" lon="8.179812"><ele>195.0</ele><time>2026-04-04T15:23:20.028Z</time></trkpt><trkpt lat="45.0425701" lon="8.1797524"><ele>195.0</ele><time>2026-04-04T15:23:21.03Z</time></trkpt><trkpt lat="45.0425163" lon="8.1796947"><ele>195.0</ele><time>2026-04-04T15:23:22.029Z</time></trkpt><trkpt lat="45.042461" lon="8.1796365"><ele>195.0</ele><time>2026-04-04T15:23:23.029Z</time></trkpt><trkpt lat="45.0424062" lon="8.1795793"><ele>194.5</ele><time>2026-04-04T15:23:24.029Z</time></trkpt><trkpt lat="45.0423464" lon="8.1795186"><ele>194.0</ele><time>2026-04-04T15:23:25.029Z</time></trkpt><trkpt lat="45.0422849" lon="8.1794565"><ele>193.5</ele><time>2026-04-04T15:23:26.029Z</time></trkpt><trkpt lat="45.042219" lon="8.1793931"><ele>193.0</ele><time>2026-04-04T15:23:27.028Z</time></trkpt><trkpt lat="45.042149" lon="8.1793253"><ele>192.5</ele><time>2026-04-04T15:23:28.028Z</time></trkpt><trkpt lat="45.042078" lon="8.1792537"><ele>192.0</ele><time>2026-04-04T15:23:29.029Z</time></trkpt><trkpt lat="45.0420018" lon="8.1791686"><ele>192.0</ele><time>2026-04-04T15:23:30.029Z</time></trkpt><trkpt lat="45.0419205" lon="8.179087"><ele>192.0</ele><time>2026-04-04T15:23:31.029Z</time></trkpt><trkpt lat="45.0418407" lon="8.179009"><ele>192.0</ele><time>2026-04-04T15:23:32.029Z</time></trkpt><trkpt lat="45.0417646" lon="8.1789322"><ele>192.0</ele><time>2026-04-04T15:23:33.028Z</time></trkpt><trkpt lat="45.0416843" lon="8.1788604"><ele>192.0</ele><time>2026-04-04T15:23:34.03Z</time></trkpt><trkpt lat="45.0415984" lon="8.1787874"><ele>191.0</ele><time>2026-04-04T15:23:35.028Z</time></trkpt><trkpt lat="45.0415101" lon="8.1787192"><ele>190.0</ele><time>2026-04-04T15:23:36.028Z</time></trkpt><trkpt lat="45.0414254" lon="8.1786577"><ele>189.0</ele><time>2026-04-04T15:23:37.03Z</time></trkpt><trkpt lat="45.0413482" lon="8.1786045"><ele>188.0</ele><time>2026-04-04T15:23:38.031Z</time></trkpt><trkpt lat="45.0412641" lon="8.178556"><ele>187.0</ele><time>2026-04-04T15:23:39.029Z</time></trkpt><trkpt lat="45.0411745" lon="8.1785114"><ele>187.0</ele><time>2026-04-04T15:23:40.029Z</time></trkpt><trkpt lat="45.0410789" lon="8.1784635"><ele>187.0</ele><time>2026-04-04T15:23:41.031Z</time></trkpt><trkpt lat="45.0409856" lon="8.178413"><ele>187.0</ele><time>2026-04-04T15:23:42.029Z</time></trkpt><trkpt lat="45.0408945" lon="8.1783656"><ele>187.0</ele><time>2026-04-04T15:23:43.028Z</time></trkpt><trkpt lat="45.0408057" lon="8.1783189"><ele>187.0</ele><time>2026-04-04T15:23:44.031Z</time></trkpt><trkpt lat="45.040724" lon="8.178271"><ele>187.33333333333334</ele><time>2026-04-04T15:23:45.03Z</time></trkpt><trkpt lat="45.0406414" lon="8.1782189"><ele>187.66666666666669</ele><time>2026-04-04T15:23:46.028Z</time></trkpt><trkpt lat="45.0405559" lon="8.1781715"><ele>188.0</ele><time>2026-04-04T15:23:47.028Z</time></trkpt><trkpt lat="45.0404669" lon="8.178133"><ele>188.33333333333334</ele><time>2026-04-04T15:23:48.028Z</time></trkpt><trkpt lat="45.0403799" lon="8.178098"><ele>188.66666666666666</ele><time>2026-04-04T15:23:49.031Z</time></trkpt><trkpt lat="45.0403014" lon="8.178066"><ele>189.0</ele><time>2026-04-04T15:23:50.033Z</time></trkpt><trkpt lat="45.0402243" lon="8.1780327"><ele>188.66666666666666</ele><time>2026-04-04T15:23:51.03Z</time></trkpt><trkpt lat="45.0401466" lon="8.1779976"><ele>188.33333333333334</ele><time>2026-04-04T15:23:52.028Z</time></trkpt><trkpt lat="45.0400647" lon="8.1779615"><ele>188.0</ele><time>2026-04-04T15:23:53.03Z</time></trkpt><trkpt lat="45.0399803" lon="8.1779282"><ele>187.66666666666669</ele><time>2026-04-04T15:23:54.029Z</time></trkpt><trkpt lat="45.0398987" lon="8.1779056"><ele>187.33333333333334</ele><time>2026-04-04T15:23:55.029Z</time></trkpt><trkpt lat="45.0398184" lon="8.1778905"><ele>187.0</ele><time>2026-04-04T15:23:56.03Z</time></trkpt><trkpt lat="45.0397424" lon="8.1778734"><ele>187.0</ele><time>2026-04-04T15:23:57.029Z</time></trkpt><trkpt lat="45.0396674" lon="8.1778555"><ele>187.0</ele><time>2026-04-04T15:23:58.028Z</time></trkpt><trkpt lat="45.0395926" lon="8.1778321"><ele>187.0</ele><time>2026-04-04T15:23:59.031Z</time></trkpt><trkpt lat="45.0395167" lon="8.1778034"><ele>187.0</ele><time>2026-04-04T15:24:00.029Z</time></trkpt><trkpt lat="45.0394401" lon="8.1777712"><ele>187.0</ele><time>2026-04-04T15:24:01.029Z</time></trkpt><trkpt lat="45.0393648" lon="8.1777403"><ele>187.0</ele><time>2026-04-04T15:24:02.031Z</time></trkpt><trkpt lat="45.0392925" lon="8.1777081"><ele>187.0</ele><time>2026-04-04T15:24:03.031Z</time></trkpt><trkpt lat="45.0392262" lon="8.1776728"><ele>187.0</ele><time>2026-04-04T15:24:04.028Z</time></trkpt><trkpt lat="45.0391588" lon="8.1776239"><ele>187.0</ele><time>2026-04-04T15:24:05.03Z</time></trkpt><trkpt lat="45.0390939" lon="8.1775658"><ele>187.0</ele><time>2026-04-04T15:24:06.032Z</time></trkpt><trkpt lat="45.0390333" lon="8.1775059"><ele>187.0</ele><time>2026-04-04T15:24:07.031Z</time></trkpt><trkpt lat="45.0389762" lon="8.1774464"><ele>187.0</ele><time>2026-04-04T15:24:08.03Z</time></trkpt><trkpt lat="45.0389202" lon="8.1773886"><ele>187.0</ele><time>2026-04-04T15:24:09.029Z</time></trkpt><trkpt lat="45.0388678" lon="8.1773301"><ele>187.0</ele><time>2026-04-04T15:24:10.031Z</time></trkpt><trkpt lat="45.0387689" lon="8.1772231"><ele>187.0</ele><time>2026-04-04T15:24:12.029Z</time></trkpt><trkpt lat="45.0387121" lon="8.1771762"><ele>187.0</ele><time>2026-04-04T15:24:13.029Z</time></trkpt><trkpt lat="45.0386536" lon="8.1771283"><ele>187.0</ele><time>2026-04-04T15:24:14.03Z</time></trkpt><trkpt lat="45.0385888" lon="8.1770835"><ele>187.0</ele><time>2026-04-04T15:24:15.03Z</time></trkpt><trkpt lat="45.0385262" lon="8.1770372"><ele>187.0</ele><time>2026-04-04T15:24:16.029Z</time></trkpt><trkpt lat="45.038468" lon="8.1769796"><ele>187.0</ele><time>2026-04-04T15:24:17.029Z</time></trkpt><trkpt lat="45.03841" lon="8.1769121"><ele>187.0</ele><time>2026-04-04T15:24:18.03Z</time></trkpt><trkpt lat="45.0383531" lon="8.1768359"><ele>187.0</ele><time>2026-04-04T15:24:19.029Z</time></trkpt><trkpt lat="45.0383006" lon="8.1767484"><ele>187.0</ele><time>2026-04-04T15:24:20.03Z</time></trkpt><trkpt lat="45.0382476" lon="8.1766574"><ele>187.0</ele><time>2026-04-04T15:24:21.03Z</time></trkpt><trkpt lat="45.0382001" lon="8.1765606"><ele>187.0</ele><time>2026-04-04T15:24:22.029Z</time></trkpt><trkpt lat="45.0381567" lon="8.1764625"><ele>187.33333333333334</ele><time>2026-04-04T15:24:23.032Z</time></trkpt><trkpt lat="45.0381181" lon="8.1763619"><ele>187.66666666666669</ele><time>2026-04-04T15:24:24.03Z</time></trkpt><trkpt lat="45.0380835" lon="8.1762528"><ele>188.0</ele><time>2026-04-04T15:24:25.029Z</time></trkpt><trkpt lat="45.0380522" lon="8.1761458"><ele>188.33333333333334</ele><time>2026-04-04T15:24:26.031Z</time></trkpt><trkpt lat="45.0380254" lon="8.1760433"><ele>188.66666666666666</ele><time>2026-04-04T15:24:27.031Z</time></trkpt><trkpt lat="45.0379967" lon="8.1759488"><ele>189.0</ele><time>2026-04-04T15:24:28.03Z</time></trkpt><trkpt lat="45.0379667" lon="8.1758653"><ele>189.0</ele><time>2026-04-04T15:24:29.029Z</time></trkpt><trkpt lat="45.0379311" lon="8.1757884"><ele>189.0</ele><time>2026-04-04T15:24:30.03Z</time></trkpt><trkpt lat="45.037893" lon="8.1757165"><ele>189.0</ele><time>2026-04-04T15:24:31.03Z</time></trkpt><trkpt lat="45.0378456" lon="8.1756485"><ele>189.0</ele><time>2026-04-04T15:24:32.031Z</time></trkpt><trkpt lat="45.0377724" lon="8.1755829"><ele>189.0</ele><time>2026-04-04T15:24:33.03Z</time></trkpt><trkpt lat="45.0376835" lon="8.1755218"><ele>189.0</ele><time>2026-04-04T15:24:34.029Z</time></trkpt><trkpt lat="45.0375958" lon="8.1754616"><ele>188.0</ele><time>2026-04-04T15:24:35.03Z</time></trkpt><trkpt lat="45.0375074" lon="8.1754032"><ele>187.0</ele><time>2026-04-04T15:24:36.03Z</time></trkpt><trkpt lat="45.0374192" lon="8.1753424"><ele>186.0</ele><time>2026-04-04T15:24:37.029Z</time></trkpt><trkpt lat="45.0373302" lon="8.1752693"><ele>185.0</ele><time>2026-04-04T15:24:38.03Z</time></trkpt><trkpt lat="45.0372463" lon="8.1751988"><ele>184.0</ele><time>2026-04-04T15:24:39.031Z</time></trkpt><trkpt lat="45.0371641" lon="8.1751249"><ele>184.0</ele><time>2026-04-04T15:24:40.03Z</time></trkpt><trkpt lat="45.0370838" lon="8.175054"><ele>184.0</ele><time>2026-04-04T15:24:41.03Z</time></trkpt><trkpt lat="45.0370038" lon="8.1749899"><ele>184.0</ele><time>2026-04-04T15:24:42.03Z</time></trkpt><trkpt lat="45.0369251" lon="8.174925"><ele>184.0</ele><time>2026-04-04T15:24:43.029Z</time></trkpt><trkpt lat="45.0368466" lon="8.1748651"><ele>184.0</ele><time>2026-04-04T15:24:44.029Z</time></trkpt><trkpt lat="45.0367668" lon="8.1748096"><ele>183.5</ele><time>2026-04-04T15:24:45.03Z</time></trkpt><trkpt lat="45.0366868" lon="8.1747604"><ele>183.0</ele><time>2026-04-04T15:24:46.03Z</time></trkpt><trkpt lat="45.0366041" lon="8.1747129"><ele>182.5</ele><time>2026-04-04T15:24:47.03Z</time></trkpt><trkpt lat="45.0365221" lon="8.1746681"><ele>182.0</ele><time>2026-04-04T15:24:48.029Z</time></trkpt><trkpt lat="45.036443" lon="8.1746262"><ele>181.5</ele><time>2026-04-04T15:24:49.03Z</time></trkpt><trkpt lat="45.0363647" lon="8.1745825"><ele>181.0</ele><time>2026-04-04T15:24:50.032Z</time></trkpt><trkpt lat="45.0362865" lon="8.1745394"><ele>180.66666666666669</ele><time>2026-04-04T15:24:51.031Z</time></trkpt><trkpt lat="45.0362071" lon="8.1745003"><ele>180.33333333333334</ele><time>2026-04-04T15:24:52.031Z</time></trkpt><trkpt lat="45.0361313" lon="8.1744661"><ele>180.0</ele><time>2026-04-04T15:24:53.03Z</time></trkpt><trkpt lat="45.0360618" lon="8.1744334"><ele>179.66666666666666</ele><time>2026-04-04T15:24:54.027Z</time></trkpt><trkpt lat="45.0359937" lon="8.1743938"><ele>179.33333333333331</ele><time>2026-04-04T15:24:55.027Z</time></trkpt><trkpt lat="45.0359284" lon="8.1743439"><ele>179.0</ele><time>2026-04-04T15:24:56.028Z</time></trkpt><trkpt lat="45.035865" lon="8.1742838"><ele>179.0</ele><time>2026-04-04T15:24:57.027Z</time></trkpt><trkpt lat="45.0358058" lon="8.174206"><ele>179.0</ele><time>2026-04-04T15:24:58.027Z</time></trkpt><trkpt lat="45.0357391" lon="8.1741045"><ele>179.0</ele><time>2026-04-04T15:24:59.027Z</time></trkpt><trkpt lat="45.0356736" lon="8.1739921"><ele>179.0</ele><time>2026-04-04T15:25:00.028Z</time></trkpt><trkpt lat="45.0356109" lon="8.1738818"><ele>179.0</ele><time>2026-04-04T15:25:01.027Z</time></trkpt><trkpt lat="45.0355465" lon="8.1737732"><ele>178.0</ele><time>2026-04-04T15:25:02.029Z</time></trkpt><trkpt lat="45.035483" lon="8.1736666"><ele>177.0</ele><time>2026-04-04T15:25:03.027Z</time></trkpt><trkpt lat="45.0354183" lon="8.1735603"><ele>176.0</ele><time>2026-04-04T15:25:04.027Z</time></trkpt><trkpt lat="45.0353547" lon="8.173452"><ele>175.0</ele><time>2026-04-04T15:25:05.028Z</time></trkpt><trkpt lat="45.0352929" lon="8.1733518"><ele>174.0</ele><time>2026-04-04T15:25:06.028Z</time></trkpt><trkpt lat="45.0352354" lon="8.1732604"><ele>173.66666666666666</ele><time>2026-04-04T15:25:07.027Z</time></trkpt><trkpt lat="45.0351763" lon="8.1731776"><ele>173.33333333333334</ele><time>2026-04-04T15:25:08.028Z</time></trkpt><trkpt lat="45.0351164" lon="8.1730955"><ele>173.0</ele><time>2026-04-04T15:25:09.027Z</time></trkpt><trkpt lat="45.0350524" lon="8.1730127"><ele>172.66666666666669</ele><time>2026-04-04T15:25:10.028Z</time></trkpt><trkpt lat="45.0349833" lon="8.1729285"><ele>172.33333333333334</ele><time>2026-04-04T15:25:11.028Z</time></trkpt><trkpt lat="45.034909" lon="8.1728493"><ele>172.0</ele><time>2026-04-04T15:25:12.027Z</time></trkpt><trkpt lat="45.0348375" lon="8.1727725"><ele>172.0</ele><time>2026-04-04T15:25:13.029Z</time></trkpt><trkpt lat="45.0347712" lon="8.1727017"><ele>172.0</ele><time>2026-04-04T15:25:14.027Z</time></trkpt><trkpt lat="45.0347059" lon="8.1726363"><ele>172.0</ele><time>2026-04-04T15:25:15.028Z</time></trkpt><trkpt lat="45.0346397" lon="8.1725736"><ele>172.0</ele><time>2026-04-04T15:25:16.028Z</time></trkpt><trkpt lat="45.034572" lon="8.1725122"><ele>172.0</ele><time>2026-04-04T15:25:17.027Z</time></trkpt><trkpt lat="45.0345036" lon="8.1724509"><ele>172.0</ele><time>2026-04-04T15:25:18.027Z</time></trkpt><trkpt lat="45.0344338" lon="8.1723946"><ele>172.5</ele><time>2026-04-04T15:25:19.028Z</time></trkpt><trkpt lat="45.034365" lon="8.17234"><ele>173.0</ele><time>2026-04-04T15:25:20.028Z</time></trkpt><trkpt lat="45.0342966" lon="8.1722816"><ele>173.5</ele><time>2026-04-04T15:25:21.027Z</time></trkpt><trkpt lat="45.034223" lon="8.1722205"><ele>174.0</ele><time>2026-04-04T15:25:22.028Z</time></trkpt><trkpt lat="45.0341412" lon="8.1721547"><ele>174.5</ele><time>2026-04-04T15:25:23.028Z</time></trkpt><trkpt lat="45.0340549" lon="8.1720823"><ele>175.0</ele><time>2026-04-04T15:25:24.03Z</time></trkpt><trkpt lat="45.0339687" lon="8.1720084"><ele>175.0</ele><time>2026-04-04T15:25:25.028Z</time></trkpt><trkpt lat="45.0338815" lon="8.1719317"><ele>175.0</ele><time>2026-04-04T15:25:26.027Z</time></trkpt><trkpt lat="45.0337969" lon="8.1718493"><ele>175.0</ele><time>2026-04-04T15:25:27.027Z</time></trkpt><trkpt lat="45.0337133" lon="8.171773"><ele>175.0</ele><time>2026-04-04T15:25:28.027Z</time></trkpt><trkpt lat="45.0336325" lon="8.1717013"><ele>175.0</ele><time>2026-04-04T15:25:29.027Z</time></trkpt><trkpt lat="45.0335499" lon="8.1716287"><ele>175.0</ele><time>2026-04-04T15:25:30.027Z</time></trkpt><trkpt lat="45.0334654" lon="8.1715585"><ele>175.0</ele><time>2026-04-04T15:25:31.03Z</time></trkpt><trkpt lat="45.0333832" lon="8.1714959"><ele>175.0</ele><time>2026-04-04T15:25:32.029Z</time></trkpt><trkpt lat="45.0333003" lon="8.1714414"><ele>175.0</ele><time>2026-04-04T15:25:33.027Z</time></trkpt><trkpt lat="45.0332158" lon="8.171388"><ele>175.0</ele><time>2026-04-04T15:25:34.027Z</time></trkpt><trkpt lat="45.0331269" lon="8.1713354"><ele>175.6</ele><time>2026-04-04T15:25:35.028Z</time></trkpt><trkpt lat="45.0330354" lon="8.1712824"><ele>176.2</ele><time>2026-04-04T15:25:36.028Z</time></trkpt><trkpt lat="45.0329471" lon="8.171219"><ele>176.8</ele><time>2026-04-04T15:25:37.029Z</time></trkpt><trkpt lat="45.0328615" lon="8.1711566"><ele>177.4</ele><time>2026-04-04T15:25:38.028Z</time></trkpt><trkpt lat="45.0327778" lon="8.171091"><ele>178.0</ele><time>2026-04-04T15:25:39.029Z</time></trkpt><trkpt lat="45.0326948" lon="8.1710255"><ele>178.0</ele><time>2026-04-04T15:25:40.028Z</time></trkpt><trkpt lat="45.0326129" lon="8.1709574"><ele>178.0</ele><time>2026-04-04T15:25:41.027Z</time></trkpt><trkpt lat="45.0325335" lon="8.1708874"><ele>178.0</ele><time>2026-04-04T15:25:42.028Z</time></trkpt><trkpt lat="45.0324496" lon="8.1708113"><ele>178.0</ele><time>2026-04-04T15:25:43.027Z</time></trkpt><trkpt lat="45.032366" lon="8.170731"><ele>178.0</ele><time>2026-04-04T15:25:44.028Z</time></trkpt><trkpt lat="45.0322857" lon="8.1706503"><ele>176.5</ele><time>2026-04-04T15:25:45.028Z</time></trkpt><trkpt lat="45.0322114" lon="8.1705739"><ele>175.0</ele><time>2026-04-04T15:25:46.027Z</time></trkpt><trkpt lat="45.0321425" lon="8.1704989"><ele>173.5</ele><time>2026-04-04T15:25:47.027Z</time></trkpt><trkpt lat="45.032076" lon="8.1704289"><ele>172.0</ele><time>2026-04-04T15:25:48.028Z</time></trkpt><trkpt lat="45.0320116" lon="8.1703686"><ele>170.5</ele><time>2026-04-04T15:25:49.027Z</time></trkpt><trkpt lat="45.0319527" lon="8.1703107"><ele>169.0</ele><time>2026-04-04T15:25:50.028Z</time></trkpt><trkpt lat="45.031903" lon="8.1702516"><ele>169.0</ele><time>2026-04-04T15:25:51.028Z</time></trkpt><trkpt lat="45.0318641" lon="8.17018"><ele>169.0</ele><time>2026-04-04T15:25:52.027Z</time></trkpt><trkpt lat="45.0318217" lon="8.1700163"><ele>169.0</ele><time>2026-04-04T15:25:54.027Z</time></trkpt><trkpt lat="45.0318216" lon="8.1699235"><ele>169.0</ele><time>2026-04-04T15:25:55.027Z</time></trkpt><trkpt lat="45.0318586" lon="8.1698138"><ele>169.0</ele><time>2026-04-04T15:25:56.028Z</time></trkpt><trkpt lat="45.0319064" lon="8.169696"><ele>169.0</ele><time>2026-04-04T15:25:57.028Z</time></trkpt><trkpt lat="45.0319448" lon="8.1695849"><ele>168.83333333333334</ele><time>2026-04-04T15:25:58.028Z</time></trkpt><trkpt lat="45.0319762" lon="8.1694786"><ele>168.66666666666669</ele><time>2026-04-04T15:25:59.028Z</time></trkpt><trkpt lat="45.0320012" lon="8.169369"><ele>168.5</ele><time>2026-04-04T15:26:00.029Z</time></trkpt><trkpt lat="45.0320182" lon="8.1692653"><ele>168.33333333333334</ele><time>2026-04-04T15:26:01.028Z</time></trkpt><trkpt lat="45.0320293" lon="8.1691646"><ele>168.16666666666666</ele><time>2026-04-04T15:26:02.029Z</time></trkpt><trkpt lat="45.0320413" lon="8.1690662"><ele>168.0</ele><time>2026-04-04T15:26:03.029Z</time></trkpt><trkpt lat="45.0320667" lon="8.1689567"><ele>168.0</ele><time>2026-04-04T15:26:04.028Z</time></trkpt><trkpt lat="45.0320933" lon="8.1688283"><ele>168.0</ele><time>2026-04-04T15:26:05.029Z</time></trkpt><trkpt lat="45.0321183" lon="8.1686883"><ele>168.0</ele><time>2026-04-04T15:26:06.028Z</time></trkpt><trkpt lat="45.032135" lon="8.168555"><ele>168.0</ele><time>2026-04-04T15:26:07.029Z</time></trkpt><trkpt lat="45.0321433" lon="8.1684117"><ele>168.0</ele><time>2026-04-04T15:26:08.028Z</time></trkpt><trkpt lat="45.0321317" lon="8.1682683"><ele>168.33333333333334</ele><time>2026-04-04T15:26:09.028Z</time></trkpt><trkpt lat="45.0321217" lon="8.1681283"><ele>168.66666666666666</ele><time>2026-04-04T15:26:10.028Z</time></trkpt><trkpt lat="45.0321033" lon="8.16801"><ele>169.0</ele><time>2026-04-04T15:26:11.027Z</time></trkpt><trkpt lat="45.032085" lon="8.1679017"><ele>169.33333333333331</ele><time>2026-04-04T15:26:12.028Z</time></trkpt><trkpt lat="45.0320567" lon="8.1678067"><ele>169.66666666666666</ele><time>2026-04-04T15:26:13.028Z</time></trkpt><trkpt lat="45.0320183" lon="8.1677133"><ele>170.0</ele><time>2026-04-04T15:26:14.027Z</time></trkpt><trkpt lat="45.0319683" lon="8.1676267"><ele>170.0</ele><time>2026-04-04T15:26:15.029Z</time></trkpt><trkpt lat="45.0319" lon="8.1675567"><ele>170.0</ele><time>2026-04-04T15:26:16.027Z</time></trkpt><trkpt lat="45.0318317" lon="8.1674883"><ele>170.0</ele><time>2026-04-04T15:26:17.028Z</time></trkpt><trkpt lat="45.031765" lon="8.167415"><ele>170.0</ele><time>2026-04-04T15:26:18.029Z</time></trkpt><trkpt lat="45.0316983" lon="8.1673467"><ele>170.0</ele><time>2026-04-04T15:26:19.029Z</time></trkpt><trkpt lat="45.0316333" lon="8.1672767"><ele>170.0</ele><time>2026-04-04T15:26:20.028Z</time></trkpt><trkpt lat="45.0315683" lon="8.1672067"><ele>169.33333333333331</ele><time>2026-04-04T15:26:21.027Z</time></trkpt><trkpt lat="45.0315033" lon="8.1671367"><ele>168.66666666666666</ele><time>2026-04-04T15:26:22.029Z</time></trkpt><trkpt lat="45.0314383" lon="8.1670633"><ele>168.0</ele><time>2026-04-04T15:26:23.029Z</time></trkpt><trkpt lat="45.0313767" lon="8.1669833"><ele>167.33333333333334</ele><time>2026-04-04T15:26:24.028Z</time></trkpt><trkpt lat="45.0313233" lon="8.166905"><ele>166.66666666666669</ele><time>2026-04-04T15:26:25.027Z</time></trkpt><trkpt lat="45.03128" lon="8.1668267"><ele>166.0</ele><time>2026-04-04T15:26:26.028Z</time></trkpt><trkpt lat="45.0312433" lon="8.1667333"><ele>166.0</ele><time>2026-04-04T15:26:27.03Z</time></trkpt><trkpt lat="45.03121" lon="8.166625"><ele>166.0</ele><time>2026-04-04T15:26:28.027Z</time></trkpt><trkpt lat="45.03118" lon="8.1665117"><ele>166.0</ele><time>2026-04-04T15:26:29.028Z</time></trkpt><trkpt lat="45.03115" lon="8.166405"><ele>166.0</ele><time>2026-04-04T15:26:30.028Z</time></trkpt><trkpt lat="45.031115" lon="8.1663017"><ele>166.0</ele><time>2026-04-04T15:26:31.028Z</time></trkpt><trkpt lat="45.03108" lon="8.1662033"><ele>166.0</ele><time>2026-04-04T15:26:32.027Z</time></trkpt><trkpt lat="45.0310367" lon="8.1661033"><ele>166.33333333333334</ele><time>2026-04-04T15:26:33.027Z</time></trkpt><trkpt lat="45.030995" lon="8.1659967"><ele>166.66666666666669</ele><time>2026-04-04T15:26:34.028Z</time></trkpt><trkpt lat="45.03095" lon="8.1658967"><ele>167.0</ele><time>2026-04-04T15:26:35.028Z</time></trkpt><trkpt lat="45.030905" lon="8.1658"><ele>167.33333333333334</ele><time>2026-04-04T15:26:36.027Z</time></trkpt><trkpt lat="45.0308583" lon="8.1657183"><ele>167.66666666666666</ele><time>2026-04-04T15:26:37.028Z</time></trkpt><trkpt lat="45.030815" lon="8.16564"><ele>168.0</ele><time>2026-04-04T15:26:38.028Z</time></trkpt><trkpt lat="45.0307733" lon="8.1655567"><ele>167.42857142857142</ele><time>2026-04-04T15:26:39.027Z</time></trkpt><trkpt lat="45.03073" lon="8.165485"><ele>166.85714285714286</ele><time>2026-04-04T15:26:40.028Z</time></trkpt><trkpt lat="45.0306867" lon="8.1654133"><ele>166.28571428571428</ele><time>2026-04-04T15:26:41.027Z</time></trkpt><trkpt lat="45.03064" lon="8.16534"><ele>165.71428571428572</ele><time>2026-04-04T15:26:42.028Z</time></trkpt><trkpt lat="45.03059" lon="8.16526"><ele>165.14285714285714</ele><time>2026-04-04T15:26:43.027Z</time></trkpt><trkpt lat="45.0305383" lon="8.1651783"><ele>164.57142857142856</ele><time>2026-04-04T15:26:44.027Z</time></trkpt><trkpt lat="45.0304917" lon="8.165105"><ele>164.0</ele><time>2026-04-04T15:26:45.027Z</time></trkpt><trkpt lat="45.0304067" lon="8.1649767"><ele>163.99999999999997</ele><time>2026-04-04T15:26:47.029Z</time></trkpt><trkpt lat="45.0303567" lon="8.16492"><ele>164.0</ele><time>2026-04-04T15:26:48.028Z</time></trkpt><trkpt lat="45.0303" lon="8.1648667"><ele>164.0</ele><time>2026-04-04T15:26:49.028Z</time></trkpt><trkpt lat="45.030235" lon="8.1648417"><ele>164.0</ele><time>2026-04-04T15:26:50.028Z</time></trkpt><trkpt lat="45.0301667" lon="8.1648233"><ele>164.0</ele><time>2026-04-04T15:26:51.028Z</time></trkpt><trkpt lat="45.0300983" lon="8.164805"><ele>163.99999999999997</ele><time>2026-04-04T15:26:52.028Z</time></trkpt><trkpt lat="45.03003" lon="8.1648067"><ele>164.0</ele><time>2026-04-04T15:26:53.028Z</time></trkpt><trkpt lat="45.0299633" lon="8.1648133"><ele>163.6</ele><time>2026-04-04T15:26:54.027Z</time></trkpt><trkpt lat="45.02985" lon="8.16481"><ele>163.2</ele><time>2026-04-04T15:26:56.028Z</time></trkpt><trkpt lat="45.0297483" lon="8.1647683"><ele>162.79999999999998</ele><time>2026-04-04T15:26:58.029Z</time></trkpt><trkpt lat="45.0296833" lon="8.16462"><ele>162.39999999999998</ele><time>2026-04-04T15:27:00.029Z</time></trkpt><trkpt lat="45.0296617" lon="8.1645067"><ele>162.0</ele><time>2026-04-04T15:27:01.028Z</time></trkpt><trkpt lat="45.0296417" lon="8.16439"><ele>162.0</ele><time>2026-04-04T15:27:02.028Z</time></trkpt><trkpt lat="45.029615" lon="8.1642433"><ele>162.0</ele><time>2026-04-04T15:27:03.028Z</time></trkpt><trkpt lat="45.0295817" lon="8.1641083"><ele>162.0</ele><time>2026-04-04T15:27:04.029Z</time></trkpt><trkpt lat="45.0295433" lon="8.1639983"><ele>162.0</ele><time>2026-04-04T15:27:05.027Z</time></trkpt><trkpt lat="45.029495" lon="8.1638967"><ele>162.0</ele><time>2026-04-04T15:27:06.029Z</time></trkpt><trkpt lat="45.029445" lon="8.163795"><ele>162.16666666666666</ele><time>2026-04-04T15:27:07.029Z</time></trkpt><trkpt lat="45.029395" lon="8.1636967"><ele>162.33333333333334</ele><time>2026-04-04T15:27:08.028Z</time></trkpt><trkpt lat="45.0293417" lon="8.1635917"><ele>162.5</ele><time>2026-04-04T15:27:09.028Z</time></trkpt><trkpt lat="45.0292967" lon="8.1634883"><ele>162.66666666666669</ele><time>2026-04-04T15:27:10.03Z</time></trkpt><trkpt lat="45.02925" lon="8.1633867"><ele>162.83333333333334</ele><time>2026-04-04T15:27:11.028Z</time></trkpt><trkpt lat="45.0292067" lon="8.1632817"><ele>163.0</ele><time>2026-04-04T15:27:12.028Z</time></trkpt><trkpt lat="45.0291683" lon="8.163185"><ele>162.83333333333334</ele><time>2026-04-04T15:27:13.028Z</time></trkpt><trkpt lat="45.0291317" lon="8.16309"><ele>162.66666666666669</ele><time>2026-04-04T15:27:14.03Z</time></trkpt><trkpt lat="45.0291" lon="8.16299"><ele>162.5</ele><time>2026-04-04T15:27:15.03Z</time></trkpt><trkpt lat="45.02907" lon="8.16289"><ele>162.33333333333334</ele><time>2026-04-04T15:27:16.029Z</time></trkpt><trkpt lat="45.0290433" lon="8.1628017"><ele>162.16666666666666</ele><time>2026-04-04T15:27:17.029Z</time></trkpt><trkpt lat="45.0289983" lon="8.1626583"><ele>162.0</ele><time>2026-04-04T15:27:19.028Z</time></trkpt><trkpt lat="45.0289383" lon="8.1625833"><ele>162.0</ele><time>2026-04-04T15:27:21.029Z</time></trkpt><trkpt lat="45.0288583" lon="8.1626"><ele>162.0</ele><time>2026-04-04T15:27:25.028Z</time></trkpt><trkpt lat="45.0287867" lon="8.1625183"><ele>162.0</ele><time>2026-04-04T15:27:28.03Z</time></trkpt><trkpt lat="45.028745" lon="8.1624133"><ele>162.0</ele><time>2026-04-04T15:27:30.028Z</time></trkpt><trkpt lat="45.028705" lon="8.1623033"><ele>162.0</ele><time>2026-04-04T15:27:32.028Z</time></trkpt><trkpt lat="45.028655" lon="8.162195"><ele>162.0</ele><time>2026-04-04T15:27:34.029Z</time></trkpt><trkpt lat="45.0286067" lon="8.1620767"><ele>161.8</ele><time>2026-04-04T15:27:36.029Z</time></trkpt><trkpt lat="45.0285483" lon="8.161955"><ele>161.6</ele><time>2026-04-04T15:27:38.03Z</time></trkpt><trkpt lat="45.0284883" lon="8.1618383"><ele>161.4</ele><time>2026-04-04T15:27:40.029Z</time></trkpt><trkpt lat="45.0284217" lon="8.1617283"><ele>161.20000000000002</ele><time>2026-04-04T15:27:42.03Z</time></trkpt><trkpt lat="45.0283367" lon="8.16163"><ele>161.0</ele><time>2026-04-04T15:27:44.028Z</time></trkpt><trkpt lat="45.0282267" lon="8.1615667"><ele>160.66666666666666</ele><time>2026-04-04T15:27:46.031Z</time></trkpt><trkpt lat="45.0281133" lon="8.161565"><ele>160.33333333333331</ele><time>2026-04-04T15:27:48.03Z</time></trkpt><trkpt lat="45.0280433" lon="8.1615817"><ele>160.0</ele><time>2026-04-04T15:27:49.029Z</time></trkpt><trkpt lat="45.02797" lon="8.161615"><ele>159.66666666666666</ele><time>2026-04-04T15:27:50.028Z</time></trkpt><trkpt lat="45.0278967" lon="8.161645"><ele>159.33333333333334</ele><time>2026-04-04T15:27:51.03Z</time></trkpt><trkpt lat="45.0278267" lon="8.16167"><ele>159.0</ele><time>2026-04-04T15:27:52.027Z</time></trkpt><trkpt lat="45.0277583" lon="8.1617"><ele>159.0</ele><time>2026-04-04T15:27:53.028Z</time></trkpt><trkpt lat="45.02768" lon="8.1617283"><ele>159.0</ele><time>2026-04-04T15:27:54.028Z</time></trkpt><trkpt lat="45.027595" lon="8.1617483"><ele>159.0</ele><time>2026-04-04T15:27:55.028Z</time></trkpt><trkpt lat="45.027515" lon="8.1617633"><ele>159.0</ele><time>2026-04-04T15:27:56.028Z</time></trkpt><trkpt lat="45.02744" lon="8.1617817"><ele>159.0</ele><time>2026-04-04T15:27:57.028Z</time></trkpt><trkpt lat="45.0273633" lon="8.1617983"><ele>159.0</ele><time>2026-04-04T15:27:58.03Z</time></trkpt><trkpt lat="45.0272967" lon="8.16182"><ele>158.8</ele><time>2026-04-04T15:27:59.029Z</time></trkpt><trkpt lat="45.0271817" lon="8.1618517"><ele>158.60000000000002</ele><time>2026-04-04T15:28:01.028Z</time></trkpt><trkpt lat="45.0270833" lon="8.1618683"><ele>158.4</ele><time>2026-04-04T15:28:03.029Z</time></trkpt><trkpt lat="45.0270067" lon="8.1618633"><ele>158.20000000000002</ele><time>2026-04-04T15:28:05.029Z</time></trkpt><trkpt lat="45.02693" lon="8.1619233"><ele>158.0</ele><time>2026-04-04T15:28:08.028Z</time></trkpt><trkpt lat="45.0269083" lon="8.1620283"><ele>158.0</ele><time>2026-04-04T15:28:10.031Z</time></trkpt><trkpt lat="45.026905" lon="8.1621717"><ele>158.0</ele><time>2026-04-04T15:28:12.028Z</time></trkpt><trkpt lat="45.0268983" lon="8.1623467"><ele>158.0</ele><time>2026-04-04T15:28:14.029Z</time></trkpt><trkpt lat="45.02689" lon="8.16245"><ele>158.0</ele><time>2026-04-04T15:28:15.028Z</time></trkpt><trkpt lat="45.026885" lon="8.16256"><ele>158.0</ele><time>2026-04-04T15:28:16.029Z</time></trkpt><trkpt lat="45.02688" lon="8.162675"><ele>157.83333333333331</ele><time>2026-04-04T15:28:17.028Z</time></trkpt><trkpt lat="45.0268783" lon="8.16279"><ele>157.66666666666666</ele><time>2026-04-04T15:28:18.029Z</time></trkpt><trkpt lat="45.0268767" lon="8.1629083"><ele>157.5</ele><time>2026-04-04T15:28:19.028Z</time></trkpt><trkpt lat="45.0268733" lon="8.1630233"><ele>157.33333333333334</ele><time>2026-04-04T15:28:20.029Z</time></trkpt><trkpt lat="45.0268681" lon="8.1631339"><ele>157.16666666666669</ele><time>2026-04-04T15:28:21.028Z</time></trkpt><trkpt lat="45.0268664" lon="8.1632377"><ele>157.0</ele><time>2026-04-04T15:28:22.029Z</time></trkpt><trkpt lat="45.0268702" lon="8.16334"><ele>157.33333333333334</ele><time>2026-04-04T15:28:23.03Z</time></trkpt><trkpt lat="45.0268727" lon="8.1634415"><ele>157.66666666666669</ele><time>2026-04-04T15:28:24.029Z</time></trkpt><trkpt lat="45.0268751" lon="8.1635475"><ele>158.0</ele><time>2026-04-04T15:28:25.028Z</time></trkpt><trkpt lat="45.0268782" lon="8.163657"><ele>158.33333333333334</ele><time>2026-04-04T15:28:26.03Z</time></trkpt><trkpt lat="45.0268858" lon="8.1637727"><ele>158.66666666666666</ele><time>2026-04-04T15:28:27.03Z</time></trkpt><trkpt lat="45.0268987" lon="8.1638986"><ele>159.0</ele><time>2026-04-04T15:28:28.029Z</time></trkpt><trkpt lat="45.0269156" lon="8.1640379"><ele>160.0</ele><time>2026-04-04T15:28:29.029Z</time></trkpt><trkpt lat="45.0269321" lon="8.1641899"><ele>161.0</ele><time>2026-04-04T15:28:30.028Z</time></trkpt><trkpt lat="45.0269458" lon="8.1643522"><ele>162.0</ele><time>2026-04-04T15:28:31.029Z</time></trkpt><trkpt lat="45.0269537" lon="8.1645295"><ele>163.0</ele><time>2026-04-04T15:28:32.028Z</time></trkpt><trkpt lat="45.026952" lon="8.1647138"><ele>164.5</ele><time>2026-04-04T15:28:33.029Z</time></trkpt><trkpt lat="45.026941" lon="8.164897"><ele>166.0</ele><time>2026-04-04T15:28:34.028Z</time></trkpt><trkpt lat="45.0269272" lon="8.1650765"><ele>167.5</ele><time>2026-04-04T15:28:35.029Z</time></trkpt><trkpt lat="45.0269173" lon="8.1652656"><ele>169.0</ele><time>2026-04-04T15:28:36.029Z</time></trkpt><trkpt lat="45.0269075" lon="8.1654659"><ele>169.0</ele><time>2026-04-04T15:28:37.028Z</time></trkpt><trkpt lat="45.0268939" lon="8.1656625"><ele>169.0</ele><time>2026-04-04T15:28:38.029Z</time></trkpt><trkpt lat="45.0268833" lon="8.1658523"><ele>169.0</ele><time>2026-04-04T15:28:39.028Z</time></trkpt><trkpt lat="45.0268776" lon="8.1660442"><ele>169.0</ele><time>2026-04-04T15:28:40.028Z</time></trkpt><trkpt lat="45.0268844" lon="8.1662357"><ele>171.0</ele><time>2026-04-04T15:28:41.029Z</time></trkpt><trkpt lat="45.0269005" lon="8.1664233"><ele>173.0</ele><time>2026-04-04T15:28:42.028Z</time></trkpt><trkpt lat="45.026918" lon="8.1666076"><ele>175.0</ele><time>2026-04-04T15:28:43.03Z</time></trkpt><trkpt lat="45.0269293" lon="8.1667933"><ele>177.0</ele><time>2026-04-04T15:28:44.028Z</time></trkpt><trkpt lat="45.0269366" lon="8.166981"><ele>178.75</ele><time>2026-04-04T15:28:45.028Z</time></trkpt><trkpt lat="45.0269367" lon="8.1671705"><ele>180.5</ele><time>2026-04-04T15:28:46.028Z</time></trkpt><trkpt lat="45.0269263" lon="8.1673604"><ele>182.25</ele><time>2026-04-04T15:28:47.029Z</time></trkpt><trkpt lat="45.0269124" lon="8.1675504"><ele>184.0</ele><time>2026-04-04T15:28:48.028Z</time></trkpt><trkpt lat="45.0268959" lon="8.1677415"><ele>185.75</ele><time>2026-04-04T15:28:49.028Z</time></trkpt><trkpt lat="45.0268854" lon="8.1679307"><ele>187.5</ele><time>2026-04-04T15:28:50.029Z</time></trkpt><trkpt lat="45.026888" lon="8.168115"><ele>189.25</ele><time>2026-04-04T15:28:51.029Z</time></trkpt><trkpt lat="45.0268911" lon="8.1682935"><ele>191.0</ele><time>2026-04-04T15:28:52.028Z</time></trkpt><trkpt lat="45.0268928" lon="8.1684642"><ele>193.0</ele><time>2026-04-04T15:28:53.029Z</time></trkpt><trkpt lat="45.0268883" lon="8.1686317"><ele>195.0</ele><time>2026-04-04T15:28:54.029Z</time></trkpt><trkpt lat="45.0268833" lon="8.1688083"><ele>197.0</ele><time>2026-04-04T15:28:55.028Z</time></trkpt><trkpt lat="45.026865" lon="8.1689967"><ele>199.0</ele><time>2026-04-04T15:28:56.028Z</time></trkpt><trkpt lat="45.0268367" lon="8.1691883"><ele>200.25</ele><time>2026-04-04T15:28:57.027Z</time></trkpt><trkpt lat="45.0268083" lon="8.169375"><ele>201.5</ele><time>2026-04-04T15:28:58.027Z</time></trkpt><trkpt lat="45.026795" lon="8.169555"><ele>202.75</ele><time>2026-04-04T15:28:59.026Z</time></trkpt><trkpt lat="45.0267817" lon="8.1697317"><ele>204.0</ele><time>2026-04-04T15:29:00.027Z</time></trkpt><trkpt lat="45.0267883" lon="8.1699083"><ele>204.5</ele><time>2026-04-04T15:29:01.031Z</time></trkpt><trkpt lat="45.02681" lon="8.1700783"><ele>205.0</ele><time>2026-04-04T15:29:02.028Z</time></trkpt><trkpt lat="45.0268383" lon="8.1702517"><ele>205.5</ele><time>2026-04-04T15:29:03.028Z</time></trkpt><trkpt lat="45.0268817" lon="8.1704283"><ele>206.0</ele><time>2026-04-04T15:29:04.026Z</time></trkpt><trkpt lat="45.026935" lon="8.1706033"><ele>207.5</ele><time>2026-04-04T15:29:05.028Z</time></trkpt><trkpt lat="45.026995" lon="8.1707733"><ele>209.0</ele><time>2026-04-04T15:29:06.026Z</time></trkpt><trkpt lat="45.0270617" lon="8.1709467"><ele>210.5</ele><time>2026-04-04T15:29:07.027Z</time></trkpt><trkpt lat="45.0271317" lon="8.17112"><ele>212.0</ele><time>2026-04-04T15:29:08.027Z</time></trkpt><trkpt lat="45.0272" lon="8.1712983"><ele>212.0</ele><time>2026-04-04T15:29:09.028Z</time></trkpt><trkpt lat="45.02727" lon="8.17148"><ele>212.0</ele><time>2026-04-04T15:29:10.027Z</time></trkpt><trkpt lat="45.0273367" lon="8.1716633"><ele>212.0</ele><time>2026-04-04T15:29:11.026Z</time></trkpt><trkpt lat="45.0273967" lon="8.171845"><ele>212.0</ele><time>2026-04-04T15:29:12.028Z</time></trkpt><trkpt lat="45.0274567" lon="8.1720267"><ele>212.5</ele><time>2026-04-04T15:29:13.031Z</time></trkpt><trkpt lat="45.0275167" lon="8.172215"><ele>213.0</ele><time>2026-04-04T15:29:14.028Z</time></trkpt><trkpt lat="45.0275683" lon="8.17241"><ele>213.5</ele><time>2026-04-04T15:29:15.027Z</time></trkpt><trkpt lat="45.027615" lon="8.1726083"><ele>214.0</ele><time>2026-04-04T15:29:16.028Z</time></trkpt><trkpt lat="45.0276467" lon="8.1728067"><ele>214.0</ele><time>2026-04-04T15:29:17.027Z</time></trkpt><trkpt lat="45.0276683" lon="8.1730033"><ele>214.0</ele><time>2026-04-04T15:29:18.027Z</time></trkpt><trkpt lat="45.0276833" lon="8.173195"><ele>214.0</ele><time>2026-04-04T15:29:19.028Z</time></trkpt><trkpt lat="45.0277" lon="8.1733867"><ele>214.0</ele><time>2026-04-04T15:29:20.027Z</time></trkpt><trkpt lat="45.0277217" lon="8.1735783"><ele>213.75</ele><time>2026-04-04T15:29:21.028Z</time></trkpt><trkpt lat="45.0277417" lon="8.1737717"><ele>213.5</ele><time>2026-04-04T15:29:22.027Z</time></trkpt><trkpt lat="45.0277617" lon="8.1739683"><ele>213.25</ele><time>2026-04-04T15:29:23.027Z</time></trkpt><trkpt lat="45.0277783" lon="8.1741717"><ele>213.0</ele><time>2026-04-04T15:29:24.028Z</time></trkpt><trkpt lat="45.0277967" lon="8.17438"><ele>213.0</ele><time>2026-04-04T15:29:25.027Z</time></trkpt><trkpt lat="45.0278083" lon="8.1746017"><ele>213.0</ele><time>2026-04-04T15:29:26.027Z</time></trkpt><trkpt lat="45.0278167" lon="8.1748333"><ele>213.0</ele><time>2026-04-04T15:29:27.03Z</time></trkpt><trkpt lat="45.02782" lon="8.17506"><ele>212.75</ele><time>2026-04-04T15:29:28.027Z</time></trkpt><trkpt lat="45.027815" lon="8.1752717"><ele>212.5</ele><time>2026-04-04T15:29:29.028Z</time></trkpt><trkpt lat="45.027805" lon="8.1754767"><ele>212.25</ele><time>2026-04-04T15:29:30.028Z</time></trkpt><trkpt lat="45.0277867" lon="8.1756767"><ele>212.0</ele><time>2026-04-04T15:29:31.028Z</time></trkpt><trkpt lat="45.02777" lon="8.175875"><ele>213.5</ele><time>2026-04-04T15:29:32.029Z</time></trkpt><trkpt lat="45.0277533" lon="8.17607"><ele>215.0</ele><time>2026-04-04T15:29:33.028Z</time></trkpt><trkpt lat="45.0277383" lon="8.17626"><ele>216.5</ele><time>2026-04-04T15:29:34.027Z</time></trkpt><trkpt lat="45.0277267" lon="8.1764467"><ele>218.0</ele><time>2026-04-04T15:29:35.027Z</time></trkpt><trkpt lat="45.0277183" lon="8.17663"><ele>219.75</ele><time>2026-04-04T15:29:36.028Z</time></trkpt><trkpt lat="45.027705" lon="8.1768133"><ele>221.5</ele><time>2026-04-04T15:29:37.028Z</time></trkpt><trkpt lat="45.0277" lon="8.17699"><ele>223.25</ele><time>2026-04-04T15:29:38.027Z</time></trkpt><trkpt lat="45.027705" lon="8.1771517"><ele>225.0</ele><time>2026-04-04T15:29:39.028Z</time></trkpt><trkpt lat="45.027715" lon="8.1773033"><ele>225.25</ele><time>2026-04-04T15:29:40.027Z</time></trkpt><trkpt lat="45.0277333" lon="8.1774467"><ele>225.5</ele><time>2026-04-04T15:29:41.027Z</time></trkpt><trkpt lat="45.0277617" lon="8.1775933"><ele>225.75</ele><time>2026-04-04T15:29:42.027Z</time></trkpt><trkpt lat="45.0278117" lon="8.17774"><ele>226.0</ele><time>2026-04-04T15:29:43.028Z</time></trkpt><trkpt lat="45.0278783" lon="8.177895"><ele>226.0</ele><time>2026-04-04T15:29:44.028Z</time></trkpt><trkpt lat="45.027965" lon="8.1780617"><ele>226.0</ele><time>2026-04-04T15:29:45.027Z</time></trkpt><trkpt lat="45.028065" lon="8.17823"><ele>226.0</ele><time>2026-04-04T15:29:46.028Z</time></trkpt><trkpt lat="45.0281683" lon="8.178405"><ele>226.66666666666666</ele><time>2026-04-04T15:29:47.027Z</time></trkpt><trkpt lat="45.0282717" lon="8.1785733"><ele>227.33333333333331</ele><time>2026-04-04T15:29:48.027Z</time></trkpt><trkpt lat="45.028375" lon="8.1787417"><ele>228.0</ele><time>2026-04-04T15:29:49.027Z</time></trkpt><trkpt lat="45.0284733" lon="8.17891"><ele>225.75</ele><time>2026-04-04T15:29:50.027Z</time></trkpt><trkpt lat="45.0285617" lon="8.179075"><ele>223.5</ele><time>2026-04-04T15:29:51.028Z</time></trkpt><trkpt lat="45.02864" lon="8.17923"><ele>221.25</ele><time>2026-04-04T15:29:52.027Z</time></trkpt><trkpt lat="45.028715" lon="8.1793767"><ele>219.0</ele><time>2026-04-04T15:29:53.027Z</time></trkpt><trkpt lat="45.02879" lon="8.17951"><ele>219.0</ele><time>2026-04-04T15:29:54.027Z</time></trkpt><trkpt lat="45.0288717" lon="8.1796367"><ele>219.0</ele><time>2026-04-04T15:29:55.027Z</time></trkpt><trkpt lat="45.0289533" lon="8.179745"><ele>219.0</ele><time>2026-04-04T15:29:56.028Z</time></trkpt><trkpt lat="45.0290333" lon="8.1798567"><ele>219.0</ele><time>2026-04-04T15:29:57.028Z</time></trkpt><trkpt lat="45.0291133" lon="8.1799733"><ele>219.0</ele><time>2026-04-04T15:29:58.028Z</time></trkpt><trkpt lat="45.0291883" lon="8.1801"><ele>219.0</ele><time>2026-04-04T15:29:59.027Z</time></trkpt><trkpt lat="45.02926" lon="8.180235"><ele>219.0</ele><time>2026-04-04T15:30:00.031Z</time></trkpt><trkpt lat="45.0293217" lon="8.1803817"><ele>219.0</ele><time>2026-04-04T15:30:01.028Z</time></trkpt><trkpt lat="45.0293633" lon="8.1805383"><ele>216.75</ele><time>2026-04-04T15:30:02.028Z</time></trkpt><trkpt lat="45.029385" lon="8.1806983"><ele>214.5</ele><time>2026-04-04T15:30:03.027Z</time></trkpt><trkpt lat="45.0293817" lon="8.180865"><ele>212.25</ele><time>2026-04-04T15:30:04.027Z</time></trkpt><trkpt lat="45.0293567" lon="8.1810483"><ele>210.0</ele><time>2026-04-04T15:30:05.027Z</time></trkpt><trkpt lat="45.02932" lon="8.181235"><ele>210.0</ele><time>2026-04-04T15:30:06.027Z</time></trkpt><trkpt lat="45.0292683" lon="8.181425"><ele>210.0</ele><time>2026-04-04T15:30:07.027Z</time></trkpt><trkpt lat="45.0292117" lon="8.181605"><ele>210.0</ele><time>2026-04-04T15:30:08.028Z</time></trkpt><trkpt lat="45.0291367" lon="8.1817717"><ele>210.0</ele><time>2026-04-04T15:30:09.031Z</time></trkpt><trkpt lat="45.029055" lon="8.1819283"><ele>209.75</ele><time>2026-04-04T15:30:10.027Z</time></trkpt><trkpt lat="45.0289683" lon="8.1820917"><ele>209.5</ele><time>2026-04-04T15:30:11.028Z</time></trkpt><trkpt lat="45.0288833" lon="8.182265"><ele>209.25</ele><time>2026-04-04T15:30:12.028Z</time></trkpt><trkpt lat="45.0287983" lon="8.1824483"><ele>209.0</ele><time>2026-04-04T15:30:13.027Z</time></trkpt><trkpt lat="45.0287133" lon="8.18262"><ele>209.0</ele><time>2026-04-04T15:30:14.028Z</time></trkpt><trkpt lat="45.0286283" lon="8.182785"><ele>209.0</ele><time>2026-04-04T15:30:15.028Z</time></trkpt><trkpt lat="45.0285583" lon="8.1829183"><ele>209.0</ele><time>2026-04-04T15:30:16.028Z</time></trkpt><trkpt lat="45.02849" lon="8.18304"><ele>209.0</ele><time>2026-04-04T15:30:17.027Z</time></trkpt><trkpt lat="45.02842" lon="8.1831467"><ele>210.6</ele><time>2026-04-04T15:30:18.027Z</time></trkpt><trkpt lat="45.0283433" lon="8.1832433"><ele>212.2</ele><time>2026-04-04T15:30:19.027Z</time></trkpt><trkpt lat="45.028265" lon="8.183335"><ele>213.79999999999998</ele><time>2026-04-04T15:30:20.03Z</time></trkpt><trkpt lat="45.0281833" lon="8.18342"><ele>215.39999999999998</ele><time>2026-04-04T15:30:21.027Z</time></trkpt><trkpt lat="45.0280967" lon="8.183515"><ele>217.0</ele><time>2026-04-04T15:30:22.027Z</time></trkpt><trkpt lat="45.02801" lon="8.1836217"><ele>217.0</ele><time>2026-04-04T15:30:23.029Z</time></trkpt><trkpt lat="45.0279233" lon="8.183745"><ele>217.0</ele><time>2026-04-04T15:30:24.027Z</time></trkpt><trkpt lat="45.027835" lon="8.1838717"><ele>217.0</ele><time>2026-04-04T15:30:25.028Z</time></trkpt><trkpt lat="45.027745" lon="8.1840033"><ele>217.0</ele><time>2026-04-04T15:30:26.028Z</time></trkpt><trkpt lat="45.0276483" lon="8.1841517"><ele>217.5</ele><time>2026-04-04T15:30:27.028Z</time></trkpt><trkpt lat="45.0275517" lon="8.1843"><ele>218.0</ele><time>2026-04-04T15:30:28.029Z</time></trkpt><trkpt lat="45.027455" lon="8.184445"><ele>218.5</ele><time>2026-04-04T15:30:29.029Z</time></trkpt><trkpt lat="45.0273583" lon="8.1845833"><ele>219.0</ele><time>2026-04-04T15:30:30.029Z</time></trkpt><trkpt lat="45.0272667" lon="8.1847233"><ele>220.75</ele><time>2026-04-04T15:30:31.028Z</time></trkpt><trkpt lat="45.0271817" lon="8.1848683"><ele>222.5</ele><time>2026-04-04T15:30:32.027Z</time></trkpt><trkpt lat="45.02711" lon="8.1850217"><ele>224.25</ele><time>2026-04-04T15:30:33.028Z</time></trkpt><trkpt lat="45.0270517" lon="8.1851917"><ele>226.0</ele><time>2026-04-04T15:30:34.027Z</time></trkpt><trkpt lat="45.0270033" lon="8.1853733"><ele>226.0</ele><time>2026-04-04T15:30:35.029Z</time></trkpt><trkpt lat="45.0269567" lon="8.1855517"><ele>226.00000000000003</ele><time>2026-04-04T15:30:36.027Z</time></trkpt><trkpt lat="45.0269183" lon="8.185705"><ele>226.00000000000003</ele><time>2026-04-04T15:30:37.028Z</time></trkpt><trkpt lat="45.0268917" lon="8.185825"><ele>226.0</ele><time>2026-04-04T15:30:38.027Z</time></trkpt><trkpt lat="45.0268667" lon="8.1859383"><ele>226.0</ele><time>2026-04-04T15:30:39.027Z</time></trkpt><trkpt lat="45.0268417" lon="8.1860433"><ele>227.49999999999997</ele><time>2026-04-04T15:30:40.027Z</time></trkpt><trkpt lat="45.0268167" lon="8.1861317"><ele>229.0</ele><time>2026-04-04T15:30:41.027Z</time></trkpt><trkpt lat="45.0267767" lon="8.18625"><ele>230.5</ele><time>2026-04-04T15:30:43.027Z</time></trkpt><trkpt lat="45.026695" lon="8.1862533"><ele>232.0</ele><time>2026-04-04T15:30:45.029Z</time></trkpt><trkpt lat="45.0266267" lon="8.1862317"><ele>233.49999999999997</ele><time>2026-04-04T15:30:46.027Z</time></trkpt><trkpt lat="45.02655" lon="8.186215"><ele>235.0</ele><time>2026-04-04T15:30:47.028Z</time></trkpt><trkpt lat="45.0264633" lon="8.1861933"><ele>235.33333333333331</ele><time>2026-04-04T15:30:48.027Z</time></trkpt><trkpt lat="45.0263717" lon="8.18617"><ele>235.66666666666666</ele><time>2026-04-04T15:30:49.027Z</time></trkpt><trkpt lat="45.0262817" lon="8.1861583"><ele>236.0</ele><time>2026-04-04T15:30:50.028Z</time></trkpt><trkpt lat="45.0261933" lon="8.1861533"><ele>236.33333333333331</ele><time>2026-04-04T15:30:51.028Z</time></trkpt><trkpt lat="45.0261083" lon="8.1861517"><ele>236.66666666666666</ele><time>2026-04-04T15:30:52.028Z</time></trkpt><trkpt lat="45.026025" lon="8.1861483"><ele>237.0</ele><time>2026-04-04T15:30:53.027Z</time></trkpt><trkpt lat="45.0259483" lon="8.1861467"><ele>237.0</ele><time>2026-04-04T15:30:54.027Z</time></trkpt><trkpt lat="45.02587" lon="8.186145"><ele>237.0</ele><time>2026-04-04T15:30:55.028Z</time></trkpt><trkpt lat="45.0257917" lon="8.1861333"><ele>237.0</ele><time>2026-04-04T15:30:56.027Z</time></trkpt><trkpt lat="45.025715" lon="8.1861067"><ele>237.0</ele><time>2026-04-04T15:30:57.029Z</time></trkpt><trkpt lat="45.0256367" lon="8.1860983"><ele>237.0</ele><time>2026-04-04T15:30:58.028Z</time></trkpt><trkpt lat="45.025565" lon="8.186085"><ele>237.0</ele><time>2026-04-04T15:30:59.028Z</time></trkpt><trkpt lat="45.0255017" lon="8.1860783"><ele>237.0</ele><time>2026-04-04T15:31:00.027Z</time></trkpt><trkpt lat="45.0253817" lon="8.186015"><ele>237.0</ele><time>2026-04-04T15:31:02.03Z</time></trkpt><trkpt lat="45.02531" lon="8.1860217"><ele>237.0</ele><time>2026-04-04T15:31:03.028Z</time></trkpt><trkpt lat="45.0252383" lon="8.1860183"><ele>237.0</ele><time>2026-04-04T15:31:04.029Z</time></trkpt><trkpt lat="45.02517" lon="8.18602"><ele>237.0</ele><time>2026-04-04T15:31:05.027Z</time></trkpt><trkpt lat="45.0250983" lon="8.186025"><ele>237.0</ele><time>2026-04-04T15:31:06.028Z</time></trkpt><trkpt lat="45.0249817" lon="8.1860233"><ele>237.0</ele><time>2026-04-04T15:31:08.029Z</time></trkpt><trkpt lat="45.0248567" lon="8.1860283"><ele>232.0</ele><time>2026-04-04T15:31:10.028Z</time></trkpt><trkpt lat="45.02474" lon="8.1860517"><ele>232.0</ele><time>2026-04-04T15:31:12.027Z</time></trkpt><trkpt lat="45.024665" lon="8.186055"><ele>232.0</ele><time>2026-04-04T15:31:14.029Z</time></trkpt></trkseg></trk></gpx>